GFSGL_prec_precacc_024.txt.gz
Total_Precipitation_Accumulation
0.00 0.00 0.00 0.00 0.00 0.00 0.00 0.00 0.00 0.00 0.01 0.05 0.09 0.08 0.06 0.06 0.05 0.04 0.02 0.01 0.01 0.00 0.00 0.00 0.00 0.00 0.00 0.00 0.01 0.01 0.01 0.01 0.01 0.00 0.00 0.00 0.00 0.01 0.03 0.10 0.22 0.41 0.52
0.00 0.00 0.00 0.00 0.00 0.00 0.00 0.00 0.00 0.00 0.00 0.00 0.02 0.06 0.08 0.04 0.02 0.01 0.00 0.00 0.00 0.00 0.00 0.00 0.00 0.00 0.00 0.00 0.01 0.01 0.01 0.01 0.02 0.00 0.00 0.00 0.00 0.00 0.00 0.02 0.10 0.24 0.42
0.00 0.00 0.00 0.00 0.00 0.00 0.00 0.00 0.00 0.00 0.01 0.03 0.07 0.04 0.01 0.00 0.00 0.00 0.00 0.00 0.00 0.00 0.00 0.00 0.00 0.00 0.00 0.00 0.00 0.01 0.01 0.01 0.01 0.01 0.00 0.00 0.00 0.00 0.00 0.01 0.03 0.07 0.16
0.00 0.00 0.00 0.00 0.00 0.00 0.00 0.00 0.01 0.01 0.03 0.03 0.02 0.00 0.00 0.00 0.00 0.00 0.00 0.00 0.00 0.00 0.00 0.00 0.00 0.00 0.00 0.00 0.00 0.00 0.01 0.02 0.02 0.02 0.00 0.00 0.00 0.00 0.01 0.02 0.03 0.05 0.05
0.00 0.00 0.00 0.00 0.01 0.02 0.04 0.03 0.05 0.04 0.03 0.02 0.01 0.00 0.00 0.00 0.00 0.00 0.00 0.00 0.00 0.00 0.00 0.00 0.00 0.00 0.00 0.00 0.00 0.00 0.01 0.02 0.02 0.04 0.03 0.02 0.01 0.01 0.02 0.03 0.03 0.04 0.06
0.00 0.00 0.03 0.07 0.15 0.20 0.17 0.10 0.03 0.02 0.01 0.00 0.00 0.00 0.00 0.00 0.00 0.00 0.00 0.00 0.00 0.00 0.01 0.00 0.00 0.00 0.00 0.00 0.00 0.00 0.00 0.03 0.05 0.06 0.06 0.04 0.02 0.01 0.02 0.05 0.06 0.05 0.06
0.01 0.03 0.07 0.11 0.14 0.08 0.01 0.00 0.00 0.00 0.00 0.00 0.00 0.00 0.00 0.00 0.00 0.00 0.00 0.00 0.01 0.01 0.01 0.01 0.01 0.00 0.00 0.01 0.01 0.01 0.01 0.01 0.02 0.04 0.07 0.05 0.03 0.02 0.04 0.09 0.08 0.07 0.05
0.01 0.02 0.02 0.00 0.00 0.00 0.00 0.00 0.00 0.00 0.00 0.00 0.00 0.00 0.00 0.00 0.00 0.00 0.00 0.01 0.01 0.01 0.01 0.01 0.01 0.01 0.01 0.01 0.03 0.07 0.05 0.03 0.01 0.01 0.02 0.02 0.01 0.01 0.03 0.06 0.09 0.09 0.07
0.01 0.00 0.00 0.00 0.00 0.00 0.00 0.00 0.00 0.00 0.00 0.00 0.00 0.00 0.00 0.00 0.00 0.00 0.00 0.04 0.05 0.02 0.01 0.01 0.02 0.04 0.02 0.02 0.15 0.28 0.13 0.05 0.03 0.03 0.03 0.01 0.01 0.01 0.02 0.15 0.21 0.22 0.16
0.00 0.00 0.00 0.00 0.00 0.00 0.00 0.00 0.00 0.00 0.00 0.00 0.00 0.00 0.00 0.00 0.00 0.00 0.02 0.13 0.18 0.08 0.04 0.03 0.02 0.02 0.03 0.05 0.26 0.32 0.27 0.06 0.02 0.05 0.05 0.03 0.02 0.03 0.03 0.19 0.28 0.25 0.18
0.00 0.00 0.00 0.00 0.00 0.00 0.00 0.00 0.00 0.00 0.00 0.00 0.01 0.01 0.00 0.00 0.01 0.02 0.04 0.14 0.19 0.18 0.08 0.04 0.05 0.07 0.12 0.14 0.16 0.28 0.18 0.05 0.06 0.08 0.10 0.09 0.05 0.03 0.02 0.03 0.12 0.27 0.26
0.00 0.00 0.00 0.00 0.00 0.00 0.00 0.00 0.00 0.00 0.00 0.01 0.01 0.01 0.01 0.01 0.02 0.03 0.03 0.06 0.09 0.32 0.18 0.12 0.12 0.10 0.12 0.12 0.13 0.16 0.12 0.15 0.22 0.23 0.19 0.13 0.12 0.05 0.02 0.02 0.03 0.07 0.11
0.00 0.00 0.00 0.00 0.00 0.00 0.00 0.00 0.00 0.00 0.00 0.01 0.02 0.02 0.02 0.02 0.01 0.01 0.02 0.04 0.07 0.21 0.19 0.16 0.10 0.05 0.04 0.05 0.05 0.09 0.13 0.23 0.24 0.21 0.18 0.10 0.06 0.06 0.07 0.11 0.12 0.12 0.17
0.00 0.00 0.00 0.00 0.00 0.00 0.00 0.00 0.00 0.00 0.01 0.02 0.02 0.04 0.04 0.02 0.01 0.05 0.09 0.07 0.10 0.13 0.10 0.09 0.05 0.06 0.07 0.10 0.13 0.14 0.25 0.32 0.29 0.21 0.12 0.11 0.13 0.15 0.15 0.13 0.19 0.21 0.33
0.00 0.00 0.00 0.00 0.00 0.00 0.00 0.00 0.00 0.00 0.01 0.03 0.05 0.12 0.14 0.11 0.07 0.24 0.26 0.29 0.28 0.16 0.13 0.11 0.08 0.06 0.04 0.05 0.09 0.06 0.06 0.08 0.14 0.13 0.13 0.12 0.20 0.14 0.13 0.20 0.23 0.20 0.31
0.00 0.00 0.00 0.00 0.00 0.00 0.00 0.00 0.00 0.00 0.00 0.01 0.04 0.12 0.08 0.11 0.19 0.19 0.17 0.23 0.17 0.11 0.13 0.10 0.09 0.09 0.09 0.07 0.11 0.15 0.07 0.06 0.06 0.08 0.14 0.12 0.16 0.21 0.13 0.11 0.15 0.21 0.16
0.00 0.00 0.00 0.00 0.00 0.00 0.00 0.00 0.01 0.00 0.00 0.00 0.03 0.03 0.07 0.15 0.20 0.16 0.15 0.17 0.15 0.09 0.11 0.12 0.12 0.13 0.11 0.09 0.10 0.15 0.19 0.20 0.14 0.13 0.16 0.18 0.11 0.14 0.23 0.17 0.18 0.28 0.26
0.00 0.00 0.00 0.00 0.00 0.00 0.01 0.01 0.01 0.02 0.02 0.01 0.01 0.02 0.05 0.13 0.17 0.12 0.11 0.09 0.09 0.09 0.11 0.13 0.14 0.13 0.11 0.09 0.09 0.12 0.14 0.15 0.14 0.15 0.21 0.15 0.11 0.06 0.09 0.13 0.15 0.15 0.17
0.00 0.00 0.00 0.00 0.00 0.01 0.01 0.01 0.01 0.01 0.01 0.02 0.01 0.01 0.03 0.09 0.11 0.09 0.10 0.12 0.15 0.14 0.13 0.12 0.14 0.12 0.10 0.10 0.10 0.10 0.12 0.14 0.15 0.16 0.17 0.15 0.10 0.08 0.06 0.06 0.06 0.07 0.08
0.00 0.00 0.00 0.00 0.01 0.01 0.01 0.01 0.01 0.01 0.02 0.03 0.05 0.06 0.05 0.06 0.07 0.08 0.11 0.14 0.14 0.15 0.16 0.15 0.13 0.13 0.11 0.08 0.08 0.08 0.08 0.10 0.08 0.09 0.13 0.11 0.11 0.10 0.08 0.09 0.09 0.08 0.11
0.00 0.00 0.00 0.01 0.01 0.01 0.01 0.01 0.01 0.02 0.03 0.04 0.07 0.09 0.10 0.11 0.14 0.14 0.16 0.15 0.15 0.14 0.13 0.13 0.10 0.08 0.08 0.08 0.07 0.06 0.05 0.08 0.08 0.09 0.08 0.10 0.12 0.14 0.15 0.12 0.10 0.08 0.07
0.01 0.01 0.02 0.02 0.01 0.01 0.01 0.01 0.02 0.03 0.03 0.04 0.06 0.06 0.07 0.09 0.12 0.13 0.16 0.16 0.15 0.12 0.11 0.10 0.08 0.08 0.10 0.10 0.10 0.09 0.08 0.07 0.06 0.06 0.07 0.09 0.11 0.12 0.12 0.11 0.08 0.07 0.08
0.02 0.02 0.02 0.01 0.01 0.01 0.01 0.01 0.02 0.03 0.03 0.04 0.06 0.06 0.07 0.09 0.11 0.13 0.13 0.14 0.10 0.07 0.06 0.05 0.05 0.05 0.06 0.07 0.08 0.11 0.12 0.13 0.14 0.09 0.06 0.05 0.06 0.07 0.07 0.08 0.08 0.06 0.05
0.02 0.03 0.02 0.02 0.01 0.02 0.02 0.02 0.02 0.02 0.02 0.03 0.04 0.06 0.07 0.09 0.10 0.11 0.12 0.10 0.07 0.05 0.03 0.03 0.03 0.03 0.03 0.04 0.05 0.05 0.08 0.10 0.08 0.08 0.07 0.07 0.08 0.08 0.09 0.10 0.10 0.10 0.09
0.03 0.03 0.03 0.03 0.03 0.03 0.02 0.02 0.02 0.02 0.02 0.03 0.03 0.05 0.06 0.07 0.08 0.09 0.09 0.07 0.04 0.02 0.01 0.01 0.01 0.01 0.01 0.01 0.01 0.01 0.01 0.01 0.02 0.02 0.02 0.02 0.03 0.04 0.05 0.06 0.06 0.07 0.08
0.03 0.03 0.03 0.03 0.03 0.03 0.02 0.02 0.02 0.02 0.02 0.02 0.02 0.03 0.05 0.06 0.07 0.06 0.04 0.02 0.01 0.00 0.00 0.00 0.00 0.00 0.00 0.00 0.00 0.00 0.00 0.00 0.00 0.00 0.00 0.00 0.00 0.00 0.00 0.00 0.01 0.01 0.01

GFSGL_prec_precacc_027.txt.gz
Total_Precipitation_Accumulation
0.00 0.00 0.00 0.00 0.00 0.00 0.00 0.00 0.00 0.00 0.01 0.05 0.09 0.08 0.06 0.07 0.06 0.04 0.03 0.02 0.01 0.01 0.01 0.01 0.00 0.00 0.00 0.01 0.01 0.01 0.01 0.01 0.01 0.00 0.00 0.00 0.00 0.01 0.03 0.10 0.22 0.41 0.52
0.00 0.00 0.00 0.00 0.00 0.00 0.00 0.00 0.00 0.00 0.00 0.01 0.02 0.07 0.09 0.05 0.02 0.02 0.02 0.00 0.00 0.00 0.00 0.00 0.00 0.00 0.00 0.00 0.01 0.01 0.01 0.01 0.02 0.00 0.00 0.00 0.00 0.00 0.00 0.02 0.10 0.24 0.42
0.00 0.00 0.00 0.00 0.00 0.00 0.00 0.00 0.00 0.01 0.03 0.06 0.10 0.06 0.02 0.00 0.00 0.00 0.00 0.00 0.00 0.00 0.00 0.00 0.00 0.00 0.00 0.00 0.00 0.01 0.01 0.01 0.01 0.01 0.00 0.00 0.00 0.00 0.00 0.01 0.03 0.07 0.16
0.00 0.00 0.00 0.00 0.00 0.01 0.01 0.01 0.03 0.04 0.05 0.06 0.04 0.01 0.00 0.00 0.00 0.00 0.00 0.00 0.00 0.00 0.00 0.00 0.00 0.00 0.00 0.00 0.00 0.00 0.01 0.02 0.02 0.02 0.00 0.00 0.00 0.00 0.01 0.02 0.03 0.05 0.05
0.00 0.00 0.00 0.01 0.01 0.03 0.05 0.04 0.06 0.06 0.04 0.02 0.01 0.00 0.00 0.00 0.00 0.00 0.00 0.00 0.00 0.00 0.00 0.00 0.00 0.00 0.00 0.00 0.00 0.00 0.01 0.02 0.02 0.04 0.03 0.02 0.01 0.01 0.02 0.03 0.03 0.04 0.06
0.00 0.00 0.03 0.07 0.15 0.21 0.18 0.10 0.04 0.02 0.01 0.00 0.00 0.00 0.00 0.00 0.00 0.00 0.00 0.00 0.00 0.00 0.01 0.00 0.00 0.00 0.00 0.00 0.00 0.00 0.00 0.03 0.06 0.07 0.06 0.05 0.02 0.02 0.03 0.06 0.07 0.06 0.07
0.01 0.03 0.07 0.11 0.14 0.08 0.01 0.00 0.00 0.00 0.00 0.00 0.00 0.00 0.00 0.00 0.00 0.00 0.00 0.00 0.01 0.01 0.01 0.01 0.01 0.00 0.00 0.01 0.01 0.01 0.01 0.01 0.02 0.04 0.08 0.05 0.03 0.02 0.04 0.10 0.09 0.08 0.06
0.01 0.02 0.02 0.00 0.00 0.00 0.00 0.00 0.00 0.00 0.00 0.00 0.00 0.00 0.00 0.00 0.00 0.00 0.00 0.01 0.01 0.01 0.01 0.01 0.01 0.01 0.01 0.02 0.04 0.08 0.05 0.03 0.02 0.01 0.04 0.03 0.02 0.02 0.05 0.07 0.10 0.11 0.08
0.01 0.00 0.00 0.00 0.00 0.00 0.00 0.00 0.00 0.00 0.00 0.00 0.00 0.00 0.00 0.00 0.00 0.00 0.00 0.04 0.06 0.03 0.01 0.02 0.03 0.05 0.03 0.03 0.17 0.30 0.14 0.06 0.03 0.03 0.03 0.02 0.01 0.02 0.03 0.17 0.25 0.27 0.20
0.00 0.00 0.00 0.00 0.00 0.00 0.00 0.00 0.00 0.00 0.00 0.00 0.00 0.00 0.00 0.00 0.00 0.00 0.02 0.13 0.19 0.09 0.05 0.03 0.02 0.03 0.04 0.06 0.29 0.35 0.30 0.07 0.02 0.05 0.05 0.04 0.02 0.04 0.04 0.20 0.30 0.28 0.20
0.00 0.00 0.00 0.00 0.00 0.00 0.00 0.00 0.00 0.00 0.00 0.00 0.01 0.01 0.01 0.01 0.01 0.02 0.04 0.14 0.21 0.20 0.09 0.05 0.06 0.15 0.16 0.15 0.17 0.28 0.19 0.06 0.06 0.09 0.10 0.09 0.06 0.04 0.03 0.04 0.13 0.30 0.28
0.00 0.00 0.00 0.00 0.00 0.00 0.00 0.00 0.00 0.00 0.00 0.01 0.02 0.02 0.02 0.02 0.03 0.03 0.03 0.06 0.10 0.34 0.19 0.14 0.16 0.12 0.13 0.12 0.14 0.16 0.12 0.15 0.23 0.25 0.21 0.15 0.15 0.09 0.04 0.05 0.07 0.10 0.14
0.00 0.00 0.00 0.00 0.00 0.00 0.00 0.00 0.00 0.00 0.00 0.01 0.03 0.02 0.02 0.02 0.01 0.01 0.02 0.04 0.07 0.22 0.22 0.18 0.12 0.06 0.05 0.06 0.06 0.10 0.14 0.25 0.26 0.23 0.19 0.12 0.08 0.07 0.08 0.12 0.14 0.14 0.19
0.00 0.00 0.00 0.00 0.00 0.00 0.00 0.00 0.00 0.00 0.01 0.02 0.02 0.04 0.04 0.02 0.02 0.05 0.10 0.08 0.11 0.14 0.11 0.10 0.08 0.08 0.09 0.13 0.16 0.16 0.27 0.34 0.30 0.23 0.13 0.12 0.15 0.17 0.17 0.14 0.21 0.23 0.37
0.00 0.00 0.00 0.00 0.00 0.00 0.00 0.00 0.00 0.00 0.01 0.03 0.05 0.12 0.15 0.12 0.07 0.24 0.27 0.30 0.29 0.17 0.15 0.14 0.10 0.08 0.07 0.07 0.11 0.07 0.08 0.09 0.15 0.15 0.15 0.14 0.21 0.16 0.16 0.21 0.23 0.21 0.34
0.01 0.00 0.00 0.00 0.00 0.00 0.00 0.00 0.00 0.00 0.00 0.01 0.04 0.12 0.08 0.12 0.19 0.20 0.18 0.23 0.17 0.11 0.15 0.13 0.12 0.12 0.12 0.10 0.13 0.17 0.08 0.07 0.07 0.09 0.15 0.13 0.16 0.22 0.13 0.13 0.17 0.22 0.17
0.01 0.00 0.00 0.00 0.00 0.00 0.00 0.01 0.01 0.01 0.00 0.01 0.03 0.03 0.07 0.15 0.20 0.16 0.15 0.17 0.15 0.09 0.12 0.15 0.15 0.16 0.14 0.11 0.12 0.16 0.20 0.21 0.15 0.13 0.17 0.19 0.12 0.15 0.23 0.17 0.19 0.31 0.29
0.00 0.00 0.00 0.00 0.00 0.00 0.01 0.01 0.02 0.02 0.03 0.01 0.02 0.02 0.05 0.13 0.17 0.12 0.12 0.09 0.10 0.09 0.12 0.15 0.16 0.15 0.14 0.10 0.10 0.13 0.15 0.16 0.16 0.16 0.22 0.16 0.12 0.07 0.10 0.13 0.15 0.15 0.18
0.00 0.00 0.00 0.00 0.01 0.01 0.01 0.01 0.01 0.02 0.02 0.02 0.02 0.01 0.03 0.09 0.12 0.09 0.10 0.13 0.15 0.15 0.14 0.14 0.16 0.13 0.10 0.10 0.10 0.10 0.13 0.15 0.16 0.16 0.18 0.16 0.11 0.09 0.07 0.06 0.07 0.07 0.09
0.00 0.00 0.00 0.01 0.01 0.01 0.01 0.01 0.01 0.02 0.02 0.04 0.05 0.06 0.05 0.06 0.08 0.09 0.12 0.15 0.15 0.15 0.16 0.15 0.13 0.13 0.11 0.08 0.09 0.09 0.08 0.10 0.09 0.10 0.14 0.12 0.12 0.11 0.09 0.10 0.09 0.08 0.12
0.00 0.00 0.00 0.01 0.02 0.02 0.01 0.01 0.01 0.03 0.03 0.05 0.08 0.10 0.10 0.12 0.15 0.14 0.16 0.15 0.15 0.14 0.13 0.13 0.10 0.08 0.09 0.08 0.07 0.07 0.06 0.08 0.09 0.09 0.09 0.11 0.13 0.15 0.16 0.13 0.11 0.09 0.08
0.01 0.01 0.02 0.02 0.01 0.01 0.01 0.01 0.02 0.04 0.03 0.05 0.07 0.06 0.07 0.10 0.13 0.14 0.16 0.16 0.15 0.12 0.11 0.10 0.08 0.08 0.10 0.11 0.11 0.09 0.08 0.07 0.06 0.06 0.07 0.09 0.11 0.13 0.13 0.12 0.09 0.08 0.09
0.02 0.03 0.03 0.01 0.02 0.02 0.02 0.02 0.03 0.04 0.04 0.05 0.06 0.06 0.07 0.10 0.12 0.13 0.14 0.14 0.10 0.07 0.06 0.05 0.05 0.05 0.06 0.07 0.08 0.11 0.12 0.13 0.14 0.09 0.06 0.05 0.06 0.07 0.07 0.08 0.08 0.07 0.05
0.03 0.04 0.03 0.02 0.02 0.02 0.03 0.03 0.03 0.03 0.03 0.04 0.05 0.07 0.08 0.09 0.10 0.12 0.12 0.10 0.07 0.05 0.03 0.03 0.03 0.03 0.03 0.04 0.05 0.05 0.08 0.10 0.08 0.08 0.07 0.07 0.08 0.08 0.09 0.10 0.10 0.10 0.10
0.04 0.04 0.04 0.04 0.04 0.04 0.04 0.03 0.03 0.03 0.04 0.04 0.04 0.05 0.07 0.07 0.08 0.09 0.09 0.07 0.04 0.02 0.01 0.01 0.01 0.01 0.01 0.01 0.01 0.01 0.01 0.01 0.02 0.02 0.02 0.02 0.03 0.04 0.05 0.06 0.06 0.07 0.08
0.03 0.04 0.04 0.04 0.04 0.04 0.04 0.03 0.03 0.03 0.04 0.03 0.04 0.04 0.05 0.06 0.07 0.06 0.05 0.02 0.01 0.00 0.00 0.00 0.00 0.00 0.00 0.00 0.00 0.00 0.00 0.00 0.00 0.00 0.00 0.00 0.00 0.00 0.00 0.00 0.01 0.01 0.01

GFSGL_prec_precacc_030.txt.gz
Total_Precipitation_Accumulation
0.00 0.00 0.00 0.00 0.00 0.00 0.00 0.00 0.00 0.00 0.01 0.05 0.09 0.08 0.06 0.07 0.06 0.05 0.04 0.03 0.03 0.02 0.01 0.01 0.01 0.01 0.01 0.01 0.02 0.02 0.03 0.03 0.02 0.00 0.00 0.00 0.00 0.01 0.03 0.10 0.22 0.41 0.52
0.00 0.00 0.00 0.00 0.00 0.00 0.00 0.00 0.00 0.00 0.01 0.01 0.03 0.08 0.10 0.06 0.03 0.03 0.02 0.00 0.00 0.00 0.00 0.00 0.00 0.00 0.00 0.00 0.01 0.01 0.01 0.01 0.02 0.01 0.00 0.00 0.00 0.00 0.00 0.02 0.10 0.24 0.42
0.00 0.00 0.00 0.00 0.00 0.00 0.00 0.00 0.00 0.01 0.04 0.08 0.11 0.07 0.03 0.01 0.00 0.00 0.00 0.00 0.00 0.00 0.00 0.00 0.00 0.00 0.00 0.00 0.00 0.01 0.01 0.01 0.01 0.01 0.00 0.00 0.00 0.00 0.00 0.01 0.03 0.07 0.16
0.00 0.00 0.00 0.00 0.00 0.01 0.01 0.01 0.03 0.05 0.07 0.07 0.05 0.02 0.01 0.00 0.00 0.00 0.00 0.00 0.00 0.00 0.00 0.00 0.00 0.00 0.00 0.00 0.00 0.00 0.01 0.02 0.02 0.02 0.00 0.00 0.00 0.00 0.01 0.02 0.03 0.05 0.05
0.00 0.00 0.00 0.01 0.01 0.03 0.05 0.05 0.07 0.06 0.04 0.02 0.01 0.00 0.00 0.00 0.00 0.00 0.00 0.00 0.00 0.00 0.00 0.00 0.00 0.00 0.00 0.00 0.00 0.00 0.01 0.02 0.02 0.04 0.03 0.02 0.01 0.01 0.02 0.03 0.03 0.04 0.06
0.00 0.00 0.03 0.07 0.15 0.21 0.18 0.10 0.04 0.02 0.01 0.00 0.00 0.00 0.00 0.00 0.00 0.00 0.00 0.00 0.00 0.00 0.01 0.00 0.00 0.00 0.01 0.00 0.00 0.00 0.00 0.03 0.06 0.07 0.06 0.05 0.02 0.02 0.03 0.06 0.07 0.06 0.07
0.01 0.03 0.07 0.11 0.14 0.08 0.01 0.00 0.00 0.00 0.00 0.00 0.00 0.00 0.00 0.00 0.00 0.00 0.00 0.00 0.01 0.01 0.01 0.01 0.01 0.00 0.00 0.01 0.01 0.01 0.01 0.01 0.02 0.04 0.08 0.05 0.03 0.02 0.04 0.10 0.09 0.09 0.07
0.01 0.02 0.02 0.00 0.00 0.00 0.00 0.00 0.00 0.00 0.00 0.00 0.00 0.00 0.00 0.00 0.00 0.00 0.00 0.01 0.01 0.01 0.01 0.01 0.02 0.01 0.01 0.02 0.04 0.08 0.06 0.04 0.03 0.02 0.06 0.04 0.02 0.03 0.06 0.10 0.13 0.14 0.10
0.01 0.00 0.00 0.00 0.00 0.00 0.00 0.00 0.00 0.00 0.00 0.00 0.00 0.00 0.00 0.00 0.00 0.00 0.00 0.04 0.06 0.03 0.01 0.02 0.04 0.05 0.03 0.04 0.19 0.31 0.15 0.06 0.03 0.04 0.04 0.03 0.02 0.02 0.03 0.17 0.25 0.28 0.21
0.00 0.00 0.00 0.00 0.00 0.00 0.00 0.00 0.00 0.00 0.00 0.00 0.00 0.00 0.00 0.00 0.01 0.00 0.02 0.13 0.19 0.09 0.05 0.04 0.03 0.03 0.07 0.08 0.31 0.38 0.32 0.07 0.03 0.06 0.06 0.04 0.02 0.04 0.04 0.21 0.31 0.29 0.21
0.01 0.01 0.00 0.00 0.00 0.00 0.00 0.00 0.00 0.00 0.00 0.00 0.01 0.01 0.01 0.02 0.02 0.03 0.04 0.15 0.22 0.21 0.09 0.06 0.06 0.18 0.23 0.16 0.18 0.29 0.19 0.07 0.06 0.09 0.10 0.09 0.07 0.04 0.03 0.05 0.14 0.31 0.30
0.00 0.01 0.01 0.01 0.00 0.00 0.00 0.00 0.00 0.00 0.00 0.01 0.02 0.02 0.02 0.03 0.03 0.03 0.04 0.07 0.10 0.35 0.20 0.16 0.19 0.13 0.13 0.12 0.14 0.17 0.14 0.16 0.24 0.26 0.23 0.16 0.16 0.11 0.08 0.07 0.09 0.13 0.16
0.02 0.03 0.01 0.00 0.00 0.00 0.00 0.00 0.00 0.00 0.01 0.01 0.03 0.03 0.03 0.02 0.02 0.01 0.02 0.04 0.08 0.23 0.24 0.20 0.12 0.09 0.06 0.07 0.08 0.12 0.15 0.27 0.31 0.27 0.22 0.13 0.08 0.08 0.09 0.13 0.15 0.15 0.20
0.02 0.01 0.00 0.00 0.00 0.00 0.00 0.00 0.00 0.01 0.01 0.02 0.02 0.04 0.04 0.02 0.02 0.05 0.10 0.08 0.11 0.15 0.12 0.11 0.12 0.11 0.10 0.15 0.19 0.19 0.30 0.39 0.33 0.26 0.15 0.13 0.15 0.18 0.19 0.17 0.22 0.24 0.39
0.01 0.00 0.00 0.00 0.00 0.00 0.00 0.00 0.00 0.00 0.01 0.04 0.05 0.12 0.15 0.12 0.07 0.24 0.27 0.31 0.30 0.18 0.15 0.17 0.12 0.09 0.08 0.09 0.13 0.09 0.11 0.11 0.16 0.16 0.16 0.15 0.21 0.16 0.16 0.22 0.25 0.22 0.34
0.01 0.01 0.01 0.00 0.00 0.00 0.00 0.00 0.00 0.00 0.00 0.01 0.04 0.12 0.08 0.12 0.19 0.20 0.18 0.23 0.18 0.12 0.17 0.15 0.14 0.14 0.15 0.13 0.16 0.19 0.10 0.09 0.08 0.09 0.16 0.13 0.17 0.22 0.14 0.13 0.18 0.25 0.19
0.01 0.00 0.00 0.00 0.00 0.00 0.00 0.01 0.01 0.01 0.00 0.01 0.03 0.03 0.07 0.15 0.20 0.16 0.15 0.17 0.16 0.10 0.14 0.16 0.17 0.18 0.17 0.14 0.14 0.18 0.21 0.23 0.16 0.14 0.19 0.20 0.13 0.15 0.24 0.18 0.20 0.31 0.30
0.00 0.00 0.00 0.00 0.00 0.01 0.01 0.02 0.02 0.03 0.03 0.02 0.03 0.02 0.05 0.13 0.17 0.12 0.12 0.09 0.10 0.10 0.13 0.16 0.17 0.17 0.15 0.11 0.10 0.14 0.16 0.17 0.16 0.17 0.24 0.17 0.13 0.08 0.12 0.14 0.16 0.16 0.19
0.01 0.00 0.00 0.01 0.01 0.01 0.02 0.02 0.02 0.02 0.03 0.03 0.02 0.02 0.04 0.09 0.12 0.10 0.11 0.13 0.16 0.15 0.15 0.15 0.17 0.14 0.11 0.10 0.10 0.11 0.14 0.16 0.16 0.17 0.19 0.17 0.13 0.11 0.08 0.07 0.08 0.08 0.10
0.00 0.00 0.00 0.01 0.01 0.02 0.02 0.02 0.02 0.02 0.03 0.04 0.05 0.06 0.05 0.06 0.08 0.09 0.13 0.15 0.15 0.16 0.16 0.15 0.14 0.13 0.11 0.08 0.09 0.09 0.09 0.10 0.09 0.10 0.14 0.13 0.14 0.13 0.11 0.11 0.10 0.09 0.13
0.01 0.00 0.01 0.02 0.02 0.02 0.02 0.02 0.02 0.04 0.04 0.05 0.08 0.10 0.10 0.12 0.15 0.15 0.16 0.15 0.15 0.14 0.13 0.13 0.10 0.08 0.09 0.08 0.08 0.07 0.06 0.08 0.09 0.09 0.09 0.11 0.15 0.16 0.16 0.14 0.12 0.10 0.09
0.01 0.01 0.02 0.02 0.02 0.02 0.02 0.02 0.02 0.04 0.04 0.06 0.07 0.06 0.07 0.10 0.13 0.14 0.16 0.16 0.15 0.12 0.11 0.10 0.08 0.08 0.10 0.11 0.11 0.09 0.08 0.07 0.06 0.06 0.07 0.09 0.11 0.13 0.13 0.12 0.10 0.08 0.09
0.02 0.03 0.03 0.02 0.02 0.02 0.02 0.03 0.04 0.05 0.05 0.06 0.07 0.07 0.08 0.10 0.12 0.13 0.14 0.15 0.11 0.08 0.06 0.05 0.05 0.05 0.06 0.07 0.09 0.11 0.12 0.13 0.14 0.09 0.06 0.05 0.06 0.07 0.07 0.08 0.08 0.07 0.05
0.03 0.04 0.03 0.03 0.03 0.03 0.04 0.04 0.04 0.04 0.04 0.05 0.06 0.08 0.08 0.09 0.11 0.12 0.13 0.11 0.07 0.05 0.03 0.03 0.03 0.03 0.03 0.04 0.05 0.05 0.08 0.10 0.08 0.08 0.07 0.07 0.08 0.08 0.09 0.10 0.10 0.10 0.10
0.05 0.05 0.05 0.05 0.05 0.05 0.05 0.04 0.04 0.05 0.05 0.05 0.05 0.06 0.07 0.07 0.08 0.09 0.09 0.08 0.04 0.02 0.01 0.01 0.01 0.01 0.01 0.01 0.01 0.01 0.01 0.01 0.02 0.02 0.02 0.02 0.03 0.04 0.05 0.06 0.06 0.07 0.08
0.04 0.05 0.05 0.05 0.05 0.05 0.05 0.05 0.04 0.05 0.05 0.05 0.05 0.05 0.06 0.07 0.07 0.06 0.05 0.02 0.01 0.00 0.00 0.00 0.00 0.00 0.00 0.00 0.00 0.00 0.00 0.00 0.00 0.00 0.00 0.00 0.00 0.00 0.00 0.00 0.01 0.01 0.01

GFSGL_prec_precacc_033.txt.gz
Total_Precipitation_Accumulation
0.00 0.00 0.00 0.00 0.00 0.00 0.00 0.00 0.00 0.00 0.01 0.05 0.09 0.08 0.06 0.08 0.07 0.05 0.04 0.04 0.03 0.02 0.02 0.02 0.01 0.01 0.01 0.01 0.02 0.03 0.04 0.05 0.02 0.00 0.00 0.00 0.00 0.01 0.03 0.10 0.22 0.42 0.53
0.00 0.00 0.00 0.00 0.00 0.00 0.00 0.00 0.00 0.00 0.01 0.02 0.04 0.09 0.11 0.07 0.04 0.03 0.02 0.00 0.00 0.00 0.00 0.00 0.00 0.00 0.00 0.00 0.01 0.01 0.01 0.01 0.02 0.01 0.00 0.00 0.00 0.00 0.00 0.02 0.10 0.24 0.42
0.00 0.00 0.00 0.00 0.00 0.00 0.00 0.00 0.00 0.01 0.04 0.08 0.12 0.08 0.03 0.01 0.00 0.00 0.00 0.00 0.00 0.00 0.00 0.00 0.00 0.00 0.00 0.00 0.00 0.01 0.01 0.01 0.01 0.01 0.00 0.00 0.00 0.00 0.00 0.01 0.03 0.07 0.16
0.00 0.00 0.00 0.00 0.00 0.01 0.01 0.01 0.03 0.05 0.07 0.07 0.05 0.02 0.01 0.00 0.00 0.00 0.00 0.00 0.00 0.00 0.00 0.00 0.00 0.00 0.00 0.00 0.00 0.00 0.01 0.02 0.02 0.02 0.00 0.00 0.00 0.00 0.01 0.02 0.03 0.05 0.05
0.00 0.00 0.00 0.01 0.01 0.03 0.05 0.05 0.07 0.06 0.04 0.02 0.01 0.00 0.00 0.00 0.00 0.00 0.00 0.00 0.00 0.00 0.00 0.00 0.00 0.00 0.00 0.00 0.01 0.00 0.01 0.02 0.02 0.04 0.03 0.02 0.01 0.01 0.02 0.03 0.03 0.04 0.06
0.00 0.00 0.03 0.07 0.15 0.21 0.18 0.10 0.04 0.02 0.01 0.00 0.00 0.00 0.00 0.00 0.00 0.00 0.00 0.00 0.00 0.00 0.01 0.00 0.00 0.00 0.01 0.01 0.00 0.00 0.00 0.03 0.06 0.07 0.06 0.05 0.02 0.02 0.03 0.06 0.07 0.06 0.07
0.01 0.03 0.07 0.11 0.14 0.08 0.01 0.00 0.00 0.00 0.00 0.00 0.00 0.00 0.00 0.00 0.00 0.00 0.00 0.00 0.01 0.01 0.01 0.01 0.01 0.00 0.00 0.01 0.01 0.01 0.01 0.01 0.02 0.04 0.08 0.05 0.03 0.02 0.04 0.10 0.09 0.09 0.07
0.01 0.02 0.02 0.01 0.00 0.01 0.01 0.00 0.00 0.00 0.00 0.00 0.00 0.00 0.00 0.00 0.00 0.00 0.00 0.01 0.01 0.01 0.01 0.01 0.02 0.01 0.01 0.02 0.04 0.08 0.06 0.04 0.03 0.03 0.06 0.05 0.03 0.03 0.07 0.10 0.15 0.17 0.12
0.02 0.00 0.00 0.01 0.03 0.03 0.01 0.00 0.00 0.00 0.00 0.00 0.00 0.00 0.00 0.00 0.00 0.00 0.00 0.04 0.06 0.03 0.01 0.02 0.04 0.05 0.03 0.04 0.20 0.32 0.15 0.06 0.03 0.05 0.05 0.04 0.03 0.04 0.04 0.20 0.27 0.28 0.21
0.00 0.01 0.02 0.03 0.07 0.08 0.03 0.00 0.00 0.00 0.00 0.00 0.00 0.00 0.00 0.00 0.01 0.01 0.03 0.13 0.19 0.09 0.05 0.04 0.03 0.03 0.09 0.14 0.35 0.39 0.32 0.07 0.03 0.06 0.06 0.04 0.02 0.04 0.04 0.21 0.31 0.31 0.21
0.01 0.02 0.02 0.03 0.04 0.02 0.00 0.00 0.00 0.00 0.00 0.00 0.01 0.01 0.01 0.02 0.02 0.03 0.04 0.15 0.22 0.22 0.09 0.06 0.06 0.19 0.24 0.18 0.19 0.30 0.20 0.08 0.07 0.09 0.10 0.09 0.07 0.04 0.03 0.06 0.18 0.36 0.34
0.00 0.01 0.04 0.04 0.02 0.00 0.00 0.00 0.00 0.00 0.00 0.01 0.02 0.02 0.02 0.03 0.03 0.03 0.04 0.07 0.10 0.35 0.21 0.16 0.20 0.14 0.16 0.15 0.15 0.19 0.16 0.18 0.25 0.28 0.25 0.17 0.17 0.12 0.08 0.08 0.10 0.14 0.18
0.02 0.04 0.03 0.01 0.00 0.00 0.00 0.00 0.00 0.00 0.01 0.01 0.03 0.03 0.03 0.02 0.02 0.01 0.02 0.04 0.08 0.23 0.24 0.21 0.13 0.12 0.09 0.08 0.11 0.16 0.17 0.31 0.35 0.31 0.25 0.15 0.10 0.09 0.10 0.14 0.15 0.15 0.20
0.02 0.01 0.01 0.00 0.00 0.00 0.00 0.00 0.00 0.01 0.01 0.02 0.02 0.04 0.04 0.02 0.02 0.05 0.10 0.08 0.11 0.15 0.12 0.11 0.14 0.13 0.11 0.16 0.21 0.20 0.33 0.42 0.34 0.28 0.16 0.14 0.16 0.19 0.19 0.18 0.22 0.24 0.39
0.01 0.00 0.00 0.00 0.00 0.00 0.00 0.00 0.00 0.00 0.01 0.04 0.05 0.12 0.15 0.12 0.07 0.24 0.28 0.31 0.30 0.18 0.15 0.18 0.13 0.09 0.09 0.10 0.14 0.10 0.12 0.12 0.17 0.16 0.17 0.16 0.21 0.16 0.16 0.22 0.25 0.22 0.34
0.01 0.01 0.01 0.00 0.00 0.00 0.00 0.00 0.00 0.00 0.00 0.01 0.04 0.12 0.08 0.12 0.19 0.20 0.18 0.24 0.18 0.12 0.17 0.16 0.14 0.15 0.16 0.15 0.18 0.20 0.11 0.11 0.10 0.11 0.18 0.14 0.17 0.22 0.14 0.13 0.18 0.25 0.19
0.01 0.00 0.00 0.00 0.00 0.00 0.00 0.01 0.01 0.01 0.00 0.01 0.03 0.03 0.07 0.15 0.20 0.16 0.15 0.17 0.16 0.11 0.14 0.16 0.18 0.19 0.18 0.15 0.15 0.19 0.23 0.26 0.17 0.15 0.20 0.20 0.13 0.16 0.25 0.18 0.20 0.31 0.30
0.00 0.00 0.00 0.00 0.00 0.01 0.01 0.02 0.02 0.03 0.03 0.02 0.03 0.02 0.05 0.13 0.17 0.12 0.12 0.09 0.10 0.10 0.13 0.17 0.18 0.18 0.16 0.11 0.10 0.14 0.16 0.18 0.16 0.17 0.24 0.18 0.13 0.10 0.12 0.14 0.16 0.16 0.19
0.01 0.00 0.00 0.01 0.01 0.01 0.02 0.02 0.02 0.02 0.03 0.03 0.02 0.02 0.05 0.09 0.12 0.10 0.11 0.13 0.16 0.15 0.15 0.15 0.17 0.15 0.11 0.10 0.10 0.11 0.14 0.16 0.16 0.17 0.19 0.18 0.13 0.13 0.09 0.09 0.08 0.08 0.10
0.00 0.00 0.00 0.01 0.02 0.02 0.02 0.02 0.02 0.03 0.03 0.04 0.05 0.07 0.05 0.06 0.08 0.09 0.13 0.15 0.15 0.16 0.16 0.15 0.14 0.13 0.11 0.08 0.09 0.09 0.09 0.10 0.09 0.10 0.14 0.13 0.14 0.14 0.12 0.13 0.11 0.10 0.13
0.01 0.00 0.01 0.02 0.02 0.02 0.02 0.02 0.02 0.04 0.04 0.05 0.08 0.10 0.10 0.12 0.15 0.15 0.16 0.15 0.15 0.14 0.13 0.13 0.10 0.08 0.09 0.08 0.08 0.07 0.06 0.08 0.09 0.09 0.09 0.11 0.15 0.16 0.16 0.15 0.12 0.10 0.09
0.01 0.01 0.02 0.02 0.02 0.03 0.03 0.02 0.02 0.04 0.04 0.06 0.08 0.07 0.07 0.10 0.14 0.14 0.16 0.16 0.15 0.12 0.11 0.10 0.08 0.08 0.10 0.11 0.11 0.09 0.08 0.07 0.06 0.06 0.07 0.09 0.12 0.13 0.13 0.12 0.10 0.08 0.09
0.02 0.04 0.03 0.02 0.03 0.03 0.03 0.03 0.04 0.05 0.05 0.06 0.07 0.07 0.08 0.10 0.12 0.13 0.14 0.15 0.11 0.08 0.06 0.05 0.05 0.05 0.06 0.07 0.09 0.11 0.12 0.13 0.14 0.09 0.06 0.06 0.06 0.07 0.07 0.08 0.08 0.07 0.05
0.03 0.05 0.03 0.03 0.03 0.04 0.05 0.05 0.04 0.04 0.04 0.05 0.06 0.08 0.08 0.09 0.11 0.12 0.13 0.11 0.07 0.05 0.03 0.03 0.03 0.03 0.03 0.04 0.05 0.05 0.08 0.10 0.08 0.08 0.07 0.07 0.08 0.08 0.09 0.10 0.10 0.10 0.10
0.05 0.05 0.05 0.05 0.05 0.06 0.05 0.05 0.05 0.05 0.05 0.06 0.06 0.06 0.08 0.07 0.08 0.09 0.09 0.08 0.04 0.02 0.01 0.01 0.01 0.01 0.01 0.01 0.01 0.01 0.01 0.01 0.02 0.02 0.02 0.02 0.03 0.04 0.05 0.06 0.06 0.07 0.08
0.04 0.05 0.05 0.06 0.06 0.06 0.05 0.05 0.05 0.05 0.05 0.05 0.05 0.05 0.06 0.07 0.07 0.06 0.05 0.02 0.01 0.00 0.00 0.00 0.00 0.00 0.00 0.00 0.00 0.00 0.00 0.00 0.00 0.00 0.00 0.00 0.00 0.00 0.00 0.00 0.01 0.01 0.01

GFSGL_prec_precacc_036.txt.gz
Total_Precipitation_Accumulation
0.00 0.00 0.00 0.00 0.00 0.00 0.00 0.00 0.00 0.00 0.01 0.05 0.09 0.08 0.06 0.08 0.07 0.06 0.05 0.04 0.04 0.03 0.02 0.02 0.01 0.01 0.01 0.01 0.02 0.03 0.04 0.05 0.03 0.00 0.00 0.00 0.00 0.01 0.03 0.10 0.22 0.43 0.54
0.00 0.00 0.00 0.00 0.00 0.00 0.00 0.00 0.00 0.00 0.01 0.02 0.04 0.09 0.11 0.07 0.04 0.03 0.02 0.00 0.00 0.00 0.00 0.00 0.00 0.00 0.00 0.00 0.01 0.01 0.01 0.01 0.02 0.01 0.00 0.00 0.00 0.00 0.00 0.02 0.10 0.24 0.42
0.00 0.00 0.00 0.00 0.00 0.00 0.00 0.00 0.00 0.01 0.04 0.08 0.12 0.08 0.03 0.01 0.00 0.00 0.00 0.00 0.00 0.00 0.00 0.00 0.00 0.00 0.00 0.00 0.00 0.01 0.01 0.01 0.01 0.01 0.00 0.00 0.00 0.00 0.00 0.01 0.03 0.07 0.16
0.00 0.00 0.00 0.00 0.00 0.01 0.01 0.01 0.03 0.05 0.07 0.07 0.05 0.02 0.01 0.00 0.00 0.00 0.00 0.00 0.00 0.00 0.00 0.00 0.00 0.00 0.00 0.00 0.00 0.00 0.01 0.02 0.02 0.02 0.00 0.00 0.00 0.00 0.01 0.02 0.03 0.05 0.05
0.00 0.00 0.00 0.01 0.01 0.03 0.05 0.05 0.07 0.06 0.04 0.02 0.01 0.00 0.00 0.00 0.00 0.00 0.00 0.00 0.00 0.00 0.00 0.00 0.00 0.00 0.00 0.00 0.01 0.00 0.01 0.02 0.02 0.04 0.03 0.02 0.01 0.01 0.02 0.03 0.03 0.04 0.06
0.00 0.00 0.03 0.07 0.15 0.21 0.19 0.11 0.04 0.03 0.02 0.00 0.00 0.00 0.00 0.00 0.00 0.00 0.00 0.00 0.00 0.00 0.01 0.00 0.00 0.00 0.01 0.01 0.00 0.00 0.01 0.03 0.06 0.07 0.06 0.05 0.02 0.02 0.03 0.06 0.07 0.06 0.07
0.01 0.03 0.07 0.11 0.14 0.08 0.02 0.02 0.07 0.08 0.01 0.00 0.00 0.00 0.00 0.00 0.00 0.00 0.00 0.00 0.01 0.01 0.01 0.01 0.01 0.00 0.00 0.01 0.01 0.01 0.01 0.01 0.03 0.05 0.09 0.05 0.03 0.02 0.04 0.10 0.09 0.09 0.07
0.01 0.02 0.02 0.01 0.00 0.01 0.05 0.08 0.07 0.04 0.01 0.00 0.00 0.00 0.00 0.00 0.00 0.00 0.00 0.01 0.01 0.01 0.01 0.01 0.02 0.01 0.01 0.02 0.05 0.08 0.06 0.04 0.03 0.03 0.07 0.05 0.03 0.03 0.07 0.10 0.15 0.18 0.13
0.02 0.00 0.00 0.01 0.03 0.05 0.06 0.09 0.05 0.01 0.00 0.00 0.00 0.00 0.00 0.00 0.00 0.00 0.00 0.04 0.06 0.03 0.01 0.02 0.04 0.06 0.03 0.05 0.23 0.34 0.16 0.06 0.03 0.05 0.05 0.05 0.04 0.04 0.05 0.23 0.31 0.31 0.22
0.00 0.01 0.02 0.03 0.07 0.10 0.07 0.01 0.00 0.00 0.00 0.00 0.00 0.00 0.00 0.00 0.01 0.01 0.03 0.14 0.19 0.09 0.05 0.04 0.03 0.03 0.09 0.15 0.37 0.41 0.33 0.07 0.03 0.06 0.06 0.04 0.02 0.04 0.04 0.21 0.31 0.31 0.22
0.01 0.02 0.02 0.03 0.04 0.03 0.01 0.00 0.00 0.00 0.00 0.00 0.01 0.01 0.01 0.02 0.02 0.03 0.04 0.15 0.22 0.22 0.10 0.06 0.06 0.19 0.26 0.20 0.22 0.33 0.22 0.09 0.08 0.10 0.11 0.10 0.08 0.06 0.05 0.09 0.23 0.45 0.38
0.00 0.01 0.04 0.04 0.02 0.01 0.00 0.00 0.00 0.00 0.00 0.01 0.02 0.02 0.02 0.03 0.03 0.03 0.04 0.07 0.11 0.36 0.21 0.16 0.21 0.16 0.18 0.16 0.17 0.23 0.19 0.19 0.27 0.31 0.28 0.20 0.21 0.15 0.11 0.11 0.12 0.15 0.19
0.02 0.04 0.03 0.01 0.01 0.00 0.00 0.00 0.00 0.00 0.01 0.01 0.03 0.03 0.03 0.02 0.02 0.01 0.02 0.04 0.08 0.23 0.24 0.22 0.16 0.13 0.09 0.08 0.12 0.17 0.18 0.32 0.37 0.33 0.28 0.18 0.12 0.12 0.12 0.16 0.16 0.16 0.20
0.02 0.01 0.01 0.00 0.00 0.00 0.00 0.00 0.00 0.01 0.01 0.02 0.02 0.04 0.04 0.02 0.02 0.05 0.10 0.08 0.11 0.15 0.12 0.11 0.15 0.13 0.11 0.17 0.22 0.21 0.35 0.44 0.36 0.30 0.18 0.15 0.17 0.19 0.19 0.19 0.22 0.24 0.39
0.01 0.00 0.00 0.00 0.01 0.00 0.00 0.00 0.00 0.00 0.01 0.04 0.05 0.12 0.15 0.12 0.07 0.24 0.28 0.31 0.30 0.19 0.16 0.18 0.13 0.09 0.09 0.10 0.15 0.12 0.14 0.13 0.18 0.17 0.18 0.16 0.22 0.16 0.17 0.23 0.25 0.22 0.34
0.02 0.01 0.01 0.00 0.00 0.00 0.00 0.00 0.00 0.00 0.00 0.01 0.04 0.12 0.08 0.12 0.19 0.20 0.19 0.24 0.18 0.13 0.17 0.16 0.15 0.15 0.17 0.16 0.19 0.21 0.12 0.12 0.11 0.12 0.18 0.15 0.17 0.23 0.15 0.13 0.18 0.25 0.19
0.02 0.01 0.00 0.00 0.00 0.00 0.00 0.01 0.01 0.01 0.00 0.01 0.03 0.03 0.07 0.15 0.20 0.16 0.15 0.17 0.16 0.11 0.14 0.17 0.18 0.20 0.19 0.16 0.15 0.19 0.24 0.27 0.18 0.16 0.21 0.22 0.15 0.17 0.26 0.18 0.20 0.31 0.30
0.01 0.01 0.00 0.00 0.00 0.01 0.01 0.02 0.02 0.03 0.03 0.02 0.03 0.02 0.05 0.13 0.17 0.12 0.12 0.09 0.10 0.10 0.14 0.17 0.19 0.19 0.17 0.11 0.10 0.14 0.16 0.18 0.17 0.17 0.25 0.19 0.14 0.11 0.13 0.14 0.16 0.17 0.19
0.01 0.00 0.01 0.01 0.01 0.02 0.02 0.02 0.03 0.03 0.03 0.03 0.02 0.02 0.05 0.09 0.12 0.10 0.11 0.13 0.16 0.15 0.15 0.15 0.18 0.15 0.11 0.10 0.10 0.11 0.14 0.16 0.16 0.17 0.20 0.18 0.14 0.14 0.10 0.09 0.08 0.09 0.10
0.00 0.00 0.00 0.01 0.02 0.02 0.02 0.02 0.02 0.03 0.03 0.05 0.05 0.07 0.06 0.06 0.08 0.09 0.13 0.15 0.15 0.16 0.16 0.15 0.14 0.13 0.11 0.08 0.09 0.09 0.09 0.10 0.09 0.10 0.14 0.13 0.15 0.14 0.12 0.13 0.11 0.10 0.13
0.01 0.00 0.01 0.02 0.02 0.03 0.02 0.02 0.03 0.04 0.04 0.05 0.08 0.11 0.10 0.12 0.15 0.15 0.16 0.15 0.15 0.14 0.13 0.13 0.10 0.08 0.09 0.08 0.08 0.07 0.06 0.08 0.09 0.09 0.09 0.12 0.15 0.16 0.16 0.15 0.12 0.10 0.09
0.01 0.01 0.02 0.03 0.02 0.03 0.03 0.02 0.03 0.04 0.04 0.06 0.08 0.07 0.07 0.10 0.14 0.14 0.16 0.16 0.15 0.12 0.11 0.10 0.08 0.08 0.10 0.11 0.11 0.09 0.08 0.07 0.06 0.06 0.07 0.09 0.12 0.13 0.13 0.12 0.10 0.08 0.09
0.02 0.04 0.03 0.02 0.03 0.03 0.03 0.04 0.04 0.05 0.06 0.07 0.07 0.07 0.08 0.10 0.12 0.13 0.14 0.15 0.11 0.08 0.06 0.05 0.05 0.05 0.06 0.07 0.09 0.11 0.12 0.13 0.14 0.09 0.06 0.06 0.06 0.07 0.07 0.08 0.08 0.07 0.05
0.03 0.05 0.03 0.03 0.03 0.04 0.05 0.05 0.04 0.04 0.04 0.05 0.06 0.08 0.08 0.10 0.11 0.12 0.13 0.11 0.07 0.05 0.03 0.03 0.03 0.03 0.03 0.04 0.05 0.05 0.08 0.10 0.08 0.08 0.07 0.08 0.08 0.08 0.09 0.10 0.10 0.10 0.10
0.05 0.05 0.05 0.05 0.05 0.06 0.05 0.05 0.05 0.05 0.05 0.06 0.06 0.07 0.08 0.08 0.09 0.09 0.09 0.08 0.04 0.02 0.01 0.01 0.01 0.01 0.01 0.01 0.01 0.01 0.01 0.01 0.02 0.02 0.02 0.02 0.03 0.04 0.05 0.06 0.06 0.07 0.08
0.04 0.05 0.05 0.06 0.06 0.06 0.06 0.05 0.05 0.05 0.05 0.05 0.05 0.06 0.06 0.07 0.07 0.06 0.05 0.02 0.01 0.00 0.00 0.00 0.00 0.00 0.00 0.00 0.00 0.00 0.00 0.00 0.00 0.00 0.00 0.00 0.00 0.00 0.00 0.00 0.01 0.01 0.01

GFSGL_prec_precacc_039.txt.gz
Total_Precipitation_Accumulation
0.00 0.00 0.00 0.00 0.00 0.00 0.00 0.00 0.00 0.00 0.01 0.05 0.09 0.08 0.06 0.08 0.07 0.06 0.05 0.04 0.04 0.03 0.02 0.02 0.01 0.01 0.01 0.01 0.02 0.03 0.04 0.05 0.03 0.00 0.00 0.00 0.00 0.01 0.03 0.10 0.22 0.43 0.54
0.00 0.00 0.00 0.00 0.00 0.00 0.00 0.00 0.00 0.00 0.01 0.02 0.04 0.09 0.11 0.07 0.04 0.03 0.02 0.00 0.00 0.00 0.00 0.00 0.00 0.00 0.00 0.00 0.01 0.01 0.01 0.01 0.02 0.01 0.00 0.00 0.00 0.00 0.00 0.02 0.10 0.24 0.42
0.00 0.00 0.00 0.00 0.00 0.00 0.00 0.00 0.00 0.01 0.04 0.08 0.12 0.08 0.03 0.01 0.00 0.00 0.00 0.00 0.00 0.00 0.00 0.00 0.00 0.00 0.00 0.00 0.00 0.01 0.01 0.01 0.01 0.01 0.00 0.00 0.00 0.00 0.00 0.01 0.03 0.07 0.16
0.00 0.00 0.00 0.00 0.00 0.01 0.01 0.01 0.03 0.05 0.07 0.07 0.05 0.02 0.01 0.00 0.00 0.00 0.00 0.00 0.00 0.00 0.00 0.00 0.00 0.00 0.00 0.00 0.00 0.01 0.01 0.02 0.02 0.02 0.00 0.00 0.00 0.00 0.01 0.02 0.03 0.05 0.05
0.00 0.00 0.00 0.01 0.01 0.03 0.05 0.05 0.08 0.07 0.04 0.03 0.03 0.00 0.00 0.00 0.00 0.00 0.00 0.00 0.00 0.00 0.00 0.00 0.00 0.00 0.00 0.00 0.01 0.00 0.02 0.03 0.02 0.04 0.03 0.02 0.01 0.01 0.02 0.03 0.03 0.04 0.06
0.00 0.00 0.03 0.07 0.15 0.21 0.19 0.11 0.04 0.03 0.06 0.06 0.01 0.00 0.00 0.00 0.00 0.00 0.00 0.00 0.00 0.00 0.01 0.00 0.00 0.00 0.01 0.01 0.00 0.00 0.01 0.04 0.06 0.07 0.07 0.05 0.02 0.02 0.03 0.06 0.07 0.06 0.07
0.01 0.03 0.07 0.11 0.14 0.08 0.02 0.02 0.07 0.09 0.06 0.03 0.00 0.00 0.00 0.00 0.00 0.00 0.00 0.00 0.01 0.01 0.01 0.01 0.01 0.00 0.00 0.01 0.01 0.01 0.01 0.01 0.03 0.05 0.10 0.06 0.03 0.02 0.04 0.10 0.09 0.09 0.07
0.01 0.02 0.02 0.01 0.00 0.01 0.05 0.08 0.08 0.06 0.03 0.00 0.00 0.00 0.00 0.00 0.00 0.00 0.00 0.01 0.01 0.01 0.01 0.01 0.02 0.01 0.01 0.02 0.05 0.09 0.06 0.04 0.03 0.03 0.07 0.05 0.03 0.04 0.07 0.11 0.15 0.19 0.13
0.02 0.00 0.00 0.01 0.03 0.05 0.06 0.09 0.06 0.01 0.00 0.00 0.00 0.00 0.00 0.00 0.00 0.00 0.00 0.04 0.06 0.03 0.01 0.02 0.04 0.06 0.03 0.06 0.24 0.34 0.16 0.06 0.03 0.05 0.05 0.05 0.05 0.06 0.08 0.26 0.32 0.32 0.23
0.00 0.01 0.02 0.03 0.07 0.10 0.07 0.01 0.00 0.00 0.00 0.00 0.00 0.00 0.00 0.00 0.01 0.01 0.03 0.14 0.19 0.09 0.05 0.04 0.03 0.03 0.10 0.16 0.41 0.43 0.35 0.08 0.03 0.06 0.06 0.04 0.02 0.04 0.04 0.21 0.31 0.31 0.22
0.01 0.02 0.02 0.03 0.04 0.03 0.01 0.00 0.00 0.00 0.00 0.00 0.01 0.01 0.01 0.02 0.02 0.03 0.04 0.15 0.22 0.22 0.10 0.06 0.06 0.20 0.27 0.21 0.23 0.35 0.27 0.11 0.09 0.11 0.12 0.11 0.09 0.07 0.07 0.10 0.24 0.46 0.40
0.00 0.01 0.04 0.04 0.02 0.01 0.00 0.00 0.00 0.00 0.00 0.01 0.02 0.02 0.02 0.03 0.03 0.03 0.04 0.07 0.11 0.36 0.21 0.16 0.22 0.17 0.18 0.16 0.18 0.25 0.21 0.20 0.28 0.33 0.31 0.22 0.24 0.18 0.15 0.14 0.14 0.17 0.19
0.02 0.04 0.03 0.01 0.01 0.00 0.00 0.00 0.00 0.00 0.01 0.01 0.03 0.03 0.03 0.02 0.02 0.01 0.02 0.04 0.08 0.23 0.24 0.23 0.16 0.13 0.09 0.08 0.13 0.19 0.20 0.34 0.38 0.34 0.29 0.19 0.14 0.14 0.14 0.18 0.20 0.20 0.22
0.03 0.02 0.01 0.00 0.00 0.00 0.00 0.00 0.00 0.01 0.01 0.02 0.02 0.04 0.04 0.02 0.02 0.05 0.10 0.08 0.11 0.15 0.12 0.11 0.15 0.13 0.11 0.17 0.22 0.22 0.37 0.46 0.38 0.32 0.20 0.16 0.18 0.20 0.21 0.21 0.24 0.25 0.39
0.01 0.01 0.01 0.00 0.02 0.01 0.00 0.00 0.00 0.00 0.01 0.04 0.05 0.12 0.15 0.12 0.07 0.24 0.28 0.31 0.30 0.19 0.16 0.18 0.13 0.09 0.09 0.11 0.15 0.13 0.15 0.14 0.19 0.19 0.19 0.17 0.23 0.17 0.19 0.24 0.25 0.22 0.34
0.02 0.03 0.02 0.01 0.01 0.00 0.00 0.00 0.00 0.00 0.00 0.01 0.04 0.12 0.08 0.12 0.19 0.20 0.19 0.24 0.18 0.13 0.17 0.16 0.15 0.15 0.17 0.16 0.19 0.21 0.12 0.13 0.11 0.13 0.20 0.16 0.19 0.25 0.16 0.14 0.18 0.25 0.19
0.02 0.04 0.01 0.01 0.01 0.00 0.00 0.01 0.02 0.01 0.00 0.01 0.03 0.03 0.07 0.15 0.20 0.16 0.15 0.17 0.16 0.11 0.14 0.17 0.18 0.20 0.19 0.16 0.15 0.19 0.24 0.27 0.18 0.16 0.23 0.23 0.16 0.18 0.27 0.18 0.20 0.31 0.30
0.01 0.02 0.01 0.01 0.00 0.01 0.01 0.02 0.02 0.03 0.04 0.02 0.03 0.02 0.05 0.13 0.17 0.12 0.12 0.09 0.10 0.10 0.14 0.17 0.19 0.19 0.17 0.11 0.11 0.14 0.16 0.18 0.17 0.17 0.26 0.20 0.15 0.12 0.14 0.15 0.16 0.17 0.19
0.01 0.00 0.01 0.01 0.01 0.02 0.02 0.02 0.03 0.03 0.03 0.03 0.02 0.02 0.05 0.09 0.12 0.10 0.11 0.13 0.16 0.15 0.15 0.15 0.18 0.15 0.11 0.10 0.10 0.11 0.14 0.16 0.16 0.17 0.20 0.18 0.14 0.14 0.11 0.10 0.08 0.09 0.10
0.00 0.00 0.00 0.01 0.02 0.02 0.02 0.02 0.02 0.03 0.04 0.05 0.05 0.07 0.06 0.06 0.08 0.09 0.13 0.15 0.15 0.16 0.16 0.15 0.14 0.13 0.11 0.08 0.09 0.09 0.09 0.10 0.09 0.10 0.14 0.13 0.15 0.15 0.13 0.14 0.11 0.10 0.13
0.01 0.00 0.01 0.02 0.02 0.03 0.02 0.02 0.03 0.04 0.05 0.05 0.08 0.11 0.10 0.12 0.15 0.15 0.16 0.15 0.15 0.14 0.13 0.13 0.10 0.08 0.09 0.08 0.08 0.07 0.06 0.08 0.09 0.09 0.09 0.12 0.15 0.16 0.16 0.15 0.12 0.10 0.09
0.01 0.01 0.02 0.03 0.02 0.03 0.03 0.02 0.03 0.04 0.04 0.06 0.08 0.07 0.08 0.10 0.14 0.14 0.17 0.16 0.15 0.12 0.11 0.10 0.08 0.08 0.10 0.11 0.11 0.09 0.08 0.07 0.06 0.06 0.07 0.09 0.12 0.13 0.13 0.12 0.10 0.08 0.09
0.02 0.04 0.03 0.02 0.03 0.03 0.03 0.04 0.04 0.05 0.06 0.07 0.07 0.07 0.08 0.10 0.13 0.14 0.14 0.15 0.11 0.08 0.06 0.05 0.05 0.05 0.06 0.07 0.09 0.11 0.12 0.13 0.14 0.09 0.06 0.06 0.06 0.07 0.07 0.08 0.08 0.07 0.05
0.03 0.05 0.03 0.03 0.03 0.04 0.05 0.05 0.04 0.04 0.04 0.05 0.06 0.08 0.08 0.10 0.11 0.12 0.13 0.11 0.07 0.05 0.03 0.03 0.03 0.03 0.03 0.04 0.05 0.05 0.08 0.10 0.08 0.08 0.07 0.08 0.08 0.08 0.09 0.10 0.10 0.10 0.10
0.05 0.05 0.05 0.05 0.05 0.06 0.05 0.05 0.05 0.05 0.05 0.06 0.06 0.07 0.08 0.08 0.09 0.09 0.09 0.08 0.04 0.02 0.01 0.01 0.01 0.01 0.01 0.01 0.01 0.01 0.01 0.01 0.02 0.02 0.02 0.02 0.03 0.04 0.05 0.06 0.06 0.07 0.08
0.06 0.06 0.06 0.06 0.07 0.07 0.06 0.05 0.05 0.05 0.05 0.05 0.05 0.06 0.06 0.07 0.07 0.06 0.05 0.02 0.01 0.00 0.00 0.00 0.00 0.00 0.00 0.00 0.00 0.00 0.00 0.00 0.00 0.00 0.00 0.00 0.00 0.00 0.00 0.00 0.01 0.01 0.01

GFSGL_prec_precacc_042.txt.gz
Total_Precipitation_Accumulation
0.00 0.00 0.00 0.00 0.00 0.00 0.00 0.00 0.00 0.00 0.01 0.05 0.09 0.08 0.06 0.08 0.07 0.06 0.05 0.04 0.04 0.03 0.02 0.02 0.01 0.01 0.01 0.01 0.02 0.03 0.04 0.05 0.03 0.00 0.00 0.00 0.00 0.01 0.03 0.10 0.22 0.43 0.54
0.00 0.00 0.00 0.00 0.00 0.00 0.00 0.00 0.00 0.00 0.01 0.02 0.04 0.09 0.11 0.07 0.04 0.03 0.02 0.00 0.00 0.00 0.00 0.00 0.00 0.00 0.00 0.00 0.01 0.01 0.01 0.01 0.02 0.01 0.00 0.00 0.00 0.00 0.00 0.02 0.10 0.24 0.42
0.00 0.00 0.00 0.00 0.00 0.00 0.00 0.00 0.00 0.01 0.04 0.08 0.12 0.08 0.03 0.01 0.00 0.00 0.00 0.00 0.00 0.00 0.00 0.00 0.00 0.00 0.00 0.00 0.00 0.01 0.01 0.01 0.02 0.02 0.00 0.00 0.00 0.00 0.00 0.01 0.03 0.07 0.16
0.00 0.00 0.00 0.00 0.00 0.01 0.01 0.01 0.03 0.05 0.07 0.07 0.05 0.02 0.01 0.00 0.00 0.00 0.00 0.00 0.00 0.00 0.00 0.00 0.00 0.00 0.00 0.00 0.00 0.01 0.01 0.02 0.02 0.03 0.01 0.00 0.00 0.00 0.01 0.02 0.03 0.05 0.05
0.00 0.00 0.00 0.01 0.01 0.03 0.05 0.05 0.08 0.07 0.04 0.03 0.03 0.02 0.01 0.00 0.00 0.00 0.00 0.00 0.00 0.00 0.00 0.00 0.00 0.00 0.00 0.01 0.01 0.00 0.02 0.03 0.03 0.05 0.03 0.02 0.01 0.01 0.02 0.03 0.03 0.04 0.06
0.00 0.00 0.03 0.07 0.15 0.21 0.19 0.11 0.04 0.03 0.06 0.06 0.04 0.04 0.01 0.00 0.00 0.00 0.00 0.00 0.00 0.00 0.01 0.00 0.00 0.00 0.01 0.01 0.00 0.00 0.01 0.04 0.07 0.09 0.08 0.06 0.03 0.02 0.03 0.06 0.07 0.06 0.07
0.01 0.03 0.07 0.11 0.14 0.08 0.02 0.02 0.07 0.09 0.06 0.03 0.01 0.00 0.00 0.00 0.00 0.00 0.00 0.00 0.01 0.01 0.01 0.01 0.01 0.00 0.00 0.01 0.01 0.01 0.01 0.01 0.04 0.08 0.14 0.07 0.04 0.02 0.05 0.10 0.09 0.09 0.07
0.01 0.02 0.02 0.01 0.00 0.01 0.05 0.08 0.08 0.06 0.03 0.00 0.00 0.00 0.00 0.00 0.00 0.00 0.00 0.01 0.01 0.01 0.01 0.01 0.02 0.01 0.01 0.02 0.06 0.10 0.06 0.04 0.03 0.03 0.08 0.06 0.03 0.04 0.08 0.11 0.16 0.19 0.13
0.02 0.00 0.00 0.01 0.03 0.05 0.06 0.09 0.06 0.01 0.00 0.00 0.00 0.00 0.00 0.00 0.00 0.00 0.00 0.04 0.06 0.03 0.01 0.02 0.04 0.06 0.04 0.07 0.27 0.36 0.16 0.06 0.03 0.05 0.06 0.05 0.05 0.06 0.09 0.30 0.38 0.36 0.24
0.00 0.01 0.02 0.03 0.07 0.10 0.07 0.01 0.00 0.00 0.00 0.00 0.00 0.00 0.00 0.00 0.01 0.01 0.03 0.14 0.19 0.09 0.05 0.04 0.03 0.04 0.11 0.18 0.42 0.44 0.36 0.08 0.03 0.06 0.06 0.04 0.02 0.04 0.04 0.22 0.31 0.32 0.22
0.01 0.02 0.02 0.03 0.04 0.03 0.01 0.00 0.00 0.00 0.01 0.01 0.01 0.01 0.01 0.02 0.02 0.03 0.04 0.15 0.22 0.22 0.10 0.06 0.06 0.20 0.28 0.21 0.24 0.37 0.30 0.13 0.10 0.12 0.14 0.13 0.12 0.10 0.10 0.12 0.25 0.46 0.40
0.00 0.01 0.04 0.04 0.02 0.01 0.00 0.00 0.00 0.01 0.01 0.01 0.02 0.02 0.02 0.03 0.03 0.03 0.04 0.07 0.11 0.36 0.21 0.16 0.22 0.18 0.18 0.16 0.18 0.26 0.22 0.21 0.29 0.33 0.31 0.23 0.25 0.20 0.18 0.19 0.18 0.20 0.20
0.02 0.04 0.04 0.01 0.01 0.00 0.00 0.00 0.00 0.00 0.01 0.01 0.03 0.03 0.03 0.02 0.02 0.01 0.02 0.04 0.08 0.23 0.24 0.23 0.16 0.13 0.09 0.08 0.13 0.19 0.20 0.34 0.38 0.34 0.29 0.19 0.15 0.15 0.15 0.20 0.25 0.26 0.25
0.03 0.02 0.02 0.01 0.00 0.01 0.01 0.01 0.00 0.01 0.01 0.02 0.02 0.04 0.04 0.02 0.02 0.05 0.10 0.08 0.11 0.15 0.12 0.11 0.15 0.13 0.11 0.17 0.22 0.23 0.38 0.47 0.40 0.33 0.21 0.17 0.19 0.21 0.23 0.23 0.26 0.30 0.44
0.01 0.01 0.01 0.00 0.02 0.02 0.00 0.00 0.00 0.00 0.01 0.04 0.05 0.12 0.15 0.12 0.07 0.24 0.28 0.31 0.30 0.19 0.16 0.18 0.13 0.09 0.09 0.11 0.15 0.13 0.15 0.14 0.19 0.20 0.20 0.18 0.24 0.19 0.21 0.26 0.27 0.23 0.35
0.02 0.03 0.03 0.01 0.02 0.01 0.00 0.00 0.00 0.00 0.00 0.01 0.04 0.12 0.08 0.12 0.19 0.20 0.19 0.24 0.18 0.13 0.17 0.16 0.15 0.16 0.17 0.16 0.19 0.21 0.12 0.13 0.11 0.13 0.21 0.17 0.20 0.26 0.18 0.15 0.19 0.25 0.20
0.03 0.05 0.02 0.01 0.01 0.00 0.00 0.01 0.02 0.01 0.00 0.01 0.03 0.03 0.07 0.15 0.20 0.16 0.15 0.17 0.16 0.11 0.14 0.17 0.18 0.20 0.19 0.16 0.16 0.19 0.24 0.27 0.18 0.16 0.23 0.24 0.17 0.19 0.28 0.19 0.20 0.31 0.30
0.01 0.02 0.02 0.01 0.01 0.01 0.01 0.02 0.02 0.03 0.04 0.02 0.03 0.02 0.05 0.13 0.17 0.12 0.12 0.09 0.10 0.10 0.14 0.17 0.19 0.19 0.17 0.11 0.11 0.14 0.16 0.18 0.17 0.17 0.26 0.20 0.16 0.13 0.15 0.15 0.16 0.17 0.20
0.01 0.00 0.01 0.01 0.02 0.02 0.02 0.02 0.03 0.03 0.04 0.03 0.02 0.02 0.05 0.09 0.12 0.10 0.11 0.13 0.16 0.15 0.15 0.15 0.18 0.15 0.11 0.10 0.11 0.11 0.14 0.16 0.16 0.17 0.20 0.19 0.15 0.14 0.11 0.10 0.09 0.09 0.10
0.00 0.00 0.00 0.01 0.02 0.02 0.02 0.02 0.02 0.03 0.04 0.05 0.05 0.07 0.06 0.06 0.08 0.09 0.13 0.15 0.15 0.16 0.16 0.15 0.14 0.13 0.11 0.08 0.09 0.09 0.09 0.10 0.09 0.10 0.14 0.13 0.15 0.15 0.13 0.14 0.12 0.10 0.13
0.01 0.00 0.01 0.02 0.02 0.03 0.02 0.02 0.03 0.04 0.05 0.05 0.08 0.11 0.10 0.13 0.15 0.15 0.16 0.16 0.15 0.14 0.13 0.13 0.10 0.08 0.09 0.08 0.08 0.07 0.06 0.08 0.09 0.09 0.09 0.12 0.15 0.16 0.16 0.15 0.12 0.10 0.09
0.01 0.01 0.02 0.03 0.02 0.03 0.03 0.02 0.03 0.04 0.04 0.06 0.08 0.07 0.08 0.11 0.14 0.15 0.17 0.16 0.15 0.12 0.11 0.10 0.08 0.08 0.10 0.11 0.11 0.09 0.08 0.07 0.06 0.06 0.07 0.09 0.12 0.13 0.13 0.12 0.10 0.08 0.09
0.03 0.04 0.03 0.02 0.03 0.03 0.03 0.04 0.04 0.05 0.06 0.07 0.07 0.07 0.08 0.11 0.13 0.14 0.14 0.15 0.11 0.08 0.06 0.05 0.05 0.05 0.06 0.07 0.09 0.11 0.12 0.13 0.14 0.09 0.07 0.06 0.06 0.07 0.07 0.08 0.08 0.07 0.05
0.05 0.07 0.05 0.04 0.03 0.04 0.05 0.05 0.04 0.04 0.04 0.05 0.06 0.08 0.08 0.10 0.11 0.12 0.13 0.11 0.08 0.05 0.03 0.03 0.03 0.03 0.03 0.04 0.05 0.05 0.08 0.10 0.08 0.08 0.07 0.08 0.08 0.08 0.09 0.10 0.10 0.10 0.10
0.07 0.08 0.08 0.07 0.07 0.07 0.06 0.06 0.06 0.05 0.06 0.06 0.06 0.07 0.08 0.08 0.09 0.09 0.09 0.08 0.04 0.02 0.01 0.01 0.01 0.01 0.01 0.01 0.01 0.01 0.01 0.01 0.02 0.02 0.02 0.02 0.03 0.04 0.05 0.06 0.06 0.07 0.08
0.07 0.08 0.08 0.08 0.09 0.08 0.09 0.07 0.06 0.06 0.06 0.05 0.05 0.06 0.06 0.07 0.08 0.06 0.05 0.02 0.01 0.00 0.00 0.00 0.00 0.00 0.00 0.00 0.00 0.00 0.00 0.00 0.00 0.00 0.00 0.00 0.00 0.00 0.00 0.00 0.01 0.01 0.01

GFSGL_prec_precacc_045.txt.gz
Total_Precipitation_Accumulation
0.00 0.00 0.00 0.00 0.00 0.00 0.00 0.00 0.00 0.00 0.01 0.05 0.09 0.08 0.06 0.08 0.08 0.06 0.05 0.04 0.04 0.03 0.02 0.02 0.01 0.01 0.01 0.01 0.02 0.03 0.04 0.05 0.03 0.00 0.00 0.00 0.00 0.01 0.03 0.10 0.22 0.43 0.54
0.00 0.00 0.00 0.00 0.00 0.00 0.00 0.00 0.00 0.00 0.01 0.02 0.04 0.09 0.11 0.07 0.04 0.03 0.02 0.00 0.00 0.00 0.00 0.00 0.00 0.00 0.00 0.00 0.01 0.01 0.01 0.01 0.02 0.01 0.00 0.00 0.00 0.00 0.00 0.02 0.10 0.24 0.42
0.00 0.00 0.00 0.00 0.00 0.00 0.00 0.00 0.00 0.01 0.04 0.08 0.12 0.08 0.04 0.01 0.00 0.00 0.00 0.00 0.00 0.00 0.00 0.00 0.00 0.00 0.00 0.00 0.00 0.01 0.01 0.01 0.02 0.03 0.01 0.00 0.00 0.00 0.00 0.02 0.03 0.07 0.16
0.00 0.00 0.00 0.00 0.00 0.01 0.01 0.01 0.03 0.05 0.07 0.07 0.05 0.02 0.01 0.01 0.01 0.01 0.00 0.00 0.00 0.00 0.00 0.00 0.00 0.00 0.00 0.00 0.01 0.01 0.01 0.02 0.03 0.03 0.01 0.00 0.00 0.00 0.02 0.02 0.03 0.05 0.05
0.00 0.00 0.00 0.01 0.01 0.03 0.05 0.05 0.08 0.07 0.04 0.03 0.03 0.02 0.03 0.03 0.01 0.00 0.00 0.00 0.00 0.00 0.00 0.00 0.00 0.00 0.00 0.01 0.02 0.01 0.03 0.04 0.04 0.05 0.04 0.02 0.02 0.01 0.02 0.04 0.04 0.04 0.06
0.00 0.00 0.03 0.07 0.15 0.21 0.19 0.11 0.04 0.03 0.06 0.06 0.04 0.04 0.01 0.00 0.00 0.00 0.00 0.00 0.00 0.00 0.01 0.00 0.00 0.00 0.01 0.01 0.00 0.00 0.01 0.05 0.09 0.10 0.09 0.07 0.03 0.02 0.03 0.07 0.08 0.07 0.08
0.01 0.03 0.07 0.11 0.14 0.08 0.02 0.02 0.07 0.09 0.06 0.03 0.01 0.00 0.00 0.00 0.00 0.00 0.00 0.00 0.01 0.01 0.01 0.01 0.01 0.00 0.00 0.01 0.01 0.01 0.01 0.01 0.05 0.12 0.18 0.09 0.06 0.03 0.06 0.12 0.10 0.10 0.07
0.01 0.02 0.02 0.01 0.00 0.01 0.05 0.08 0.08 0.06 0.03 0.00 0.00 0.00 0.00 0.00 0.00 0.00 0.00 0.01 0.01 0.01 0.01 0.01 0.02 0.01 0.01 0.02 0.07 0.12 0.07 0.04 0.03 0.04 0.10 0.07 0.04 0.04 0.09 0.12 0.17 0.21 0.15
0.02 0.00 0.00 0.01 0.03 0.05 0.06 0.09 0.06 0.01 0.00 0.00 0.00 0.00 0.00 0.00 0.00 0.00 0.00 0.04 0.06 0.03 0.01 0.02 0.04 0.06 0.04 0.08 0.30 0.37 0.16 0.06 0.04 0.05 0.07 0.07 0.07 0.09 0.12 0.34 0.40 0.39 0.26
0.00 0.01 0.02 0.03 0.07 0.10 0.07 0.01 0.00 0.00 0.00 0.00 0.00 0.00 0.00 0.00 0.01 0.01 0.03 0.14 0.19 0.09 0.05 0.04 0.03 0.04 0.11 0.19 0.44 0.46 0.36 0.09 0.03 0.07 0.06 0.04 0.04 0.05 0.05 0.24 0.33 0.34 0.24
0.01 0.02 0.02 0.03 0.04 0.03 0.01 0.00 0.00 0.00 0.03 0.02 0.02 0.01 0.01 0.02 0.02 0.03 0.04 0.15 0.22 0.22 0.10 0.06 0.06 0.20 0.28 0.22 0.24 0.38 0.33 0.14 0.10 0.13 0.14 0.14 0.13 0.12 0.13 0.17 0.28 0.48 0.40
0.00 0.01 0.04 0.04 0.02 0.01 0.00 0.00 0.00 0.02 0.02 0.01 0.02 0.02 0.02 0.03 0.03 0.03 0.04 0.07 0.11 0.36 0.21 0.16 0.22 0.18 0.18 0.17 0.19 0.27 0.23 0.21 0.30 0.34 0.31 0.23 0.25 0.21 0.18 0.21 0.23 0.24 0.22
0.02 0.04 0.04 0.01 0.01 0.00 0.00 0.00 0.00 0.00 0.01 0.01 0.03 0.03 0.03 0.02 0.02 0.01 0.02 0.04 0.08 0.23 0.24 0.23 0.16 0.13 0.09 0.08 0.13 0.20 0.21 0.35 0.39 0.35 0.30 0.20 0.15 0.15 0.15 0.20 0.26 0.31 0.28
0.03 0.02 0.02 0.01 0.00 0.01 0.01 0.01 0.00 0.01 0.01 0.02 0.02 0.04 0.04 0.02 0.02 0.05 0.10 0.08 0.11 0.15 0.12 0.11 0.15 0.13 0.11 0.17 0.22 0.23 0.38 0.47 0.40 0.34 0.22 0.18 0.19 0.21 0.24 0.25 0.28 0.33 0.51
0.01 0.01 0.01 0.00 0.02 0.02 0.00 0.00 0.00 0.00 0.01 0.04 0.05 0.12 0.15 0.12 0.07 0.24 0.28 0.31 0.30 0.19 0.16 0.18 0.13 0.09 0.09 0.11 0.15 0.13 0.15 0.14 0.19 0.20 0.21 0.18 0.24 0.20 0.22 0.27 0.28 0.24 0.37
0.02 0.03 0.03 0.01 0.02 0.01 0.00 0.00 0.00 0.00 0.00 0.01 0.04 0.12 0.08 0.12 0.19 0.20 0.19 0.24 0.18 0.13 0.17 0.16 0.15 0.16 0.17 0.16 0.19 0.21 0.12 0.13 0.11 0.13 0.21 0.17 0.21 0.26 0.18 0.15 0.20 0.26 0.21
0.03 0.05 0.02 0.01 0.01 0.00 0.01 0.01 0.02 0.01 0.00 0.01 0.03 0.03 0.07 0.15 0.20 0.16 0.15 0.17 0.16 0.11 0.14 0.17 0.18 0.20 0.19 0.16 0.16 0.19 0.24 0.27 0.18 0.16 0.23 0.24 0.17 0.19 0.28 0.19 0.20 0.31 0.30
0.01 0.02 0.02 0.01 0.01 0.02 0.01 0.02 0.02 0.03 0.04 0.02 0.03 0.02 0.05 0.13 0.17 0.12 0.12 0.09 0.10 0.10 0.14 0.17 0.19 0.19 0.17 0.11 0.11 0.14 0.16 0.18 0.17 0.17 0.26 0.20 0.16 0.13 0.15 0.16 0.17 0.17 0.20
0.01 0.00 0.01 0.01 0.02 0.02 0.02 0.02 0.03 0.03 0.04 0.03 0.02 0.02 0.05 0.09 0.12 0.10 0.11 0.13 0.16 0.15 0.15 0.15 0.18 0.15 0.11 0.10 0.11 0.11 0.14 0.16 0.16 0.17 0.20 0.19 0.15 0.14 0.11 0.11 0.09 0.09 0.10
0.00 0.00 0.00 0.01 0.02 0.02 0.02 0.02 0.02 0.03 0.04 0.05 0.05 0.07 0.06 0.07 0.08 0.10 0.13 0.15 0.15 0.16 0.16 0.15 0.14 0.13 0.11 0.08 0.09 0.09 0.09 0.10 0.09 0.10 0.14 0.13 0.15 0.15 0.13 0.14 0.12 0.10 0.13
0.01 0.00 0.01 0.02 0.02 0.03 0.02 0.02 0.03 0.04 0.05 0.05 0.08 0.11 0.10 0.14 0.16 0.15 0.17 0.16 0.15 0.14 0.13 0.13 0.10 0.08 0.09 0.08 0.08 0.07 0.06 0.08 0.09 0.09 0.09 0.12 0.15 0.16 0.16 0.15 0.12 0.10 0.09
0.02 0.02 0.03 0.03 0.03 0.03 0.03 0.02 0.03 0.04 0.04 0.06 0.08 0.07 0.08 0.11 0.14 0.15 0.17 0.16 0.15 0.12 0.11 0.10 0.08 0.08 0.10 0.11 0.11 0.09 0.08 0.07 0.06 0.06 0.07 0.09 0.12 0.13 0.13 0.12 0.10 0.08 0.09
0.05 0.06 0.05 0.03 0.04 0.03 0.04 0.04 0.04 0.05 0.06 0.07 0.07 0.07 0.08 0.11 0.13 0.14 0.14 0.15 0.11 0.08 0.06 0.05 0.05 0.05 0.06 0.07 0.09 0.11 0.12 0.13 0.14 0.09 0.07 0.06 0.06 0.07 0.07 0.08 0.08 0.07 0.05
0.05 0.07 0.06 0.05 0.04 0.05 0.07 0.06 0.05 0.05 0.05 0.05 0.07 0.08 0.08 0.10 0.11 0.12 0.13 0.11 0.08 0.05 0.03 0.03 0.03 0.03 0.03 0.04 0.05 0.05 0.08 0.10 0.08 0.08 0.07 0.08 0.08 0.08 0.09 0.10 0.10 0.10 0.10
0.08 0.09 0.09 0.09 0.09 0.09 0.09 0.08 0.08 0.08 0.08 0.08 0.07 0.08 0.08 0.08 0.09 0.09 0.09 0.08 0.04 0.02 0.01 0.01 0.01 0.01 0.01 0.01 0.01 0.01 0.01 0.01 0.02 0.02 0.02 0.02 0.03 0.04 0.05 0.06 0.06 0.07 0.08
0.08 0.09 0.09 0.10 0.11 0.10 0.11 0.10 0.09 0.08 0.08 0.07 0.08 0.07 0.07 0.07 0.08 0.06 0.05 0.03 0.01 0.01 0.00 0.00 0.00 0.00 0.00 0.00 0.00 0.00 0.00 0.00 0.00 0.00 0.00 0.00 0.00 0.00 0.00 0.00 0.01 0.01 0.01

GFSGL_prec_precacc_048.txt.gz
Total_Precipitation_Accumulation
0.00 0.00 0.00 0.00 0.00 0.00 0.00 0.00 0.00 0.00 0.01 0.05 0.09 0.08 0.07 0.09 0.09 0.10 0.08 0.05 0.04 0.03 0.02 0.02 0.01 0.01 0.01 0.01 0.02 0.03 0.04 0.05 0.03 0.00 0.00 0.00 0.00 0.01 0.03 0.10 0.22 0.43 0.54
0.00 0.00 0.00 0.00 0.00 0.00 0.00 0.00 0.00 0.00 0.01 0.02 0.04 0.09 0.11 0.09 0.07 0.05 0.03 0.01 0.00 0.00 0.00 0.00 0.00 0.00 0.00 0.00 0.01 0.01 0.01 0.01 0.02 0.01 0.00 0.00 0.00 0.00 0.01 0.03 0.10 0.24 0.42
0.00 0.00 0.00 0.00 0.00 0.00 0.00 0.00 0.00 0.01 0.04 0.08 0.12 0.08 0.04 0.02 0.01 0.00 0.00 0.00 0.00 0.00 0.00 0.00 0.00 0.00 0.00 0.00 0.00 0.01 0.01 0.01 0.02 0.03 0.01 0.00 0.00 0.00 0.00 0.02 0.03 0.07 0.16
0.00 0.00 0.00 0.00 0.00 0.01 0.01 0.01 0.03 0.05 0.07 0.07 0.05 0.03 0.01 0.01 0.02 0.01 0.00 0.00 0.00 0.00 0.00 0.00 0.00 0.00 0.00 0.00 0.01 0.01 0.01 0.03 0.03 0.03 0.01 0.00 0.00 0.00 0.02 0.02 0.03 0.05 0.05
0.00 0.00 0.00 0.01 0.01 0.03 0.05 0.05 0.08 0.07 0.04 0.03 0.03 0.02 0.03 0.03 0.01 0.00 0.00 0.00 0.00 0.00 0.00 0.00 0.00 0.00 0.00 0.01 0.02 0.01 0.03 0.04 0.04 0.05 0.04 0.03 0.02 0.02 0.03 0.04 0.04 0.04 0.07
0.00 0.00 0.03 0.07 0.15 0.21 0.19 0.11 0.04 0.03 0.06 0.06 0.04 0.04 0.01 0.00 0.00 0.00 0.00 0.00 0.00 0.00 0.01 0.00 0.00 0.00 0.01 0.01 0.00 0.00 0.01 0.05 0.09 0.11 0.10 0.08 0.04 0.03 0.04 0.08 0.09 0.08 0.09
0.01 0.03 0.07 0.11 0.14 0.08 0.02 0.02 0.07 0.09 0.06 0.03 0.01 0.00 0.00 0.00 0.00 0.00 0.00 0.00 0.01 0.01 0.01 0.01 0.01 0.00 0.00 0.01 0.01 0.01 0.01 0.02 0.06 0.14 0.21 0.11 0.07 0.05 0.07 0.13 0.12 0.12 0.09
0.01 0.02 0.02 0.01 0.00 0.01 0.05 0.08 0.08 0.06 0.03 0.01 0.00 0.00 0.00 0.00 0.00 0.00 0.00 0.01 0.01 0.01 0.01 0.01 0.02 0.01 0.01 0.03 0.07 0.13 0.08 0.04 0.03 0.04 0.12 0.10 0.06 0.07 0.12 0.16 0.20 0.24 0.17
0.02 0.00 0.00 0.01 0.03 0.05 0.06 0.09 0.06 0.01 0.00 0.00 0.00 0.00 0.00 0.00 0.00 0.00 0.00 0.04 0.06 0.03 0.01 0.02 0.04 0.06 0.04 0.08 0.31 0.39 0.17 0.07 0.04 0.05 0.07 0.07 0.08 0.09 0.14 0.40 0.46 0.46 0.31
0.00 0.01 0.02 0.03 0.07 0.10 0.07 0.01 0.00 0.00 0.00 0.00 0.00 0.00 0.00 0.00 0.01 0.01 0.03 0.14 0.20 0.09 0.05 0.04 0.03 0.04 0.11 0.19 0.44 0.47 0.38 0.10 0.04 0.07 0.06 0.05 0.04 0.07 0.06 0.28 0.36 0.39 0.27
0.01 0.02 0.02 0.03 0.04 0.03 0.01 0.00 0.00 0.00 0.03 0.03 0.02 0.01 0.01 0.02 0.02 0.03 0.04 0.15 0.23 0.22 0.10 0.06 0.06 0.20 0.28 0.22 0.25 0.39 0.35 0.15 0.11 0.13 0.15 0.14 0.13 0.13 0.15 0.21 0.33 0.55 0.44
0.00 0.01 0.04 0.04 0.02 0.01 0.00 0.00 0.00 0.02 0.03 0.02 0.02 0.02 0.02 0.03 0.03 0.03 0.04 0.07 0.11 0.36 0.21 0.16 0.22 0.18 0.18 0.17 0.19 0.27 0.23 0.22 0.30 0.34 0.32 0.24 0.26 0.21 0.19 0.21 0.23 0.27 0.27
0.02 0.04 0.04 0.01 0.01 0.00 0.00 0.00 0.00 0.01 0.01 0.02 0.03 0.03 0.03 0.03 0.02 0.01 0.02 0.04 0.08 0.23 0.24 0.23 0.16 0.13 0.09 0.08 0.13 0.20 0.21 0.35 0.39 0.35 0.31 0.20 0.16 0.16 0.16 0.22 0.27 0.34 0.33
0.03 0.02 0.02 0.01 0.00 0.01 0.01 0.01 0.01 0.01 0.02 0.02 0.02 0.05 0.04 0.02 0.02 0.06 0.10 0.08 0.12 0.15 0.12 0.11 0.15 0.13 0.11 0.17 0.22 0.23 0.38 0.47 0.40 0.35 0.23 0.19 0.20 0.23 0.26 0.27 0.29 0.35 0.59
0.01 0.01 0.01 0.00 0.03 0.02 0.00 0.00 0.00 0.01 0.02 0.04 0.05 0.13 0.16 0.13 0.07 0.24 0.29 0.31 0.30 0.19 0.16 0.18 0.13 0.09 0.09 0.11 0.15 0.13 0.15 0.14 0.19 0.20 0.21 0.19 0.25 0.20 0.23 0.28 0.29 0.25 0.39
0.02 0.03 0.03 0.02 0.02 0.01 0.00 0.00 0.00 0.00 0.00 0.01 0.04 0.12 0.09 0.12 0.19 0.20 0.19 0.24 0.18 0.13 0.17 0.16 0.15 0.16 0.17 0.16 0.19 0.21 0.12 0.13 0.11 0.13 0.21 0.18 0.21 0.27 0.19 0.16 0.20 0.27 0.22
0.03 0.05 0.02 0.01 0.02 0.01 0.01 0.02 0.02 0.01 0.00 0.01 0.03 0.03 0.07 0.15 0.20 0.16 0.15 0.17 0.16 0.11 0.14 0.17 0.19 0.20 0.19 0.16 0.16 0.19 0.24 0.27 0.18 0.16 0.23 0.24 0.18 0.20 0.29 0.20 0.21 0.31 0.31
0.01 0.02 0.02 0.02 0.02 0.02 0.02 0.03 0.03 0.04 0.04 0.02 0.03 0.02 0.05 0.13 0.18 0.13 0.12 0.09 0.10 0.11 0.14 0.17 0.19 0.19 0.17 0.11 0.11 0.14 0.16 0.18 0.17 0.17 0.26 0.20 0.16 0.13 0.16 0.16 0.17 0.18 0.20
0.01 0.01 0.01 0.02 0.02 0.02 0.03 0.03 0.03 0.04 0.04 0.03 0.02 0.02 0.05 0.09 0.12 0.10 0.12 0.14 0.16 0.15 0.15 0.15 0.18 0.15 0.11 0.10 0.11 0.11 0.14 0.16 0.16 0.17 0.20 0.19 0.15 0.15 0.11 0.11 0.09 0.09 0.10
0.01 0.00 0.01 0.02 0.02 0.02 0.03 0.03 0.02 0.03 0.04 0.05 0.06 0.07 0.06 0.07 0.09 0.10 0.14 0.16 0.16 0.16 0.16 0.16 0.14 0.13 0.11 0.08 0.09 0.09 0.09 0.10 0.09 0.10 0.14 0.13 0.15 0.15 0.13 0.14 0.12 0.10 0.13
0.01 0.01 0.01 0.03 0.03 0.03 0.03 0.03 0.03 0.05 0.05 0.06 0.09 0.11 0.10 0.14 0.16 0.16 0.18 0.17 0.16 0.14 0.13 0.13 0.11 0.08 0.09 0.08 0.08 0.07 0.06 0.08 0.09 0.09 0.09 0.12 0.15 0.16 0.16 0.15 0.12 0.10 0.09
0.02 0.03 0.04 0.05 0.04 0.04 0.04 0.04 0.04 0.05 0.05 0.07 0.08 0.07 0.08 0.11 0.15 0.15 0.18 0.17 0.16 0.13 0.11 0.10 0.09 0.09 0.10 0.11 0.11 0.09 0.08 0.07 0.06 0.06 0.07 0.09 0.12 0.13 0.13 0.12 0.10 0.08 0.09
0.05 0.06 0.05 0.03 0.04 0.04 0.05 0.05 0.06 0.07 0.07 0.07 0.07 0.07 0.08 0.11 0.13 0.14 0.15 0.15 0.11 0.08 0.07 0.05 0.05 0.05 0.06 0.07 0.09 0.11 0.12 0.13 0.14 0.09 0.07 0.06 0.06 0.07 0.07 0.08 0.08 0.07 0.05
0.06 0.08 0.07 0.06 0.06 0.07 0.09 0.08 0.07 0.07 0.07 0.08 0.09 0.10 0.09 0.11 0.12 0.13 0.13 0.11 0.08 0.06 0.04 0.04 0.04 0.03 0.03 0.04 0.05 0.05 0.08 0.10 0.08 0.08 0.07 0.08 0.08 0.08 0.09 0.10 0.10 0.10 0.10
0.09 0.10 0.11 0.10 0.10 0.11 0.11 0.10 0.11 0.10 0.11 0.11 0.10 0.11 0.10 0.10 0.11 0.11 0.10 0.08 0.05 0.03 0.02 0.01 0.01 0.01 0.01 0.01 0.01 0.01 0.01 0.01 0.02 0.02 0.02 0.02 0.03 0.04 0.05 0.06 0.06 0.07 0.08
0.08 0.10 0.10 0.11 0.12 0.12 0.14 0.13 0.11 0.10 0.11 0.10 0.10 0.10 0.10 0.11 0.11 0.09 0.07 0.04 0.02 0.01 0.01 0.00 0.00 0.00 0.00 0.00 0.00 0.00 0.00 0.00 0.00 0.00 0.00 0.00 0.00 0.00 0.00 0.00 0.01 0.01 0.01

GFSGL_prec_precacc_051.txt.gz
Total_Precipitation_Accumulation
0.00 0.00 0.00 0.00 0.00 0.00 0.00 0.00 0.00 0.00 0.01 0.05 0.09 0.08 0.07 0.09 0.09 0.10 0.09 0.07 0.05 0.04 0.02 0.02 0.01 0.01 0.01 0.01 0.02 0.03 0.04 0.05 0.03 0.00 0.00 0.00 0.00 0.01 0.03 0.10 0.22 0.43 0.54
0.00 0.00 0.00 0.00 0.00 0.00 0.00 0.00 0.00 0.00 0.01 0.02 0.04 0.09 0.11 0.09 0.07 0.05 0.03 0.01 0.00 0.00 0.00 0.00 0.00 0.00 0.00 0.00 0.01 0.01 0.01 0.01 0.02 0.01 0.00 0.00 0.00 0.00 0.01 0.03 0.10 0.24 0.42
0.00 0.00 0.00 0.00 0.00 0.00 0.00 0.00 0.00 0.01 0.04 0.08 0.12 0.08 0.04 0.02 0.01 0.00 0.00 0.00 0.00 0.00 0.00 0.00 0.00 0.00 0.00 0.00 0.00 0.01 0.01 0.01 0.02 0.03 0.01 0.00 0.00 0.00 0.00 0.02 0.03 0.07 0.16
0.00 0.00 0.00 0.00 0.00 0.01 0.01 0.01 0.03 0.05 0.07 0.07 0.05 0.03 0.01 0.01 0.02 0.01 0.00 0.00 0.00 0.00 0.00 0.00 0.00 0.00 0.00 0.00 0.01 0.01 0.01 0.03 0.03 0.03 0.01 0.00 0.00 0.00 0.02 0.02 0.03 0.05 0.06
0.00 0.00 0.00 0.01 0.01 0.03 0.05 0.05 0.08 0.07 0.04 0.03 0.03 0.02 0.03 0.03 0.01 0.00 0.00 0.00 0.00 0.00 0.00 0.00 0.00 0.00 0.00 0.01 0.02 0.01 0.03 0.04 0.04 0.05 0.04 0.03 0.02 0.02 0.03 0.05 0.05 0.05 0.07
0.00 0.00 0.03 0.07 0.15 0.21 0.19 0.11 0.04 0.03 0.06 0.06 0.04 0.04 0.01 0.00 0.00 0.00 0.00 0.00 0.00 0.00 0.01 0.00 0.00 0.00 0.01 0.01 0.00 0.00 0.01 0.05 0.10 0.12 0.11 0.09 0.05 0.04 0.05 0.10 0.11 0.10 0.11
0.01 0.03 0.07 0.11 0.14 0.08 0.02 0.02 0.07 0.09 0.06 0.03 0.01 0.00 0.01 0.02 0.00 0.00 0.00 0.00 0.01 0.01 0.01 0.01 0.01 0.00 0.00 0.01 0.01 0.01 0.01 0.02 0.09 0.16 0.24 0.13 0.10 0.08 0.10 0.16 0.14 0.14 0.12
0.01 0.02 0.02 0.01 0.00 0.01 0.05 0.08 0.08 0.06 0.03 0.01 0.00 0.01 0.02 0.02 0.00 0.00 0.00 0.01 0.01 0.01 0.01 0.01 0.02 0.01 0.01 0.03 0.07 0.13 0.08 0.05 0.04 0.05 0.14 0.12 0.07 0.07 0.12 0.17 0.22 0.26 0.19
0.02 0.00 0.00 0.01 0.03 0.05 0.06 0.09 0.06 0.01 0.00 0.00 0.00 0.01 0.01 0.01 0.00 0.00 0.00 0.04 0.06 0.03 0.01 0.02 0.04 0.06 0.04 0.08 0.31 0.39 0.18 0.07 0.04 0.05 0.08 0.07 0.08 0.09 0.15 0.43 0.50 0.50 0.35
0.00 0.01 0.02 0.03 0.07 0.10 0.07 0.01 0.00 0.00 0.00 0.00 0.00 0.01 0.01 0.01 0.01 0.01 0.03 0.14 0.20 0.10 0.05 0.04 0.03 0.04 0.11 0.19 0.45 0.47 0.39 0.10 0.04 0.07 0.07 0.05 0.04 0.07 0.07 0.31 0.44 0.48 0.32
0.01 0.02 0.02 0.03 0.04 0.03 0.01 0.00 0.00 0.00 0.03 0.03 0.03 0.01 0.02 0.02 0.02 0.03 0.04 0.15 0.23 0.22 0.10 0.06 0.06 0.20 0.28 0.22 0.25 0.39 0.36 0.15 0.11 0.14 0.15 0.15 0.14 0.14 0.16 0.22 0.35 0.58 0.48
0.00 0.01 0.04 0.04 0.02 0.01 0.00 0.00 0.00 0.02 0.03 0.03 0.03 0.03 0.03 0.03 0.03 0.03 0.04 0.07 0.11 0.36 0.21 0.16 0.22 0.18 0.18 0.17 0.19 0.27 0.23 0.22 0.31 0.35 0.32 0.25 0.27 0.22 0.19 0.22 0.24 0.28 0.29
0.02 0.04 0.04 0.01 0.01 0.00 0.00 0.00 0.00 0.01 0.01 0.03 0.05 0.04 0.04 0.03 0.02 0.01 0.02 0.04 0.08 0.23 0.24 0.23 0.16 0.13 0.09 0.08 0.13 0.20 0.21 0.35 0.39 0.35 0.31 0.21 0.16 0.16 0.17 0.23 0.29 0.36 0.37
0.03 0.02 0.02 0.01 0.00 0.01 0.01 0.01 0.01 0.01 0.02 0.02 0.03 0.05 0.05 0.03 0.03 0.06 0.11 0.09 0.12 0.15 0.12 0.11 0.15 0.13 0.11 0.17 0.22 0.23 0.38 0.47 0.40 0.35 0.23 0.19 0.21 0.23 0.27 0.28 0.31 0.35 0.65
0.01 0.01 0.01 0.00 0.03 0.02 0.00 0.00 0.00 0.01 0.02 0.04 0.05 0.13 0.16 0.14 0.08 0.25 0.29 0.31 0.31 0.20 0.16 0.18 0.14 0.09 0.09 0.11 0.15 0.13 0.15 0.14 0.19 0.20 0.21 0.19 0.25 0.21 0.24 0.29 0.30 0.26 0.42
0.02 0.03 0.03 0.02 0.02 0.01 0.00 0.00 0.00 0.00 0.00 0.01 0.04 0.12 0.09 0.13 0.19 0.20 0.19 0.24 0.18 0.13 0.17 0.16 0.15 0.16 0.17 0.16 0.19 0.21 0.12 0.13 0.11 0.13 0.21 0.18 0.21 0.27 0.19 0.16 0.21 0.28 0.23
0.03 0.05 0.02 0.01 0.02 0.01 0.01 0.02 0.02 0.01 0.00 0.01 0.03 0.03 0.07 0.16 0.21 0.17 0.15 0.17 0.16 0.11 0.14 0.17 0.19 0.21 0.20 0.16 0.16 0.19 0.24 0.27 0.18 0.16 0.23 0.24 0.18 0.20 0.29 0.21 0.21 0.32 0.31
0.01 0.02 0.02 0.02 0.02 0.02 0.02 0.04 0.04 0.04 0.05 0.03 0.03 0.02 0.05 0.13 0.18 0.13 0.13 0.10 0.11 0.11 0.14 0.17 0.20 0.19 0.17 0.11 0.11 0.14 0.16 0.18 0.17 0.17 0.26 0.20 0.16 0.13 0.16 0.16 0.18 0.18 0.20
0.01 0.01 0.01 0.02 0.03 0.03 0.04 0.03 0.03 0.04 0.05 0.04 0.03 0.03 0.05 0.09 0.12 0.10 0.12 0.15 0.17 0.16 0.16 0.16 0.18 0.15 0.11 0.10 0.11 0.11 0.14 0.16 0.16 0.17 0.20 0.19 0.15 0.15 0.11 0.11 0.09 0.10 0.10
0.01 0.00 0.01 0.02 0.03 0.03 0.04 0.04 0.03 0.04 0.05 0.06 0.06 0.07 0.06 0.08 0.10 0.12 0.15 0.17 0.17 0.17 0.17 0.16 0.14 0.13 0.12 0.09 0.09 0.09 0.09 0.11 0.09 0.10 0.14 0.13 0.15 0.15 0.13 0.14 0.12 0.10 0.13
0.01 0.01 0.01 0.03 0.05 0.05 0.05 0.05 0.05 0.07 0.07 0.07 0.10 0.11 0.10 0.15 0.17 0.16 0.19 0.19 0.18 0.16 0.15 0.14 0.12 0.09 0.09 0.08 0.08 0.07 0.06 0.08 0.09 0.09 0.09 0.12 0.15 0.16 0.16 0.15 0.12 0.10 0.09
0.02 0.03 0.05 0.06 0.05 0.06 0.06 0.06 0.06 0.07 0.07 0.09 0.10 0.08 0.08 0.12 0.15 0.16 0.18 0.18 0.17 0.14 0.12 0.11 0.10 0.10 0.10 0.11 0.11 0.09 0.08 0.08 0.07 0.06 0.07 0.09 0.12 0.13 0.13 0.12 0.10 0.08 0.09
0.06 0.07 0.06 0.04 0.05 0.05 0.06 0.06 0.08 0.10 0.10 0.11 0.10 0.10 0.10 0.14 0.15 0.15 0.16 0.16 0.12 0.09 0.08 0.06 0.06 0.06 0.07 0.08 0.09 0.11 0.12 0.13 0.14 0.09 0.07 0.06 0.06 0.07 0.07 0.08 0.08 0.07 0.05
0.08 0.09 0.08 0.07 0.07 0.08 0.11 0.11 0.10 0.10 0.10 0.12 0.13 0.14 0.13 0.14 0.15 0.15 0.15 0.13 0.10 0.07 0.05 0.04 0.04 0.04 0.04 0.04 0.05 0.05 0.08 0.10 0.08 0.08 0.07 0.08 0.08 0.08 0.09 0.10 0.10 0.10 0.10
0.12 0.13 0.13 0.12 0.12 0.14 0.14 0.13 0.14 0.14 0.14 0.14 0.13 0.14 0.13 0.14 0.14 0.14 0.13 0.12 0.09 0.05 0.03 0.02 0.02 0.01 0.01 0.01 0.01 0.01 0.01 0.01 0.02 0.02 0.02 0.02 0.03 0.04 0.05 0.06 0.06 0.07 0.08
0.13 0.14 0.12 0.12 0.13 0.14 0.15 0.15 0.13 0.12 0.13 0.12 0.12 0.12 0.12 0.13 0.13 0.11 0.09 0.08 0.07 0.05 0.03 0.02 0.01 0.00 0.01 0.00 0.00 0.00 0.00 0.00 0.00 0.00 0.00 0.00 0.00 0.00 0.00 0.00 0.01 0.01 0.01

GFSGL_prec_precacc_054.txt.gz
Total_Precipitation_Accumulation
0.00 0.00 0.00 0.00 0.00 0.00 0.00 0.00 0.00 0.00 0.01 0.05 0.09 0.08 0.07 0.09 0.09 0.10 0.09 0.07 0.06 0.04 0.02 0.02 0.02 0.02 0.01 0.01 0.02 0.03 0.04 0.05 0.03 0.00 0.00 0.00 0.00 0.01 0.03 0.10 0.22 0.43 0.54
0.00 0.00 0.00 0.00 0.00 0.00 0.00 0.00 0.00 0.00 0.01 0.02 0.04 0.09 0.11 0.09 0.07 0.05 0.03 0.01 0.00 0.00 0.01 0.00 0.00 0.00 0.00 0.00 0.01 0.01 0.01 0.01 0.02 0.01 0.00 0.00 0.00 0.00 0.01 0.03 0.10 0.24 0.42
0.00 0.00 0.00 0.00 0.00 0.00 0.00 0.00 0.00 0.01 0.04 0.08 0.12 0.08 0.04 0.02 0.01 0.00 0.00 0.00 0.00 0.00 0.00 0.00 0.00 0.00 0.00 0.00 0.00 0.01 0.01 0.01 0.02 0.03 0.01 0.00 0.00 0.00 0.00 0.02 0.03 0.07 0.16
0.00 0.00 0.00 0.00 0.00 0.01 0.01 0.01 0.03 0.05 0.07 0.07 0.05 0.03 0.01 0.01 0.02 0.01 0.00 0.00 0.00 0.00 0.01 0.01 0.00 0.00 0.00 0.00 0.01 0.01 0.01 0.03 0.03 0.03 0.01 0.00 0.00 0.00 0.02 0.03 0.04 0.05 0.06
0.00 0.00 0.00 0.01 0.01 0.03 0.05 0.05 0.08 0.07 0.04 0.03 0.03 0.02 0.03 0.04 0.02 0.00 0.00 0.00 0.01 0.01 0.00 0.00 0.00 0.00 0.00 0.01 0.02 0.01 0.03 0.04 0.04 0.05 0.04 0.03 0.02 0.02 0.04 0.05 0.05 0.06 0.07
0.00 0.00 0.03 0.07 0.15 0.21 0.19 0.11 0.04 0.03 0.06 0.06 0.04 0.04 0.01 0.00 0.00 0.00 0.00 0.00 0.00 0.00 0.01 0.00 0.00 0.00 0.01 0.01 0.00 0.00 0.01 0.05 0.10 0.12 0.12 0.10 0.05 0.04 0.07 0.13 0.13 0.11 0.11
0.01 0.03 0.07 0.11 0.14 0.08 0.02 0.02 0.07 0.09 0.06 0.03 0.01 0.00 0.01 0.03 0.00 0.00 0.00 0.00 0.01 0.01 0.01 0.01 0.01 0.00 0.00 0.01 0.01 0.01 0.01 0.02 0.09 0.17 0.26 0.15 0.13 0.10 0.11 0.17 0.14 0.14 0.12
0.01 0.02 0.02 0.01 0.00 0.01 0.05 0.08 0.08 0.06 0.03 0.01 0.00 0.01 0.02 0.03 0.00 0.00 0.00 0.01 0.01 0.01 0.01 0.01 0.02 0.01 0.01 0.03 0.07 0.13 0.09 0.05 0.04 0.05 0.14 0.12 0.08 0.07 0.12 0.17 0.22 0.27 0.19
0.02 0.00 0.00 0.01 0.03 0.05 0.06 0.09 0.06 0.01 0.00 0.00 0.00 0.01 0.02 0.03 0.00 0.00 0.00 0.04 0.06 0.03 0.01 0.02 0.04 0.06 0.04 0.08 0.31 0.39 0.18 0.07 0.04 0.06 0.08 0.08 0.08 0.09 0.15 0.44 0.50 0.52 0.38
0.00 0.01 0.02 0.03 0.07 0.10 0.07 0.01 0.00 0.00 0.00 0.00 0.00 0.01 0.01 0.01 0.01 0.01 0.03 0.14 0.20 0.10 0.05 0.04 0.03 0.04 0.11 0.19 0.45 0.47 0.39 0.11 0.04 0.07 0.07 0.05 0.05 0.08 0.09 0.33 0.47 0.55 0.36
0.01 0.02 0.02 0.03 0.04 0.03 0.01 0.00 0.00 0.00 0.03 0.03 0.03 0.01 0.02 0.02 0.02 0.03 0.04 0.15 0.23 0.22 0.10 0.06 0.06 0.20 0.28 0.22 0.25 0.39 0.36 0.15 0.11 0.14 0.16 0.15 0.15 0.15 0.16 0.22 0.35 0.58 0.48
0.00 0.01 0.04 0.04 0.02 0.01 0.00 0.00 0.00 0.02 0.03 0.03 0.03 0.03 0.03 0.04 0.04 0.03 0.04 0.07 0.11 0.36 0.21 0.16 0.22 0.18 0.18 0.17 0.19 0.27 0.23 0.22 0.31 0.35 0.32 0.25 0.27 0.22 0.19 0.22 0.24 0.29 0.30
0.02 0.04 0.04 0.01 0.01 0.00 0.00 0.00 0.00 0.01 0.01 0.03 0.05 0.05 0.05 0.04 0.03 0.02 0.02 0.04 0.08 0.23 0.24 0.23 0.16 0.13 0.09 0.08 0.13 0.20 0.21 0.35 0.39 0.36 0.31 0.21 0.17 0.17 0.17 0.24 0.30 0.36 0.37
0.03 0.02 0.02 0.01 0.00 0.01 0.01 0.01 0.01 0.01 0.02 0.03 0.03 0.06 0.06 0.03 0.03 0.07 0.12 0.10 0.12 0.15 0.12 0.11 0.15 0.13 0.11 0.17 0.22 0.23 0.38 0.47 0.40 0.35 0.23 0.19 0.21 0.23 0.27 0.28 0.31 0.36 0.65
0.01 0.01 0.01 0.00 0.03 0.02 0.00 0.00 0.00 0.01 0.02 0.04 0.06 0.13 0.16 0.14 0.09 0.25 0.30 0.33 0.32 0.21 0.16 0.18 0.14 0.09 0.09 0.11 0.15 0.13 0.15 0.14 0.19 0.20 0.21 0.19 0.25 0.21 0.24 0.29 0.30 0.26 0.42
0.02 0.03 0.03 0.02 0.02 0.01 0.00 0.00 0.00 0.00 0.00 0.01 0.04 0.12 0.09 0.13 0.19 0.20 0.19 0.24 0.18 0.13 0.17 0.16 0.15 0.16 0.18 0.16 0.19 0.21 0.12 0.13 0.11 0.13 0.21 0.18 0.21 0.27 0.19 0.16 0.22 0.28 0.23
0.03 0.05 0.02 0.01 0.02 0.01 0.01 0.02 0.02 0.01 0.00 0.01 0.03 0.03 0.07 0.16 0.21 0.17 0.16 0.18 0.17 0.12 0.15 0.17 0.20 0.21 0.21 0.16 0.16 0.19 0.24 0.27 0.18 0.16 0.23 0.25 0.18 0.20 0.29 0.21 0.22 0.32 0.31
0.01 0.02 0.02 0.02 0.02 0.02 0.02 0.04 0.04 0.05 0.05 0.03 0.03 0.02 0.05 0.13 0.18 0.13 0.13 0.11 0.12 0.12 0.15 0.18 0.20 0.20 0.17 0.11 0.11 0.14 0.16 0.18 0.17 0.17 0.26 0.21 0.16 0.13 0.16 0.16 0.18 0.18 0.20
0.01 0.01 0.01 0.02 0.03 0.03 0.04 0.04 0.04 0.04 0.05 0.04 0.03 0.03 0.05 0.09 0.12 0.10 0.12 0.16 0.18 0.17 0.17 0.17 0.19 0.16 0.12 0.10 0.11 0.11 0.14 0.16 0.17 0.17 0.20 0.19 0.15 0.15 0.12 0.11 0.09 0.10 0.10
0.01 0.00 0.01 0.02 0.03 0.03 0.04 0.04 0.04 0.06 0.07 0.07 0.07 0.08 0.06 0.10 0.12 0.12 0.15 0.17 0.17 0.17 0.17 0.16 0.15 0.14 0.12 0.09 0.10 0.09 0.09 0.11 0.09 0.10 0.14 0.13 0.15 0.15 0.13 0.14 0.12 0.10 0.13
0.02 0.01 0.02 0.04 0.05 0.06 0.07 0.07 0.07 0.09 0.10 0.09 0.11 0.12 0.11 0.17 0.19 0.18 0.21 0.22 0.19 0.16 0.15 0.15 0.12 0.10 0.10 0.09 0.08 0.07 0.06 0.08 0.09 0.09 0.09 0.12 0.15 0.16 0.16 0.15 0.12 0.10 0.09
0.04 0.05 0.07 0.09 0.08 0.08 0.06 0.06 0.06 0.08 0.07 0.10 0.11 0.09 0.10 0.16 0.17 0.16 0.19 0.18 0.17 0.15 0.13 0.12 0.10 0.10 0.11 0.11 0.11 0.10 0.08 0.08 0.07 0.06 0.07 0.09 0.12 0.13 0.13 0.12 0.10 0.08 0.09
0.09 0.12 0.12 0.10 0.07 0.06 0.07 0.07 0.09 0.11 0.11 0.12 0.12 0.13 0.13 0.20 0.20 0.19 0.17 0.16 0.12 0.10 0.08 0.07 0.07 0.06 0.07 0.08 0.09 0.11 0.12 0.13 0.15 0.09 0.07 0.06 0.06 0.07 0.07 0.09 0.08 0.07 0.05
0.10 0.13 0.11 0.09 0.09 0.11 0.13 0.13 0.12 0.12 0.13 0.16 0.16 0.17 0.16 0.17 0.18 0.19 0.19 0.16 0.13 0.10 0.07 0.07 0.05 0.04 0.04 0.05 0.05 0.05 0.08 0.10 0.08 0.08 0.07 0.08 0.08 0.08 0.09 0.10 0.10 0.10 0.10
0.16 0.20 0.23 0.21 0.17 0.17 0.16 0.15 0.16 0.16 0.17 0.18 0.17 0.16 0.16 0.16 0.16 0.16 0.15 0.14 0.12 0.09 0.07 0.06 0.05 0.03 0.02 0.02 0.02 0.01 0.01 0.01 0.02 0.02 0.02 0.02 0.03 0.04 0.05 0.06 0.06 0.07 0.08
0.19 0.22 0.19 0.16 0.16 0.16 0.16 0.15 0.13 0.13 0.13 0.12 0.13 0.13 0.13 0.14 0.14 0.13 0.11 0.10 0.08 0.07 0.06 0.05 0.04 0.03 0.03 0.02 0.02 0.01 0.00 0.00 0.00 0.00 0.00 0.00 0.00 0.00 0.00 0.00 0.01 0.01 0.01

GFSGL_prec_precacc_057.txt.gz
Total_Precipitation_Accumulation
0.00 0.00 0.00 0.00 0.00 0.00 0.00 0.00 0.00 0.00 0.01 0.05 0.09 0.08 0.07 0.09 0.09 0.10 0.09 0.07 0.06 0.04 0.02 0.02 0.02 0.02 0.01 0.01 0.02 0.03 0.04 0.05 0.03 0.00 0.00 0.00 0.00 0.01 0.03 0.10 0.22 0.43 0.54
0.00 0.00 0.00 0.00 0.00 0.00 0.00 0.00 0.00 0.00 0.01 0.02 0.04 0.09 0.11 0.09 0.07 0.05 0.03 0.01 0.00 0.00 0.01 0.00 0.00 0.00 0.00 0.00 0.01 0.01 0.01 0.01 0.02 0.01 0.00 0.00 0.00 0.00 0.01 0.03 0.10 0.24 0.42
0.00 0.00 0.00 0.00 0.00 0.00 0.00 0.00 0.00 0.01 0.04 0.08 0.12 0.08 0.04 0.02 0.01 0.00 0.00 0.00 0.00 0.00 0.00 0.00 0.00 0.00 0.00 0.00 0.00 0.01 0.01 0.01 0.02 0.03 0.01 0.00 0.00 0.00 0.00 0.02 0.03 0.07 0.16
0.00 0.00 0.00 0.00 0.00 0.01 0.01 0.01 0.03 0.05 0.07 0.07 0.05 0.03 0.01 0.01 0.02 0.01 0.00 0.00 0.00 0.00 0.01 0.01 0.00 0.00 0.00 0.00 0.01 0.01 0.01 0.03 0.03 0.03 0.01 0.00 0.00 0.00 0.02 0.03 0.04 0.05 0.06
0.00 0.00 0.00 0.01 0.01 0.03 0.05 0.05 0.08 0.07 0.04 0.03 0.03 0.02 0.03 0.04 0.02 0.00 0.00 0.00 0.01 0.01 0.00 0.00 0.00 0.00 0.00 0.01 0.02 0.01 0.03 0.04 0.04 0.05 0.04 0.03 0.02 0.02 0.04 0.05 0.06 0.06 0.07
0.00 0.00 0.03 0.07 0.15 0.21 0.19 0.11 0.04 0.03 0.06 0.06 0.04 0.04 0.01 0.00 0.00 0.00 0.00 0.00 0.00 0.01 0.01 0.00 0.00 0.00 0.01 0.01 0.00 0.00 0.01 0.05 0.10 0.12 0.12 0.10 0.05 0.05 0.09 0.14 0.14 0.11 0.11
0.01 0.03 0.07 0.11 0.14 0.08 0.02 0.02 0.07 0.09 0.06 0.03 0.01 0.00 0.01 0.03 0.00 0.00 0.00 0.00 0.01 0.01 0.01 0.01 0.01 0.00 0.00 0.01 0.01 0.01 0.01 0.02 0.09 0.17 0.26 0.16 0.15 0.11 0.12 0.17 0.14 0.14 0.12
0.01 0.02 0.02 0.01 0.00 0.01 0.05 0.08 0.08 0.06 0.03 0.01 0.00 0.01 0.02 0.03 0.00 0.00 0.00 0.01 0.01 0.01 0.01 0.01 0.02 0.01 0.01 0.03 0.07 0.13 0.09 0.05 0.04 0.05 0.14 0.12 0.08 0.07 0.12 0.17 0.22 0.27 0.19
0.02 0.00 0.00 0.01 0.03 0.05 0.06 0.09 0.06 0.01 0.00 0.00 0.00 0.01 0.02 0.03 0.00 0.00 0.00 0.04 0.06 0.03 0.01 0.02 0.04 0.06 0.04 0.08 0.31 0.39 0.18 0.07 0.04 0.06 0.08 0.08 0.08 0.09 0.15 0.45 0.52 0.54 0.40
0.00 0.01 0.02 0.03 0.07 0.10 0.07 0.01 0.00 0.00 0.00 0.00 0.00 0.01 0.01 0.01 0.01 0.01 0.03 0.14 0.20 0.10 0.05 0.04 0.03 0.04 0.11 0.19 0.45 0.47 0.39 0.11 0.04 0.07 0.07 0.05 0.05 0.08 0.09 0.34 0.50 0.57 0.38
0.01 0.02 0.02 0.03 0.04 0.03 0.01 0.00 0.00 0.00 0.03 0.03 0.03 0.01 0.02 0.02 0.02 0.03 0.04 0.15 0.23 0.22 0.10 0.06 0.06 0.20 0.28 0.22 0.25 0.39 0.36 0.15 0.11 0.14 0.16 0.15 0.15 0.15 0.16 0.22 0.35 0.60 0.52
0.00 0.01 0.04 0.04 0.02 0.01 0.00 0.00 0.00 0.02 0.03 0.03 0.03 0.03 0.03 0.04 0.04 0.03 0.04 0.07 0.11 0.36 0.21 0.16 0.22 0.18 0.18 0.17 0.19 0.27 0.23 0.22 0.31 0.35 0.32 0.25 0.27 0.22 0.19 0.22 0.24 0.29 0.31
0.02 0.04 0.04 0.01 0.01 0.00 0.00 0.00 0.00 0.01 0.01 0.03 0.05 0.05 0.05 0.04 0.03 0.02 0.02 0.04 0.08 0.23 0.24 0.23 0.16 0.13 0.09 0.08 0.13 0.20 0.21 0.35 0.39 0.36 0.31 0.21 0.17 0.17 0.17 0.24 0.30 0.36 0.37
0.03 0.02 0.02 0.01 0.00 0.01 0.01 0.01 0.01 0.01 0.02 0.03 0.03 0.07 0.06 0.04 0.03 0.07 0.12 0.10 0.12 0.16 0.12 0.11 0.15 0.13 0.11 0.17 0.22 0.23 0.38 0.47 0.40 0.35 0.23 0.19 0.21 0.23 0.27 0.28 0.31 0.36 0.65
0.01 0.01 0.01 0.00 0.03 0.02 0.00 0.00 0.00 0.01 0.02 0.04 0.06 0.14 0.17 0.14 0.09 0.25 0.30 0.34 0.34 0.22 0.17 0.19 0.14 0.09 0.09 0.11 0.15 0.13 0.15 0.14 0.19 0.20 0.21 0.19 0.25 0.21 0.24 0.29 0.30 0.26 0.42
0.02 0.03 0.03 0.02 0.02 0.01 0.00 0.00 0.00 0.00 0.00 0.01 0.04 0.12 0.09 0.13 0.19 0.20 0.19 0.24 0.18 0.13 0.18 0.16 0.15 0.16 0.18 0.16 0.19 0.21 0.12 0.13 0.11 0.13 0.21 0.18 0.21 0.27 0.19 0.16 0.22 0.28 0.23
0.03 0.05 0.02 0.01 0.02 0.01 0.01 0.02 0.02 0.01 0.00 0.01 0.03 0.03 0.07 0.16 0.21 0.17 0.16 0.18 0.17 0.12 0.16 0.17 0.20 0.21 0.21 0.16 0.16 0.19 0.24 0.27 0.18 0.16 0.23 0.25 0.18 0.20 0.29 0.21 0.22 0.32 0.31
0.01 0.02 0.02 0.02 0.02 0.02 0.02 0.04 0.04 0.05 0.05 0.03 0.03 0.02 0.05 0.13 0.18 0.13 0.13 0.12 0.13 0.13 0.15 0.18 0.20 0.20 0.17 0.11 0.11 0.14 0.16 0.18 0.17 0.17 0.26 0.21 0.16 0.13 0.16 0.16 0.18 0.18 0.20
0.01 0.01 0.01 0.02 0.03 0.03 0.04 0.04 0.04 0.05 0.06 0.04 0.03 0.03 0.05 0.09 0.12 0.10 0.12 0.20 0.19 0.17 0.17 0.17 0.19 0.16 0.12 0.11 0.11 0.11 0.14 0.16 0.17 0.17 0.20 0.19 0.15 0.15 0.12 0.11 0.09 0.10 0.10
0.01 0.00 0.01 0.03 0.04 0.04 0.06 0.08 0.09 0.10 0.10 0.10 0.09 0.08 0.07 0.11 0.15 0.12 0.16 0.18 0.18 0.18 0.17 0.16 0.15 0.14 0.12 0.09 0.10 0.09 0.09 0.11 0.09 0.10 0.14 0.13 0.15 0.15 0.13 0.14 0.12 0.10 0.13
0.02 0.02 0.03 0.05 0.06 0.09 0.12 0.14 0.13 0.13 0.11 0.09 0.12 0.12 0.12 0.21 0.23 0.20 0.24 0.24 0.21 0.17 0.15 0.15 0.12 0.10 0.10 0.09 0.08 0.07 0.06 0.08 0.09 0.09 0.09 0.12 0.15 0.16 0.16 0.15 0.12 0.10 0.09
0.05 0.06 0.08 0.10 0.10 0.12 0.12 0.12 0.09 0.08 0.07 0.10 0.11 0.09 0.10 0.18 0.20 0.18 0.20 0.20 0.19 0.18 0.15 0.14 0.12 0.10 0.11 0.11 0.11 0.10 0.08 0.08 0.07 0.06 0.07 0.09 0.12 0.13 0.13 0.12 0.10 0.08 0.09
0.09 0.12 0.13 0.11 0.11 0.10 0.11 0.10 0.11 0.13 0.14 0.16 0.15 0.14 0.17 0.25 0.24 0.23 0.21 0.19 0.15 0.13 0.11 0.10 0.10 0.09 0.08 0.08 0.09 0.11 0.12 0.13 0.15 0.09 0.07 0.06 0.06 0.07 0.07 0.09 0.08 0.07 0.05
0.11 0.13 0.12 0.13 0.16 0.21 0.26 0.21 0.17 0.16 0.17 0.19 0.19 0.22 0.22 0.22 0.24 0.23 0.22 0.20 0.18 0.15 0.12 0.12 0.10 0.08 0.07 0.07 0.06 0.05 0.08 0.10 0.08 0.08 0.07 0.08 0.08 0.08 0.09 0.10 0.10 0.10 0.10
0.18 0.22 0.27 0.30 0.25 0.23 0.20 0.18 0.17 0.17 0.18 0.18 0.17 0.18 0.17 0.18 0.18 0.16 0.16 0.16 0.13 0.11 0.09 0.07 0.07 0.06 0.06 0.06 0.05 0.01 0.01 0.02 0.02 0.02 0.02 0.02 0.03 0.04 0.05 0.06 0.06 0.07 0.08
0.21 0.24 0.22 0.18 0.19 0.18 0.18 0.17 0.15 0.14 0.14 0.13 0.14 0.14 0.14 0.15 0.15 0.13 0.11 0.10 0.10 0.10 0.09 0.07 0.05 0.04 0.05 0.06 0.06 0.02 0.00 0.01 0.01 0.00 0.00 0.00 0.00 0.00 0.00 0.00 0.01 0.01 0.01

GFSGL_prec_precacc_060.txt.gz
Total_Precipitation_Accumulation
0.00 0.00 0.00 0.00 0.00 0.00 0.00 0.00 0.00 0.00 0.01 0.05 0.09 0.08 0.07 0.09 0.09 0.10 0.09 0.07 0.06 0.04 0.02 0.02 0.02 0.02 0.01 0.01 0.02 0.03 0.05 0.05 0.03 0.00 0.00 0.00 0.00 0.01 0.03 0.10 0.22 0.43 0.54
0.00 0.00 0.00 0.00 0.01 0.01 0.00 0.00 0.00 0.00 0.01 0.02 0.04 0.09 0.11 0.09 0.07 0.05 0.03 0.01 0.00 0.00 0.01 0.00 0.00 0.00 0.00 0.00 0.01 0.01 0.01 0.01 0.02 0.01 0.00 0.00 0.00 0.00 0.01 0.03 0.10 0.24 0.42
0.01 0.00 0.00 0.00 0.00 0.00 0.00 0.00 0.00 0.01 0.04 0.08 0.12 0.08 0.04 0.02 0.01 0.00 0.00 0.00 0.00 0.00 0.00 0.00 0.00 0.00 0.00 0.00 0.00 0.01 0.01 0.01 0.02 0.03 0.01 0.00 0.00 0.00 0.00 0.02 0.03 0.07 0.16
0.01 0.00 0.00 0.00 0.00 0.01 0.01 0.01 0.03 0.05 0.07 0.07 0.05 0.03 0.01 0.01 0.02 0.01 0.00 0.00 0.00 0.00 0.01 0.01 0.00 0.00 0.00 0.00 0.01 0.01 0.01 0.03 0.03 0.03 0.01 0.00 0.00 0.00 0.02 0.03 0.04 0.05 0.06
0.00 0.00 0.00 0.01 0.01 0.03 0.05 0.05 0.08 0.07 0.04 0.03 0.03 0.02 0.03 0.04 0.02 0.00 0.00 0.00 0.01 0.01 0.00 0.00 0.00 0.00 0.00 0.01 0.02 0.01 0.03 0.04 0.04 0.05 0.04 0.03 0.02 0.02 0.04 0.06 0.07 0.06 0.07
0.00 0.00 0.03 0.07 0.15 0.21 0.19 0.11 0.04 0.03 0.06 0.06 0.04 0.04 0.01 0.00 0.00 0.00 0.00 0.00 0.00 0.01 0.01 0.00 0.00 0.00 0.01 0.01 0.00 0.00 0.01 0.05 0.10 0.12 0.12 0.10 0.06 0.06 0.10 0.15 0.14 0.11 0.12
0.01 0.03 0.07 0.11 0.14 0.08 0.02 0.02 0.07 0.09 0.06 0.03 0.01 0.00 0.01 0.03 0.00 0.00 0.00 0.00 0.01 0.01 0.01 0.01 0.01 0.00 0.00 0.01 0.01 0.01 0.01 0.02 0.09 0.17 0.26 0.16 0.15 0.11 0.12 0.17 0.14 0.15 0.12
0.01 0.02 0.02 0.01 0.00 0.01 0.05 0.08 0.08 0.06 0.03 0.01 0.00 0.01 0.02 0.03 0.00 0.00 0.00 0.01 0.01 0.01 0.01 0.01 0.02 0.01 0.01 0.03 0.07 0.13 0.09 0.05 0.04 0.05 0.14 0.12 0.08 0.07 0.13 0.18 0.24 0.27 0.20
0.02 0.00 0.00 0.01 0.03 0.05 0.06 0.09 0.06 0.01 0.00 0.00 0.00 0.01 0.02 0.03 0.00 0.00 0.00 0.04 0.06 0.03 0.01 0.02 0.04 0.06 0.04 0.08 0.31 0.39 0.18 0.07 0.04 0.06 0.08 0.08 0.08 0.09 0.15 0.46 0.53 0.56 0.40
0.00 0.01 0.02 0.03 0.07 0.10 0.07 0.01 0.00 0.00 0.00 0.00 0.00 0.01 0.01 0.01 0.01 0.01 0.03 0.14 0.20 0.10 0.05 0.04 0.03 0.04 0.11 0.19 0.45 0.47 0.39 0.11 0.04 0.07 0.07 0.05 0.05 0.08 0.09 0.35 0.50 0.59 0.38
0.01 0.02 0.02 0.03 0.04 0.03 0.01 0.00 0.00 0.00 0.03 0.03 0.03 0.01 0.02 0.02 0.02 0.03 0.04 0.15 0.23 0.22 0.10 0.06 0.06 0.20 0.28 0.22 0.25 0.39 0.36 0.15 0.11 0.14 0.16 0.15 0.15 0.15 0.16 0.22 0.35 0.60 0.53
0.00 0.01 0.04 0.04 0.02 0.01 0.00 0.00 0.00 0.02 0.03 0.03 0.03 0.03 0.03 0.04 0.04 0.03 0.04 0.07 0.11 0.36 0.21 0.16 0.22 0.18 0.18 0.17 0.19 0.27 0.23 0.22 0.31 0.35 0.32 0.25 0.27 0.22 0.19 0.22 0.24 0.29 0.31
0.02 0.04 0.04 0.01 0.01 0.00 0.00 0.00 0.00 0.01 0.01 0.03 0.05 0.05 0.05 0.04 0.03 0.02 0.02 0.04 0.08 0.23 0.24 0.23 0.16 0.13 0.09 0.08 0.13 0.20 0.21 0.35 0.39 0.36 0.31 0.21 0.17 0.17 0.17 0.24 0.30 0.36 0.37
0.03 0.02 0.02 0.01 0.00 0.01 0.01 0.01 0.01 0.01 0.02 0.03 0.03 0.07 0.06 0.04 0.03 0.07 0.12 0.10 0.13 0.16 0.13 0.12 0.15 0.13 0.11 0.17 0.22 0.23 0.38 0.47 0.40 0.35 0.23 0.19 0.21 0.23 0.27 0.28 0.31 0.36 0.65
0.01 0.01 0.01 0.00 0.03 0.02 0.00 0.00 0.00 0.01 0.02 0.04 0.06 0.14 0.17 0.14 0.09 0.25 0.30 0.34 0.34 0.22 0.18 0.20 0.15 0.10 0.10 0.11 0.15 0.13 0.15 0.14 0.19 0.20 0.21 0.19 0.25 0.21 0.24 0.29 0.30 0.26 0.42
0.02 0.03 0.03 0.02 0.02 0.01 0.00 0.00 0.00 0.00 0.00 0.01 0.04 0.12 0.09 0.13 0.19 0.20 0.19 0.24 0.18 0.13 0.19 0.17 0.15 0.16 0.18 0.16 0.19 0.21 0.12 0.13 0.11 0.13 0.21 0.18 0.21 0.27 0.19 0.16 0.22 0.28 0.23
0.03 0.05 0.02 0.01 0.02 0.01 0.01 0.02 0.02 0.01 0.00 0.01 0.03 0.03 0.07 0.16 0.21 0.17 0.16 0.18 0.17 0.14 0.19 0.18 0.20 0.21 0.21 0.16 0.16 0.19 0.24 0.27 0.18 0.16 0.23 0.25 0.18 0.20 0.29 0.21 0.22 0.32 0.31
0.01 0.02 0.02 0.02 0.02 0.02 0.02 0.04 0.04 0.06 0.06 0.04 0.04 0.02 0.05 0.13 0.18 0.13 0.13 0.14 0.16 0.13 0.16 0.18 0.20 0.20 0.17 0.11 0.11 0.14 0.16 0.18 0.17 0.17 0.26 0.21 0.16 0.13 0.16 0.16 0.18 0.18 0.20
0.01 0.01 0.01 0.03 0.03 0.04 0.04 0.05 0.06 0.08 0.10 0.10 0.07 0.04 0.05 0.09 0.12 0.10 0.12 0.25 0.22 0.18 0.17 0.18 0.20 0.16 0.12 0.11 0.11 0.11 0.14 0.16 0.17 0.17 0.20 0.19 0.15 0.15 0.12 0.11 0.09 0.10 0.10
0.01 0.00 0.01 0.04 0.04 0.05 0.06 0.09 0.13 0.16 0.17 0.17 0.13 0.09 0.07 0.11 0.15 0.12 0.16 0.19 0.21 0.19 0.18 0.17 0.15 0.14 0.13 0.09 0.10 0.09 0.09 0.11 0.09 0.10 0.14 0.13 0.15 0.15 0.13 0.14 0.12 0.10 0.13
0.02 0.02 0.03 0.05 0.06 0.09 0.13 0.15 0.16 0.19 0.17 0.11 0.12 0.12 0.12 0.22 0.23 0.21 0.24 0.25 0.23 0.20 0.18 0.17 0.13 0.11 0.10 0.09 0.08 0.07 0.06 0.08 0.09 0.09 0.09 0.12 0.15 0.16 0.16 0.15 0.12 0.10 0.09
0.05 0.06 0.08 0.11 0.11 0.13 0.14 0.14 0.14 0.15 0.14 0.13 0.13 0.11 0.11 0.18 0.21 0.22 0.24 0.24 0.22 0.21 0.19 0.19 0.15 0.11 0.11 0.11 0.11 0.10 0.09 0.08 0.07 0.06 0.07 0.09 0.12 0.13 0.13 0.12 0.10 0.08 0.09
0.09 0.13 0.13 0.12 0.13 0.14 0.13 0.18 0.26 0.25 0.21 0.20 0.18 0.16 0.17 0.27 0.30 0.28 0.26 0.23 0.18 0.16 0.15 0.16 0.17 0.14 0.10 0.10 0.10 0.12 0.13 0.14 0.15 0.09 0.07 0.06 0.06 0.07 0.07 0.09 0.08 0.07 0.05
0.11 0.14 0.12 0.14 0.19 0.23 0.30 0.27 0.21 0.19 0.19 0.20 0.20 0.22 0.23 0.23 0.25 0.24 0.23 0.21 0.20 0.18 0.15 0.16 0.14 0.12 0.11 0.11 0.10 0.08 0.10 0.10 0.08 0.08 0.07 0.08 0.08 0.08 0.09 0.10 0.10 0.10 0.10
0.18 0.22 0.27 0.31 0.26 0.24 0.21 0.18 0.18 0.17 0.19 0.20 0.19 0.19 0.18 0.18 0.18 0.16 0.16 0.16 0.14 0.11 0.09 0.09 0.10 0.09 0.08 0.09 0.09 0.05 0.05 0.04 0.03 0.02 0.02 0.02 0.03 0.04 0.05 0.06 0.06 0.07 0.08
0.21 0.24 0.22 0.19 0.19 0.18 0.19 0.18 0.16 0.15 0.15 0.14 0.15 0.15 0.15 0.16 0.15 0.13 0.11 0.10 0.10 0.10 0.09 0.09 0.08 0.06 0.05 0.07 0.09 0.07 0.06 0.04 0.02 0.01 0.01 0.00 0.00 0.00 0.00 0.00 0.01 0.01 0.01

GFSGL_prec_precacc_063.txt.gz
Total_Precipitation_Accumulation
0.00 0.00 0.00 0.00 0.00 0.01 0.02 0.03 0.03 0.01 0.01 0.05 0.09 0.08 0.07 0.09 0.09 0.10 0.09 0.07 0.06 0.04 0.02 0.02 0.02 0.02 0.01 0.01 0.02 0.03 0.05 0.07 0.03 0.00 0.00 0.00 0.00 0.01 0.03 0.10 0.22 0.43 0.54
0.00 0.00 0.00 0.00 0.02 0.06 0.07 0.03 0.00 0.00 0.01 0.02 0.04 0.09 0.11 0.09 0.07 0.05 0.03 0.01 0.00 0.00 0.01 0.00 0.00 0.00 0.00 0.00 0.01 0.01 0.01 0.01 0.02 0.01 0.00 0.00 0.00 0.00 0.01 0.03 0.10 0.24 0.42
0.01 0.01 0.01 0.02 0.02 0.01 0.00 0.00 0.00 0.01 0.04 0.08 0.12 0.08 0.04 0.02 0.01 0.00 0.00 0.00 0.00 0.00 0.00 0.00 0.00 0.00 0.00 0.00 0.00 0.01 0.01 0.01 0.02 0.03 0.01 0.00 0.00 0.00 0.00 0.02 0.03 0.07 0.16
0.02 0.02 0.01 0.01 0.01 0.01 0.01 0.01 0.03 0.05 0.07 0.07 0.05 0.03 0.01 0.01 0.02 0.01 0.00 0.00 0.00 0.00 0.01 0.01 0.00 0.00 0.00 0.00 0.01 0.01 0.01 0.03 0.03 0.03 0.01 0.00 0.00 0.00 0.02 0.03 0.04 0.05 0.06
0.02 0.01 0.01 0.01 0.01 0.03 0.05 0.05 0.08 0.07 0.04 0.03 0.03 0.02 0.03 0.04 0.02 0.00 0.00 0.00 0.01 0.01 0.00 0.00 0.00 0.00 0.00 0.01 0.02 0.01 0.03 0.04 0.04 0.05 0.04 0.03 0.02 0.02 0.04 0.06 0.08 0.06 0.07
0.01 0.00 0.03 0.07 0.15 0.21 0.19 0.11 0.04 0.03 0.06 0.06 0.04 0.04 0.01 0.00 0.00 0.00 0.00 0.00 0.00 0.01 0.01 0.00 0.00 0.00 0.01 0.01 0.00 0.00 0.01 0.05 0.10 0.12 0.12 0.10 0.06 0.06 0.10 0.15 0.14 0.12 0.12
0.01 0.03 0.07 0.11 0.14 0.08 0.02 0.02 0.07 0.09 0.06 0.03 0.01 0.00 0.01 0.03 0.00 0.00 0.00 0.00 0.01 0.01 0.01 0.01 0.01 0.00 0.00 0.01 0.01 0.01 0.01 0.02 0.09 0.17 0.26 0.16 0.15 0.11 0.12 0.17 0.14 0.15 0.13
0.01 0.02 0.02 0.01 0.00 0.01 0.05 0.08 0.08 0.06 0.03 0.01 0.00 0.01 0.02 0.03 0.00 0.00 0.00 0.01 0.01 0.01 0.01 0.01 0.02 0.01 0.01 0.03 0.07 0.13 0.09 0.05 0.04 0.05 0.14 0.12 0.08 0.07 0.13 0.18 0.25 0.28 0.20
0.02 0.00 0.00 0.01 0.03 0.05 0.06 0.09 0.06 0.01 0.00 0.00 0.00 0.01 0.02 0.03 0.00 0.00 0.00 0.04 0.06 0.03 0.01 0.02 0.04 0.06 0.04 0.08 0.31 0.39 0.18 0.07 0.04 0.06 0.08 0.08 0.08 0.09 0.15 0.46 0.53 0.56 0.40
0.00 0.01 0.02 0.03 0.07 0.10 0.07 0.01 0.00 0.00 0.00 0.00 0.00 0.01 0.01 0.01 0.01 0.01 0.03 0.14 0.20 0.10 0.05 0.04 0.03 0.04 0.11 0.19 0.45 0.47 0.39 0.11 0.04 0.07 0.07 0.05 0.05 0.08 0.09 0.35 0.50 0.59 0.39
0.01 0.02 0.02 0.03 0.04 0.03 0.01 0.00 0.00 0.00 0.03 0.03 0.03 0.01 0.02 0.02 0.02 0.03 0.04 0.15 0.23 0.22 0.10 0.06 0.06 0.20 0.28 0.22 0.25 0.39 0.36 0.15 0.11 0.14 0.16 0.15 0.15 0.15 0.16 0.22 0.35 0.60 0.53
0.00 0.01 0.04 0.04 0.02 0.01 0.00 0.00 0.00 0.02 0.03 0.03 0.03 0.03 0.03 0.04 0.04 0.03 0.04 0.07 0.11 0.36 0.21 0.16 0.22 0.18 0.18 0.17 0.19 0.27 0.23 0.22 0.31 0.35 0.32 0.25 0.27 0.22 0.19 0.22 0.24 0.29 0.31
0.02 0.04 0.04 0.01 0.01 0.00 0.00 0.00 0.00 0.01 0.01 0.03 0.05 0.05 0.05 0.04 0.03 0.02 0.02 0.04 0.08 0.24 0.25 0.23 0.17 0.13 0.10 0.08 0.13 0.20 0.21 0.35 0.39 0.36 0.31 0.21 0.17 0.17 0.17 0.24 0.30 0.36 0.37
0.03 0.02 0.02 0.01 0.00 0.01 0.01 0.01 0.01 0.01 0.02 0.03 0.03 0.07 0.06 0.04 0.03 0.07 0.12 0.10 0.13 0.16 0.14 0.12 0.16 0.15 0.13 0.19 0.23 0.23 0.38 0.47 0.40 0.35 0.23 0.19 0.21 0.23 0.27 0.28 0.31 0.36 0.65
0.01 0.01 0.01 0.00 0.03 0.02 0.00 0.00 0.00 0.01 0.02 0.04 0.06 0.14 0.17 0.14 0.09 0.25 0.30 0.34 0.34 0.22 0.18 0.21 0.16 0.11 0.11 0.12 0.16 0.13 0.15 0.14 0.19 0.20 0.21 0.19 0.25 0.21 0.24 0.29 0.30 0.26 0.42
0.02 0.03 0.03 0.02 0.02 0.01 0.00 0.00 0.00 0.00 0.00 0.01 0.04 0.13 0.10 0.13 0.19 0.20 0.19 0.24 0.18 0.14 0.22 0.18 0.16 0.17 0.19 0.17 0.20 0.21 0.12 0.13 0.11 0.13 0.21 0.18 0.21 0.27 0.19 0.16 0.22 0.28 0.23
0.03 0.05 0.02 0.01 0.02 0.01 0.01 0.02 0.02 0.01 0.00 0.01 0.04 0.04 0.09 0.19 0.27 0.22 0.17 0.18 0.17 0.16 0.24 0.19 0.20 0.22 0.21 0.18 0.16 0.19 0.24 0.27 0.18 0.16 0.23 0.25 0.18 0.20 0.29 0.21 0.22 0.32 0.31
0.01 0.02 0.02 0.02 0.02 0.02 0.02 0.04 0.05 0.06 0.07 0.04 0.04 0.03 0.09 0.20 0.27 0.19 0.15 0.15 0.18 0.15 0.18 0.19 0.21 0.20 0.18 0.13 0.12 0.14 0.16 0.18 0.17 0.17 0.26 0.21 0.16 0.13 0.16 0.16 0.18 0.18 0.20
0.01 0.01 0.01 0.03 0.03 0.04 0.04 0.05 0.06 0.08 0.11 0.10 0.07 0.07 0.12 0.15 0.14 0.11 0.13 0.26 0.24 0.19 0.18 0.19 0.21 0.18 0.14 0.12 0.12 0.11 0.14 0.16 0.17 0.17 0.20 0.19 0.15 0.15 0.12 0.11 0.09 0.10 0.10
0.01 0.00 0.01 0.04 0.04 0.05 0.06 0.09 0.14 0.16 0.18 0.19 0.17 0.17 0.10 0.12 0.15 0.12 0.16 0.19 0.22 0.21 0.19 0.19 0.16 0.16 0.15 0.11 0.11 0.11 0.09 0.11 0.09 0.10 0.14 0.14 0.15 0.15 0.13 0.14 0.12 0.10 0.13
0.02 0.02 0.03 0.05 0.07 0.10 0.14 0.16 0.17 0.20 0.20 0.18 0.21 0.20 0.16 0.25 0.24 0.21 0.25 0.28 0.27 0.23 0.21 0.21 0.16 0.14 0.13 0.13 0.12 0.09 0.07 0.09 0.09 0.09 0.09 0.12 0.15 0.16 0.16 0.15 0.12 0.10 0.09
0.05 0.06 0.08 0.11 0.11 0.13 0.15 0.15 0.15 0.18 0.19 0.19 0.18 0.15 0.15 0.22 0.24 0.24 0.27 0.28 0.26 0.24 0.21 0.22 0.19 0.17 0.17 0.16 0.15 0.14 0.11 0.09 0.07 0.06 0.08 0.10 0.12 0.13 0.13 0.12 0.10 0.08 0.09
0.09 0.13 0.13 0.12 0.13 0.14 0.13 0.18 0.26 0.26 0.23 0.23 0.20 0.17 0.18 0.28 0.30 0.29 0.26 0.24 0.19 0.17 0.16 0.19 0.19 0.16 0.14 0.15 0.16 0.17 0.18 0.16 0.15 0.10 0.07 0.06 0.06 0.07 0.07 0.09 0.08 0.07 0.05
0.11 0.14 0.12 0.14 0.19 0.23 0.30 0.27 0.21 0.19 0.19 0.20 0.20 0.22 0.23 0.23 0.25 0.24 0.23 0.21 0.20 0.18 0.15 0.16 0.16 0.15 0.14 0.14 0.14 0.13 0.15 0.15 0.13 0.10 0.08 0.08 0.08 0.08 0.09 0.10 0.10 0.10 0.10
0.18 0.22 0.27 0.31 0.26 0.24 0.21 0.18 0.18 0.17 0.19 0.20 0.19 0.19 0.18 0.18 0.19 0.17 0.16 0.16 0.14 0.11 0.09 0.09 0.11 0.10 0.09 0.10 0.11 0.08 0.08 0.10 0.10 0.06 0.03 0.03 0.03 0.04 0.05 0.06 0.06 0.07 0.08
0.21 0.24 0.22 0.19 0.19 0.18 0.19 0.18 0.16 0.15 0.15 0.14 0.15 0.15 0.15 0.16 0.16 0.14 0.12 0.10 0.10 0.10 0.09 0.09 0.08 0.07 0.07 0.08 0.10 0.08 0.09 0.12 0.10 0.05 0.02 0.01 0.00 0.00 0.00 0.00 0.01 0.01 0.01

GFSGL_prec_precacc_066.txt.gz
Total_Precipitation_Accumulation
0.00 0.00 0.00 0.00 0.00 0.01 0.02 0.03 0.04 0.05 0.05 0.06 0.09 0.08 0.07 0.09 0.09 0.10 0.09 0.07 0.06 0.04 0.02 0.02 0.02 0.02 0.01 0.01 0.02 0.03 0.05 0.07 0.03 0.00 0.00 0.00 0.00 0.01 0.03 0.10 0.22 0.43 0.54
0.00 0.00 0.00 0.00 0.02 0.06 0.07 0.05 0.03 0.02 0.01 0.02 0.04 0.09 0.11 0.09 0.07 0.05 0.03 0.01 0.00 0.00 0.01 0.00 0.00 0.00 0.00 0.00 0.01 0.01 0.01 0.01 0.02 0.01 0.00 0.00 0.00 0.00 0.01 0.03 0.10 0.24 0.42
0.02 0.01 0.02 0.02 0.02 0.02 0.04 0.05 0.02 0.01 0.04 0.08 0.12 0.08 0.04 0.02 0.01 0.00 0.00 0.00 0.00 0.00 0.00 0.00 0.00 0.00 0.00 0.00 0.00 0.01 0.01 0.01 0.02 0.03 0.01 0.00 0.00 0.00 0.00 0.02 0.03 0.07 0.16
0.05 0.04 0.03 0.03 0.02 0.02 0.02 0.01 0.03 0.05 0.07 0.07 0.05 0.03 0.01 0.01 0.02 0.01 0.00 0.00 0.00 0.00 0.01 0.01 0.00 0.00 0.00 0.00 0.01 0.01 0.01 0.03 0.03 0.03 0.01 0.00 0.00 0.00 0.02 0.03 0.04 0.05 0.06
0.06 0.04 0.05 0.03 0.01 0.03 0.05 0.05 0.08 0.07 0.04 0.03 0.03 0.02 0.03 0.04 0.02 0.00 0.00 0.00 0.01 0.01 0.00 0.00 0.00 0.00 0.00 0.01 0.02 0.01 0.03 0.04 0.04 0.05 0.04 0.03 0.02 0.02 0.04 0.06 0.08 0.06 0.07
0.06 0.07 0.06 0.07 0.15 0.21 0.19 0.11 0.04 0.03 0.06 0.06 0.04 0.04 0.01 0.00 0.00 0.00 0.00 0.00 0.00 0.01 0.01 0.00 0.00 0.00 0.01 0.01 0.00 0.00 0.01 0.05 0.10 0.12 0.12 0.10 0.06 0.06 0.10 0.15 0.14 0.12 0.12
0.03 0.03 0.07 0.11 0.14 0.08 0.02 0.02 0.07 0.09 0.06 0.03 0.01 0.00 0.01 0.03 0.00 0.00 0.00 0.00 0.01 0.01 0.01 0.01 0.01 0.00 0.00 0.01 0.01 0.01 0.01 0.02 0.09 0.17 0.26 0.16 0.15 0.11 0.12 0.17 0.14 0.16 0.13
0.01 0.02 0.02 0.01 0.00 0.01 0.05 0.08 0.08 0.06 0.03 0.01 0.00 0.01 0.02 0.03 0.00 0.00 0.00 0.01 0.01 0.01 0.01 0.01 0.02 0.01 0.01 0.03 0.07 0.13 0.09 0.05 0.04 0.05 0.14 0.12 0.08 0.07 0.13 0.18 0.25 0.29 0.20
0.02 0.00 0.00 0.01 0.03 0.05 0.06 0.09 0.06 0.01 0.00 0.00 0.00 0.01 0.02 0.03 0.00 0.00 0.00 0.04 0.06 0.03 0.01 0.02 0.04 0.06 0.04 0.08 0.31 0.39 0.18 0.07 0.04 0.06 0.08 0.08 0.08 0.09 0.15 0.46 0.53 0.56 0.40
0.00 0.01 0.02 0.03 0.07 0.10 0.07 0.01 0.00 0.00 0.00 0.00 0.00 0.01 0.01 0.01 0.01 0.01 0.03 0.14 0.20 0.10 0.05 0.04 0.03 0.04 0.11 0.19 0.45 0.47 0.39 0.11 0.04 0.07 0.07 0.05 0.05 0.08 0.09 0.35 0.50 0.59 0.39
0.01 0.02 0.02 0.03 0.04 0.03 0.01 0.00 0.00 0.00 0.03 0.03 0.03 0.01 0.02 0.02 0.02 0.03 0.04 0.15 0.23 0.22 0.10 0.06 0.06 0.20 0.28 0.22 0.25 0.39 0.36 0.15 0.11 0.14 0.16 0.15 0.15 0.15 0.16 0.22 0.35 0.60 0.54
0.00 0.01 0.04 0.04 0.02 0.01 0.00 0.00 0.00 0.02 0.03 0.03 0.03 0.03 0.03 0.04 0.04 0.03 0.04 0.07 0.11 0.36 0.21 0.16 0.22 0.18 0.19 0.17 0.19 0.27 0.23 0.22 0.31 0.35 0.32 0.25 0.27 0.22 0.19 0.22 0.24 0.29 0.31
0.02 0.04 0.04 0.01 0.01 0.00 0.00 0.00 0.00 0.01 0.01 0.03 0.05 0.05 0.05 0.04 0.03 0.02 0.02 0.04 0.08 0.25 0.26 0.23 0.17 0.15 0.13 0.12 0.15 0.21 0.21 0.35 0.40 0.36 0.31 0.21 0.17 0.17 0.17 0.24 0.30 0.36 0.37
0.03 0.02 0.02 0.01 0.00 0.01 0.01 0.01 0.01 0.01 0.02 0.03 0.03 0.07 0.06 0.04 0.03 0.07 0.12 0.10 0.13 0.16 0.14 0.13 0.16 0.16 0.15 0.21 0.25 0.25 0.41 0.48 0.41 0.35 0.23 0.19 0.21 0.23 0.27 0.28 0.31 0.36 0.65
0.01 0.01 0.01 0.00 0.03 0.02 0.00 0.00 0.00 0.01 0.02 0.04 0.06 0.14 0.17 0.15 0.09 0.25 0.30 0.34 0.35 0.24 0.18 0.21 0.16 0.11 0.11 0.12 0.16 0.14 0.16 0.16 0.20 0.20 0.21 0.19 0.25 0.21 0.24 0.29 0.30 0.26 0.42
0.02 0.03 0.03 0.02 0.02 0.01 0.00 0.00 0.00 0.00 0.00 0.01 0.05 0.13 0.10 0.13 0.20 0.20 0.20 0.29 0.27 0.22 0.29 0.20 0.16 0.17 0.19 0.17 0.21 0.22 0.13 0.14 0.12 0.14 0.21 0.18 0.21 0.27 0.19 0.16 0.22 0.28 0.23
0.03 0.05 0.02 0.01 0.02 0.01 0.01 0.02 0.03 0.01 0.00 0.01 0.04 0.04 0.09 0.19 0.27 0.25 0.27 0.31 0.30 0.26 0.35 0.21 0.20 0.22 0.22 0.18 0.18 0.21 0.25 0.27 0.18 0.16 0.23 0.25 0.18 0.20 0.29 0.21 0.22 0.32 0.31
0.01 0.02 0.02 0.02 0.02 0.02 0.03 0.05 0.05 0.06 0.07 0.04 0.04 0.03 0.09 0.22 0.30 0.22 0.22 0.25 0.24 0.18 0.22 0.23 0.24 0.22 0.19 0.14 0.14 0.17 0.17 0.19 0.17 0.17 0.26 0.21 0.16 0.13 0.16 0.16 0.18 0.18 0.20
0.01 0.01 0.01 0.03 0.03 0.04 0.05 0.05 0.06 0.08 0.11 0.10 0.08 0.08 0.14 0.18 0.15 0.12 0.14 0.29 0.26 0.21 0.19 0.21 0.23 0.21 0.16 0.13 0.15 0.15 0.17 0.17 0.17 0.17 0.20 0.19 0.15 0.15 0.12 0.11 0.09 0.10 0.10
0.01 0.00 0.01 0.04 0.04 0.05 0.06 0.09 0.14 0.16 0.18 0.19 0.19 0.20 0.13 0.14 0.16 0.13 0.17 0.21 0.24 0.23 0.22 0.23 0.18 0.19 0.19 0.15 0.14 0.14 0.13 0.13 0.10 0.10 0.14 0.14 0.15 0.15 0.13 0.14 0.12 0.10 0.13
0.02 0.02 0.03 0.05 0.07 0.10 0.14 0.16 0.17 0.21 0.21 0.19 0.22 0.21 0.18 0.29 0.28 0.25 0.28 0.31 0.30 0.26 0.23 0.23 0.19 0.17 0.17 0.19 0.18 0.15 0.11 0.11 0.10 0.09 0.09 0.12 0.16 0.16 0.16 0.15 0.12 0.10 0.09
0.05 0.06 0.08 0.11 0.11 0.13 0.15 0.15 0.15 0.18 0.19 0.19 0.18 0.15 0.15 0.23 0.25 0.25 0.29 0.30 0.28 0.27 0.24 0.25 0.21 0.19 0.20 0.21 0.21 0.20 0.16 0.13 0.10 0.08 0.08 0.10 0.12 0.13 0.13 0.12 0.10 0.08 0.09
0.09 0.13 0.13 0.12 0.13 0.14 0.13 0.19 0.26 0.26 0.23 0.23 0.20 0.17 0.18 0.28 0.31 0.29 0.27 0.24 0.19 0.18 0.17 0.21 0.21 0.18 0.15 0.16 0.20 0.24 0.25 0.20 0.19 0.15 0.10 0.07 0.07 0.08 0.07 0.09 0.08 0.07 0.05
0.11 0.14 0.12 0.14 0.20 0.23 0.30 0.28 0.21 0.19 0.20 0.20 0.20 0.23 0.23 0.23 0.25 0.25 0.24 0.22 0.21 0.18 0.16 0.17 0.17 0.16 0.16 0.15 0.15 0.15 0.18 0.20 0.21 0.17 0.13 0.10 0.09 0.08 0.09 0.10 0.10 0.10 0.10
0.18 0.22 0.27 0.31 0.26 0.24 0.21 0.18 0.18 0.17 0.19 0.20 0.19 0.19 0.19 0.18 0.19 0.17 0.17 0.16 0.14 0.11 0.09 0.09 0.11 0.11 0.10 0.11 0.12 0.09 0.09 0.13 0.16 0.14 0.10 0.05 0.04 0.04 0.05 0.06 0.06 0.07 0.08
0.21 0.24 0.22 0.19 0.19 0.19 0.19 0.18 0.16 0.15 0.15 0.15 0.15 0.16 0.15 0.16 0.16 0.14 0.12 0.10 0.10 0.10 0.09 0.09 0.08 0.07 0.07 0.09 0.10 0.08 0.09 0.13 0.15 0.13 0.09 0.04 0.01 0.01 0.00 0.00 0.01 0.01 0.01

GFSGL_prec_precacc_069.txt.gz
Total_Precipitation_Accumulation
0.00 0.01 0.02 0.02 0.02 0.05 0.05 0.04 0.05 0.06 0.09 0.15 0.16 0.10 0.07 0.09 0.09 0.10 0.09 0.07 0.06 0.04 0.02 0.02 0.02 0.02 0.01 0.01 0.02 0.03 0.05 0.07 0.04 0.00 0.00 0.00 0.00 0.01 0.03 0.10 0.22 0.43 0.54
0.00 0.01 0.03 0.04 0.05 0.08 0.08 0.06 0.08 0.11 0.09 0.03 0.04 0.09 0.11 0.09 0.07 0.05 0.03 0.01 0.00 0.00 0.01 0.00 0.00 0.00 0.00 0.00 0.01 0.01 0.01 0.01 0.03 0.01 0.00 0.00 0.00 0.00 0.01 0.03 0.10 0.24 0.42
0.04 0.06 0.07 0.06 0.03 0.04 0.12 0.14 0.04 0.02 0.04 0.08 0.12 0.08 0.04 0.02 0.01 0.00 0.00 0.00 0.00 0.00 0.00 0.00 0.00 0.00 0.00 0.00 0.00 0.01 0.01 0.01 0.02 0.03 0.01 0.00 0.00 0.00 0.00 0.02 0.03 0.07 0.16
0.11 0.10 0.08 0.05 0.05 0.08 0.05 0.03 0.03 0.06 0.07 0.07 0.05 0.03 0.01 0.01 0.02 0.01 0.00 0.00 0.00 0.00 0.01 0.01 0.00 0.00 0.00 0.00 0.01 0.01 0.01 0.03 0.03 0.03 0.01 0.00 0.00 0.00 0.02 0.03 0.04 0.05 0.06
0.15 0.10 0.09 0.17 0.28 0.24 0.11 0.06 0.08 0.08 0.04 0.03 0.03 0.02 0.03 0.04 0.02 0.00 0.00 0.00 0.01 0.01 0.00 0.00 0.00 0.00 0.00 0.01 0.02 0.01 0.03 0.04 0.04 0.05 0.04 0.03 0.02 0.02 0.04 0.06 0.08 0.06 0.07
0.08 0.10 0.21 0.29 0.25 0.22 0.19 0.12 0.05 0.03 0.06 0.06 0.04 0.04 0.01 0.00 0.00 0.00 0.00 0.00 0.00 0.01 0.01 0.00 0.00 0.00 0.01 0.01 0.00 0.00 0.01 0.05 0.10 0.12 0.12 0.10 0.06 0.06 0.10 0.15 0.14 0.12 0.12
0.03 0.05 0.09 0.12 0.14 0.08 0.02 0.02 0.07 0.09 0.06 0.03 0.01 0.00 0.01 0.03 0.00 0.00 0.00 0.00 0.01 0.01 0.01 0.01 0.01 0.00 0.00 0.01 0.01 0.01 0.01 0.02 0.09 0.17 0.26 0.16 0.15 0.11 0.12 0.17 0.14 0.16 0.13
0.01 0.02 0.02 0.01 0.00 0.01 0.05 0.08 0.08 0.06 0.03 0.01 0.00 0.01 0.02 0.03 0.00 0.00 0.00 0.01 0.01 0.01 0.01 0.01 0.02 0.01 0.01 0.03 0.07 0.13 0.09 0.05 0.04 0.05 0.14 0.12 0.08 0.07 0.13 0.18 0.25 0.29 0.20
0.02 0.00 0.00 0.01 0.03 0.05 0.06 0.09 0.06 0.01 0.00 0.00 0.00 0.01 0.02 0.03 0.00 0.00 0.00 0.04 0.06 0.03 0.01 0.02 0.04 0.06 0.04 0.08 0.31 0.39 0.18 0.07 0.04 0.06 0.08 0.08 0.08 0.09 0.15 0.46 0.53 0.57 0.40
0.00 0.01 0.02 0.03 0.07 0.10 0.07 0.01 0.00 0.00 0.00 0.00 0.00 0.01 0.01 0.01 0.01 0.01 0.03 0.14 0.20 0.10 0.05 0.04 0.03 0.04 0.11 0.19 0.45 0.47 0.39 0.11 0.04 0.07 0.07 0.05 0.05 0.08 0.09 0.35 0.50 0.59 0.39
0.01 0.02 0.02 0.03 0.04 0.03 0.01 0.00 0.00 0.00 0.03 0.03 0.03 0.01 0.02 0.02 0.02 0.03 0.04 0.15 0.23 0.22 0.10 0.06 0.06 0.20 0.28 0.22 0.25 0.39 0.36 0.15 0.11 0.14 0.16 0.15 0.15 0.15 0.16 0.22 0.35 0.60 0.54
0.00 0.01 0.04 0.04 0.02 0.01 0.00 0.00 0.00 0.02 0.03 0.03 0.03 0.03 0.03 0.04 0.04 0.03 0.04 0.07 0.11 0.37 0.22 0.16 0.22 0.18 0.19 0.17 0.19 0.27 0.23 0.22 0.32 0.35 0.32 0.25 0.27 0.22 0.19 0.22 0.24 0.29 0.31
0.02 0.04 0.04 0.01 0.01 0.00 0.00 0.00 0.00 0.01 0.01 0.03 0.05 0.05 0.05 0.04 0.03 0.02 0.02 0.04 0.08 0.26 0.27 0.24 0.18 0.15 0.13 0.14 0.17 0.24 0.26 0.41 0.42 0.38 0.31 0.21 0.17 0.17 0.17 0.24 0.30 0.36 0.37
0.03 0.02 0.02 0.01 0.00 0.01 0.01 0.01 0.01 0.01 0.02 0.03 0.03 0.07 0.06 0.04 0.03 0.07 0.13 0.10 0.13 0.18 0.16 0.15 0.19 0.18 0.16 0.21 0.25 0.25 0.44 0.52 0.44 0.37 0.24 0.19 0.21 0.23 0.27 0.28 0.31 0.36 0.65
0.01 0.01 0.01 0.00 0.03 0.02 0.00 0.00 0.00 0.01 0.02 0.04 0.06 0.14 0.18 0.15 0.09 0.25 0.31 0.36 0.37 0.27 0.26 0.29 0.20 0.14 0.14 0.14 0.17 0.14 0.17 0.17 0.23 0.22 0.23 0.20 0.26 0.21 0.24 0.29 0.30 0.26 0.42
0.02 0.03 0.03 0.02 0.02 0.01 0.00 0.00 0.00 0.00 0.00 0.01 0.05 0.13 0.10 0.14 0.20 0.21 0.21 0.30 0.28 0.25 0.41 0.30 0.20 0.20 0.22 0.19 0.21 0.23 0.14 0.15 0.13 0.15 0.23 0.19 0.22 0.27 0.19 0.16 0.22 0.28 0.23
0.03 0.05 0.02 0.01 0.02 0.01 0.01 0.02 0.03 0.01 0.00 0.01 0.04 0.04 0.09 0.20 0.28 0.26 0.28 0.32 0.31 0.31 0.47 0.33 0.29 0.28 0.25 0.21 0.19 0.22 0.25 0.27 0.19 0.18 0.24 0.25 0.18 0.20 0.29 0.21 0.22 0.32 0.31
0.01 0.02 0.02 0.02 0.02 0.02 0.03 0.05 0.05 0.06 0.07 0.04 0.04 0.03 0.09 0.22 0.30 0.23 0.22 0.26 0.25 0.20 0.26 0.28 0.28 0.25 0.21 0.17 0.16 0.19 0.19 0.21 0.20 0.18 0.26 0.21 0.16 0.13 0.16 0.16 0.18 0.18 0.20
0.01 0.01 0.01 0.03 0.03 0.04 0.05 0.05 0.06 0.08 0.11 0.10 0.08 0.08 0.14 0.18 0.15 0.13 0.14 0.30 0.28 0.22 0.20 0.22 0.25 0.24 0.19 0.16 0.16 0.17 0.19 0.21 0.20 0.19 0.21 0.19 0.15 0.15 0.12 0.11 0.09 0.10 0.10
0.01 0.00 0.01 0.04 0.04 0.05 0.06 0.09 0.14 0.16 0.18 0.19 0.19 0.20 0.13 0.14 0.16 0.13 0.17 0.22 0.26 0.26 0.25 0.25 0.20 0.21 0.22 0.18 0.17 0.17 0.16 0.16 0.13 0.12 0.15 0.14 0.15 0.15 0.13 0.14 0.12 0.10 0.13
0.02 0.02 0.03 0.05 0.07 0.10 0.14 0.16 0.17 0.21 0.21 0.19 0.22 0.21 0.18 0.29 0.28 0.25 0.28 0.31 0.31 0.27 0.25 0.25 0.20 0.19 0.19 0.21 0.21 0.19 0.16 0.15 0.14 0.12 0.11 0.13 0.16 0.16 0.16 0.15 0.12 0.10 0.09
0.05 0.06 0.08 0.11 0.11 0.13 0.15 0.15 0.16 0.18 0.19 0.19 0.18 0.15 0.15 0.23 0.25 0.26 0.29 0.30 0.28 0.28 0.25 0.26 0.22 0.20 0.22 0.23 0.23 0.22 0.19 0.16 0.14 0.13 0.12 0.12 0.13 0.13 0.14 0.13 0.10 0.08 0.09
0.09 0.13 0.13 0.12 0.13 0.14 0.13 0.19 0.26 0.26 0.23 0.23 0.20 0.17 0.18 0.28 0.31 0.29 0.27 0.24 0.19 0.18 0.18 0.21 0.22 0.18 0.15 0.18 0.22 0.27 0.27 0.23 0.23 0.21 0.16 0.11 0.09 0.09 0.09 0.09 0.08 0.07 0.05
0.11 0.14 0.12 0.14 0.20 0.23 0.30 0.28 0.21 0.19 0.20 0.20 0.20 0.23 0.23 0.23 0.25 0.25 0.24 0.22 0.21 0.18 0.16 0.17 0.17 0.16 0.16 0.16 0.16 0.17 0.21 0.22 0.23 0.20 0.19 0.16 0.12 0.11 0.11 0.11 0.10 0.10 0.10
0.18 0.22 0.27 0.31 0.26 0.24 0.21 0.18 0.18 0.17 0.19 0.20 0.19 0.19 0.19 0.18 0.19 0.17 0.17 0.16 0.14 0.11 0.09 0.09 0.11 0.11 0.10 0.11 0.13 0.10 0.10 0.14 0.18 0.17 0.16 0.12 0.08 0.07 0.07 0.07 0.07 0.07 0.08
0.21 0.24 0.22 0.19 0.19 0.19 0.19 0.18 0.16 0.15 0.15 0.15 0.15 0.16 0.15 0.16 0.16 0.14 0.12 0.10 0.10 0.10 0.09 0.09 0.08 0.07 0.07 0.09 0.10 0.08 0.09 0.13 0.16 0.15 0.15 0.10 0.06 0.04 0.04 0.02 0.01 0.01 0.01

GFSGL_prec_precacc_075.txt.gz
Total_Precipitation_Accumulation
0.00 0.02 0.03 0.06 0.06 0.10 0.14 0.15 0.15 0.10 0.10 0.18 0.28 0.27 0.22 0.19 0.15 0.11 0.09 0.07 0.06 0.04 0.02 0.02 0.02 0.02 0.01 0.01 0.02 0.03 0.05 0.07 0.04 0.00 0.00 0.00 0.00 0.01 0.03 0.10 0.22 0.43 0.54
0.01 0.03 0.07 0.11 0.13 0.15 0.15 0.14 0.16 0.20 0.22 0.21 0.19 0.19 0.17 0.11 0.07 0.05 0.03 0.01 0.00 0.00 0.01 0.00 0.00 0.00 0.00 0.00 0.01 0.01 0.01 0.01 0.03 0.02 0.00 0.00 0.00 0.00 0.01 0.03 0.10 0.24 0.42
0.09 0.12 0.14 0.13 0.11 0.12 0.20 0.30 0.31 0.31 0.30 0.21 0.20 0.16 0.08 0.03 0.01 0.00 0.00 0.00 0.00 0.00 0.00 0.00 0.00 0.00 0.00 0.00 0.00 0.01 0.01 0.01 0.02 0.04 0.01 0.00 0.00 0.00 0.01 0.02 0.03 0.07 0.16
0.21 0.16 0.11 0.08 0.08 0.12 0.16 0.28 0.39 0.32 0.26 0.24 0.22 0.14 0.04 0.01 0.02 0.01 0.00 0.00 0.00 0.00 0.01 0.01 0.00 0.00 0.00 0.00 0.01 0.01 0.02 0.03 0.03 0.04 0.02 0.01 0.00 0.00 0.03 0.04 0.04 0.06 0.06
0.22 0.18 0.14 0.20 0.31 0.33 0.35 0.29 0.22 0.17 0.11 0.07 0.05 0.02 0.03 0.04 0.02 0.00 0.00 0.00 0.01 0.01 0.00 0.00 0.00 0.00 0.00 0.01 0.02 0.01 0.03 0.04 0.04 0.06 0.05 0.04 0.03 0.03 0.06 0.08 0.09 0.07 0.07
0.13 0.15 0.28 0.36 0.31 0.31 0.27 0.16 0.07 0.04 0.06 0.06 0.04 0.04 0.01 0.00 0.00 0.00 0.00 0.00 0.00 0.01 0.01 0.00 0.00 0.00 0.01 0.01 0.00 0.00 0.02 0.06 0.11 0.14 0.14 0.13 0.08 0.08 0.12 0.16 0.14 0.12 0.12
0.11 0.11 0.14 0.14 0.15 0.08 0.02 0.02 0.07 0.09 0.06 0.03 0.01 0.00 0.01 0.03 0.00 0.00 0.00 0.00 0.01 0.01 0.01 0.01 0.01 0.00 0.00 0.01 0.01 0.01 0.01 0.02 0.09 0.18 0.28 0.18 0.18 0.13 0.13 0.17 0.14 0.16 0.13
0.06 0.05 0.03 0.01 0.00 0.01 0.05 0.08 0.08 0.06 0.03 0.01 0.00 0.01 0.02 0.03 0.00 0.00 0.00 0.01 0.01 0.01 0.01 0.01 0.02 0.01 0.01 0.03 0.07 0.14 0.09 0.06 0.05 0.05 0.15 0.13 0.08 0.08 0.13 0.19 0.25 0.29 0.20
0.02 0.01 0.00 0.01 0.03 0.05 0.07 0.09 0.06 0.01 0.00 0.00 0.00 0.01 0.02 0.03 0.00 0.00 0.00 0.04 0.06 0.03 0.01 0.02 0.04 0.06 0.04 0.08 0.31 0.40 0.18 0.08 0.05 0.06 0.08 0.08 0.08 0.09 0.15 0.46 0.53 0.58 0.41
0.00 0.01 0.02 0.03 0.07 0.10 0.07 0.01 0.00 0.00 0.00 0.00 0.00 0.01 0.01 0.01 0.01 0.01 0.03 0.14 0.20 0.10 0.05 0.04 0.03 0.04 0.11 0.19 0.45 0.50 0.43 0.11 0.05 0.08 0.07 0.05 0.05 0.08 0.09 0.35 0.50 0.60 0.40
0.01 0.02 0.02 0.03 0.04 0.03 0.01 0.00 0.00 0.00 0.03 0.03 0.03 0.01 0.02 0.02 0.02 0.03 0.04 0.15 0.23 0.23 0.10 0.06 0.07 0.20 0.28 0.22 0.26 0.42 0.39 0.16 0.13 0.18 0.19 0.17 0.16 0.15 0.16 0.22 0.36 0.61 0.55
0.00 0.01 0.04 0.04 0.02 0.01 0.00 0.00 0.00 0.02 0.03 0.03 0.03 0.03 0.03 0.04 0.04 0.03 0.04 0.07 0.11 0.37 0.23 0.17 0.23 0.18 0.19 0.17 0.20 0.29 0.24 0.24 0.37 0.41 0.38 0.29 0.29 0.23 0.20 0.22 0.24 0.29 0.31
0.02 0.04 0.04 0.01 0.01 0.00 0.00 0.00 0.00 0.01 0.01 0.03 0.05 0.05 0.05 0.04 0.03 0.02 0.02 0.04 0.08 0.26 0.28 0.25 0.18 0.16 0.15 0.16 0.18 0.25 0.30 0.52 0.55 0.49 0.39 0.25 0.19 0.18 0.18 0.25 0.30 0.37 0.38
0.03 0.02 0.02 0.01 0.00 0.01 0.01 0.01 0.01 0.01 0.02 0.03 0.03 0.07 0.07 0.04 0.03 0.07 0.13 0.11 0.14 0.19 0.17 0.17 0.20 0.20 0.18 0.25 0.29 0.29 0.48 0.56 0.49 0.43 0.29 0.24 0.26 0.28 0.30 0.30 0.32 0.37 0.67
0.01 0.01 0.01 0.00 0.03 0.02 0.00 0.00 0.00 0.01 0.02 0.04 0.06 0.14 0.18 0.15 0.09 0.26 0.31 0.36 0.38 0.28 0.27 0.31 0.24 0.18 0.18 0.19 0.23 0.19 0.20 0.19 0.25 0.24 0.26 0.24 0.31 0.26 0.28 0.31 0.32 0.28 0.45
0.02 0.03 0.03 0.02 0.02 0.01 0.00 0.00 0.00 0.00 0.00 0.01 0.05 0.13 0.10 0.14 0.20 0.21 0.21 0.30 0.28 0.25 0.42 0.32 0.24 0.26 0.28 0.26 0.31 0.32 0.21 0.18 0.15 0.16 0.24 0.20 0.25 0.32 0.23 0.19 0.24 0.31 0.25
0.03 0.05 0.02 0.01 0.02 0.01 0.01 0.02 0.03 0.01 0.00 0.01 0.04 0.04 0.09 0.20 0.28 0.26 0.28 0.32 0.31 0.31 0.47 0.34 0.33 0.34 0.34 0.31 0.29 0.32 0.36 0.39 0.29 0.25 0.29 0.29 0.21 0.23 0.33 0.25 0.25 0.35 0.33
0.01 0.02 0.02 0.02 0.02 0.02 0.03 0.05 0.05 0.06 0.07 0.04 0.04 0.03 0.09 0.22 0.30 0.23 0.22 0.26 0.25 0.20 0.26 0.28 0.29 0.26 0.23 0.20 0.20 0.23 0.24 0.27 0.28 0.27 0.35 0.28 0.24 0.18 0.20 0.19 0.20 0.21 0.22
0.01 0.01 0.01 0.03 0.03 0.04 0.05 0.05 0.06 0.08 0.11 0.10 0.08 0.08 0.14 0.18 0.15 0.13 0.14 0.30 0.28 0.22 0.20 0.22 0.25 0.25 0.20 0.17 0.20 0.22 0.25 0.27 0.27 0.28 0.29 0.26 0.20 0.21 0.17 0.14 0.12 0.11 0.12
0.01 0.00 0.01 0.04 0.04 0.05 0.06 0.09 0.14 0.16 0.18 0.19 0.19 0.20 0.13 0.14 0.16 0.14 0.18 0.23 0.27 0.26 0.25 0.25 0.21 0.22 0.24 0.21 0.19 0.20 0.20 0.20 0.20 0.20 0.23 0.22 0.23 0.23 0.19 0.18 0.15 0.13 0.14
0.02 0.02 0.03 0.05 0.07 0.10 0.14 0.16 0.17 0.21 0.21 0.19 0.22 0.21 0.18 0.29 0.29 0.25 0.29 0.32 0.31 0.28 0.26 0.25 0.21 0.20 0.20 0.22 0.23 0.21 0.19 0.19 0.22 0.22 0.20 0.22 0.26 0.26 0.23 0.20 0.16 0.12 0.10
0.05 0.06 0.08 0.11 0.11 0.13 0.15 0.15 0.16 0.18 0.19 0.19 0.18 0.15 0.15 0.23 0.25 0.26 0.30 0.30 0.29 0.28 0.26 0.27 0.23 0.21 0.23 0.24 0.25 0.25 0.21 0.18 0.18 0.19 0.18 0.19 0.21 0.21 0.23 0.21 0.14 0.11 0.10
0.09 0.13 0.13 0.12 0.13 0.14 0.13 0.19 0.26 0.27 0.23 0.23 0.21 0.18 0.18 0.29 0.31 0.29 0.27 0.24 0.20 0.18 0.18 0.22 0.23 0.19 0.16 0.19 0.24 0.29 0.30 0.25 0.27 0.25 0.21 0.17 0.16 0.16 0.17 0.19 0.16 0.11 0.07
0.11 0.14 0.12 0.14 0.20 0.23 0.30 0.28 0.21 0.19 0.20 0.20 0.21 0.23 0.24 0.24 0.26 0.25 0.24 0.23 0.21 0.18 0.16 0.18 0.17 0.16 0.16 0.16 0.16 0.18 0.22 0.23 0.25 0.22 0.23 0.21 0.18 0.18 0.20 0.21 0.20 0.15 0.12
0.18 0.22 0.27 0.31 0.26 0.24 0.21 0.19 0.19 0.18 0.19 0.20 0.20 0.20 0.19 0.19 0.19 0.18 0.17 0.17 0.14 0.11 0.10 0.10 0.12 0.12 0.10 0.12 0.13 0.10 0.11 0.15 0.19 0.19 0.18 0.15 0.12 0.12 0.14 0.16 0.16 0.15 0.12
0.22 0.24 0.22 0.19 0.20 0.19 0.19 0.19 0.16 0.15 0.16 0.15 0.16 0.16 0.16 0.16 0.16 0.14 0.12 0.11 0.11 0.11 0.09 0.09 0.08 0.07 0.08 0.09 0.10 0.09 0.10 0.14 0.16 0.16 0.18 0.12 0.09 0.08 0.09 0.10 0.10 0.10 0.05

GFSGL_prec_precacc_078.txt.gz
Total_Precipitation_Accumulation
0.00 0.02 0.04 0.11 0.11 0.13 0.16 0.16 0.17 0.14 0.14 0.22 0.35 0.38 0.33 0.26 0.24 0.23 0.17 0.10 0.06 0.04 0.02 0.02 0.02 0.02 0.01 0.01 0.02 0.03 0.05 0.07 0.04 0.00 0.00 0.00 0.00 0.01 0.03 0.10 0.22 0.43 0.54
0.01 0.04 0.12 0.25 0.16 0.20 0.24 0.17 0.19 0.26 0.34 0.47 0.54 0.43 0.31 0.21 0.14 0.09 0.05 0.02 0.01 0.00 0.01 0.00 0.00 0.00 0.00 0.00 0.01 0.01 0.01 0.01 0.03 0.02 0.00 0.00 0.00 0.00 0.01 0.03 0.10 0.24 0.42
0.13 0.20 0.22 0.28 0.13 0.17 0.24 0.33 0.34 0.32 0.34 0.29 0.26 0.24 0.21 0.15 0.09 0.04 0.01 0.00 0.00 0.00 0.00 0.00 0.00 0.00 0.00 0.00 0.00 0.01 0.01 0.01 0.02 0.04 0.01 0.00 0.00 0.00 0.01 0.02 0.04 0.07 0.16
0.35 0.37 0.29 0.15 0.13 0.20 0.21 0.31 0.40 0.32 0.26 0.25 0.25 0.24 0.13 0.05 0.03 0.01 0.00 0.00 0.00 0.00 0.01 0.01 0.00 0.00 0.00 0.00 0.01 0.01 0.02 0.03 0.03 0.04 0.02 0.01 0.00 0.00 0.03 0.05 0.05 0.06 0.06
0.32 0.25 0.19 0.26 0.42 0.41 0.37 0.31 0.23 0.18 0.12 0.09 0.07 0.04 0.03 0.04 0.02 0.00 0.00 0.00 0.01 0.01 0.00 0.00 0.00 0.00 0.00 0.01 0.02 0.01 0.03 0.04 0.04 0.06 0.05 0.04 0.03 0.04 0.06 0.09 0.10 0.07 0.08
0.16 0.20 0.36 0.47 0.40 0.38 0.30 0.16 0.07 0.04 0.06 0.06 0.04 0.04 0.01 0.00 0.00 0.00 0.00 0.00 0.00 0.01 0.01 0.00 0.00 0.00 0.01 0.01 0.00 0.00 0.02 0.06 0.11 0.14 0.14 0.13 0.08 0.09 0.14 0.18 0.17 0.14 0.13
0.14 0.16 0.20 0.20 0.19 0.10 0.03 0.02 0.07 0.10 0.06 0.03 0.01 0.00 0.01 0.03 0.00 0.00 0.00 0.00 0.01 0.01 0.01 0.01 0.01 0.00 0.00 0.01 0.01 0.01 0.01 0.02 0.09 0.19 0.29 0.18 0.18 0.14 0.14 0.18 0.15 0.16 0.13
0.09 0.09 0.06 0.04 0.02 0.01 0.05 0.08 0.08 0.06 0.03 0.01 0.00 0.01 0.02 0.03 0.00 0.00 0.00 0.01 0.01 0.01 0.01 0.01 0.02 0.01 0.01 0.03 0.07 0.14 0.09 0.07 0.06 0.06 0.16 0.13 0.08 0.08 0.14 0.19 0.25 0.29 0.20
0.03 0.01 0.00 0.01 0.03 0.05 0.07 0.09 0.06 0.01 0.00 0.00 0.00 0.01 0.02 0.03 0.00 0.00 0.00 0.04 0.06 0.03 0.01 0.02 0.04 0.06 0.04 0.08 0.31 0.40 0.18 0.08 0.05 0.06 0.09 0.09 0.08 0.09 0.15 0.46 0.53 0.58 0.41
0.00 0.01 0.02 0.03 0.07 0.10 0.07 0.01 0.00 0.00 0.00 0.00 0.00 0.01 0.01 0.01 0.01 0.01 0.03 0.14 0.20 0.10 0.05 0.04 0.03 0.04 0.11 0.19 0.45 0.50 0.43 0.12 0.05 0.09 0.10 0.07 0.05 0.08 0.09 0.35 0.50 0.60 0.40
0.01 0.02 0.02 0.03 0.04 0.03 0.01 0.00 0.00 0.00 0.03 0.03 0.03 0.01 0.02 0.02 0.02 0.03 0.04 0.15 0.23 0.23 0.10 0.06 0.07 0.20 0.28 0.22 0.26 0.42 0.39 0.16 0.13 0.18 0.20 0.19 0.17 0.16 0.17 0.22 0.36 0.61 0.55
0.00 0.01 0.04 0.04 0.02 0.01 0.00 0.00 0.00 0.02 0.03 0.03 0.03 0.03 0.03 0.04 0.04 0.03 0.04 0.07 0.11 0.37 0.23 0.17 0.23 0.18 0.19 0.17 0.20 0.29 0.24 0.24 0.38 0.42 0.39 0.30 0.30 0.25 0.22 0.24 0.25 0.29 0.31
0.02 0.04 0.04 0.01 0.01 0.00 0.00 0.00 0.00 0.01 0.01 0.03 0.05 0.05 0.05 0.04 0.03 0.02 0.02 0.04 0.08 0.26 0.28 0.25 0.18 0.16 0.15 0.16 0.18 0.25 0.30 0.52 0.56 0.51 0.40 0.26 0.20 0.19 0.19 0.26 0.31 0.37 0.38
0.03 0.02 0.02 0.01 0.00 0.01 0.01 0.01 0.01 0.01 0.02 0.03 0.03 0.07 0.07 0.04 0.03 0.07 0.13 0.11 0.14 0.19 0.17 0.17 0.20 0.20 0.18 0.25 0.30 0.30 0.49 0.57 0.50 0.44 0.30 0.25 0.27 0.30 0.31 0.31 0.34 0.38 0.68
0.01 0.01 0.01 0.00 0.03 0.02 0.00 0.00 0.00 0.01 0.02 0.04 0.06 0.14 0.18 0.15 0.09 0.26 0.31 0.36 0.38 0.28 0.27 0.31 0.24 0.19 0.18 0.19 0.24 0.19 0.21 0.21 0.30 0.27 0.27 0.25 0.31 0.27 0.29 0.32 0.34 0.29 0.48
0.02 0.03 0.03 0.02 0.02 0.01 0.00 0.00 0.00 0.00 0.00 0.01 0.05 0.13 0.10 0.14 0.20 0.21 0.21 0.30 0.28 0.25 0.42 0.32 0.25 0.26 0.28 0.26 0.31 0.32 0.22 0.22 0.21 0.24 0.32 0.24 0.25 0.32 0.24 0.20 0.25 0.31 0.26
0.03 0.05 0.03 0.02 0.02 0.01 0.01 0.02 0.03 0.01 0.00 0.01 0.04 0.04 0.09 0.20 0.28 0.26 0.28 0.32 0.31 0.31 0.47 0.34 0.33 0.35 0.34 0.31 0.30 0.32 0.36 0.39 0.33 0.35 0.40 0.38 0.27 0.25 0.33 0.25 0.27 0.37 0.34
0.03 0.04 0.03 0.02 0.02 0.02 0.03 0.05 0.05 0.06 0.07 0.04 0.04 0.03 0.09 0.22 0.30 0.23 0.22 0.26 0.25 0.20 0.26 0.28 0.29 0.26 0.24 0.20 0.20 0.24 0.25 0.28 0.29 0.27 0.37 0.32 0.30 0.26 0.26 0.23 0.22 0.22 0.24
0.03 0.02 0.02 0.03 0.03 0.04 0.05 0.05 0.06 0.08 0.11 0.10 0.08 0.08 0.14 0.18 0.15 0.13 0.14 0.31 0.28 0.22 0.20 0.22 0.25 0.25 0.20 0.18 0.20 0.22 0.26 0.28 0.28 0.29 0.31 0.29 0.25 0.26 0.22 0.19 0.15 0.13 0.13
0.02 0.01 0.02 0.04 0.04 0.05 0.06 0.09 0.14 0.16 0.18 0.19 0.19 0.20 0.13 0.14 0.16 0.14 0.18 0.23 0.27 0.27 0.25 0.25 0.21 0.23 0.24 0.21 0.20 0.21 0.20 0.21 0.21 0.22 0.25 0.26 0.28 0.28 0.24 0.23 0.21 0.18 0.16
0.03 0.02 0.03 0.05 0.07 0.10 0.14 0.16 0.17 0.21 0.21 0.19 0.22 0.21 0.19 0.29 0.29 0.25 0.29 0.32 0.32 0.28 0.26 0.26 0.21 0.20 0.21 0.23 0.23 0.22 0.19 0.20 0.22 0.23 0.22 0.24 0.28 0.29 0.26 0.25 0.23 0.17 0.12
0.05 0.06 0.08 0.11 0.11 0.13 0.15 0.15 0.16 0.18 0.19 0.19 0.18 0.15 0.15 0.23 0.26 0.26 0.30 0.31 0.29 0.28 0.26 0.27 0.23 0.21 0.23 0.25 0.25 0.25 0.21 0.19 0.19 0.20 0.19 0.20 0.22 0.23 0.26 0.26 0.22 0.20 0.14
0.09 0.13 0.13 0.12 0.13 0.14 0.13 0.19 0.27 0.27 0.23 0.23 0.21 0.18 0.18 0.29 0.32 0.30 0.28 0.25 0.20 0.19 0.18 0.22 0.23 0.19 0.16 0.19 0.24 0.29 0.30 0.26 0.27 0.26 0.22 0.18 0.17 0.17 0.19 0.22 0.21 0.18 0.14
0.11 0.14 0.12 0.14 0.20 0.23 0.30 0.28 0.21 0.19 0.20 0.21 0.21 0.24 0.24 0.24 0.27 0.26 0.25 0.23 0.22 0.19 0.16 0.18 0.18 0.17 0.16 0.16 0.17 0.19 0.22 0.24 0.25 0.23 0.24 0.21 0.18 0.19 0.23 0.23 0.22 0.21 0.20
0.18 0.22 0.27 0.31 0.26 0.24 0.21 0.19 0.19 0.18 0.20 0.20 0.21 0.20 0.20 0.19 0.20 0.18 0.18 0.17 0.14 0.12 0.10 0.10 0.12 0.12 0.11 0.12 0.14 0.11 0.12 0.16 0.20 0.19 0.19 0.15 0.12 0.12 0.16 0.18 0.18 0.19 0.20
0.22 0.24 0.22 0.19 0.20 0.20 0.20 0.19 0.17 0.16 0.16 0.16 0.16 0.16 0.16 0.17 0.17 0.14 0.12 0.11 0.11 0.11 0.09 0.10 0.09 0.08 0.08 0.10 0.11 0.09 0.10 0.14 0.16 0.16 0.18 0.13 0.10 0.09 0.10 0.11 0.11 0.13 0.12

GFSGL_prec_precacc_084.txt.gz
Total_Precipitation_Accumulation
0.02 0.02 0.04 0.18 0.18 0.28 0.28 0.32 0.28 0.43 0.47 0.48 0.53 0.51 0.61 0.68 0.59 0.44 0.32 0.24 0.17 0.12 0.07 0.05 0.03 0.02 0.01 0.01 0.02 0.03 0.05 0.07 0.04 0.00 0.00 0.00 0.00 0.01 0.03 0.10 0.22 0.43 0.54
0.09 0.11 0.13 0.30 0.35 0.40 0.54 0.51 0.57 0.63 0.58 0.63 0.68 0.52 0.37 0.25 0.18 0.14 0.11 0.08 0.05 0.03 0.02 0.01 0.00 0.00 0.00 0.00 0.01 0.01 0.01 0.01 0.03 0.02 0.00 0.00 0.00 0.00 0.01 0.03 0.10 0.24 0.42
0.26 0.33 0.23 0.37 0.39 0.66 0.75 0.97 1.02 0.86 0.57 0.38 0.31 0.26 0.22 0.16 0.10 0.08 0.06 0.03 0.03 0.02 0.00 0.00 0.00 0.00 0.00 0.00 0.00 0.01 0.01 0.01 0.02 0.04 0.01 0.00 0.00 0.00 0.01 0.02 0.04 0.07 0.16
0.38 0.39 0.31 0.33 0.43 0.55 0.64 0.72 0.79 0.44 0.35 0.35 0.34 0.29 0.15 0.07 0.06 0.06 0.05 0.03 0.03 0.02 0.01 0.01 0.00 0.00 0.00 0.00 0.01 0.01 0.02 0.03 0.03 0.04 0.02 0.01 0.00 0.00 0.03 0.05 0.05 0.06 0.06
0.42 0.48 0.42 0.56 0.90 0.92 0.91 0.60 0.37 0.26 0.20 0.14 0.09 0.05 0.05 0.06 0.06 0.04 0.02 0.01 0.02 0.02 0.01 0.00 0.00 0.00 0.00 0.01 0.02 0.01 0.03 0.04 0.04 0.06 0.05 0.04 0.03 0.04 0.06 0.09 0.10 0.07 0.08
0.29 0.30 0.48 0.61 0.51 0.54 0.44 0.29 0.14 0.07 0.09 0.08 0.05 0.05 0.04 0.04 0.11 0.08 0.03 0.01 0.01 0.01 0.01 0.00 0.00 0.00 0.01 0.01 0.00 0.00 0.02 0.06 0.11 0.14 0.14 0.13 0.08 0.09 0.14 0.18 0.18 0.18 0.17
0.18 0.21 0.27 0.26 0.23 0.16 0.08 0.06 0.10 0.12 0.08 0.05 0.02 0.02 0.03 0.05 0.04 0.02 0.01 0.01 0.01 0.01 0.01 0.01 0.01 0.00 0.00 0.01 0.01 0.01 0.01 0.02 0.09 0.19 0.29 0.18 0.18 0.14 0.15 0.20 0.16 0.17 0.14
0.12 0.11 0.08 0.05 0.03 0.04 0.08 0.12 0.11 0.11 0.07 0.04 0.04 0.05 0.07 0.07 0.05 0.03 0.01 0.01 0.01 0.01 0.01 0.01 0.02 0.01 0.01 0.03 0.07 0.14 0.09 0.07 0.06 0.06 0.16 0.13 0.09 0.08 0.15 0.21 0.27 0.30 0.21
0.04 0.02 0.01 0.01 0.04 0.06 0.08 0.11 0.08 0.05 0.04 0.04 0.03 0.03 0.03 0.04 0.01 0.00 0.00 0.04 0.06 0.03 0.01 0.02 0.04 0.06 0.04 0.08 0.31 0.40 0.18 0.08 0.05 0.06 0.09 0.09 0.08 0.10 0.16 0.49 0.56 0.61 0.44
0.01 0.01 0.02 0.03 0.07 0.11 0.08 0.03 0.01 0.01 0.01 0.00 0.00 0.01 0.02 0.02 0.01 0.01 0.03 0.14 0.20 0.10 0.05 0.04 0.03 0.04 0.11 0.19 0.45 0.50 0.43 0.12 0.05 0.09 0.10 0.07 0.05 0.09 0.11 0.38 0.54 0.67 0.47
0.01 0.02 0.02 0.03 0.04 0.03 0.01 0.00 0.01 0.01 0.03 0.03 0.03 0.01 0.02 0.02 0.02 0.03 0.04 0.15 0.23 0.23 0.10 0.06 0.07 0.20 0.28 0.22 0.26 0.42 0.39 0.17 0.14 0.19 0.20 0.19 0.17 0.16 0.17 0.22 0.36 0.62 0.59
0.00 0.01 0.04 0.04 0.02 0.01 0.00 0.00 0.00 0.02 0.04 0.03 0.03 0.03 0.03 0.04 0.04 0.03 0.04 0.07 0.11 0.37 0.23 0.17 0.23 0.18 0.19 0.17 0.20 0.29 0.24 0.24 0.38 0.43 0.40 0.30 0.30 0.26 0.22 0.24 0.26 0.30 0.32
0.02 0.04 0.04 0.01 0.01 0.00 0.00 0.00 0.01 0.01 0.01 0.03 0.05 0.05 0.05 0.04 0.03 0.02 0.02 0.04 0.08 0.26 0.28 0.25 0.18 0.16 0.15 0.16 0.18 0.25 0.30 0.52 0.56 0.52 0.41 0.27 0.21 0.20 0.20 0.28 0.33 0.40 0.40
0.03 0.02 0.02 0.01 0.00 0.01 0.01 0.01 0.01 0.01 0.02 0.03 0.04 0.07 0.07 0.04 0.03 0.07 0.13 0.11 0.14 0.19 0.17 0.17 0.20 0.20 0.18 0.25 0.30 0.30 0.49 0.57 0.51 0.47 0.33 0.27 0.28 0.31 0.33 0.33 0.39 0.44 0.78
0.01 0.01 0.01 0.00 0.03 0.02 0.01 0.00 0.00 0.02 0.03 0.05 0.06 0.14 0.18 0.16 0.10 0.26 0.31 0.36 0.38 0.28 0.27 0.31 0.24 0.19 0.18 0.19 0.24 0.19 0.21 0.21 0.30 0.30 0.31 0.28 0.33 0.28 0.30 0.34 0.37 0.32 0.53
0.02 0.03 0.03 0.02 0.03 0.02 0.02 0.03 0.02 0.01 0.01 0.02 0.06 0.14 0.11 0.14 0.20 0.21 0.21 0.30 0.28 0.25 0.42 0.32 0.25 0.26 0.28 0.26 0.31 0.32 0.22 0.22 0.21 0.25 0.33 0.30 0.35 0.42 0.33 0.30 0.37 0.44 0.36
0.03 0.06 0.05 0.07 0.09 0.09 0.07 0.06 0.07 0.06 0.05 0.04 0.05 0.04 0.09 0.20 0.28 0.27 0.28 0.32 0.31 0.31 0.47 0.34 0.33 0.35 0.34 0.31 0.30 0.32 0.36 0.40 0.34 0.36 0.40 0.39 0.32 0.32 0.40 0.31 0.33 0.45 0.41
0.09 0.13 0.14 0.13 0.11 0.10 0.10 0.13 0.12 0.11 0.10 0.06 0.04 0.04 0.10 0.22 0.30 0.23 0.23 0.26 0.25 0.20 0.26 0.28 0.29 0.26 0.24 0.20 0.20 0.24 0.25 0.28 0.29 0.28 0.37 0.33 0.31 0.30 0.32 0.31 0.31 0.34 0.36
0.23 0.18 0.15 0.15 0.13 0.13 0.11 0.09 0.08 0.10 0.12 0.11 0.08 0.08 0.14 0.18 0.15 0.13 0.14 0.31 0.29 0.23 0.21 0.23 0.25 0.25 0.20 0.18 0.20 0.22 0.26 0.28 0.28 0.29 0.31 0.30 0.26 0.28 0.24 0.23 0.23 0.22 0.22
0.14 0.11 0.09 0.08 0.08 0.07 0.09 0.11 0.15 0.16 0.18 0.20 0.19 0.20 0.14 0.14 0.16 0.14 0.18 0.24 0.27 0.27 0.26 0.25 0.21 0.23 0.24 0.21 0.20 0.21 0.21 0.21 0.21 0.22 0.26 0.27 0.28 0.30 0.28 0.27 0.25 0.24 0.22
0.07 0.03 0.04 0.06 0.07 0.10 0.14 0.17 0.17 0.21 0.21 0.19 0.22 0.21 0.19 0.29 0.29 0.26 0.30 0.33 0.32 0.29 0.26 0.26 0.21 0.20 0.21 0.23 0.23 0.22 0.19 0.20 0.22 0.23 0.23 0.25 0.29 0.30 0.28 0.28 0.27 0.24 0.24
0.05 0.06 0.08 0.11 0.11 0.13 0.15 0.15 0.16 0.18 0.19 0.19 0.18 0.15 0.16 0.23 0.26 0.27 0.30 0.31 0.30 0.29 0.27 0.28 0.23 0.22 0.24 0.25 0.25 0.25 0.22 0.19 0.20 0.21 0.19 0.20 0.22 0.24 0.28 0.28 0.25 0.24 0.24
0.09 0.13 0.13 0.12 0.13 0.14 0.13 0.19 0.27 0.27 0.23 0.23 0.21 0.18 0.19 0.29 0.32 0.30 0.28 0.25 0.20 0.19 0.18 0.22 0.23 0.19 0.16 0.19 0.24 0.30 0.32 0.27 0.28 0.26 0.23 0.19 0.17 0.17 0.20 0.23 0.23 0.23 0.21
0.11 0.14 0.12 0.14 0.20 0.23 0.30 0.28 0.22 0.20 0.20 0.21 0.22 0.24 0.24 0.24 0.27 0.26 0.25 0.23 0.22 0.19 0.16 0.18 0.18 0.17 0.16 0.17 0.18 0.19 0.22 0.24 0.27 0.26 0.25 0.22 0.19 0.19 0.23 0.24 0.23 0.25 0.26
0.18 0.22 0.27 0.31 0.26 0.25 0.21 0.19 0.19 0.18 0.20 0.21 0.21 0.21 0.20 0.20 0.20 0.18 0.18 0.17 0.14 0.12 0.10 0.10 0.12 0.12 0.11 0.12 0.14 0.11 0.12 0.17 0.21 0.19 0.19 0.16 0.13 0.13 0.16 0.19 0.19 0.22 0.25
0.22 0.24 0.22 0.19 0.20 0.20 0.20 0.19 0.17 0.16 0.17 0.16 0.17 0.17 0.17 0.17 0.17 0.14 0.12 0.11 0.11 0.11 0.09 0.10 0.09 0.08 0.08 0.10 0.11 0.10 0.11 0.14 0.16 0.17 0.20 0.14 0.11 0.10 0.11 0.12 0.13 0.16 0.16

GFSGL_prec_precacc_087.txt.gz
Total_Precipitation_Accumulation
0.02 0.02 0.04 0.18 0.18 0.28 0.28 0.33 0.32 0.48 0.54 0.59 0.65 0.62 0.73 0.85 0.70 0.46 0.34 0.25 0.18 0.13 0.08 0.05 0.03 0.02 0.01 0.01 0.02 0.03 0.05 0.07 0.04 0.00 0.00 0.00 0.00 0.01 0.03 0.10 0.22 0.43 0.54
0.16 0.12 0.13 0.30 0.35 0.41 0.56 0.53 0.62 0.77 0.78 0.82 0.86 0.71 0.56 0.40 0.28 0.17 0.12 0.08 0.05 0.03 0.02 0.01 0.00 0.00 0.00 0.00 0.01 0.01 0.01 0.01 0.03 0.02 0.00 0.00 0.00 0.00 0.01 0.03 0.10 0.24 0.42
0.34 0.37 0.25 0.40 0.40 0.67 0.76 1.02 1.15 1.15 1.22 1.13 0.79 0.54 0.37 0.21 0.14 0.10 0.06 0.03 0.03 0.03 0.03 0.03 0.01 0.01 0.00 0.00 0.00 0.01 0.01 0.01 0.02 0.04 0.01 0.00 0.00 0.00 0.01 0.02 0.04 0.07 0.16
0.38 0.40 0.32 0.33 0.44 0.56 0.68 0.82 1.19 1.25 0.94 0.58 0.43 0.35 0.20 0.11 0.08 0.06 0.05 0.06 0.06 0.06 0.04 0.02 0.02 0.01 0.00 0.00 0.01 0.01 0.02 0.03 0.03 0.04 0.02 0.01 0.00 0.00 0.03 0.05 0.05 0.06 0.06
0.42 0.48 0.42 0.56 0.92 0.97 1.00 0.83 0.62 0.39 0.27 0.16 0.11 0.06 0.06 0.07 0.07 0.05 0.04 0.04 0.05 0.05 0.04 0.03 0.01 0.01 0.00 0.01 0.02 0.01 0.03 0.04 0.04 0.06 0.05 0.04 0.03 0.04 0.06 0.09 0.10 0.07 0.08
0.29 0.30 0.48 0.62 0.53 0.56 0.49 0.35 0.21 0.13 0.14 0.11 0.07 0.07 0.07 0.07 0.16 0.16 0.13 0.15 0.18 0.16 0.07 0.02 0.01 0.01 0.01 0.01 0.00 0.00 0.02 0.06 0.11 0.14 0.14 0.13 0.08 0.09 0.14 0.18 0.18 0.18 0.17
0.19 0.21 0.28 0.27 0.24 0.18 0.10 0.10 0.13 0.14 0.12 0.08 0.05 0.05 0.09 0.13 0.22 0.12 0.08 0.05 0.05 0.04 0.03 0.03 0.01 0.00 0.00 0.01 0.01 0.01 0.01 0.02 0.09 0.19 0.29 0.18 0.18 0.14 0.15 0.20 0.16 0.17 0.14
0.12 0.11 0.09 0.06 0.04 0.04 0.08 0.13 0.12 0.12 0.08 0.07 0.09 0.13 0.15 0.19 0.22 0.17 0.16 0.12 0.07 0.02 0.01 0.01 0.02 0.01 0.01 0.03 0.07 0.14 0.09 0.07 0.06 0.06 0.16 0.13 0.09 0.08 0.15 0.21 0.27 0.31 0.21
0.05 0.03 0.02 0.02 0.04 0.06 0.08 0.11 0.09 0.06 0.06 0.08 0.11 0.14 0.15 0.16 0.14 0.09 0.04 0.05 0.06 0.03 0.01 0.02 0.04 0.06 0.04 0.08 0.31 0.40 0.18 0.08 0.05 0.06 0.09 0.09 0.08 0.10 0.16 0.49 0.57 0.61 0.44
0.02 0.02 0.03 0.03 0.07 0.11 0.08 0.03 0.02 0.03 0.06 0.07 0.06 0.06 0.07 0.06 0.06 0.03 0.04 0.14 0.20 0.10 0.05 0.04 0.03 0.04 0.11 0.19 0.45 0.50 0.43 0.12 0.05 0.09 0.10 0.07 0.05 0.09 0.11 0.38 0.54 0.68 0.47
0.01 0.02 0.02 0.03 0.04 0.03 0.01 0.01 0.01 0.02 0.04 0.04 0.04 0.03 0.04 0.05 0.05 0.05 0.06 0.16 0.23 0.23 0.10 0.06 0.07 0.20 0.28 0.22 0.26 0.42 0.39 0.17 0.14 0.19 0.20 0.19 0.17 0.16 0.17 0.23 0.36 0.64 0.61
0.00 0.01 0.04 0.04 0.02 0.01 0.00 0.00 0.00 0.03 0.04 0.04 0.04 0.04 0.05 0.06 0.05 0.05 0.05 0.07 0.11 0.37 0.23 0.17 0.23 0.18 0.19 0.17 0.20 0.29 0.24 0.24 0.38 0.43 0.40 0.30 0.30 0.26 0.22 0.24 0.26 0.31 0.34
0.02 0.04 0.04 0.01 0.01 0.00 0.00 0.00 0.01 0.01 0.02 0.04 0.07 0.07 0.09 0.10 0.07 0.04 0.02 0.04 0.08 0.26 0.28 0.25 0.18 0.16 0.15 0.16 0.18 0.25 0.30 0.52 0.56 0.52 0.41 0.27 0.21 0.20 0.20 0.28 0.33 0.40 0.41
0.03 0.02 0.02 0.01 0.00 0.01 0.02 0.01 0.02 0.02 0.03 0.06 0.11 0.17 0.15 0.08 0.04 0.08 0.13 0.11 0.14 0.19 0.17 0.17 0.20 0.20 0.18 0.25 0.30 0.30 0.49 0.57 0.51 0.47 0.33 0.27 0.28 0.31 0.33 0.33 0.39 0.44 0.78
0.01 0.01 0.01 0.00 0.03 0.02 0.01 0.01 0.02 0.08 0.10 0.11 0.11 0.16 0.20 0.18 0.12 0.27 0.32 0.37 0.38 0.28 0.27 0.31 0.24 0.19 0.18 0.19 0.24 0.19 0.21 0.21 0.30 0.30 0.32 0.28 0.33 0.28 0.30 0.34 0.37 0.32 0.54
0.02 0.03 0.04 0.03 0.04 0.05 0.07 0.10 0.09 0.07 0.05 0.06 0.09 0.17 0.14 0.17 0.21 0.22 0.22 0.30 0.28 0.25 0.42 0.32 0.25 0.26 0.28 0.26 0.31 0.32 0.22 0.22 0.21 0.25 0.33 0.30 0.35 0.42 0.34 0.30 0.37 0.44 0.37
0.03 0.06 0.07 0.12 0.15 0.15 0.13 0.12 0.13 0.13 0.11 0.08 0.08 0.07 0.12 0.22 0.31 0.30 0.30 0.33 0.32 0.31 0.48 0.35 0.34 0.35 0.35 0.31 0.30 0.32 0.36 0.40 0.34 0.36 0.40 0.39 0.32 0.32 0.40 0.31 0.33 0.45 0.42
0.11 0.16 0.17 0.16 0.13 0.12 0.13 0.16 0.15 0.14 0.13 0.10 0.09 0.09 0.15 0.25 0.32 0.25 0.23 0.26 0.26 0.22 0.29 0.31 0.31 0.27 0.24 0.20 0.20 0.24 0.25 0.28 0.29 0.28 0.37 0.33 0.31 0.30 0.32 0.31 0.31 0.34 0.36
0.25 0.20 0.17 0.16 0.15 0.14 0.12 0.10 0.09 0.11 0.13 0.12 0.08 0.08 0.18 0.21 0.16 0.13 0.15 0.31 0.29 0.23 0.21 0.23 0.26 0.25 0.21 0.18 0.20 0.22 0.26 0.28 0.28 0.29 0.31 0.30 0.26 0.28 0.24 0.23 0.23 0.22 0.22
0.15 0.12 0.10 0.09 0.09 0.09 0.09 0.12 0.15 0.16 0.19 0.20 0.20 0.22 0.15 0.15 0.17 0.15 0.19 0.24 0.28 0.28 0.26 0.26 0.21 0.23 0.24 0.21 0.20 0.21 0.21 0.21 0.21 0.22 0.26 0.27 0.28 0.30 0.28 0.27 0.25 0.24 0.22
0.07 0.03 0.04 0.06 0.07 0.10 0.14 0.17 0.17 0.21 0.21 0.19 0.22 0.22 0.19 0.29 0.29 0.26 0.31 0.33 0.33 0.29 0.27 0.27 0.22 0.20 0.21 0.23 0.23 0.22 0.19 0.20 0.22 0.23 0.23 0.25 0.29 0.30 0.28 0.28 0.27 0.24 0.24
0.05 0.06 0.08 0.11 0.11 0.13 0.15 0.15 0.16 0.18 0.19 0.20 0.19 0.16 0.16 0.23 0.26 0.27 0.31 0.32 0.30 0.29 0.28 0.28 0.24 0.22 0.24 0.25 0.26 0.26 0.22 0.20 0.20 0.21 0.19 0.20 0.23 0.24 0.28 0.28 0.25 0.24 0.24
0.09 0.13 0.13 0.12 0.13 0.14 0.13 0.19 0.27 0.27 0.23 0.23 0.21 0.18 0.19 0.29 0.32 0.30 0.28 0.25 0.20 0.19 0.18 0.22 0.23 0.19 0.16 0.19 0.24 0.30 0.32 0.27 0.28 0.26 0.24 0.19 0.17 0.17 0.20 0.23 0.24 0.23 0.21
0.11 0.14 0.12 0.14 0.20 0.23 0.30 0.28 0.22 0.20 0.20 0.21 0.22 0.24 0.25 0.25 0.27 0.26 0.25 0.23 0.22 0.19 0.16 0.18 0.18 0.17 0.16 0.17 0.18 0.19 0.22 0.24 0.28 0.26 0.26 0.23 0.19 0.19 0.23 0.24 0.24 0.25 0.27
0.18 0.22 0.27 0.31 0.26 0.25 0.21 0.19 0.19 0.18 0.20 0.21 0.21 0.21 0.20 0.20 0.20 0.18 0.18 0.17 0.14 0.12 0.10 0.10 0.12 0.12 0.11 0.12 0.14 0.11 0.12 0.17 0.21 0.19 0.19 0.16 0.13 0.13 0.16 0.19 0.20 0.22 0.25
0.22 0.24 0.22 0.19 0.20 0.20 0.20 0.19 0.17 0.16 0.17 0.16 0.17 0.17 0.17 0.17 0.17 0.14 0.12 0.11 0.11 0.11 0.09 0.10 0.09 0.08 0.08 0.10 0.11 0.10 0.11 0.14 0.16 0.17 0.20 0.14 0.11 0.10 0.11 0.13 0.13 0.16 0.16

GFSGL_prec_precacc_093.txt.gz
Total_Precipitation_Accumulation
0.02 0.02 0.04 0.18 0.18 0.28 0.28 0.33 0.32 0.48 0.55 0.59 0.65 0.63 0.74 0.89 0.82 0.69 0.59 0.48 0.39 0.32 0.24 0.19 0.13 0.11 0.10 0.10 0.10 0.09 0.07 0.07 0.04 0.00 0.00 0.00 0.00 0.01 0.03 0.10 0.22 0.43 0.54
0.18 0.12 0.13 0.30 0.35 0.41 0.56 0.53 0.63 0.78 0.82 0.91 0.96 0.85 0.77 0.79 0.91 0.94 0.82 0.70 0.58 0.47 0.36 0.29 0.18 0.10 0.08 0.06 0.06 0.02 0.01 0.01 0.03 0.02 0.00 0.00 0.00 0.00 0.01 0.03 0.10 0.24 0.42
0.38 0.40 0.26 0.40 0.40 0.68 0.77 1.02 1.16 1.16 1.25 1.28 1.28 1.10 0.94 0.81 0.65 0.53 0.38 0.31 0.26 0.25 0.21 0.16 0.13 0.10 0.09 0.09 0.09 0.07 0.06 0.05 0.05 0.05 0.01 0.00 0.00 0.00 0.01 0.02 0.04 0.07 0.16
0.39 0.40 0.32 0.35 0.46 0.59 0.70 0.83 1.22 1.29 1.03 0.81 0.74 0.56 0.28 0.14 0.10 0.09 0.10 0.12 0.14 0.16 0.15 0.14 0.15 0.15 0.13 0.14 0.09 0.08 0.09 0.10 0.08 0.06 0.03 0.02 0.01 0.00 0.03 0.05 0.05 0.06 0.06
0.42 0.48 0.42 0.56 0.93 0.98 1.04 0.89 0.70 0.49 0.40 0.31 0.24 0.16 0.13 0.11 0.11 0.10 0.08 0.07 0.08 0.10 0.13 0.16 0.18 0.22 0.22 0.19 0.17 0.14 0.17 0.16 0.14 0.11 0.08 0.06 0.04 0.04 0.07 0.09 0.10 0.07 0.08
0.29 0.30 0.48 0.62 0.54 0.59 0.53 0.39 0.26 0.20 0.21 0.19 0.17 0.16 0.15 0.13 0.25 0.23 0.18 0.17 0.20 0.22 0.22 0.19 0.17 0.24 0.19 0.20 0.18 0.18 0.16 0.16 0.18 0.18 0.17 0.16 0.11 0.10 0.14 0.18 0.18 0.18 0.17
0.19 0.21 0.28 0.28 0.25 0.20 0.13 0.12 0.17 0.18 0.16 0.13 0.10 0.10 0.14 0.20 0.39 0.29 0.27 0.16 0.19 0.25 0.30 0.36 0.40 0.39 0.34 0.24 0.20 0.12 0.07 0.07 0.12 0.22 0.32 0.20 0.19 0.14 0.15 0.20 0.16 0.17 0.14
0.12 0.12 0.09 0.07 0.05 0.05 0.10 0.15 0.15 0.15 0.12 0.11 0.14 0.22 0.26 0.39 0.49 0.35 0.37 0.30 0.35 0.40 0.39 0.32 0.26 0.20 0.16 0.14 0.16 0.20 0.15 0.12 0.10 0.09 0.17 0.14 0.09 0.08 0.15 0.21 0.27 0.31 0.21
0.05 0.05 0.03 0.04 0.06 0.09 0.12 0.14 0.11 0.09 0.11 0.15 0.17 0.19 0.21 0.27 0.35 0.24 0.20 0.17 0.19 0.16 0.12 0.11 0.12 0.13 0.13 0.16 0.39 0.46 0.23 0.11 0.06 0.06 0.10 0.09 0.08 0.10 0.17 0.50 0.58 0.62 0.45
0.03 0.04 0.05 0.06 0.10 0.14 0.11 0.05 0.05 0.08 0.12 0.11 0.13 0.12 0.16 0.12 0.19 0.14 0.11 0.17 0.25 0.15 0.13 0.13 0.15 0.11 0.16 0.22 0.47 0.52 0.45 0.14 0.07 0.12 0.11 0.08 0.06 0.09 0.11 0.40 0.57 0.71 0.49
0.03 0.04 0.04 0.05 0.06 0.05 0.04 0.03 0.04 0.05 0.06 0.06 0.05 0.04 0.06 0.08 0.09 0.11 0.11 0.22 0.32 0.33 0.20 0.14 0.12 0.27 0.32 0.25 0.29 0.46 0.43 0.20 0.15 0.19 0.21 0.19 0.17 0.17 0.18 0.23 0.37 0.66 0.63
0.01 0.02 0.05 0.05 0.03 0.01 0.01 0.01 0.01 0.04 0.05 0.05 0.06 0.07 0.08 0.10 0.15 0.16 0.17 0.20 0.24 0.50 0.35 0.27 0.30 0.24 0.24 0.22 0.25 0.32 0.26 0.25 0.39 0.43 0.40 0.31 0.31 0.26 0.22 0.24 0.26 0.31 0.34
0.02 0.04 0.04 0.01 0.01 0.00 0.00 0.00 0.01 0.01 0.03 0.05 0.08 0.09 0.13 0.17 0.21 0.22 0.16 0.16 0.19 0.37 0.38 0.33 0.26 0.23 0.20 0.22 0.21 0.26 0.31 0.52 0.57 0.54 0.43 0.29 0.22 0.20 0.20 0.28 0.33 0.40 0.41
0.03 0.02 0.02 0.01 0.00 0.01 0.02 0.02 0.02 0.03 0.05 0.09 0.17 0.26 0.28 0.23 0.20 0.22 0.26 0.23 0.25 0.28 0.24 0.22 0.24 0.23 0.23 0.29 0.34 0.33 0.51 0.59 0.54 0.50 0.35 0.29 0.29 0.31 0.33 0.33 0.39 0.44 0.78
0.01 0.01 0.01 0.00 0.03 0.02 0.02 0.03 0.05 0.15 0.18 0.22 0.25 0.32 0.35 0.32 0.25 0.37 0.39 0.42 0.42 0.31 0.30 0.36 0.30 0.25 0.25 0.25 0.29 0.24 0.25 0.25 0.33 0.32 0.33 0.29 0.33 0.28 0.30 0.34 0.37 0.32 0.54
0.02 0.03 0.04 0.03 0.04 0.05 0.08 0.14 0.16 0.15 0.14 0.15 0.18 0.25 0.22 0.25 0.29 0.27 0.27 0.36 0.34 0.30 0.46 0.36 0.28 0.29 0.31 0.30 0.36 0.37 0.25 0.24 0.23 0.25 0.34 0.30 0.35 0.42 0.34 0.30 0.37 0.44 0.37
0.03 0.06 0.07 0.12 0.16 0.16 0.14 0.13 0.16 0.16 0.13 0.11 0.11 0.10 0.16 0.27 0.36 0.35 0.33 0.36 0.34 0.34 0.52 0.39 0.37 0.39 0.39 0.36 0.34 0.35 0.38 0.41 0.34 0.36 0.40 0.40 0.32 0.32 0.40 0.32 0.33 0.45 0.42
0.11 0.16 0.17 0.16 0.13 0.12 0.13 0.16 0.15 0.15 0.14 0.12 0.11 0.13 0.21 0.28 0.35 0.27 0.24 0.27 0.28 0.24 0.32 0.35 0.35 0.31 0.27 0.22 0.21 0.24 0.25 0.28 0.29 0.28 0.37 0.33 0.31 0.31 0.33 0.31 0.31 0.34 0.37
0.25 0.21 0.17 0.16 0.15 0.14 0.12 0.10 0.09 0.11 0.14 0.13 0.09 0.09 0.20 0.24 0.17 0.14 0.15 0.31 0.30 0.24 0.22 0.24 0.27 0.27 0.21 0.19 0.21 0.23 0.27 0.29 0.28 0.29 0.31 0.30 0.27 0.29 0.25 0.24 0.23 0.22 0.23
0.15 0.12 0.10 0.10 0.09 0.09 0.10 0.12 0.15 0.16 0.19 0.20 0.20 0.22 0.16 0.16 0.17 0.15 0.19 0.24 0.28 0.28 0.26 0.26 0.22 0.24 0.25 0.22 0.21 0.22 0.21 0.21 0.21 0.22 0.26 0.28 0.29 0.30 0.28 0.27 0.25 0.25 0.22
0.07 0.03 0.04 0.06 0.07 0.10 0.14 0.17 0.17 0.21 0.21 0.19 0.23 0.22 0.19 0.29 0.30 0.27 0.31 0.34 0.33 0.30 0.27 0.27 0.22 0.21 0.21 0.23 0.24 0.22 0.20 0.20 0.23 0.24 0.23 0.25 0.29 0.31 0.29 0.29 0.27 0.25 0.24
0.05 0.06 0.08 0.11 0.11 0.13 0.15 0.15 0.16 0.18 0.20 0.20 0.19 0.16 0.16 0.23 0.26 0.27 0.31 0.32 0.30 0.30 0.28 0.29 0.24 0.22 0.24 0.25 0.26 0.26 0.22 0.20 0.20 0.21 0.20 0.20 0.23 0.25 0.28 0.28 0.25 0.25 0.24
0.09 0.13 0.13 0.12 0.13 0.14 0.13 0.19 0.27 0.27 0.24 0.24 0.21 0.18 0.19 0.30 0.32 0.30 0.28 0.25 0.20 0.19 0.18 0.22 0.23 0.19 0.16 0.19 0.24 0.30 0.32 0.28 0.28 0.27 0.25 0.20 0.18 0.18 0.21 0.24 0.24 0.23 0.22
0.11 0.14 0.12 0.14 0.20 0.23 0.30 0.28 0.22 0.20 0.21 0.21 0.22 0.24 0.25 0.25 0.27 0.26 0.25 0.23 0.22 0.19 0.16 0.18 0.18 0.17 0.16 0.17 0.18 0.19 0.22 0.25 0.29 0.28 0.27 0.24 0.20 0.20 0.24 0.25 0.24 0.26 0.27
0.18 0.22 0.27 0.31 0.26 0.25 0.21 0.19 0.19 0.18 0.20 0.21 0.21 0.21 0.20 0.20 0.20 0.19 0.18 0.17 0.14 0.12 0.10 0.10 0.12 0.12 0.11 0.12 0.14 0.11 0.12 0.18 0.22 0.20 0.20 0.17 0.14 0.13 0.17 0.20 0.20 0.23 0.25
0.22 0.24 0.22 0.19 0.20 0.20 0.20 0.19 0.17 0.16 0.17 0.16 0.17 0.17 0.17 0.17 0.17 0.15 0.12 0.11 0.11 0.11 0.09 0.10 0.09 0.08 0.08 0.10 0.11 0.10 0.11 0.14 0.17 0.18 0.21 0.15 0.12 0.10 0.12 0.14 0.14 0.17 0.16

GFSGL_prec_precacc_096.txt.gz
Total_Precipitation_Accumulation
0.02 0.02 0.04 0.18 0.18 0.28 0.28 0.33 0.32 0.48 0.55 0.59 0.65 0.63 0.74 0.89 0.82 0.69 0.59 0.48 0.39 0.32 0.25 0.23 0.22 0.21 0.22 0.23 0.26 0.30 0.34 0.38 0.30 0.09 0.03 0.00 0.00 0.01 0.03 0.10 0.22 0.43 0.54
0.18 0.12 0.13 0.30 0.35 0.41 0.56 0.53 0.63 0.78 0.82 0.91 0.96 0.85 0.77 0.79 0.91 0.94 0.83 0.71 0.62 0.55 0.48 0.47 0.44 0.42 0.44 0.34 0.28 0.23 0.18 0.16 0.19 0.15 0.06 0.02 0.00 0.00 0.01 0.03 0.10 0.24 0.42
0.38 0.40 0.26 0.40 0.40 0.68 0.77 1.02 1.16 1.16 1.25 1.28 1.28 1.10 0.94 0.81 0.65 0.56 0.47 0.37 0.29 0.27 0.25 0.26 0.22 0.22 0.22 0.20 0.18 0.17 0.15 0.14 0.16 0.16 0.09 0.02 0.02 0.02 0.02 0.03 0.04 0.07 0.16
0.39 0.40 0.32 0.35 0.46 0.59 0.70 0.83 1.22 1.29 1.03 0.81 0.74 0.56 0.28 0.14 0.10 0.10 0.10 0.12 0.14 0.16 0.16 0.16 0.18 0.17 0.17 0.22 0.26 0.26 0.27 0.29 0.25 0.21 0.15 0.11 0.10 0.10 0.10 0.11 0.09 0.09 0.08
0.42 0.48 0.42 0.56 0.93 0.98 1.04 0.89 0.70 0.49 0.41 0.32 0.24 0.17 0.15 0.12 0.12 0.10 0.09 0.09 0.11 0.14 0.17 0.19 0.20 0.24 0.26 0.24 0.22 0.18 0.24 0.30 0.29 0.31 0.30 0.26 0.22 0.20 0.19 0.20 0.18 0.12 0.11
0.29 0.30 0.48 0.62 0.54 0.59 0.53 0.39 0.26 0.21 0.22 0.20 0.19 0.17 0.16 0.14 0.27 0.25 0.21 0.18 0.22 0.25 0.25 0.21 0.19 0.31 0.26 0.31 0.31 0.32 0.32 0.37 0.43 0.46 0.43 0.38 0.33 0.31 0.31 0.31 0.27 0.22 0.19
0.19 0.21 0.28 0.28 0.25 0.20 0.13 0.13 0.17 0.19 0.16 0.13 0.11 0.10 0.15 0.22 0.46 0.31 0.31 0.19 0.20 0.26 0.32 0.38 0.43 0.45 0.47 0.36 0.36 0.32 0.29 0.29 0.33 0.43 0.54 0.44 0.41 0.30 0.26 0.25 0.19 0.19 0.16
0.12 0.12 0.09 0.07 0.05 0.06 0.10 0.17 0.17 0.16 0.12 0.12 0.15 0.24 0.28 0.42 0.54 0.36 0.39 0.31 0.36 0.40 0.40 0.34 0.29 0.24 0.22 0.20 0.21 0.27 0.25 0.23 0.22 0.21 0.30 0.24 0.16 0.13 0.18 0.24 0.30 0.33 0.22
0.05 0.05 0.03 0.04 0.06 0.11 0.16 0.19 0.13 0.11 0.13 0.16 0.18 0.20 0.22 0.29 0.38 0.25 0.20 0.17 0.19 0.16 0.12 0.12 0.14 0.16 0.21 0.24 0.45 0.54 0.31 0.18 0.12 0.12 0.16 0.15 0.14 0.15 0.21 0.52 0.59 0.63 0.45
0.03 0.04 0.05 0.06 0.11 0.15 0.12 0.07 0.06 0.09 0.13 0.13 0.15 0.13 0.17 0.12 0.20 0.15 0.11 0.17 0.25 0.16 0.13 0.16 0.21 0.16 0.22 0.28 0.53 0.58 0.51 0.20 0.13 0.16 0.16 0.11 0.07 0.09 0.11 0.40 0.57 0.72 0.50
0.03 0.04 0.04 0.05 0.06 0.05 0.04 0.04 0.05 0.06 0.07 0.06 0.05 0.04 0.06 0.08 0.10 0.12 0.12 0.22 0.32 0.35 0.23 0.17 0.17 0.35 0.38 0.30 0.33 0.51 0.48 0.23 0.17 0.21 0.22 0.20 0.19 0.18 0.19 0.25 0.39 0.69 0.66
0.01 0.02 0.05 0.05 0.03 0.02 0.01 0.01 0.02 0.04 0.06 0.05 0.06 0.08 0.08 0.11 0.16 0.17 0.18 0.21 0.27 0.52 0.39 0.32 0.35 0.27 0.27 0.24 0.26 0.33 0.27 0.28 0.42 0.47 0.43 0.34 0.33 0.29 0.25 0.26 0.27 0.32 0.36
0.02 0.04 0.04 0.01 0.01 0.00 0.00 0.00 0.01 0.01 0.03 0.05 0.09 0.10 0.14 0.18 0.23 0.25 0.18 0.17 0.21 0.40 0.41 0.35 0.27 0.24 0.21 0.24 0.23 0.27 0.32 0.54 0.59 0.56 0.46 0.31 0.24 0.22 0.21 0.29 0.33 0.41 0.41
0.03 0.02 0.02 0.01 0.00 0.01 0.02 0.02 0.02 0.03 0.05 0.09 0.17 0.27 0.29 0.24 0.21 0.23 0.26 0.24 0.26 0.29 0.24 0.22 0.25 0.24 0.24 0.31 0.35 0.34 0.53 0.60 0.54 0.51 0.37 0.30 0.30 0.32 0.34 0.33 0.40 0.44 0.78
0.01 0.01 0.01 0.00 0.03 0.02 0.02 0.03 0.05 0.16 0.18 0.22 0.25 0.32 0.35 0.33 0.26 0.37 0.40 0.42 0.42 0.31 0.30 0.36 0.30 0.25 0.26 0.26 0.29 0.25 0.26 0.26 0.34 0.33 0.34 0.30 0.33 0.29 0.30 0.34 0.37 0.32 0.54
0.02 0.03 0.04 0.03 0.04 0.05 0.08 0.15 0.17 0.15 0.14 0.15 0.18 0.25 0.23 0.26 0.29 0.28 0.27 0.36 0.34 0.30 0.46 0.36 0.28 0.30 0.32 0.31 0.37 0.38 0.26 0.25 0.24 0.26 0.34 0.30 0.35 0.42 0.34 0.30 0.37 0.45 0.37
0.04 0.07 0.07 0.12 0.16 0.16 0.14 0.13 0.16 0.16 0.14 0.11 0.12 0.10 0.16 0.27 0.36 0.35 0.33 0.36 0.34 0.34 0.52 0.40 0.38 0.40 0.40 0.37 0.35 0.35 0.39 0.41 0.34 0.36 0.41 0.40 0.32 0.32 0.40 0.32 0.33 0.45 0.42
0.12 0.16 0.17 0.16 0.13 0.12 0.14 0.16 0.15 0.15 0.14 0.12 0.12 0.13 0.21 0.29 0.35 0.27 0.24 0.27 0.28 0.24 0.32 0.36 0.36 0.31 0.27 0.22 0.21 0.25 0.26 0.28 0.29 0.28 0.38 0.33 0.31 0.31 0.33 0.32 0.31 0.35 0.37
0.25 0.21 0.17 0.16 0.15 0.14 0.12 0.10 0.09 0.11 0.14 0.13 0.09 0.09 0.20 0.24 0.17 0.14 0.15 0.31 0.30 0.24 0.22 0.24 0.27 0.27 0.22 0.19 0.21 0.23 0.27 0.29 0.29 0.30 0.31 0.31 0.27 0.29 0.26 0.24 0.24 0.23 0.23
0.15 0.12 0.10 0.10 0.09 0.09 0.10 0.12 0.15 0.16 0.19 0.20 0.20 0.22 0.16 0.16 0.17 0.15 0.19 0.25 0.28 0.28 0.26 0.26 0.22 0.24 0.25 0.22 0.21 0.23 0.22 0.21 0.21 0.22 0.26 0.28 0.30 0.31 0.29 0.28 0.26 0.25 0.23
0.07 0.03 0.04 0.06 0.07 0.10 0.14 0.17 0.17 0.21 0.21 0.19 0.23 0.22 0.19 0.29 0.30 0.27 0.31 0.34 0.33 0.30 0.27 0.27 0.22 0.21 0.21 0.24 0.24 0.23 0.20 0.21 0.23 0.24 0.24 0.25 0.30 0.31 0.29 0.29 0.28 0.25 0.25
0.05 0.06 0.08 0.11 0.11 0.13 0.15 0.15 0.16 0.18 0.20 0.20 0.19 0.16 0.16 0.23 0.27 0.27 0.31 0.32 0.30 0.30 0.28 0.29 0.24 0.22 0.24 0.25 0.26 0.26 0.22 0.20 0.20 0.21 0.20 0.21 0.24 0.25 0.29 0.29 0.26 0.25 0.25
0.09 0.13 0.13 0.12 0.13 0.14 0.13 0.19 0.27 0.27 0.24 0.24 0.22 0.19 0.19 0.30 0.32 0.31 0.28 0.26 0.21 0.20 0.19 0.22 0.23 0.20 0.16 0.19 0.24 0.30 0.33 0.28 0.29 0.28 0.26 0.21 0.19 0.18 0.21 0.25 0.25 0.24 0.22
0.11 0.14 0.12 0.14 0.20 0.23 0.30 0.28 0.22 0.20 0.21 0.21 0.22 0.24 0.25 0.25 0.27 0.26 0.26 0.24 0.22 0.19 0.16 0.18 0.18 0.17 0.16 0.17 0.18 0.19 0.23 0.25 0.29 0.28 0.28 0.25 0.21 0.20 0.25 0.26 0.25 0.26 0.28
0.18 0.22 0.27 0.31 0.26 0.25 0.21 0.19 0.19 0.18 0.20 0.21 0.21 0.21 0.20 0.20 0.20 0.19 0.18 0.17 0.14 0.12 0.10 0.10 0.12 0.12 0.11 0.12 0.14 0.11 0.13 0.18 0.22 0.21 0.21 0.18 0.15 0.14 0.18 0.21 0.21 0.24 0.26
0.22 0.24 0.22 0.19 0.20 0.20 0.20 0.19 0.17 0.16 0.17 0.16 0.17 0.17 0.17 0.17 0.17 0.15 0.12 0.11 0.11 0.11 0.09 0.10 0.09 0.08 0.08 0.10 0.11 0.10 0.11 0.14 0.17 0.18 0.22 0.16 0.12 0.11 0.13 0.14 0.14 0.18 0.17

GFSGL_prec_precacc_099.txt.gz
Total_Precipitation_Accumulation
0.02 0.02 0.04 0.18 0.18 0.28 0.28 0.33 0.32 0.48 0.55 0.59 0.65 0.63 0.74 0.89 0.82 0.69 0.59 0.48 0.40 0.33 0.25 0.23 0.22 0.22 0.25 0.26 0.30 0.35 0.42 0.48 0.50 0.25 0.12 0.10 0.09 0.07 0.05 0.13 0.24 0.43 0.54
0.18 0.12 0.13 0.30 0.35 0.41 0.56 0.53 0.63 0.78 0.82 0.91 0.96 0.85 0.77 0.79 0.91 0.94 0.83 0.71 0.62 0.55 0.48 0.48 0.45 0.43 0.45 0.37 0.33 0.29 0.26 0.25 0.32 0.30 0.14 0.11 0.09 0.06 0.04 0.05 0.12 0.25 0.42
0.38 0.40 0.26 0.40 0.40 0.68 0.77 1.02 1.16 1.16 1.25 1.28 1.28 1.10 0.94 0.81 0.65 0.56 0.47 0.37 0.29 0.27 0.25 0.26 0.22 0.23 0.23 0.21 0.22 0.24 0.26 0.23 0.26 0.25 0.19 0.15 0.12 0.08 0.06 0.06 0.07 0.09 0.17
0.39 0.40 0.32 0.35 0.46 0.59 0.70 0.83 1.22 1.29 1.03 0.81 0.74 0.56 0.28 0.14 0.10 0.10 0.10 0.12 0.15 0.17 0.17 0.18 0.20 0.24 0.24 0.29 0.33 0.32 0.32 0.35 0.32 0.31 0.27 0.25 0.22 0.22 0.26 0.29 0.28 0.29 0.28
0.42 0.48 0.42 0.56 0.93 0.98 1.04 0.89 0.70 0.49 0.41 0.32 0.24 0.17 0.15 0.12 0.12 0.10 0.10 0.11 0.13 0.16 0.22 0.30 0.32 0.38 0.34 0.29 0.26 0.20 0.26 0.32 0.33 0.37 0.39 0.37 0.38 0.40 0.44 0.50 0.53 0.48 0.43
0.29 0.30 0.48 0.62 0.54 0.59 0.53 0.39 0.26 0.21 0.22 0.20 0.19 0.17 0.16 0.15 0.28 0.26 0.22 0.22 0.29 0.33 0.33 0.27 0.24 0.39 0.31 0.38 0.36 0.38 0.37 0.41 0.46 0.51 0.53 0.52 0.50 0.52 0.56 0.60 0.58 0.51 0.42
0.19 0.21 0.28 0.28 0.25 0.20 0.13 0.13 0.17 0.19 0.16 0.14 0.11 0.11 0.16 0.23 0.50 0.34 0.37 0.22 0.23 0.29 0.35 0.41 0.45 0.48 0.51 0.36 0.39 0.35 0.32 0.33 0.38 0.47 0.59 0.51 0.50 0.41 0.38 0.40 0.33 0.31 0.25
0.12 0.12 0.09 0.07 0.05 0.06 0.10 0.17 0.17 0.17 0.13 0.12 0.17 0.26 0.32 0.48 0.61 0.41 0.42 0.31 0.37 0.42 0.41 0.34 0.29 0.24 0.23 0.20 0.21 0.28 0.26 0.25 0.25 0.25 0.33 0.29 0.21 0.17 0.23 0.31 0.37 0.42 0.31
0.05 0.05 0.03 0.04 0.06 0.11 0.16 0.19 0.16 0.13 0.16 0.18 0.22 0.24 0.26 0.32 0.43 0.27 0.22 0.17 0.19 0.16 0.12 0.12 0.15 0.16 0.23 0.24 0.45 0.55 0.32 0.20 0.16 0.17 0.21 0.21 0.21 0.23 0.28 0.61 0.67 0.71 0.50
0.03 0.04 0.05 0.06 0.11 0.15 0.12 0.08 0.07 0.11 0.16 0.15 0.18 0.15 0.20 0.13 0.23 0.16 0.12 0.17 0.25 0.16 0.13 0.16 0.22 0.17 0.23 0.28 0.53 0.59 0.53 0.22 0.15 0.18 0.17 0.13 0.09 0.12 0.13 0.42 0.60 0.78 0.56
0.03 0.04 0.04 0.05 0.06 0.05 0.05 0.05 0.07 0.08 0.09 0.08 0.07 0.05 0.06 0.09 0.12 0.14 0.13 0.22 0.32 0.35 0.23 0.17 0.17 0.36 0.38 0.30 0.34 0.53 0.50 0.24 0.18 0.21 0.23 0.21 0.19 0.19 0.20 0.27 0.43 0.74 0.71
0.01 0.02 0.05 0.05 0.03 0.02 0.01 0.01 0.02 0.04 0.06 0.05 0.06 0.08 0.08 0.11 0.16 0.17 0.18 0.21 0.27 0.53 0.40 0.33 0.36 0.28 0.27 0.24 0.27 0.33 0.27 0.28 0.43 0.47 0.44 0.35 0.35 0.31 0.28 0.28 0.29 0.34 0.39
0.02 0.04 0.04 0.01 0.01 0.00 0.00 0.00 0.01 0.01 0.03 0.05 0.09 0.10 0.14 0.18 0.23 0.26 0.18 0.17 0.21 0.40 0.41 0.35 0.27 0.24 0.21 0.25 0.23 0.27 0.32 0.55 0.60 0.57 0.47 0.32 0.25 0.24 0.22 0.29 0.34 0.41 0.42
0.03 0.02 0.02 0.01 0.00 0.01 0.02 0.02 0.02 0.03 0.05 0.09 0.17 0.27 0.29 0.24 0.21 0.23 0.26 0.24 0.26 0.29 0.24 0.22 0.25 0.24 0.24 0.31 0.36 0.36 0.54 0.61 0.55 0.53 0.38 0.31 0.31 0.33 0.34 0.34 0.40 0.44 0.79
0.01 0.01 0.01 0.00 0.03 0.02 0.02 0.03 0.05 0.16 0.19 0.23 0.26 0.32 0.36 0.34 0.27 0.37 0.40 0.42 0.42 0.31 0.30 0.36 0.30 0.25 0.26 0.26 0.30 0.26 0.27 0.27 0.35 0.34 0.35 0.30 0.34 0.29 0.30 0.34 0.37 0.32 0.54
0.02 0.03 0.04 0.03 0.04 0.05 0.08 0.15 0.17 0.16 0.14 0.15 0.18 0.26 0.23 0.27 0.29 0.28 0.27 0.36 0.34 0.30 0.46 0.36 0.28 0.30 0.32 0.31 0.37 0.38 0.26 0.26 0.24 0.26 0.34 0.30 0.35 0.42 0.34 0.30 0.37 0.45 0.38
0.05 0.09 0.09 0.13 0.16 0.16 0.14 0.13 0.16 0.16 0.14 0.11 0.12 0.10 0.16 0.27 0.36 0.35 0.33 0.36 0.34 0.34 0.52 0.40 0.38 0.40 0.40 0.37 0.35 0.35 0.39 0.42 0.35 0.36 0.41 0.40 0.33 0.33 0.41 0.32 0.34 0.46 0.43
0.18 0.19 0.18 0.16 0.13 0.12 0.14 0.17 0.16 0.15 0.15 0.12 0.12 0.13 0.21 0.29 0.35 0.27 0.24 0.27 0.28 0.24 0.32 0.36 0.36 0.31 0.27 0.22 0.21 0.25 0.26 0.28 0.30 0.28 0.38 0.33 0.32 0.32 0.34 0.32 0.32 0.35 0.37
0.29 0.21 0.17 0.16 0.15 0.14 0.12 0.10 0.09 0.11 0.14 0.13 0.09 0.09 0.20 0.24 0.17 0.14 0.15 0.31 0.30 0.24 0.22 0.24 0.27 0.27 0.22 0.19 0.22 0.24 0.28 0.30 0.29 0.30 0.31 0.31 0.28 0.30 0.26 0.24 0.24 0.23 0.24
0.15 0.12 0.10 0.10 0.09 0.09 0.10 0.12 0.15 0.16 0.19 0.20 0.20 0.22 0.16 0.16 0.17 0.15 0.19 0.25 0.28 0.28 0.27 0.26 0.22 0.24 0.25 0.22 0.21 0.23 0.22 0.21 0.21 0.23 0.27 0.28 0.30 0.31 0.30 0.28 0.26 0.26 0.23
0.07 0.03 0.04 0.06 0.07 0.10 0.14 0.17 0.17 0.21 0.21 0.19 0.23 0.22 0.19 0.29 0.30 0.27 0.31 0.34 0.33 0.30 0.27 0.27 0.22 0.21 0.22 0.24 0.24 0.23 0.20 0.21 0.23 0.24 0.24 0.26 0.30 0.31 0.29 0.30 0.29 0.26 0.25
0.05 0.06 0.08 0.11 0.11 0.13 0.15 0.15 0.16 0.18 0.20 0.20 0.19 0.16 0.16 0.24 0.27 0.28 0.31 0.32 0.31 0.30 0.28 0.29 0.24 0.23 0.25 0.26 0.26 0.26 0.22 0.20 0.21 0.22 0.21 0.21 0.24 0.25 0.29 0.30 0.26 0.26 0.25
0.09 0.13 0.13 0.12 0.13 0.14 0.13 0.19 0.27 0.27 0.24 0.24 0.22 0.19 0.19 0.30 0.32 0.31 0.29 0.26 0.21 0.20 0.19 0.23 0.24 0.20 0.16 0.20 0.24 0.31 0.33 0.28 0.29 0.28 0.26 0.21 0.19 0.19 0.22 0.26 0.25 0.25 0.23
0.11 0.14 0.12 0.14 0.20 0.23 0.30 0.28 0.22 0.20 0.21 0.22 0.22 0.25 0.25 0.25 0.28 0.26 0.26 0.24 0.22 0.19 0.17 0.18 0.18 0.17 0.16 0.17 0.18 0.20 0.23 0.25 0.29 0.29 0.29 0.25 0.21 0.21 0.25 0.27 0.25 0.27 0.29
0.18 0.22 0.27 0.31 0.26 0.25 0.21 0.19 0.19 0.18 0.20 0.21 0.21 0.21 0.21 0.20 0.20 0.19 0.18 0.17 0.14 0.12 0.11 0.11 0.12 0.12 0.11 0.13 0.14 0.11 0.13 0.18 0.23 0.21 0.21 0.19 0.15 0.15 0.19 0.22 0.22 0.24 0.27
0.22 0.24 0.22 0.19 0.20 0.20 0.20 0.19 0.17 0.16 0.17 0.17 0.17 0.17 0.17 0.18 0.17 0.15 0.13 0.11 0.11 0.11 0.10 0.10 0.09 0.08 0.08 0.10 0.11 0.10 0.11 0.15 0.17 0.19 0.22 0.16 0.13 0.12 0.13 0.15 0.15 0.18 0.17

GFSGL_prec_precacc_102.txt.gz
Total_Precipitation_Accumulation
0.02 0.02 0.04 0.18 0.18 0.28 0.28 0.33 0.32 0.48 0.55 0.59 0.65 0.63 0.74 0.89 0.82 0.69 0.60 0.48 0.40 0.33 0.26 0.25 0.23 0.23 0.28 0.29 0.32 0.38 0.43 0.49 0.52 0.27 0.12 0.10 0.09 0.08 0.06 0.15 0.27 0.47 0.57
0.18 0.12 0.13 0.30 0.35 0.41 0.56 0.53 0.63 0.78 0.82 0.91 0.96 0.85 0.77 0.79 0.91 0.94 0.83 0.71 0.62 0.55 0.48 0.49 0.46 0.45 0.48 0.39 0.35 0.31 0.28 0.30 0.46 0.42 0.17 0.13 0.11 0.08 0.05 0.08 0.13 0.26 0.43
0.38 0.40 0.26 0.40 0.40 0.68 0.77 1.02 1.16 1.16 1.25 1.28 1.28 1.10 0.94 0.81 0.65 0.56 0.47 0.37 0.30 0.27 0.25 0.28 0.25 0.27 0.26 0.23 0.24 0.27 0.34 0.41 0.45 0.37 0.22 0.16 0.14 0.12 0.12 0.13 0.12 0.13 0.19
0.39 0.40 0.32 0.35 0.46 0.59 0.70 0.83 1.22 1.29 1.03 0.81 0.74 0.56 0.28 0.14 0.10 0.10 0.10 0.12 0.16 0.20 0.22 0.23 0.23 0.27 0.31 0.44 0.57 0.60 0.56 0.47 0.37 0.34 0.30 0.29 0.26 0.24 0.29 0.35 0.38 0.38 0.38
0.42 0.48 0.42 0.56 0.93 0.98 1.04 0.89 0.70 0.49 0.41 0.32 0.24 0.18 0.15 0.13 0.12 0.10 0.10 0.13 0.15 0.19 0.27 0.37 0.43 0.56 0.53 0.43 0.35 0.25 0.30 0.36 0.39 0.42 0.43 0.42 0.42 0.44 0.47 0.54 0.56 0.51 0.48
0.29 0.30 0.48 0.62 0.54 0.59 0.53 0.39 0.26 0.21 0.22 0.20 0.19 0.18 0.16 0.15 0.28 0.26 0.23 0.23 0.30 0.36 0.40 0.37 0.35 0.52 0.38 0.46 0.42 0.43 0.40 0.42 0.47 0.52 0.54 0.53 0.51 0.54 0.58 0.63 0.61 0.55 0.47
0.19 0.21 0.28 0.28 0.25 0.20 0.13 0.13 0.17 0.19 0.16 0.14 0.11 0.11 0.16 0.24 0.51 0.35 0.39 0.24 0.28 0.37 0.42 0.47 0.50 0.54 0.59 0.40 0.43 0.36 0.33 0.34 0.38 0.47 0.60 0.51 0.51 0.43 0.41 0.43 0.37 0.35 0.30
0.12 0.12 0.09 0.07 0.05 0.06 0.10 0.17 0.17 0.17 0.14 0.13 0.17 0.27 0.33 0.50 0.64 0.43 0.46 0.33 0.39 0.46 0.45 0.38 0.32 0.27 0.25 0.22 0.21 0.28 0.26 0.25 0.26 0.26 0.34 0.30 0.22 0.20 0.26 0.34 0.41 0.46 0.33
0.05 0.05 0.03 0.04 0.06 0.11 0.16 0.19 0.16 0.14 0.17 0.20 0.24 0.27 0.29 0.36 0.49 0.31 0.25 0.18 0.21 0.19 0.15 0.14 0.16 0.16 0.23 0.25 0.45 0.55 0.32 0.20 0.16 0.17 0.21 0.22 0.23 0.25 0.30 0.63 0.70 0.76 0.53
0.03 0.04 0.05 0.06 0.11 0.15 0.12 0.08 0.08 0.12 0.18 0.19 0.22 0.19 0.25 0.16 0.29 0.19 0.15 0.17 0.27 0.17 0.14 0.16 0.24 0.17 0.23 0.28 0.53 0.59 0.53 0.22 0.15 0.18 0.18 0.13 0.09 0.12 0.14 0.44 0.62 0.82 0.61
0.03 0.04 0.04 0.05 0.07 0.06 0.05 0.06 0.09 0.10 0.12 0.11 0.09 0.07 0.08 0.11 0.16 0.18 0.15 0.22 0.32 0.35 0.23 0.17 0.17 0.36 0.38 0.30 0.34 0.53 0.50 0.24 0.18 0.21 0.23 0.21 0.20 0.20 0.22 0.29 0.44 0.77 0.74
0.01 0.02 0.06 0.05 0.03 0.03 0.03 0.04 0.05 0.07 0.09 0.08 0.09 0.09 0.09 0.12 0.18 0.18 0.18 0.21 0.27 0.53 0.40 0.33 0.36 0.28 0.27 0.24 0.27 0.33 0.27 0.28 0.43 0.47 0.44 0.35 0.35 0.31 0.28 0.28 0.29 0.34 0.39
0.02 0.05 0.05 0.02 0.01 0.02 0.03 0.03 0.04 0.04 0.04 0.06 0.09 0.11 0.14 0.18 0.23 0.26 0.18 0.17 0.21 0.40 0.41 0.35 0.27 0.24 0.21 0.25 0.23 0.28 0.33 0.55 0.60 0.57 0.48 0.33 0.26 0.24 0.22 0.29 0.34 0.42 0.42
0.03 0.03 0.03 0.03 0.02 0.02 0.03 0.02 0.03 0.04 0.05 0.10 0.18 0.27 0.29 0.24 0.21 0.23 0.26 0.24 0.26 0.29 0.24 0.22 0.25 0.24 0.24 0.31 0.36 0.36 0.55 0.61 0.55 0.53 0.38 0.31 0.31 0.33 0.34 0.34 0.40 0.45 0.79
0.03 0.03 0.03 0.02 0.04 0.03 0.02 0.04 0.06 0.17 0.19 0.23 0.26 0.33 0.36 0.34 0.27 0.37 0.40 0.42 0.42 0.31 0.30 0.36 0.30 0.25 0.26 0.26 0.30 0.26 0.27 0.27 0.35 0.35 0.35 0.30 0.34 0.29 0.31 0.34 0.37 0.33 0.55
0.04 0.04 0.05 0.03 0.05 0.06 0.09 0.17 0.19 0.16 0.14 0.15 0.18 0.26 0.23 0.27 0.29 0.28 0.27 0.36 0.34 0.30 0.46 0.36 0.28 0.30 0.32 0.31 0.37 0.38 0.26 0.26 0.24 0.26 0.34 0.31 0.36 0.43 0.35 0.30 0.37 0.46 0.39
0.06 0.10 0.11 0.17 0.21 0.22 0.20 0.18 0.20 0.17 0.14 0.11 0.12 0.10 0.16 0.27 0.36 0.35 0.33 0.36 0.34 0.34 0.52 0.40 0.38 0.40 0.40 0.37 0.35 0.35 0.39 0.42 0.35 0.37 0.41 0.40 0.33 0.33 0.41 0.33 0.34 0.47 0.44
0.35 0.41 0.40 0.35 0.25 0.18 0.16 0.17 0.16 0.15 0.15 0.12 0.12 0.13 0.21 0.29 0.35 0.27 0.24 0.27 0.28 0.24 0.32 0.36 0.36 0.31 0.27 0.22 0.21 0.25 0.26 0.29 0.30 0.29 0.38 0.34 0.32 0.32 0.34 0.33 0.32 0.36 0.38
0.56 0.40 0.26 0.20 0.16 0.15 0.12 0.10 0.09 0.11 0.14 0.13 0.09 0.09 0.20 0.24 0.17 0.14 0.15 0.31 0.30 0.24 0.22 0.24 0.27 0.27 0.22 0.19 0.22 0.24 0.28 0.30 0.29 0.30 0.32 0.31 0.28 0.31 0.27 0.25 0.25 0.24 0.24
0.19 0.13 0.10 0.10 0.09 0.09 0.10 0.12 0.15 0.16 0.19 0.20 0.20 0.22 0.16 0.16 0.17 0.15 0.19 0.25 0.28 0.28 0.27 0.26 0.22 0.24 0.26 0.23 0.22 0.23 0.22 0.22 0.22 0.23 0.27 0.29 0.31 0.32 0.30 0.29 0.27 0.27 0.24
0.07 0.03 0.04 0.06 0.07 0.10 0.14 0.17 0.17 0.21 0.21 0.19 0.23 0.22 0.19 0.29 0.30 0.27 0.31 0.34 0.33 0.30 0.28 0.27 0.22 0.22 0.22 0.24 0.24 0.23 0.21 0.21 0.23 0.25 0.24 0.26 0.30 0.32 0.30 0.31 0.30 0.27 0.26
0.05 0.06 0.08 0.11 0.11 0.13 0.15 0.15 0.16 0.18 0.20 0.20 0.19 0.16 0.16 0.24 0.27 0.28 0.31 0.32 0.31 0.30 0.29 0.29 0.25 0.23 0.25 0.26 0.26 0.26 0.23 0.21 0.21 0.22 0.21 0.22 0.24 0.26 0.30 0.30 0.27 0.27 0.26
0.09 0.13 0.13 0.12 0.13 0.14 0.13 0.19 0.27 0.27 0.24 0.24 0.22 0.19 0.19 0.30 0.32 0.31 0.29 0.26 0.21 0.20 0.19 0.23 0.24 0.20 0.16 0.20 0.25 0.31 0.34 0.29 0.30 0.29 0.27 0.22 0.20 0.19 0.22 0.26 0.26 0.25 0.23
0.11 0.14 0.12 0.14 0.20 0.23 0.30 0.28 0.22 0.20 0.21 0.22 0.22 0.25 0.25 0.25 0.28 0.26 0.26 0.24 0.22 0.19 0.17 0.18 0.18 0.17 0.16 0.17 0.19 0.20 0.23 0.26 0.30 0.29 0.29 0.26 0.22 0.21 0.26 0.27 0.26 0.27 0.30
0.18 0.22 0.27 0.31 0.26 0.25 0.21 0.19 0.20 0.18 0.20 0.21 0.21 0.21 0.21 0.20 0.20 0.19 0.18 0.17 0.15 0.12 0.11 0.11 0.12 0.12 0.11 0.13 0.14 0.11 0.14 0.18 0.23 0.21 0.22 0.19 0.16 0.15 0.19 0.22 0.22 0.25 0.27
0.22 0.24 0.22 0.19 0.20 0.20 0.20 0.20 0.17 0.16 0.17 0.17 0.17 0.17 0.17 0.18 0.17 0.15 0.13 0.11 0.11 0.11 0.10 0.10 0.09 0.08 0.08 0.10 0.11 0.11 0.11 0.15 0.18 0.19 0.23 0.17 0.14 0.13 0.14 0.16 0.15 0.19 0.18

GFSGL_prec_precacc_105.txt.gz
Total_Precipitation_Accumulation
0.02 0.02 0.04 0.18 0.18 0.28 0.28 0.33 0.32 0.48 0.55 0.59 0.65 0.63 0.74 0.89 0.82 0.69 0.60 0.48 0.40 0.33 0.27 0.25 0.23 0.23 0.28 0.29 0.34 0.40 0.44 0.49 0.52 0.27 0.13 0.11 0.12 0.11 0.09 0.16 0.27 0.47 0.57
0.18 0.12 0.13 0.30 0.35 0.41 0.56 0.53 0.63 0.78 0.82 0.91 0.96 0.85 0.77 0.79 0.91 0.94 0.83 0.71 0.62 0.55 0.48 0.50 0.46 0.45 0.49 0.40 0.36 0.32 0.29 0.31 0.48 0.47 0.24 0.22 0.21 0.13 0.07 0.08 0.14 0.26 0.44
0.38 0.40 0.26 0.40 0.40 0.68 0.77 1.02 1.16 1.16 1.25 1.28 1.28 1.10 0.94 0.81 0.65 0.56 0.47 0.37 0.30 0.27 0.26 0.30 0.28 0.30 0.28 0.25 0.26 0.30 0.39 0.53 0.68 0.64 0.40 0.29 0.21 0.16 0.14 0.15 0.13 0.14 0.22
0.39 0.40 0.32 0.35 0.46 0.59 0.70 0.83 1.22 1.29 1.03 0.81 0.74 0.56 0.29 0.15 0.10 0.10 0.11 0.13 0.17 0.23 0.25 0.25 0.24 0.27 0.32 0.44 0.58 0.70 0.78 0.79 0.66 0.52 0.40 0.36 0.31 0.26 0.29 0.35 0.38 0.39 0.39
0.42 0.48 0.42 0.56 0.93 0.98 1.04 0.89 0.70 0.49 0.41 0.32 0.24 0.18 0.16 0.13 0.12 0.10 0.10 0.14 0.16 0.19 0.27 0.37 0.43 0.59 0.57 0.47 0.44 0.39 0.44 0.48 0.46 0.48 0.47 0.43 0.42 0.44 0.48 0.54 0.56 0.51 0.49
0.29 0.30 0.48 0.62 0.54 0.59 0.53 0.39 0.26 0.21 0.22 0.20 0.19 0.18 0.16 0.15 0.29 0.27 0.23 0.24 0.31 0.37 0.42 0.38 0.37 0.56 0.43 0.56 0.53 0.51 0.44 0.47 0.50 0.53 0.55 0.54 0.51 0.54 0.58 0.63 0.61 0.55 0.48
0.19 0.21 0.28 0.28 0.25 0.20 0.13 0.13 0.18 0.19 0.16 0.14 0.12 0.12 0.17 0.25 0.53 0.37 0.40 0.24 0.29 0.39 0.46 0.52 0.58 0.66 0.73 0.49 0.55 0.44 0.36 0.36 0.39 0.48 0.60 0.51 0.52 0.44 0.41 0.43 0.37 0.36 0.31
0.12 0.12 0.09 0.07 0.05 0.06 0.10 0.17 0.17 0.18 0.14 0.13 0.18 0.28 0.34 0.52 0.67 0.45 0.48 0.35 0.43 0.51 0.51 0.47 0.43 0.42 0.45 0.39 0.28 0.30 0.26 0.25 0.26 0.26 0.34 0.30 0.23 0.20 0.27 0.35 0.42 0.47 0.33
0.07 0.05 0.03 0.04 0.06 0.11 0.16 0.20 0.17 0.16 0.18 0.21 0.25 0.29 0.30 0.39 0.54 0.34 0.28 0.19 0.25 0.24 0.23 0.26 0.33 0.36 0.38 0.30 0.46 0.55 0.32 0.20 0.16 0.17 0.21 0.22 0.23 0.25 0.31 0.64 0.71 0.76 0.53
0.04 0.04 0.05 0.06 0.11 0.15 0.13 0.10 0.10 0.15 0.20 0.21 0.26 0.23 0.31 0.19 0.36 0.24 0.19 0.18 0.31 0.27 0.28 0.31 0.34 0.21 0.23 0.28 0.53 0.59 0.53 0.22 0.15 0.18 0.18 0.13 0.09 0.13 0.15 0.45 0.63 0.83 0.61
0.09 0.07 0.07 0.07 0.07 0.06 0.08 0.09 0.12 0.14 0.16 0.16 0.14 0.11 0.12 0.15 0.23 0.24 0.19 0.24 0.35 0.37 0.24 0.17 0.17 0.36 0.38 0.30 0.34 0.53 0.50 0.24 0.18 0.21 0.23 0.21 0.20 0.20 0.22 0.29 0.44 0.77 0.75
0.08 0.10 0.13 0.12 0.07 0.05 0.04 0.06 0.08 0.10 0.13 0.12 0.13 0.13 0.12 0.15 0.23 0.22 0.20 0.21 0.27 0.53 0.40 0.33 0.36 0.28 0.27 0.24 0.27 0.33 0.27 0.28 0.43 0.47 0.44 0.35 0.35 0.31 0.28 0.28 0.29 0.34 0.39
0.09 0.14 0.12 0.08 0.05 0.03 0.04 0.04 0.06 0.06 0.07 0.10 0.13 0.14 0.17 0.21 0.26 0.27 0.18 0.18 0.21 0.40 0.41 0.35 0.27 0.24 0.21 0.25 0.23 0.28 0.33 0.55 0.60 0.57 0.48 0.33 0.26 0.24 0.22 0.29 0.34 0.42 0.42
0.05 0.06 0.05 0.06 0.04 0.05 0.06 0.06 0.06 0.06 0.07 0.12 0.19 0.29 0.31 0.26 0.22 0.24 0.27 0.24 0.26 0.29 0.24 0.22 0.25 0.24 0.24 0.31 0.36 0.36 0.55 0.61 0.55 0.53 0.38 0.31 0.31 0.33 0.34 0.34 0.40 0.45 0.79
0.06 0.06 0.06 0.06 0.08 0.08 0.08 0.10 0.12 0.22 0.22 0.26 0.29 0.35 0.37 0.36 0.28 0.38 0.40 0.42 0.42 0.31 0.30 0.36 0.30 0.25 0.26 0.26 0.30 0.26 0.27 0.27 0.35 0.35 0.35 0.30 0.34 0.29 0.31 0.34 0.37 0.33 0.55
0.07 0.08 0.10 0.08 0.09 0.11 0.16 0.26 0.28 0.26 0.23 0.22 0.24 0.29 0.24 0.28 0.30 0.28 0.27 0.36 0.34 0.30 0.46 0.36 0.28 0.30 0.32 0.31 0.37 0.38 0.26 0.26 0.24 0.26 0.34 0.31 0.36 0.43 0.35 0.30 0.37 0.46 0.39
0.15 0.16 0.19 0.25 0.30 0.32 0.35 0.35 0.41 0.35 0.23 0.16 0.14 0.11 0.16 0.27 0.36 0.35 0.33 0.36 0.34 0.34 0.52 0.40 0.38 0.40 0.40 0.37 0.35 0.35 0.39 0.42 0.35 0.37 0.41 0.40 0.33 0.33 0.41 0.33 0.34 0.47 0.44
0.53 0.60 0.57 0.57 0.52 0.46 0.39 0.35 0.26 0.21 0.19 0.15 0.13 0.14 0.22 0.29 0.36 0.27 0.25 0.27 0.28 0.24 0.32 0.36 0.36 0.31 0.27 0.22 0.21 0.25 0.26 0.29 0.30 0.29 0.38 0.34 0.32 0.32 0.34 0.33 0.32 0.36 0.38
0.98 0.85 0.66 0.51 0.37 0.28 0.19 0.14 0.12 0.14 0.16 0.16 0.11 0.10 0.21 0.24 0.17 0.14 0.15 0.31 0.30 0.24 0.22 0.24 0.27 0.27 0.22 0.19 0.22 0.24 0.28 0.30 0.29 0.30 0.32 0.31 0.28 0.31 0.27 0.25 0.25 0.24 0.24
0.44 0.28 0.16 0.13 0.11 0.09 0.10 0.13 0.16 0.17 0.19 0.20 0.20 0.22 0.16 0.16 0.17 0.15 0.19 0.25 0.28 0.28 0.27 0.26 0.22 0.24 0.26 0.23 0.22 0.23 0.22 0.22 0.22 0.23 0.27 0.29 0.31 0.32 0.30 0.29 0.27 0.27 0.24
0.14 0.06 0.04 0.06 0.07 0.11 0.14 0.17 0.18 0.21 0.21 0.19 0.23 0.22 0.19 0.29 0.30 0.27 0.31 0.34 0.33 0.30 0.28 0.27 0.22 0.22 0.22 0.24 0.24 0.23 0.21 0.21 0.23 0.25 0.24 0.26 0.30 0.32 0.30 0.31 0.30 0.27 0.26
0.05 0.06 0.08 0.11 0.12 0.14 0.15 0.15 0.16 0.18 0.20 0.20 0.19 0.16 0.16 0.24 0.27 0.28 0.31 0.32 0.31 0.30 0.29 0.29 0.25 0.23 0.25 0.26 0.26 0.26 0.23 0.21 0.21 0.22 0.21 0.22 0.24 0.26 0.30 0.30 0.27 0.27 0.26
0.09 0.13 0.13 0.12 0.13 0.14 0.13 0.19 0.27 0.27 0.24 0.24 0.22 0.19 0.19 0.30 0.32 0.31 0.29 0.26 0.21 0.20 0.19 0.23 0.24 0.20 0.16 0.20 0.25 0.31 0.34 0.29 0.30 0.29 0.27 0.22 0.20 0.19 0.22 0.27 0.26 0.25 0.23
0.11 0.14 0.12 0.14 0.20 0.23 0.30 0.28 0.22 0.20 0.21 0.22 0.22 0.25 0.25 0.25 0.28 0.26 0.26 0.24 0.22 0.19 0.17 0.18 0.19 0.17 0.16 0.17 0.19 0.20 0.23 0.26 0.30 0.29 0.29 0.26 0.22 0.21 0.26 0.27 0.26 0.28 0.30
0.18 0.22 0.27 0.31 0.26 0.25 0.21 0.19 0.20 0.18 0.20 0.21 0.21 0.21 0.21 0.20 0.20 0.19 0.18 0.17 0.15 0.12 0.11 0.11 0.12 0.12 0.11 0.13 0.14 0.11 0.14 0.18 0.23 0.21 0.22 0.20 0.16 0.15 0.19 0.22 0.23 0.25 0.27
0.22 0.24 0.22 0.19 0.20 0.20 0.20 0.20 0.17 0.16 0.17 0.17 0.17 0.17 0.17 0.18 0.17 0.15 0.13 0.11 0.11 0.11 0.10 0.10 0.09 0.08 0.08 0.10 0.11 0.11 0.12 0.15 0.18 0.19 0.23 0.17 0.14 0.13 0.14 0.16 0.15 0.19 0.18

GFSGL_prec_precacc_108.txt.gz
Total_Precipitation_Accumulation
0.02 0.02 0.05 0.18 0.18 0.28 0.28 0.33 0.32 0.48 0.58 0.63 0.72 0.86 0.96 1.01 0.88 0.73 0.62 0.49 0.40 0.33 0.27 0.25 0.24 0.24 0.29 0.29 0.34 0.40 0.45 0.50 0.53 0.27 0.13 0.11 0.12 0.13 0.14 0.25 0.36 0.51 0.58
0.18 0.12 0.14 0.30 0.35 0.41 0.56 0.53 0.63 0.78 0.82 0.91 0.96 0.89 0.81 0.80 0.91 0.94 0.83 0.71 0.62 0.55 0.48 0.50 0.46 0.46 0.49 0.40 0.36 0.32 0.30 0.32 0.51 0.50 0.28 0.29 0.34 0.26 0.16 0.13 0.16 0.27 0.44
0.38 0.40 0.26 0.40 0.40 0.68 0.77 1.02 1.16 1.16 1.25 1.28 1.28 1.10 0.94 0.81 0.65 0.56 0.47 0.37 0.30 0.27 0.26 0.30 0.28 0.30 0.28 0.25 0.26 0.30 0.41 0.56 0.72 0.70 0.49 0.34 0.27 0.21 0.18 0.17 0.14 0.15 0.23
0.39 0.40 0.32 0.35 0.46 0.59 0.70 0.83 1.22 1.29 1.03 0.81 0.74 0.56 0.29 0.15 0.10 0.10 0.11 0.13 0.17 0.23 0.25 0.25 0.24 0.27 0.32 0.44 0.58 0.70 0.79 0.82 0.74 0.64 0.52 0.47 0.38 0.29 0.30 0.35 0.38 0.39 0.39
0.42 0.48 0.42 0.56 0.93 0.98 1.04 0.89 0.70 0.49 0.41 0.32 0.24 0.18 0.16 0.13 0.12 0.10 0.10 0.14 0.16 0.19 0.27 0.37 0.43 0.59 0.57 0.48 0.45 0.39 0.46 0.53 0.56 0.60 0.57 0.48 0.44 0.44 0.48 0.54 0.56 0.51 0.49
0.29 0.30 0.48 0.62 0.54 0.59 0.53 0.39 0.26 0.21 0.22 0.20 0.19 0.18 0.16 0.15 0.29 0.27 0.23 0.24 0.31 0.37 0.42 0.39 0.40 0.62 0.48 0.63 0.59 0.60 0.58 0.62 0.63 0.63 0.62 0.57 0.53 0.55 0.59 0.63 0.61 0.55 0.48
0.19 0.21 0.28 0.28 0.25 0.20 0.13 0.13 0.18 0.19 0.16 0.14 0.12 0.12 0.17 0.25 0.55 0.37 0.41 0.25 0.31 0.41 0.48 0.55 0.63 0.74 0.82 0.55 0.67 0.62 0.56 0.53 0.50 0.54 0.62 0.52 0.52 0.44 0.41 0.43 0.37 0.36 0.31
0.14 0.12 0.09 0.07 0.05 0.06 0.10 0.17 0.17 0.18 0.15 0.14 0.19 0.29 0.35 0.54 0.70 0.47 0.50 0.36 0.45 0.54 0.55 0.50 0.48 0.50 0.57 0.54 0.49 0.52 0.42 0.30 0.26 0.26 0.34 0.30 0.23 0.21 0.28 0.36 0.42 0.47 0.33
0.16 0.09 0.05 0.04 0.06 0.11 0.16 0.20 0.17 0.16 0.20 0.22 0.28 0.31 0.32 0.41 0.59 0.37 0.30 0.19 0.27 0.29 0.30 0.38 0.45 0.49 0.57 0.51 0.59 0.58 0.32 0.20 0.16 0.17 0.21 0.23 0.23 0.25 0.31 0.64 0.71 0.76 0.53
0.13 0.10 0.08 0.07 0.11 0.15 0.13 0.10 0.11 0.16 0.21 0.23 0.29 0.27 0.35 0.21 0.41 0.27 0.21 0.19 0.35 0.36 0.39 0.46 0.51 0.33 0.32 0.33 0.55 0.59 0.53 0.22 0.15 0.18 0.18 0.13 0.09 0.13 0.15 0.45 0.63 0.83 0.61
0.17 0.17 0.13 0.09 0.07 0.07 0.08 0.10 0.14 0.16 0.18 0.18 0.16 0.13 0.14 0.19 0.30 0.29 0.22 0.25 0.37 0.42 0.32 0.26 0.22 0.39 0.39 0.30 0.34 0.53 0.50 0.24 0.18 0.21 0.23 0.21 0.20 0.20 0.22 0.29 0.44 0.77 0.75
0.17 0.18 0.20 0.16 0.09 0.05 0.05 0.07 0.09 0.12 0.16 0.14 0.15 0.16 0.15 0.21 0.30 0.28 0.25 0.24 0.29 0.57 0.45 0.38 0.39 0.29 0.27 0.24 0.27 0.33 0.27 0.28 0.43 0.47 0.44 0.35 0.35 0.31 0.28 0.28 0.29 0.34 0.39
0.16 0.21 0.18 0.13 0.11 0.09 0.09 0.08 0.11 0.12 0.12 0.13 0.16 0.20 0.27 0.33 0.43 0.43 0.29 0.22 0.23 0.42 0.42 0.35 0.27 0.24 0.21 0.25 0.23 0.28 0.33 0.55 0.60 0.57 0.48 0.33 0.26 0.24 0.22 0.29 0.34 0.42 0.42
0.06 0.07 0.07 0.09 0.07 0.08 0.10 0.10 0.10 0.11 0.12 0.17 0.26 0.36 0.38 0.33 0.27 0.26 0.28 0.25 0.27 0.30 0.25 0.22 0.25 0.24 0.24 0.31 0.36 0.36 0.55 0.61 0.55 0.53 0.38 0.31 0.31 0.33 0.34 0.34 0.40 0.45 0.79
0.07 0.06 0.07 0.08 0.10 0.11 0.17 0.23 0.28 0.43 0.42 0.48 0.52 0.53 0.53 0.50 0.38 0.45 0.45 0.45 0.43 0.31 0.30 0.37 0.31 0.25 0.26 0.26 0.30 0.26 0.27 0.27 0.35 0.35 0.35 0.30 0.34 0.29 0.31 0.34 0.37 0.33 0.55
0.11 0.14 0.17 0.13 0.15 0.18 0.25 0.44 0.50 0.54 0.55 0.56 0.60 0.57 0.45 0.42 0.36 0.31 0.29 0.36 0.35 0.31 0.47 0.37 0.28 0.30 0.32 0.31 0.37 0.38 0.26 0.26 0.24 0.26 0.34 0.31 0.36 0.43 0.35 0.30 0.37 0.46 0.39
0.18 0.20 0.26 0.32 0.39 0.44 0.49 0.54 0.70 0.75 0.56 0.40 0.34 0.24 0.22 0.31 0.39 0.38 0.36 0.37 0.35 0.35 0.52 0.40 0.38 0.40 0.40 0.37 0.35 0.35 0.39 0.42 0.35 0.37 0.41 0.40 0.33 0.33 0.41 0.33 0.34 0.47 0.44
0.64 0.72 0.68 0.71 0.69 0.66 0.63 0.60 0.48 0.40 0.33 0.25 0.21 0.20 0.27 0.33 0.38 0.28 0.25 0.27 0.28 0.24 0.32 0.36 0.36 0.31 0.27 0.22 0.21 0.25 0.26 0.29 0.30 0.29 0.38 0.34 0.32 0.32 0.34 0.33 0.32 0.36 0.38
1.13 1.06 0.95 0.87 0.74 0.62 0.49 0.35 0.26 0.22 0.22 0.21 0.16 0.14 0.23 0.25 0.18 0.14 0.15 0.31 0.30 0.24 0.22 0.24 0.27 0.27 0.22 0.19 0.22 0.24 0.28 0.30 0.29 0.30 0.32 0.31 0.28 0.31 0.27 0.25 0.25 0.24 0.25
0.76 0.60 0.42 0.32 0.28 0.23 0.20 0.20 0.21 0.21 0.22 0.23 0.22 0.23 0.16 0.16 0.17 0.15 0.19 0.25 0.28 0.28 0.27 0.26 0.22 0.24 0.26 0.23 0.22 0.23 0.22 0.22 0.22 0.23 0.27 0.29 0.31 0.32 0.30 0.29 0.27 0.27 0.24
0.32 0.27 0.19 0.14 0.12 0.14 0.17 0.19 0.19 0.21 0.21 0.20 0.23 0.22 0.19 0.29 0.30 0.27 0.31 0.34 0.33 0.30 0.28 0.27 0.22 0.22 0.22 0.24 0.24 0.23 0.21 0.21 0.23 0.25 0.24 0.26 0.30 0.32 0.30 0.31 0.30 0.27 0.26
0.08 0.08 0.09 0.12 0.13 0.15 0.16 0.15 0.16 0.18 0.20 0.20 0.19 0.16 0.16 0.24 0.27 0.28 0.31 0.32 0.31 0.30 0.29 0.29 0.25 0.23 0.25 0.26 0.26 0.26 0.23 0.21 0.21 0.22 0.21 0.22 0.24 0.26 0.30 0.30 0.27 0.27 0.26
0.10 0.13 0.13 0.12 0.13 0.14 0.13 0.19 0.27 0.27 0.24 0.24 0.22 0.19 0.19 0.30 0.32 0.31 0.29 0.26 0.21 0.20 0.19 0.23 0.24 0.20 0.16 0.20 0.25 0.31 0.34 0.29 0.30 0.29 0.27 0.22 0.20 0.19 0.23 0.27 0.26 0.25 0.23
0.11 0.14 0.12 0.14 0.20 0.23 0.30 0.28 0.22 0.20 0.21 0.22 0.22 0.25 0.25 0.25 0.28 0.26 0.26 0.24 0.22 0.19 0.17 0.18 0.19 0.17 0.16 0.17 0.19 0.20 0.24 0.26 0.30 0.29 0.29 0.26 0.22 0.21 0.26 0.27 0.26 0.28 0.30
0.18 0.22 0.27 0.31 0.26 0.25 0.21 0.19 0.20 0.18 0.20 0.21 0.21 0.21 0.21 0.20 0.20 0.19 0.18 0.17 0.15 0.12 0.11 0.11 0.12 0.12 0.11 0.13 0.14 0.11 0.14 0.19 0.23 0.21 0.22 0.20 0.16 0.15 0.19 0.23 0.23 0.26 0.27
0.22 0.24 0.22 0.19 0.20 0.20 0.20 0.20 0.17 0.16 0.17 0.17 0.17 0.17 0.17 0.18 0.17 0.15 0.13 0.11 0.11 0.11 0.10 0.10 0.09 0.08 0.08 0.10 0.11 0.11 0.12 0.15 0.18 0.19 0.23 0.17 0.14 0.13 0.15 0.16 0.15 0.19 0.18

GFSGL_prec_precacc_111.txt.gz
Total_Precipitation_Accumulation
0.02 0.02 0.05 0.18 0.18 0.28 0.28 0.33 0.33 0.50 0.68 0.87 1.03 1.16 1.23 1.24 1.13 1.02 0.85 0.65 0.54 0.49 0.36 0.29 0.25 0.25 0.30 0.31 0.35 0.42 0.46 0.51 0.53 0.27 0.13 0.11 0.13 0.13 0.15 0.27 0.40 0.58 0.66
0.18 0.12 0.14 0.30 0.35 0.41 0.56 0.53 0.63 0.78 0.83 1.01 1.16 1.21 1.24 1.17 1.14 1.09 0.96 0.82 0.70 0.62 0.52 0.52 0.47 0.47 0.50 0.41 0.37 0.32 0.30 0.32 0.53 0.52 0.30 0.31 0.37 0.28 0.18 0.16 0.19 0.29 0.46
0.38 0.40 0.26 0.40 0.40 0.68 0.77 1.02 1.16 1.16 1.25 1.28 1.29 1.17 1.09 1.01 0.88 0.65 0.51 0.38 0.30 0.28 0.27 0.30 0.28 0.31 0.29 0.25 0.26 0.30 0.41 0.58 0.75 0.74 0.56 0.41 0.32 0.26 0.23 0.22 0.17 0.17 0.24
0.39 0.40 0.32 0.35 0.46 0.59 0.70 0.83 1.22 1.29 1.03 0.81 0.74 0.57 0.30 0.16 0.15 0.11 0.11 0.13 0.17 0.24 0.25 0.25 0.24 0.27 0.32 0.44 0.58 0.70 0.79 0.83 0.74 0.65 0.56 0.52 0.46 0.36 0.33 0.36 0.38 0.39 0.39
0.42 0.48 0.42 0.56 0.93 0.98 1.04 0.89 0.70 0.49 0.41 0.32 0.24 0.18 0.16 0.13 0.12 0.10 0.10 0.14 0.16 0.19 0.27 0.37 0.43 0.60 0.57 0.48 0.45 0.39 0.47 0.55 0.61 0.67 0.63 0.54 0.48 0.48 0.50 0.55 0.56 0.51 0.49
0.29 0.30 0.48 0.62 0.54 0.59 0.53 0.39 0.26 0.21 0.22 0.20 0.19 0.18 0.16 0.15 0.29 0.27 0.23 0.24 0.31 0.37 0.43 0.40 0.41 0.63 0.49 0.65 0.63 0.66 0.65 0.71 0.71 0.68 0.69 0.67 0.60 0.58 0.59 0.63 0.61 0.55 0.48
0.19 0.21 0.28 0.28 0.25 0.20 0.13 0.13 0.18 0.19 0.16 0.14 0.12 0.12 0.17 0.25 0.56 0.38 0.42 0.25 0.32 0.43 0.50 0.57 0.64 0.78 0.86 0.58 0.73 0.68 0.62 0.61 0.60 0.65 0.71 0.56 0.53 0.45 0.42 0.43 0.37 0.36 0.31
0.21 0.12 0.09 0.07 0.05 0.06 0.10 0.17 0.17 0.18 0.15 0.14 0.19 0.29 0.35 0.55 0.72 0.48 0.51 0.36 0.47 0.56 0.57 0.53 0.52 0.54 0.63 0.59 0.54 0.58 0.51 0.38 0.31 0.27 0.35 0.31 0.24 0.21 0.28 0.36 0.42 0.47 0.33
0.29 0.21 0.08 0.04 0.06 0.11 0.16 0.20 0.18 0.16 0.20 0.22 0.28 0.31 0.33 0.43 0.62 0.39 0.31 0.20 0.29 0.32 0.33 0.41 0.49 0.54 0.71 0.62 0.66 0.66 0.36 0.21 0.17 0.17 0.21 0.23 0.23 0.25 0.31 0.64 0.71 0.76 0.53
0.16 0.18 0.19 0.12 0.12 0.15 0.13 0.10 0.12 0.16 0.22 0.25 0.30 0.29 0.37 0.22 0.44 0.30 0.23 0.19 0.36 0.37 0.42 0.53 0.62 0.42 0.41 0.38 0.58 0.60 0.54 0.22 0.15 0.18 0.18 0.13 0.09 0.13 0.15 0.45 0.63 0.83 0.61
0.19 0.20 0.18 0.15 0.13 0.08 0.08 0.10 0.14 0.18 0.19 0.20 0.19 0.14 0.15 0.21 0.33 0.33 0.26 0.26 0.39 0.45 0.38 0.34 0.32 0.47 0.43 0.32 0.35 0.53 0.51 0.24 0.18 0.21 0.23 0.21 0.20 0.20 0.22 0.29 0.44 0.77 0.75
0.19 0.21 0.26 0.23 0.13 0.07 0.05 0.07 0.10 0.13 0.17 0.16 0.17 0.17 0.17 0.24 0.36 0.33 0.32 0.33 0.43 0.71 0.64 0.56 0.53 0.36 0.29 0.25 0.27 0.33 0.27 0.28 0.43 0.47 0.44 0.35 0.35 0.31 0.28 0.28 0.29 0.34 0.39
0.19 0.31 0.31 0.26 0.24 0.22 0.19 0.14 0.16 0.16 0.17 0.19 0.21 0.26 0.34 0.39 0.53 0.54 0.43 0.41 0.42 0.56 0.56 0.46 0.32 0.25 0.22 0.27 0.24 0.29 0.33 0.55 0.60 0.57 0.48 0.33 0.26 0.24 0.22 0.29 0.34 0.42 0.42
0.08 0.09 0.11 0.12 0.11 0.15 0.26 0.30 0.31 0.32 0.35 0.39 0.41 0.49 0.47 0.41 0.38 0.42 0.44 0.39 0.38 0.38 0.31 0.26 0.27 0.26 0.26 0.32 0.37 0.36 0.55 0.61 0.55 0.53 0.38 0.31 0.31 0.33 0.34 0.34 0.40 0.45 0.79
0.07 0.08 0.08 0.11 0.12 0.12 0.20 0.28 0.31 0.50 0.50 0.57 0.63 0.71 0.76 0.81 0.75 0.78 0.71 0.65 0.58 0.42 0.37 0.40 0.32 0.26 0.26 0.27 0.30 0.26 0.27 0.27 0.35 0.35 0.35 0.30 0.34 0.29 0.31 0.34 0.37 0.33 0.55
0.14 0.17 0.23 0.17 0.20 0.24 0.33 0.62 0.72 0.80 0.86 0.88 0.95 0.95 0.87 0.81 0.73 0.59 0.48 0.49 0.43 0.36 0.50 0.39 0.30 0.31 0.32 0.31 0.37 0.38 0.26 0.26 0.24 0.26 0.34 0.31 0.36 0.43 0.35 0.30 0.37 0.46 0.39
0.20 0.23 0.31 0.36 0.44 0.49 0.56 0.60 0.84 0.94 0.79 0.66 0.56 0.43 0.36 0.40 0.46 0.44 0.41 0.41 0.38 0.36 0.53 0.40 0.38 0.40 0.40 0.37 0.35 0.35 0.39 0.42 0.35 0.37 0.41 0.40 0.33 0.33 0.41 0.33 0.34 0.47 0.44
0.67 0.76 0.72 0.77 0.77 0.78 0.77 0.78 0.69 0.64 0.59 0.50 0.39 0.32 0.35 0.37 0.41 0.31 0.27 0.29 0.29 0.25 0.33 0.36 0.36 0.31 0.27 0.22 0.21 0.25 0.26 0.29 0.30 0.29 0.38 0.34 0.32 0.32 0.34 0.33 0.32 0.36 0.38
1.18 1.12 1.02 0.98 0.86 0.75 0.65 0.52 0.41 0.33 0.30 0.28 0.23 0.20 0.29 0.30 0.22 0.16 0.16 0.31 0.30 0.24 0.22 0.24 0.27 0.27 0.22 0.19 0.22 0.24 0.28 0.30 0.29 0.30 0.32 0.31 0.28 0.31 0.27 0.25 0.25 0.24 0.25
0.83 0.69 0.54 0.44 0.40 0.36 0.33 0.29 0.28 0.27 0.28 0.29 0.27 0.28 0.18 0.17 0.18 0.16 0.19 0.25 0.28 0.28 0.27 0.26 0.22 0.24 0.26 0.23 0.22 0.23 0.22 0.22 0.22 0.23 0.27 0.29 0.31 0.32 0.30 0.29 0.27 0.27 0.24
0.39 0.35 0.28 0.22 0.19 0.19 0.21 0.23 0.23 0.25 0.24 0.21 0.24 0.23 0.19 0.29 0.30 0.27 0.31 0.34 0.33 0.30 0.28 0.27 0.22 0.22 0.22 0.24 0.24 0.23 0.21 0.21 0.23 0.25 0.24 0.26 0.30 0.32 0.30 0.31 0.30 0.27 0.26
0.14 0.12 0.12 0.14 0.14 0.16 0.17 0.17 0.17 0.19 0.20 0.20 0.19 0.16 0.16 0.24 0.27 0.28 0.31 0.32 0.31 0.30 0.29 0.29 0.25 0.23 0.25 0.26 0.26 0.26 0.23 0.21 0.21 0.22 0.21 0.22 0.24 0.26 0.30 0.30 0.27 0.27 0.26
0.13 0.14 0.14 0.12 0.14 0.14 0.14 0.19 0.27 0.27 0.24 0.24 0.22 0.19 0.19 0.30 0.32 0.31 0.29 0.26 0.21 0.20 0.19 0.23 0.24 0.20 0.16 0.20 0.25 0.31 0.34 0.29 0.30 0.30 0.27 0.22 0.20 0.19 0.23 0.27 0.26 0.25 0.23
0.11 0.14 0.13 0.14 0.20 0.23 0.30 0.28 0.22 0.20 0.21 0.22 0.22 0.25 0.25 0.25 0.28 0.26 0.26 0.24 0.22 0.19 0.17 0.18 0.19 0.17 0.16 0.17 0.19 0.20 0.24 0.27 0.30 0.29 0.29 0.26 0.22 0.21 0.26 0.27 0.26 0.28 0.30
0.19 0.22 0.27 0.31 0.26 0.25 0.21 0.19 0.20 0.18 0.20 0.21 0.21 0.21 0.21 0.20 0.20 0.19 0.18 0.17 0.15 0.12 0.11 0.11 0.12 0.12 0.11 0.13 0.14 0.11 0.14 0.19 0.23 0.21 0.22 0.20 0.16 0.15 0.19 0.23 0.23 0.26 0.27
0.22 0.24 0.22 0.19 0.20 0.20 0.20 0.20 0.17 0.16 0.17 0.17 0.17 0.17 0.17 0.18 0.17 0.15 0.13 0.11 0.11 0.11 0.10 0.10 0.09 0.08 0.08 0.10 0.11 0.11 0.12 0.15 0.18 0.19 0.23 0.17 0.14 0.13 0.15 0.16 0.15 0.19 0.18

GFSGL_prec_precacc_114.txt.gz
Total_Precipitation_Accumulation
0.02 0.03 0.05 0.18 0.18 0.28 0.28 0.33 0.33 0.51 0.69 0.95 1.24 1.44 1.60 1.50 1.37 1.36 1.20 0.96 0.79 0.78 0.74 0.61 0.47 0.43 0.46 0.40 0.43 0.48 0.52 0.57 0.59 0.27 0.14 0.11 0.13 0.13 0.15 0.27 0.41 0.60 0.69
0.18 0.12 0.14 0.30 0.36 0.41 0.56 0.53 0.63 0.78 0.84 1.05 1.34 1.53 1.50 1.49 1.42 1.42 1.33 1.17 1.01 0.83 0.71 0.76 0.69 0.59 0.55 0.44 0.40 0.35 0.32 0.34 0.56 0.54 0.31 0.31 0.37 0.28 0.20 0.18 0.21 0.32 0.48
0.38 0.40 0.27 0.41 0.41 0.68 0.77 1.02 1.16 1.16 1.25 1.31 1.33 1.33 1.40 1.26 1.22 1.02 0.84 0.67 0.56 0.48 0.46 0.43 0.36 0.34 0.30 0.26 0.27 0.31 0.42 0.59 0.78 0.78 0.57 0.42 0.35 0.30 0.26 0.25 0.20 0.19 0.25
0.39 0.40 0.33 0.35 0.46 0.60 0.70 0.83 1.22 1.29 1.03 0.81 0.75 0.58 0.39 0.34 0.39 0.52 0.39 0.35 0.33 0.30 0.29 0.29 0.25 0.28 0.32 0.45 0.58 0.70 0.79 0.83 0.74 0.67 0.60 0.58 0.50 0.40 0.38 0.40 0.41 0.41 0.41
0.42 0.48 0.43 0.57 0.94 0.99 1.04 0.90 0.70 0.49 0.41 0.32 0.25 0.19 0.18 0.18 0.28 0.28 0.24 0.19 0.22 0.21 0.28 0.38 0.44 0.60 0.57 0.48 0.45 0.40 0.47 0.56 0.62 0.69 0.68 0.61 0.55 0.52 0.54 0.57 0.57 0.52 0.49
0.29 0.30 0.49 0.63 0.55 0.60 0.54 0.40 0.26 0.21 0.22 0.20 0.19 0.18 0.18 0.17 0.36 0.35 0.30 0.25 0.32 0.37 0.43 0.40 0.41 0.64 0.49 0.65 0.63 0.67 0.66 0.71 0.71 0.71 0.73 0.71 0.64 0.60 0.60 0.63 0.61 0.55 0.48
0.19 0.21 0.28 0.28 0.26 0.20 0.14 0.14 0.18 0.20 0.17 0.15 0.13 0.12 0.17 0.26 0.58 0.40 0.43 0.25 0.32 0.43 0.50 0.57 0.65 0.78 0.87 0.58 0.73 0.68 0.63 0.64 0.63 0.67 0.74 0.59 0.55 0.45 0.42 0.43 0.37 0.36 0.31
0.24 0.12 0.09 0.07 0.05 0.06 0.11 0.17 0.17 0.19 0.16 0.15 0.21 0.31 0.35 0.55 0.73 0.48 0.52 0.36 0.47 0.56 0.58 0.54 0.53 0.56 0.66 0.61 0.54 0.59 0.52 0.41 0.33 0.29 0.36 0.31 0.24 0.21 0.28 0.36 0.42 0.47 0.33
0.32 0.22 0.08 0.04 0.06 0.11 0.17 0.20 0.18 0.17 0.22 0.24 0.29 0.32 0.33 0.43 0.64 0.41 0.32 0.21 0.30 0.33 0.35 0.44 0.51 0.57 0.79 0.67 0.68 0.67 0.38 0.23 0.17 0.17 0.21 0.23 0.23 0.25 0.31 0.64 0.71 0.76 0.53
0.19 0.20 0.20 0.12 0.12 0.15 0.13 0.11 0.12 0.17 0.23 0.26 0.31 0.30 0.38 0.23 0.46 0.32 0.25 0.20 0.38 0.39 0.45 0.59 0.69 0.47 0.51 0.44 0.60 0.62 0.55 0.23 0.15 0.19 0.18 0.13 0.09 0.13 0.15 0.45 0.63 0.83 0.61
0.22 0.23 0.21 0.17 0.14 0.08 0.08 0.11 0.15 0.19 0.20 0.21 0.20 0.15 0.16 0.23 0.36 0.36 0.30 0.27 0.39 0.47 0.42 0.39 0.42 0.57 0.48 0.36 0.39 0.57 0.54 0.27 0.20 0.22 0.23 0.21 0.20 0.20 0.22 0.29 0.44 0.77 0.75
0.22 0.22 0.28 0.30 0.19 0.09 0.06 0.08 0.10 0.14 0.18 0.16 0.18 0.19 0.19 0.27 0.41 0.37 0.37 0.39 0.49 0.75 0.72 0.67 0.68 0.55 0.46 0.38 0.37 0.42 0.34 0.33 0.46 0.49 0.45 0.36 0.35 0.31 0.28 0.28 0.29 0.34 0.39
0.35 0.42 0.39 0.33 0.39 0.38 0.29 0.26 0.23 0.19 0.18 0.20 0.22 0.28 0.37 0.44 0.60 0.61 0.48 0.48 0.48 0.61 0.65 0.58 0.47 0.40 0.35 0.39 0.34 0.35 0.38 0.58 0.62 0.58 0.48 0.33 0.26 0.24 0.22 0.29 0.34 0.42 0.42
0.14 0.17 0.23 0.38 0.32 0.34 0.44 0.47 0.51 0.57 0.55 0.62 0.68 0.73 0.67 0.60 0.56 0.58 0.57 0.52 0.53 0.52 0.43 0.39 0.40 0.38 0.35 0.40 0.43 0.41 0.58 0.63 0.56 0.53 0.38 0.31 0.31 0.33 0.34 0.34 0.40 0.45 0.79
0.10 0.10 0.13 0.13 0.14 0.14 0.21 0.29 0.32 0.51 0.53 0.62 0.71 0.81 0.87 0.96 0.95 1.02 0.91 0.82 0.75 0.60 0.56 0.59 0.49 0.39 0.35 0.31 0.32 0.27 0.28 0.27 0.35 0.35 0.35 0.30 0.34 0.29 0.31 0.34 0.37 0.33 0.55
0.18 0.22 0.28 0.20 0.23 0.27 0.37 0.73 0.84 0.93 0.96 0.96 1.08 1.16 1.18 1.13 1.09 0.91 0.75 0.69 0.58 0.45 0.54 0.42 0.32 0.32 0.33 0.31 0.38 0.38 0.26 0.26 0.24 0.26 0.34 0.31 0.36 0.43 0.35 0.30 0.37 0.46 0.39
0.21 0.25 0.35 0.39 0.48 0.54 0.60 0.65 0.96 1.09 0.93 0.80 0.69 0.54 0.44 0.49 0.53 0.49 0.45 0.44 0.40 0.38 0.55 0.41 0.39 0.41 0.40 0.37 0.35 0.35 0.39 0.42 0.35 0.37 0.41 0.40 0.33 0.33 0.41 0.33 0.34 0.47 0.44
0.70 0.80 0.73 0.78 0.79 0.79 0.80 0.83 0.77 0.74 0.73 0.67 0.53 0.43 0.44 0.45 0.47 0.34 0.30 0.31 0.31 0.26 0.33 0.36 0.36 0.31 0.27 0.22 0.21 0.25 0.26 0.29 0.30 0.29 0.38 0.34 0.32 0.32 0.34 0.33 0.32 0.36 0.38
1.20 1.14 1.04 1.01 0.91 0.80 0.71 0.60 0.50 0.44 0.40 0.37 0.29 0.23 0.31 0.31 0.23 0.17 0.17 0.32 0.31 0.24 0.22 0.24 0.27 0.27 0.22 0.19 0.22 0.24 0.28 0.30 0.29 0.30 0.32 0.31 0.28 0.31 0.27 0.25 0.25 0.24 0.25
0.89 0.75 0.58 0.48 0.46 0.43 0.39 0.34 0.33 0.31 0.31 0.30 0.28 0.28 0.19 0.17 0.18 0.16 0.20 0.25 0.28 0.28 0.27 0.26 0.22 0.24 0.26 0.23 0.22 0.23 0.22 0.22 0.22 0.23 0.27 0.29 0.31 0.32 0.30 0.29 0.27 0.27 0.24
0.44 0.41 0.34 0.28 0.25 0.24 0.25 0.26 0.25 0.27 0.26 0.22 0.25 0.23 0.19 0.30 0.30 0.27 0.31 0.34 0.33 0.30 0.28 0.27 0.22 0.22 0.22 0.24 0.24 0.23 0.21 0.21 0.23 0.25 0.24 0.26 0.30 0.32 0.30 0.31 0.30 0.27 0.26
0.18 0.16 0.16 0.16 0.15 0.17 0.18 0.18 0.18 0.19 0.21 0.20 0.20 0.16 0.16 0.24 0.27 0.28 0.31 0.32 0.31 0.30 0.29 0.29 0.25 0.23 0.25 0.26 0.26 0.26 0.23 0.21 0.21 0.23 0.21 0.22 0.24 0.26 0.30 0.30 0.27 0.27 0.26
0.17 0.17 0.16 0.13 0.14 0.15 0.14 0.19 0.27 0.27 0.24 0.24 0.22 0.19 0.19 0.30 0.32 0.31 0.29 0.26 0.21 0.20 0.19 0.23 0.24 0.20 0.16 0.20 0.25 0.31 0.34 0.29 0.30 0.30 0.27 0.22 0.20 0.19 0.23 0.27 0.26 0.26 0.24
0.12 0.15 0.13 0.14 0.20 0.24 0.31 0.29 0.22 0.20 0.21 0.22 0.22 0.25 0.25 0.25 0.28 0.26 0.26 0.24 0.22 0.19 0.17 0.18 0.19 0.17 0.16 0.17 0.19 0.20 0.24 0.27 0.30 0.29 0.29 0.26 0.22 0.21 0.27 0.28 0.26 0.28 0.31
0.19 0.22 0.28 0.31 0.26 0.25 0.21 0.19 0.20 0.18 0.20 0.21 0.21 0.21 0.21 0.20 0.20 0.19 0.18 0.17 0.15 0.12 0.11 0.11 0.12 0.12 0.11 0.13 0.14 0.11 0.15 0.19 0.23 0.21 0.22 0.20 0.16 0.16 0.20 0.23 0.23 0.26 0.28
0.22 0.24 0.22 0.19 0.20 0.20 0.20 0.20 0.17 0.16 0.17 0.17 0.17 0.17 0.17 0.18 0.17 0.15 0.13 0.11 0.11 0.11 0.10 0.10 0.09 0.08 0.08 0.10 0.11 0.11 0.12 0.15 0.18 0.19 0.23 0.18 0.15 0.13 0.15 0.16 0.16 0.19 0.18

GFSGL_prec_precacc_117.txt.gz
Total_Precipitation_Accumulation
0.05 0.03 0.05 0.18 0.18 0.28 0.28 0.33 0.33 0.51 0.69 0.95 1.29 1.68 2.08 1.85 1.59 1.46 1.28 1.02 0.83 0.80 0.80 0.76 0.68 0.64 0.68 0.59 0.58 0.59 0.59 0.64 0.64 0.28 0.19 0.18 0.18 0.17 0.16 0.27 0.42 0.61 0.73
0.18 0.12 0.14 0.31 0.36 0.41 0.56 0.53 0.63 0.78 0.84 1.05 1.36 1.71 1.85 1.83 1.66 1.71 1.59 1.36 1.22 0.98 0.80 0.87 0.84 0.76 0.75 0.62 0.56 0.46 0.39 0.41 0.63 0.58 0.37 0.38 0.43 0.32 0.22 0.19 0.23 0.35 0.51
0.39 0.40 0.27 0.41 0.41 0.69 0.77 1.02 1.16 1.16 1.26 1.31 1.34 1.45 1.62 1.49 1.47 1.34 1.17 1.02 0.98 0.86 0.66 0.55 0.49 0.47 0.41 0.36 0.34 0.37 0.47 0.63 0.81 0.83 0.67 0.51 0.42 0.33 0.29 0.28 0.24 0.22 0.27
0.43 0.41 0.33 0.36 0.47 0.60 0.70 0.83 1.22 1.29 1.04 0.82 0.75 0.60 0.55 0.62 0.68 0.84 0.84 0.92 0.90 0.76 0.58 0.48 0.38 0.36 0.39 0.51 0.63 0.74 0.83 0.86 0.76 0.68 0.61 0.60 0.55 0.45 0.42 0.44 0.44 0.44 0.43
0.44 0.48 0.43 0.57 0.94 1.00 1.05 0.90 0.71 0.50 0.41 0.32 0.25 0.19 0.20 0.31 0.60 0.58 0.67 0.55 0.55 0.49 0.40 0.45 0.54 0.70 0.65 0.57 0.53 0.46 0.51 0.58 0.63 0.71 0.70 0.63 0.56 0.53 0.55 0.58 0.58 0.52 0.49
0.30 0.30 0.49 0.63 0.55 0.60 0.55 0.40 0.27 0.22 0.23 0.21 0.19 0.18 0.20 0.21 0.51 0.57 0.64 0.50 0.48 0.57 0.56 0.45 0.44 0.70 0.55 0.70 0.67 0.69 0.67 0.72 0.72 0.71 0.74 0.73 0.66 0.62 0.61 0.64 0.61 0.55 0.48
0.19 0.21 0.28 0.28 0.26 0.21 0.15 0.15 0.20 0.22 0.19 0.16 0.15 0.13 0.18 0.30 0.68 0.54 0.68 0.42 0.39 0.57 0.61 0.62 0.68 0.80 0.88 0.59 0.74 0.68 0.64 0.66 0.64 0.69 0.76 0.61 0.56 0.46 0.42 0.43 0.37 0.36 0.31
0.24 0.12 0.09 0.07 0.05 0.06 0.12 0.19 0.19 0.21 0.17 0.17 0.23 0.33 0.36 0.58 0.77 0.54 0.59 0.42 0.51 0.58 0.60 0.55 0.53 0.56 0.67 0.61 0.54 0.60 0.53 0.41 0.34 0.30 0.36 0.31 0.24 0.21 0.28 0.36 0.42 0.47 0.33
0.33 0.22 0.08 0.04 0.06 0.12 0.17 0.22 0.19 0.19 0.24 0.25 0.30 0.34 0.35 0.44 0.69 0.46 0.34 0.21 0.31 0.35 0.36 0.45 0.52 0.58 0.83 0.68 0.68 0.67 0.38 0.24 0.19 0.18 0.22 0.23 0.24 0.26 0.31 0.64 0.71 0.76 0.53
0.22 0.20 0.20 0.12 0.12 0.16 0.14 0.11 0.14 0.18 0.25 0.29 0.33 0.31 0.41 0.24 0.49 0.37 0.29 0.22 0.41 0.42 0.47 0.62 0.72 0.50 0.54 0.45 0.60 0.62 0.56 0.24 0.16 0.19 0.20 0.16 0.12 0.15 0.16 0.46 0.64 0.83 0.61
0.33 0.25 0.22 0.17 0.14 0.08 0.08 0.11 0.16 0.20 0.21 0.23 0.22 0.17 0.19 0.24 0.37 0.39 0.33 0.28 0.40 0.48 0.43 0.41 0.47 0.61 0.50 0.37 0.39 0.58 0.56 0.31 0.26 0.29 0.29 0.25 0.22 0.22 0.23 0.29 0.45 0.77 0.75
0.63 0.31 0.31 0.32 0.19 0.09 0.06 0.08 0.11 0.14 0.19 0.17 0.19 0.20 0.20 0.28 0.43 0.40 0.41 0.43 0.53 0.76 0.74 0.71 0.76 0.60 0.48 0.41 0.41 0.47 0.40 0.38 0.51 0.52 0.47 0.37 0.36 0.31 0.28 0.28 0.29 0.34 0.39
1.08 0.84 0.49 0.38 0.42 0.41 0.31 0.28 0.24 0.19 0.19 0.20 0.23 0.29 0.38 0.45 0.63 0.65 0.54 0.55 0.54 0.65 0.73 0.69 0.59 0.50 0.45 0.47 0.41 0.41 0.44 0.65 0.67 0.62 0.50 0.34 0.26 0.24 0.22 0.29 0.34 0.42 0.42
0.37 0.58 0.52 0.52 0.40 0.47 0.67 0.67 0.77 0.82 0.64 0.66 0.72 0.75 0.71 0.65 0.62 0.64 0.66 0.63 0.65 0.64 0.58 0.52 0.52 0.49 0.47 0.51 0.53 0.49 0.62 0.65 0.57 0.54 0.38 0.31 0.31 0.33 0.34 0.34 0.40 0.45 0.79
0.17 0.20 0.33 0.59 0.43 0.26 0.33 0.47 0.44 0.70 0.73 0.68 0.75 0.84 0.90 1.00 1.01 1.08 1.00 0.93 0.87 0.74 0.72 0.76 0.64 0.50 0.43 0.36 0.34 0.28 0.28 0.27 0.35 0.35 0.35 0.30 0.34 0.29 0.31 0.34 0.37 0.33 0.55
0.22 0.28 0.38 0.45 0.48 0.34 0.39 0.77 0.92 1.02 1.04 1.04 1.13 1.19 1.23 1.18 1.16 0.98 0.83 0.82 0.73 0.57 0.63 0.48 0.36 0.35 0.35 0.32 0.38 0.38 0.26 0.26 0.24 0.26 0.34 0.31 0.36 0.43 0.35 0.30 0.37 0.46 0.39
0.24 0.28 0.42 0.51 0.60 0.59 0.65 0.71 1.08 1.25 1.07 0.91 0.78 0.62 0.55 0.64 0.67 0.62 0.53 0.47 0.41 0.39 0.57 0.43 0.40 0.41 0.40 0.37 0.35 0.35 0.39 0.42 0.35 0.37 0.41 0.40 0.33 0.33 0.41 0.33 0.34 0.47 0.44
0.71 0.83 0.76 0.81 0.83 0.85 0.86 0.90 0.85 0.82 0.83 0.82 0.68 0.57 0.55 0.53 0.51 0.36 0.30 0.32 0.31 0.26 0.34 0.36 0.36 0.31 0.27 0.22 0.21 0.25 0.26 0.29 0.30 0.29 0.38 0.34 0.32 0.32 0.34 0.33 0.32 0.36 0.38
1.21 1.16 1.07 1.04 0.95 0.84 0.75 0.64 0.54 0.47 0.44 0.44 0.36 0.30 0.33 0.31 0.23 0.17 0.17 0.32 0.31 0.24 0.22 0.24 0.27 0.27 0.22 0.19 0.22 0.24 0.28 0.30 0.29 0.30 0.32 0.31 0.28 0.31 0.27 0.25 0.25 0.24 0.25
0.94 0.81 0.62 0.52 0.52 0.48 0.45 0.41 0.40 0.37 0.36 0.34 0.30 0.30 0.20 0.17 0.18 0.16 0.20 0.25 0.28 0.28 0.27 0.26 0.22 0.24 0.26 0.23 0.22 0.23 0.22 0.22 0.22 0.23 0.27 0.29 0.31 0.32 0.30 0.29 0.27 0.27 0.24
0.47 0.46 0.39 0.33 0.31 0.31 0.32 0.32 0.31 0.31 0.28 0.24 0.25 0.23 0.19 0.30 0.30 0.27 0.31 0.34 0.33 0.30 0.28 0.27 0.22 0.22 0.22 0.24 0.24 0.23 0.21 0.21 0.23 0.25 0.24 0.26 0.30 0.32 0.30 0.31 0.30 0.27 0.26
0.20 0.20 0.21 0.20 0.19 0.21 0.24 0.24 0.22 0.21 0.21 0.21 0.20 0.16 0.16 0.24 0.27 0.28 0.31 0.32 0.31 0.30 0.29 0.29 0.25 0.23 0.25 0.26 0.26 0.26 0.23 0.21 0.21 0.23 0.21 0.22 0.24 0.26 0.30 0.30 0.27 0.27 0.26
0.20 0.20 0.18 0.16 0.18 0.18 0.16 0.20 0.27 0.27 0.24 0.24 0.22 0.19 0.19 0.30 0.32 0.31 0.29 0.26 0.21 0.20 0.19 0.23 0.24 0.20 0.16 0.20 0.25 0.31 0.34 0.29 0.30 0.30 0.27 0.22 0.20 0.19 0.23 0.27 0.26 0.26 0.24
0.14 0.16 0.15 0.16 0.21 0.24 0.31 0.29 0.22 0.20 0.21 0.22 0.22 0.25 0.25 0.25 0.28 0.26 0.26 0.24 0.22 0.19 0.17 0.18 0.19 0.17 0.16 0.17 0.19 0.20 0.24 0.27 0.30 0.29 0.29 0.26 0.22 0.21 0.27 0.28 0.26 0.28 0.31
0.19 0.23 0.28 0.31 0.26 0.25 0.22 0.19 0.20 0.18 0.20 0.21 0.21 0.21 0.21 0.20 0.20 0.19 0.18 0.17 0.15 0.12 0.11 0.11 0.12 0.12 0.11 0.13 0.14 0.11 0.15 0.19 0.23 0.21 0.22 0.20 0.16 0.16 0.20 0.23 0.23 0.26 0.28
0.22 0.24 0.22 0.19 0.20 0.20 0.20 0.20 0.17 0.16 0.17 0.17 0.17 0.17 0.17 0.18 0.17 0.15 0.13 0.11 0.11 0.11 0.10 0.10 0.09 0.08 0.08 0.10 0.11 0.11 0.12 0.15 0.18 0.19 0.23 0.18 0.15 0.13 0.15 0.16 0.16 0.19 0.18

GFSGL_prec_precacc_120.txt.gz
Total_Precipitation_Accumulation
0.06 0.06 0.09 0.24 0.21 0.28 0.29 0.33 0.33 0.51 0.70 0.98 1.38 1.85 2.33 2.03 1.66 1.48 1.32 1.05 0.84 0.80 0.80 0.76 0.68 0.64 0.69 0.61 0.60 0.63 0.64 0.68 0.68 0.33 0.29 0.26 0.25 0.24 0.23 0.32 0.46 0.62 0.74
0.19 0.17 0.22 0.36 0.37 0.41 0.56 0.53 0.63 0.79 0.85 1.05 1.37 1.77 2.09 2.36 2.07 1.84 1.64 1.39 1.23 0.99 0.80 0.88 0.86 0.78 0.78 0.65 0.59 0.51 0.46 0.47 0.71 0.68 0.55 0.52 0.55 0.42 0.31 0.26 0.29 0.38 0.53
0.42 0.47 0.33 0.44 0.42 0.69 0.77 1.02 1.16 1.17 1.26 1.31 1.35 1.46 1.66 1.72 1.95 1.67 1.32 1.12 1.07 0.94 0.73 0.61 0.56 0.54 0.46 0.38 0.37 0.42 0.53 0.71 0.92 0.98 0.83 0.66 0.55 0.43 0.37 0.34 0.28 0.25 0.28
0.49 0.50 0.38 0.37 0.47 0.60 0.70 0.84 1.22 1.29 1.04 0.82 0.75 0.61 0.57 0.73 0.94 1.07 1.08 1.15 1.13 1.08 0.94 0.82 0.63 0.52 0.48 0.55 0.67 0.81 0.91 0.97 0.91 0.84 0.76 0.72 0.63 0.50 0.46 0.47 0.47 0.45 0.44
0.55 0.56 0.45 0.58 0.94 1.00 1.05 0.90 0.71 0.50 0.41 0.33 0.26 0.19 0.21 0.39 0.81 0.85 0.96 0.88 1.03 0.98 0.90 0.90 0.93 0.97 0.80 0.64 0.60 0.54 0.61 0.71 0.76 0.83 0.81 0.72 0.63 0.58 0.58 0.59 0.58 0.52 0.49
0.42 0.36 0.50 0.64 0.56 0.61 0.55 0.40 0.27 0.22 0.23 0.21 0.19 0.18 0.20 0.22 0.65 0.78 0.86 0.78 0.84 0.97 0.91 0.70 0.63 0.86 0.70 0.83 0.79 0.83 0.80 0.82 0.79 0.77 0.78 0.76 0.69 0.64 0.62 0.65 0.62 0.56 0.48
0.31 0.27 0.29 0.29 0.27 0.21 0.15 0.15 0.20 0.22 0.19 0.16 0.15 0.13 0.18 0.31 0.70 0.61 0.85 0.64 0.58 0.79 0.95 0.86 0.79 0.92 0.99 0.66 0.82 0.76 0.70 0.71 0.67 0.70 0.77 0.61 0.56 0.46 0.42 0.44 0.37 0.36 0.31
0.34 0.19 0.10 0.07 0.06 0.07 0.12 0.19 0.19 0.21 0.18 0.17 0.23 0.33 0.37 0.60 0.79 0.57 0.69 0.68 0.62 0.68 0.75 0.75 0.66 0.63 0.76 0.68 0.59 0.62 0.54 0.42 0.35 0.30 0.36 0.31 0.24 0.21 0.28 0.36 0.42 0.47 0.34
0.42 0.28 0.09 0.04 0.07 0.12 0.17 0.22 0.19 0.19 0.24 0.25 0.30 0.34 0.35 0.45 0.72 0.49 0.37 0.30 0.39 0.44 0.41 0.50 0.57 0.61 0.87 0.70 0.69 0.67 0.38 0.24 0.21 0.19 0.22 0.23 0.24 0.26 0.31 0.64 0.72 0.77 0.55
0.41 0.28 0.22 0.13 0.12 0.16 0.14 0.12 0.14 0.19 0.25 0.30 0.33 0.31 0.43 0.24 0.52 0.40 0.31 0.22 0.43 0.44 0.50 0.66 0.76 0.51 0.56 0.45 0.60 0.62 0.56 0.24 0.16 0.20 0.20 0.16 0.13 0.16 0.17 0.47 0.64 0.83 0.62
0.57 0.40 0.27 0.17 0.14 0.09 0.09 0.12 0.16 0.20 0.21 0.23 0.23 0.18 0.19 0.25 0.39 0.41 0.36 0.28 0.41 0.48 0.43 0.42 0.49 0.62 0.50 0.37 0.40 0.58 0.57 0.31 0.27 0.30 0.29 0.25 0.23 0.23 0.24 0.30 0.45 0.77 0.75
1.00 0.60 0.42 0.33 0.20 0.10 0.07 0.09 0.12 0.15 0.19 0.18 0.20 0.20 0.21 0.29 0.45 0.42 0.43 0.45 0.55 0.77 0.75 0.72 0.78 0.61 0.48 0.41 0.41 0.49 0.42 0.40 0.53 0.55 0.50 0.40 0.38 0.32 0.29 0.28 0.29 0.34 0.39
1.56 1.40 0.90 0.45 0.43 0.42 0.33 0.29 0.25 0.20 0.19 0.20 0.23 0.29 0.39 0.45 0.64 0.67 0.56 0.58 0.57 0.67 0.78 0.75 0.63 0.52 0.47 0.50 0.44 0.44 0.47 0.69 0.71 0.65 0.52 0.34 0.26 0.24 0.22 0.29 0.34 0.42 0.42
0.73 1.07 1.29 1.11 0.55 0.52 0.72 0.70 0.80 0.84 0.65 0.66 0.72 0.75 0.72 0.66 0.63 0.65 0.68 0.66 0.68 0.69 0.67 0.62 0.61 0.59 0.55 0.59 0.60 0.55 0.67 0.67 0.58 0.54 0.39 0.31 0.31 0.33 0.34 0.34 0.40 0.45 0.79
0.36 0.60 0.71 1.15 0.94 0.45 0.45 0.67 0.70 0.91 0.98 0.86 0.80 0.87 0.92 1.01 1.04 1.10 1.02 0.97 0.92 0.80 0.80 0.85 0.73 0.57 0.48 0.40 0.36 0.29 0.29 0.27 0.35 0.35 0.35 0.30 0.34 0.29 0.31 0.34 0.37 0.33 0.55
0.28 0.52 0.65 0.73 1.08 0.87 0.62 0.92 1.13 1.35 1.34 1.29 1.36 1.34 1.36 1.28 1.21 1.01 0.87 0.88 0.79 0.63 0.67 0.50 0.37 0.35 0.35 0.32 0.38 0.39 0.26 0.26 0.24 0.26 0.34 0.31 0.36 0.43 0.35 0.30 0.37 0.46 0.39
0.29 0.34 0.57 0.73 0.87 0.93 0.84 0.81 1.15 1.33 1.17 1.01 0.88 0.72 0.65 0.76 0.77 0.71 0.61 0.54 0.47 0.41 0.58 0.44 0.41 0.41 0.40 0.37 0.35 0.35 0.39 0.42 0.35 0.37 0.41 0.40 0.33 0.33 0.41 0.33 0.34 0.47 0.44
0.74 0.89 0.80 0.89 1.00 1.19 1.17 1.01 0.90 0.91 0.99 1.05 0.93 0.80 0.74 0.64 0.59 0.43 0.33 0.32 0.31 0.27 0.34 0.37 0.36 0.31 0.27 0.22 0.21 0.25 0.26 0.29 0.30 0.29 0.38 0.34 0.32 0.32 0.34 0.33 0.32 0.36 0.38
1.22 1.19 1.10 1.10 1.03 0.96 0.99 0.85 0.70 0.62 0.58 0.62 0.53 0.40 0.42 0.37 0.25 0.18 0.17 0.32 0.31 0.24 0.22 0.24 0.27 0.27 0.22 0.19 0.22 0.24 0.28 0.30 0.29 0.30 0.32 0.31 0.28 0.31 0.27 0.25 0.25 0.24 0.25
1.00 0.85 0.65 0.55 0.58 0.56 0.53 0.50 0.50 0.46 0.42 0.38 0.34 0.33 0.22 0.18 0.18 0.16 0.20 0.25 0.28 0.28 0.27 0.26 0.22 0.24 0.26 0.23 0.22 0.23 0.22 0.22 0.22 0.23 0.27 0.29 0.31 0.32 0.30 0.29 0.27 0.27 0.24
0.50 0.50 0.43 0.36 0.34 0.35 0.38 0.39 0.37 0.37 0.32 0.27 0.28 0.24 0.19 0.30 0.30 0.27 0.31 0.34 0.33 0.30 0.28 0.27 0.22 0.22 0.22 0.24 0.24 0.23 0.21 0.21 0.23 0.25 0.24 0.26 0.30 0.32 0.30 0.31 0.30 0.27 0.26
0.24 0.23 0.25 0.23 0.23 0.26 0.29 0.29 0.28 0.26 0.24 0.22 0.21 0.16 0.16 0.24 0.27 0.28 0.31 0.32 0.31 0.30 0.29 0.29 0.25 0.23 0.25 0.26 0.26 0.26 0.23 0.21 0.21 0.23 0.21 0.22 0.24 0.26 0.30 0.30 0.27 0.27 0.26
0.24 0.23 0.22 0.20 0.22 0.22 0.19 0.23 0.29 0.28 0.25 0.25 0.22 0.19 0.19 0.30 0.32 0.31 0.29 0.26 0.21 0.20 0.19 0.23 0.24 0.20 0.16 0.20 0.25 0.31 0.34 0.29 0.30 0.30 0.27 0.22 0.20 0.19 0.23 0.27 0.27 0.26 0.24
0.16 0.19 0.17 0.18 0.24 0.27 0.32 0.29 0.22 0.20 0.21 0.22 0.22 0.25 0.25 0.25 0.28 0.26 0.26 0.24 0.22 0.19 0.17 0.18 0.19 0.17 0.16 0.17 0.19 0.20 0.24 0.27 0.30 0.29 0.29 0.26 0.22 0.21 0.27 0.28 0.26 0.28 0.31
0.21 0.24 0.29 0.31 0.27 0.25 0.22 0.19 0.20 0.18 0.20 0.21 0.21 0.21 0.21 0.20 0.20 0.19 0.18 0.17 0.15 0.12 0.11 0.11 0.12 0.12 0.11 0.13 0.14 0.11 0.15 0.19 0.23 0.21 0.22 0.20 0.16 0.16 0.20 0.23 0.23 0.26 0.28
0.22 0.24 0.22 0.19 0.20 0.20 0.20 0.20 0.17 0.16 0.17 0.17 0.17 0.17 0.17 0.18 0.17 0.15 0.13 0.11 0.11 0.11 0.10 0.10 0.09 0.08 0.08 0.10 0.11 0.11 0.12 0.15 0.18 0.19 0.23 0.18 0.15 0.13 0.15 0.16 0.16 0.19 0.18

GFSGL_prec_precacc_123.txt.gz
Total_Precipitation_Accumulation
0.07 0.06 0.11 0.33 0.31 0.31 0.29 0.33 0.34 0.52 0.71 0.99 1.39 1.89 2.40 2.07 1.67 1.50 1.45 1.19 0.91 0.83 0.81 0.77 0.68 0.65 0.69 0.61 0.60 0.63 0.64 0.68 0.71 0.36 0.31 0.30 0.31 0.29 0.28 0.37 0.49 0.65 0.77
0.19 0.17 0.24 0.43 0.41 0.43 0.57 0.54 0.64 0.80 0.86 1.06 1.38 1.82 2.17 2.49 2.30 1.96 1.68 1.48 1.32 1.02 0.81 0.89 0.86 0.79 0.78 0.65 0.59 0.51 0.46 0.47 0.72 0.72 0.64 0.61 0.65 0.50 0.39 0.32 0.31 0.39 0.53
0.43 0.48 0.34 0.47 0.43 0.70 0.77 1.02 1.17 1.17 1.27 1.32 1.36 1.48 1.70 1.80 2.11 1.89 1.49 1.17 1.11 0.98 0.75 0.62 0.56 0.54 0.46 0.39 0.38 0.42 0.53 0.72 0.94 1.08 1.02 0.80 0.66 0.51 0.45 0.39 0.30 0.26 0.29
0.50 0.52 0.41 0.42 0.49 0.63 0.71 0.84 1.23 1.29 1.04 0.82 0.76 0.62 0.58 0.74 1.01 1.24 1.30 1.34 1.19 1.10 0.99 0.87 0.67 0.54 0.50 0.60 0.73 0.84 0.93 0.99 0.94 0.92 0.87 0.81 0.69 0.55 0.50 0.50 0.48 0.46 0.44
0.57 0.59 0.50 0.62 0.97 1.02 1.06 0.91 0.71 0.50 0.41 0.33 0.26 0.20 0.22 0.40 0.82 0.90 1.07 1.09 1.27 1.19 1.10 1.12 1.11 1.13 0.98 0.80 0.72 0.65 0.70 0.77 0.82 0.89 0.89 0.80 0.70 0.64 0.62 0.62 0.60 0.53 0.50
0.45 0.41 0.57 0.70 0.60 0.63 0.57 0.42 0.28 0.23 0.24 0.21 0.20 0.18 0.20 0.22 0.66 0.88 1.04 1.03 1.17 1.29 1.17 0.95 0.89 1.15 1.01 1.11 0.97 0.95 0.91 0.91 0.87 0.85 0.88 0.85 0.78 0.70 0.65 0.66 0.62 0.56 0.49
0.34 0.34 0.36 0.35 0.31 0.24 0.17 0.16 0.21 0.23 0.19 0.16 0.15 0.13 0.18 0.31 0.71 0.66 1.00 0.80 0.83 1.09 1.25 1.17 1.09 1.24 1.28 0.90 0.99 0.87 0.79 0.81 0.76 0.77 0.82 0.66 0.60 0.47 0.42 0.44 0.37 0.36 0.31
0.36 0.26 0.18 0.13 0.10 0.09 0.14 0.20 0.20 0.21 0.18 0.17 0.23 0.33 0.37 0.60 0.80 0.58 0.71 0.75 0.76 0.91 0.96 0.97 0.90 0.88 0.94 0.83 0.72 0.72 0.61 0.46 0.38 0.31 0.37 0.32 0.24 0.21 0.28 0.36 0.42 0.48 0.34
0.46 0.34 0.18 0.12 0.10 0.14 0.18 0.22 0.19 0.19 0.24 0.25 0.30 0.35 0.35 0.45 0.74 0.50 0.38 0.32 0.46 0.54 0.51 0.66 0.76 0.79 1.02 0.79 0.76 0.73 0.42 0.27 0.23 0.20 0.23 0.24 0.25 0.26 0.32 0.65 0.72 0.78 0.56
0.54 0.41 0.37 0.23 0.15 0.16 0.14 0.12 0.14 0.19 0.25 0.30 0.33 0.31 0.43 0.24 0.53 0.42 0.31 0.23 0.44 0.47 0.54 0.73 0.87 0.59 0.62 0.48 0.61 0.62 0.57 0.25 0.17 0.20 0.21 0.17 0.13 0.16 0.18 0.47 0.65 0.84 0.62
0.70 0.62 0.44 0.29 0.16 0.09 0.09 0.12 0.16 0.20 0.21 0.23 0.23 0.18 0.19 0.26 0.40 0.44 0.38 0.28 0.41 0.49 0.45 0.44 0.52 0.63 0.51 0.38 0.40 0.58 0.57 0.31 0.28 0.30 0.30 0.26 0.24 0.24 0.26 0.31 0.46 0.77 0.75
1.27 0.83 0.73 0.54 0.22 0.10 0.07 0.10 0.12 0.15 0.19 0.18 0.20 0.20 0.21 0.30 0.47 0.45 0.46 0.48 0.56 0.77 0.76 0.73 0.78 0.61 0.49 0.42 0.42 0.49 0.42 0.40 0.53 0.55 0.51 0.43 0.42 0.35 0.30 0.29 0.29 0.34 0.39
1.83 1.80 1.30 0.78 0.55 0.46 0.33 0.30 0.26 0.21 0.19 0.21 0.23 0.29 0.39 0.45 0.66 0.70 0.60 0.61 0.59 0.67 0.78 0.75 0.63 0.52 0.47 0.51 0.44 0.45 0.49 0.70 0.73 0.66 0.55 0.36 0.27 0.24 0.22 0.29 0.34 0.42 0.42
0.90 1.46 1.71 1.65 0.83 0.60 0.76 0.74 0.83 0.85 0.66 0.67 0.73 0.76 0.72 0.67 0.64 0.66 0.70 0.69 0.72 0.72 0.69 0.63 0.63 0.61 0.57 0.61 0.62 0.57 0.68 0.68 0.58 0.54 0.39 0.31 0.31 0.33 0.34 0.34 0.40 0.45 0.79
0.53 0.93 1.14 1.61 1.52 0.63 0.53 0.77 0.77 0.96 1.01 0.88 0.81 0.88 0.93 1.03 1.07 1.12 1.03 0.98 0.94 0.84 0.83 0.89 0.78 0.61 0.51 0.42 0.37 0.29 0.29 0.27 0.35 0.35 0.35 0.30 0.34 0.29 0.31 0.34 0.37 0.33 0.55
0.42 0.76 1.00 1.15 1.56 1.46 0.90 1.11 1.39 1.56 1.50 1.48 1.59 1.51 1.55 1.44 1.35 1.12 0.97 0.97 0.87 0.70 0.71 0.55 0.41 0.37 0.35 0.33 0.38 0.39 0.26 0.26 0.24 0.26 0.34 0.31 0.36 0.43 0.35 0.30 0.37 0.46 0.39
0.33 0.43 0.74 1.02 1.27 1.36 1.39 1.18 1.34 1.52 1.38 1.24 1.10 0.93 0.92 1.08 1.03 0.92 0.77 0.67 0.57 0.49 0.64 0.47 0.42 0.41 0.40 0.37 0.35 0.35 0.39 0.42 0.35 0.37 0.41 0.40 0.33 0.33 0.41 0.33 0.34 0.47 0.44
0.77 0.99 0.95 1.03 1.30 1.50 1.55 1.43 1.27 1.21 1.15 1.19 1.09 0.99 0.94 0.88 0.84 0.67 0.56 0.48 0.40 0.31 0.37 0.38 0.36 0.31 0.27 0.22 0.21 0.25 0.26 0.29 0.30 0.29 0.38 0.34 0.32 0.32 0.34 0.33 0.32 0.36 0.38
1.25 1.22 1.21 1.29 1.20 1.13 1.24 1.18 0.96 0.87 0.81 0.78 0.69 0.57 0.58 0.53 0.41 0.28 0.22 0.34 0.31 0.24 0.22 0.24 0.27 0.27 0.22 0.19 0.22 0.24 0.28 0.30 0.29 0.30 0.32 0.31 0.28 0.31 0.27 0.25 0.25 0.24 0.25
1.06 0.88 0.69 0.64 0.75 0.77 0.73 0.76 0.79 0.71 0.65 0.57 0.47 0.47 0.34 0.24 0.21 0.17 0.20 0.25 0.28 0.28 0.27 0.26 0.22 0.24 0.26 0.23 0.22 0.23 0.22 0.22 0.22 0.23 0.27 0.29 0.31 0.32 0.30 0.29 0.27 0.27 0.24
0.55 0.55 0.46 0.40 0.39 0.42 0.51 0.53 0.50 0.48 0.43 0.35 0.33 0.27 0.20 0.30 0.30 0.27 0.31 0.34 0.33 0.30 0.28 0.27 0.22 0.22 0.22 0.24 0.24 0.23 0.21 0.21 0.23 0.25 0.24 0.26 0.30 0.32 0.30 0.31 0.30 0.27 0.26
0.27 0.27 0.29 0.28 0.29 0.31 0.33 0.33 0.32 0.29 0.27 0.24 0.22 0.17 0.16 0.24 0.27 0.28 0.31 0.32 0.31 0.30 0.29 0.29 0.25 0.23 0.25 0.26 0.26 0.26 0.23 0.21 0.21 0.23 0.21 0.22 0.24 0.26 0.30 0.31 0.28 0.27 0.27
0.25 0.25 0.24 0.23 0.25 0.26 0.23 0.26 0.32 0.29 0.25 0.25 0.22 0.19 0.19 0.30 0.32 0.31 0.29 0.26 0.21 0.20 0.19 0.23 0.24 0.20 0.16 0.20 0.25 0.31 0.34 0.29 0.30 0.30 0.27 0.22 0.20 0.19 0.23 0.28 0.27 0.26 0.24
0.17 0.21 0.19 0.21 0.27 0.30 0.35 0.31 0.23 0.20 0.21 0.22 0.22 0.25 0.25 0.25 0.28 0.26 0.26 0.24 0.22 0.19 0.17 0.18 0.19 0.17 0.16 0.17 0.19 0.20 0.24 0.27 0.30 0.29 0.29 0.26 0.22 0.21 0.27 0.28 0.26 0.29 0.31
0.22 0.26 0.30 0.33 0.28 0.26 0.22 0.19 0.20 0.18 0.20 0.21 0.21 0.21 0.21 0.20 0.20 0.19 0.18 0.17 0.15 0.12 0.11 0.11 0.12 0.12 0.11 0.13 0.14 0.11 0.15 0.19 0.23 0.21 0.22 0.20 0.16 0.16 0.20 0.23 0.23 0.26 0.28
0.23 0.25 0.22 0.19 0.20 0.20 0.20 0.20 0.17 0.16 0.17 0.17 0.17 0.17 0.17 0.18 0.17 0.15 0.13 0.11 0.11 0.11 0.10 0.10 0.09 0.08 0.08 0.10 0.11 0.11 0.12 0.15 0.18 0.19 0.23 0.18 0.15 0.13 0.15 0.16 0.16 0.19 0.18

GFSGL_prec_precacc_126.txt.gz
Total_Precipitation_Accumulation
0.07 0.07 0.12 0.33 0.31 0.32 0.31 0.35 0.35 0.53 0.72 0.99 1.39 1.89 2.40 2.08 1.67 1.51 1.52 1.42 1.20 1.07 1.09 0.99 0.79 0.70 0.72 0.61 0.60 0.64 0.66 0.69 0.71 0.36 0.31 0.30 0.31 0.29 0.28 0.37 0.49 0.65 0.78
0.19 0.17 0.25 0.43 0.42 0.45 0.58 0.56 0.67 0.81 0.88 1.07 1.38 1.82 2.17 2.49 2.30 1.97 1.70 1.56 1.50 1.21 0.99 1.10 1.01 0.86 0.84 0.69 0.61 0.53 0.47 0.48 0.72 0.72 0.64 0.61 0.65 0.51 0.39 0.32 0.32 0.39 0.54
0.43 0.49 0.35 0.48 0.44 0.73 0.80 1.05 1.18 1.19 1.28 1.34 1.37 1.49 1.70 1.81 2.11 1.91 1.51 1.20 1.19 1.12 0.89 0.75 0.66 0.65 0.51 0.44 0.41 0.45 0.56 0.73 0.94 1.08 1.02 0.81 0.66 0.52 0.46 0.41 0.32 0.28 0.31
0.50 0.52 0.41 0.43 0.51 0.65 0.75 0.86 1.25 1.31 1.05 0.84 0.77 0.63 0.59 0.74 1.02 1.25 1.33 1.40 1.24 1.19 1.12 0.99 0.74 0.62 0.55 0.62 0.75 0.85 0.94 1.00 0.95 0.92 0.88 0.82 0.70 0.56 0.51 0.52 0.51 0.48 0.46
0.57 0.59 0.50 0.63 1.00 1.07 1.10 0.93 0.74 0.53 0.42 0.33 0.27 0.21 0.23 0.41 0.85 0.91 1.07 1.10 1.32 1.26 1.19 1.25 1.21 1.24 1.07 0.83 0.74 0.66 0.72 0.82 0.88 0.94 0.92 0.82 0.71 0.65 0.64 0.65 0.64 0.56 0.51
0.45 0.41 0.57 0.72 0.64 0.69 0.62 0.45 0.29 0.25 0.25 0.21 0.20 0.19 0.20 0.22 0.68 0.91 1.07 1.05 1.22 1.48 1.33 1.06 1.00 1.28 1.13 1.21 1.07 1.06 1.00 1.02 1.00 0.96 0.95 0.89 0.80 0.73 0.68 0.69 0.65 0.59 0.51
0.34 0.34 0.37 0.37 0.36 0.30 0.21 0.19 0.23 0.24 0.20 0.17 0.15 0.13 0.18 0.31 0.72 0.67 1.02 0.85 0.96 1.34 1.49 1.42 1.30 1.47 1.49 1.09 1.20 1.09 1.02 1.00 0.91 0.88 0.92 0.72 0.64 0.51 0.46 0.47 0.39 0.37 0.31
0.36 0.26 0.18 0.14 0.14 0.16 0.21 0.22 0.22 0.22 0.18 0.17 0.23 0.33 0.37 0.60 0.81 0.59 0.71 0.77 0.84 1.09 1.24 1.28 1.24 1.23 1.28 1.10 1.02 1.05 0.86 0.63 0.50 0.39 0.44 0.38 0.27 0.23 0.28 0.36 0.43 0.48 0.35
0.46 0.34 0.19 0.14 0.16 0.26 0.34 0.25 0.21 0.20 0.25 0.26 0.30 0.35 0.35 0.45 0.75 0.51 0.39 0.32 0.48 0.62 0.69 0.91 1.04 1.09 1.36 1.07 1.02 0.99 0.60 0.39 0.33 0.27 0.29 0.27 0.26 0.28 0.33 0.66 0.73 0.79 0.57
0.54 0.41 0.39 0.29 0.28 0.35 0.30 0.16 0.15 0.19 0.26 0.31 0.34 0.32 0.44 0.25 0.54 0.44 0.33 0.23 0.44 0.48 0.56 0.80 1.02 0.79 0.82 0.67 0.77 0.74 0.68 0.34 0.21 0.23 0.23 0.19 0.15 0.18 0.19 0.47 0.65 0.85 0.63
0.70 0.62 0.48 0.37 0.37 0.29 0.22 0.15 0.17 0.22 0.23 0.25 0.24 0.18 0.19 0.26 0.40 0.45 0.39 0.28 0.41 0.50 0.45 0.44 0.54 0.70 0.58 0.44 0.44 0.60 0.59 0.33 0.29 0.31 0.30 0.26 0.24 0.25 0.27 0.34 0.47 0.78 0.75
1.27 0.84 0.78 0.64 0.39 0.27 0.19 0.13 0.14 0.18 0.21 0.20 0.21 0.22 0.21 0.31 0.48 0.46 0.47 0.49 0.56 0.77 0.76 0.73 0.78 0.62 0.51 0.44 0.43 0.50 0.43 0.40 0.53 0.55 0.51 0.43 0.43 0.37 0.32 0.29 0.29 0.34 0.39
1.83 1.81 1.35 0.88 0.75 0.67 0.55 0.37 0.30 0.26 0.23 0.23 0.24 0.30 0.40 0.46 0.67 0.73 0.63 0.63 0.62 0.68 0.78 0.76 0.64 0.52 0.48 0.52 0.45 0.45 0.49 0.70 0.73 0.67 0.56 0.38 0.28 0.24 0.22 0.29 0.34 0.42 0.42
0.90 1.49 1.86 1.87 1.12 0.97 1.09 0.89 0.87 0.90 0.72 0.70 0.74 0.76 0.73 0.67 0.65 0.67 0.72 0.73 0.76 0.74 0.71 0.64 0.63 0.61 0.57 0.62 0.63 0.58 0.68 0.69 0.59 0.55 0.39 0.31 0.31 0.33 0.34 0.34 0.40 0.45 0.79
0.55 0.96 1.26 1.93 1.90 1.07 0.89 0.98 0.85 1.07 1.10 0.91 0.83 0.89 0.94 1.03 1.09 1.15 1.05 0.99 0.95 0.86 0.84 0.90 0.78 0.61 0.51 0.42 0.38 0.30 0.30 0.28 0.36 0.35 0.35 0.30 0.34 0.29 0.31 0.34 0.37 0.33 0.55
0.46 0.87 1.16 1.43 2.00 1.95 1.33 1.41 1.61 1.74 1.66 1.62 1.69 1.56 1.60 1.48 1.39 1.16 1.04 1.06 0.95 0.76 0.73 0.58 0.47 0.42 0.39 0.36 0.40 0.40 0.27 0.26 0.24 0.26 0.34 0.31 0.36 0.43 0.35 0.30 0.37 0.46 0.39
0.38 0.51 0.87 1.27 1.64 1.81 1.82 1.54 1.51 1.66 1.58 1.45 1.28 1.11 1.08 1.26 1.19 1.07 0.91 0.80 0.71 0.60 0.74 0.59 0.52 0.48 0.44 0.38 0.35 0.35 0.39 0.42 0.35 0.37 0.41 0.40 0.33 0.33 0.41 0.33 0.34 0.47 0.44
0.80 1.06 1.10 1.25 1.59 1.90 2.01 1.84 1.61 1.35 1.27 1.38 1.28 1.19 1.17 1.09 1.07 0.91 0.82 0.74 0.67 0.53 0.53 0.49 0.43 0.34 0.28 0.23 0.21 0.25 0.26 0.29 0.30 0.29 0.38 0.34 0.32 0.32 0.34 0.33 0.32 0.36 0.38
1.28 1.26 1.30 1.43 1.41 1.46 1.61 1.62 1.41 1.25 1.17 1.15 1.03 0.85 0.82 0.77 0.63 0.50 0.41 0.51 0.46 0.38 0.31 0.28 0.28 0.27 0.22 0.19 0.22 0.24 0.28 0.30 0.29 0.30 0.32 0.31 0.28 0.31 0.27 0.25 0.25 0.24 0.25
1.10 0.93 0.73 0.72 0.91 0.99 0.96 1.05 1.13 1.09 1.06 0.99 0.87 0.83 0.61 0.42 0.39 0.35 0.34 0.35 0.34 0.32 0.29 0.27 0.23 0.24 0.26 0.23 0.22 0.23 0.22 0.22 0.22 0.23 0.27 0.29 0.31 0.32 0.30 0.29 0.27 0.27 0.24
0.58 0.60 0.49 0.45 0.45 0.49 0.64 0.74 0.77 0.75 0.71 0.64 0.58 0.47 0.39 0.46 0.44 0.37 0.38 0.37 0.35 0.30 0.28 0.27 0.22 0.22 0.22 0.24 0.24 0.23 0.21 0.21 0.23 0.25 0.24 0.26 0.30 0.32 0.30 0.31 0.30 0.27 0.26
0.31 0.31 0.33 0.31 0.34 0.37 0.40 0.41 0.41 0.42 0.41 0.37 0.35 0.27 0.22 0.28 0.31 0.30 0.33 0.33 0.31 0.30 0.29 0.29 0.25 0.23 0.25 0.26 0.26 0.26 0.23 0.21 0.21 0.23 0.21 0.22 0.24 0.26 0.30 0.31 0.28 0.27 0.27
0.28 0.28 0.27 0.26 0.28 0.30 0.28 0.31 0.37 0.35 0.30 0.28 0.25 0.22 0.20 0.31 0.33 0.31 0.30 0.27 0.21 0.20 0.19 0.23 0.24 0.20 0.16 0.20 0.25 0.31 0.34 0.29 0.30 0.30 0.27 0.22 0.20 0.19 0.23 0.28 0.27 0.26 0.24
0.19 0.23 0.20 0.23 0.29 0.31 0.37 0.34 0.26 0.21 0.22 0.23 0.23 0.25 0.26 0.26 0.28 0.27 0.26 0.24 0.23 0.20 0.17 0.18 0.19 0.17 0.16 0.17 0.19 0.20 0.24 0.27 0.30 0.29 0.29 0.26 0.22 0.21 0.27 0.28 0.26 0.29 0.31
0.23 0.27 0.31 0.34 0.30 0.28 0.24 0.21 0.22 0.20 0.21 0.22 0.22 0.21 0.21 0.20 0.21 0.19 0.18 0.18 0.15 0.12 0.11 0.11 0.12 0.12 0.11 0.13 0.14 0.11 0.15 0.19 0.23 0.21 0.22 0.20 0.16 0.16 0.20 0.23 0.23 0.26 0.28
0.24 0.26 0.23 0.20 0.21 0.21 0.21 0.20 0.18 0.17 0.17 0.17 0.18 0.18 0.18 0.18 0.18 0.15 0.13 0.11 0.11 0.11 0.10 0.10 0.09 0.08 0.08 0.10 0.11 0.11 0.12 0.15 0.18 0.19 0.23 0.18 0.15 0.13 0.15 0.16 0.16 0.19 0.18

GFSGL_prec_precacc_132.txt.gz
Total_Precipitation_Accumulation
0.07 0.07 0.12 0.33 0.31 0.33 0.35 0.40 0.43 0.62 0.80 1.07 1.43 1.90 2.43 2.12 1.71 1.53 1.53 1.44 1.26 1.19 1.31 1.34 1.22 1.18 1.25 0.88 0.70 0.69 0.69 0.69 0.71 0.36 0.31 0.30 0.32 0.30 0.29 0.37 0.49 0.65 0.78
0.19 0.17 0.25 0.44 0.43 0.46 0.61 0.62 0.74 0.91 0.98 1.20 1.48 1.84 2.18 2.50 2.31 1.99 1.71 1.56 1.52 1.28 1.18 1.41 1.34 1.32 1.45 1.12 0.90 0.64 0.54 0.50 0.73 0.72 0.65 0.62 0.66 0.53 0.41 0.34 0.33 0.40 0.54
0.43 0.49 0.35 0.48 0.45 0.74 0.81 1.09 1.26 1.32 1.44 1.47 1.48 1.54 1.71 1.82 2.12 1.91 1.51 1.21 1.19 1.14 0.96 0.94 1.03 1.09 1.03 1.01 0.92 0.74 0.68 0.79 0.96 1.11 1.05 0.84 0.71 0.56 0.50 0.46 0.38 0.33 0.33
0.50 0.52 0.41 0.43 0.52 0.67 0.76 0.89 1.32 1.45 1.23 0.99 0.87 0.71 0.63 0.75 1.02 1.25 1.33 1.40 1.25 1.19 1.14 1.06 0.93 1.00 0.93 1.04 1.16 1.28 1.18 1.10 0.98 0.95 0.93 0.91 0.78 0.62 0.58 0.59 0.57 0.54 0.52
0.57 0.59 0.50 0.63 1.00 1.09 1.13 0.97 0.78 0.65 0.60 0.49 0.42 0.34 0.30 0.44 0.86 0.92 1.07 1.10 1.32 1.26 1.20 1.26 1.28 1.38 1.34 1.19 1.10 1.06 1.09 0.95 0.93 0.96 0.96 0.91 0.84 0.77 0.73 0.71 0.72 0.62 0.58
0.45 0.41 0.57 0.72 0.64 0.70 0.64 0.49 0.33 0.32 0.40 0.43 0.31 0.26 0.27 0.28 0.73 0.92 1.08 1.06 1.22 1.49 1.34 1.10 1.11 1.42 1.32 1.60 1.46 1.34 1.26 1.20 1.07 0.98 1.00 0.96 0.93 0.86 0.81 0.79 0.74 0.69 0.61
0.34 0.34 0.37 0.37 0.36 0.31 0.23 0.25 0.30 0.31 0.27 0.30 0.42 0.33 0.22 0.33 0.76 0.70 1.06 0.87 0.98 1.37 1.53 1.57 1.59 1.74 1.76 1.46 1.69 1.48 1.30 1.23 1.09 0.98 0.98 0.81 0.77 0.67 0.63 0.62 0.52 0.49 0.42
0.36 0.26 0.18 0.14 0.14 0.17 0.27 0.34 0.35 0.33 0.25 0.24 0.32 0.60 0.55 0.62 0.84 0.62 0.76 0.78 0.85 1.12 1.33 1.41 1.54 1.73 1.66 1.53 1.62 1.72 1.45 0.99 0.79 0.63 0.62 0.54 0.43 0.41 0.49 0.55 0.60 0.63 0.46
0.46 0.34 0.19 0.14 0.16 0.26 0.40 0.47 0.39 0.34 0.41 0.35 0.34 0.37 0.36 0.46 0.78 0.54 0.42 0.34 0.50 0.64 0.73 0.99 1.27 1.44 1.93 1.58 1.51 1.66 1.35 0.98 0.79 0.67 0.62 0.58 0.52 0.51 0.51 0.83 0.90 0.91 0.70
0.54 0.41 0.39 0.29 0.28 0.36 0.35 0.28 0.28 0.38 0.39 0.52 0.60 0.41 0.46 0.25 0.55 0.46 0.36 0.24 0.47 0.50 0.58 0.85 1.21 1.13 1.33 1.25 1.30 1.24 1.27 0.99 0.65 0.62 0.57 0.46 0.36 0.39 0.36 0.60 0.78 0.95 0.72
0.70 0.62 0.48 0.37 0.37 0.31 0.27 0.27 0.33 0.37 0.45 0.43 0.42 0.45 0.32 0.28 0.41 0.47 0.41 0.29 0.42 0.51 0.45 0.45 0.56 0.80 0.85 0.91 0.97 1.13 1.17 0.87 0.73 0.70 0.66 0.55 0.46 0.42 0.43 0.47 0.57 0.86 0.81
1.27 0.84 0.78 0.64 0.39 0.30 0.26 0.25 0.31 0.40 0.45 0.44 0.39 0.35 0.33 0.33 0.50 0.48 0.49 0.53 0.60 0.78 0.76 0.73 0.79 0.64 0.59 0.64 0.75 0.89 0.86 0.77 0.85 0.89 0.84 0.72 0.65 0.54 0.44 0.38 0.35 0.37 0.40
1.83 1.81 1.35 0.88 0.75 0.69 0.66 0.59 0.51 0.47 0.45 0.48 0.50 0.51 0.51 0.49 0.69 0.76 0.65 0.66 0.65 0.70 0.80 0.78 0.66 0.55 0.51 0.58 0.56 0.59 0.62 0.82 0.84 0.80 0.71 0.52 0.38 0.31 0.27 0.32 0.35 0.42 0.42
0.91 1.49 1.86 1.87 1.12 0.98 1.13 1.12 1.25 1.20 0.95 0.93 1.01 1.04 0.95 0.75 0.67 0.68 0.74 0.77 0.81 0.78 0.75 0.66 0.66 0.64 0.60 0.65 0.67 0.61 0.71 0.71 0.61 0.59 0.44 0.34 0.32 0.34 0.35 0.34 0.40 0.45 0.79
0.56 0.97 1.27 1.94 1.91 1.08 0.98 1.19 1.14 1.41 1.49 1.20 1.08 1.16 1.22 1.21 1.14 1.18 1.06 0.99 0.96 0.88 0.86 0.91 0.79 0.62 0.52 0.43 0.38 0.31 0.31 0.32 0.38 0.37 0.36 0.31 0.34 0.30 0.31 0.34 0.37 0.33 0.55
0.48 0.89 1.18 1.44 2.02 2.02 1.43 1.64 1.98 2.11 2.05 2.14 2.17 1.92 1.99 1.87 1.60 1.25 1.09 1.11 0.99 0.80 0.74 0.60 0.48 0.43 0.41 0.37 0.42 0.42 0.31 0.32 0.28 0.28 0.35 0.31 0.36 0.43 0.35 0.30 0.37 0.46 0.39
0.42 0.55 0.89 1.31 1.69 1.88 2.00 1.78 1.85 2.04 1.97 1.93 1.90 1.73 1.58 1.72 1.61 1.36 1.09 0.91 0.79 0.66 0.78 0.66 0.60 0.58 0.54 0.47 0.42 0.41 0.44 0.45 0.38 0.39 0.42 0.41 0.33 0.33 0.41 0.33 0.34 0.47 0.44
0.85 1.10 1.14 1.31 1.69 2.01 2.15 2.09 1.97 1.75 1.60 1.83 1.85 1.79 1.80 1.65 1.62 1.46 1.20 0.93 0.85 0.71 0.71 0.71 0.68 0.59 0.54 0.47 0.42 0.41 0.38 0.36 0.34 0.31 0.40 0.35 0.33 0.32 0.34 0.33 0.32 0.36 0.38
1.40 1.38 1.43 1.57 1.55 1.64 1.77 1.82 1.72 1.68 1.64 1.67 1.59 1.36 1.31 1.27 1.13 1.00 0.93 0.99 0.86 0.72 0.61 0.61 0.62 0.58 0.48 0.42 0.40 0.36 0.36 0.35 0.32 0.32 0.32 0.31 0.28 0.31 0.27 0.25 0.25 0.24 0.25
1.18 1.03 0.87 0.86 1.07 1.21 1.20 1.28 1.42 1.48 1.50 1.49 1.45 1.47 1.18 0.90 0.93 0.95 0.94 0.94 0.96 0.94 0.86 0.71 0.56 0.51 0.47 0.38 0.31 0.29 0.26 0.24 0.23 0.23 0.27 0.29 0.31 0.32 0.30 0.29 0.27 0.27 0.24
0.66 0.66 0.59 0.58 0.60 0.65 0.80 0.94 1.03 1.08 1.13 1.11 1.17 1.20 1.20 1.23 1.18 1.03 1.01 0.98 0.87 0.75 0.65 0.57 0.44 0.36 0.30 0.30 0.28 0.26 0.22 0.22 0.23 0.25 0.24 0.26 0.30 0.32 0.30 0.31 0.30 0.27 0.26
0.38 0.39 0.43 0.47 0.47 0.50 0.56 0.60 0.61 0.65 0.72 0.75 0.81 0.79 0.75 0.82 0.84 0.82 0.79 0.73 0.63 0.52 0.44 0.40 0.33 0.30 0.29 0.29 0.28 0.27 0.23 0.21 0.21 0.23 0.21 0.22 0.24 0.26 0.30 0.31 0.28 0.27 0.27
0.31 0.35 0.35 0.35 0.39 0.41 0.41 0.49 0.54 0.53 0.52 0.55 0.55 0.56 0.56 0.62 0.61 0.57 0.52 0.47 0.38 0.34 0.29 0.29 0.28 0.23 0.18 0.21 0.25 0.31 0.34 0.29 0.30 0.30 0.27 0.22 0.20 0.19 0.23 0.28 0.27 0.26 0.24
0.19 0.25 0.25 0.30 0.37 0.40 0.47 0.47 0.41 0.38 0.40 0.43 0.43 0.46 0.48 0.48 0.48 0.44 0.40 0.34 0.29 0.25 0.20 0.21 0.20 0.18 0.17 0.17 0.19 0.20 0.24 0.27 0.30 0.29 0.29 0.26 0.22 0.21 0.27 0.28 0.26 0.29 0.31
0.23 0.27 0.33 0.37 0.34 0.34 0.31 0.29 0.31 0.30 0.32 0.33 0.33 0.33 0.32 0.30 0.29 0.26 0.24 0.22 0.18 0.15 0.13 0.12 0.13 0.13 0.11 0.13 0.14 0.11 0.15 0.19 0.23 0.21 0.22 0.20 0.16 0.16 0.20 0.23 0.23 0.26 0.28
0.24 0.26 0.24 0.21 0.23 0.23 0.24 0.25 0.23 0.23 0.24 0.22 0.22 0.21 0.21 0.21 0.20 0.18 0.16 0.14 0.13 0.13 0.10 0.10 0.09 0.08 0.08 0.10 0.11 0.11 0.12 0.15 0.18 0.19 0.23 0.18 0.15 0.13 0.15 0.16 0.16 0.19 0.18

GFSGL_prec_precacc_135.txt.gz
Total_Precipitation_Accumulation
0.07 0.07 0.12 0.33 0.31 0.33 0.35 0.40 0.43 0.62 0.83 1.09 1.45 1.93 2.44 2.15 1.76 1.58 1.57 1.49 1.29 1.21 1.32 1.35 1.23 1.22 1.39 1.07 0.95 0.94 0.85 0.81 0.81 0.42 0.33 0.30 0.32 0.30 0.30 0.37 0.50 0.65 0.78
0.19 0.17 0.25 0.44 0.43 0.46 0.61 0.62 0.74 0.91 0.99 1.24 1.54 1.90 2.21 2.51 2.33 2.01 1.73 1.59 1.54 1.30 1.19 1.44 1.37 1.37 1.63 1.49 1.26 0.93 0.71 0.65 0.86 0.76 0.66 0.64 0.67 0.53 0.41 0.34 0.33 0.41 0.55
0.43 0.49 0.35 0.48 0.45 0.74 0.81 1.09 1.26 1.32 1.44 1.48 1.52 1.63 1.77 1.84 2.14 1.92 1.52 1.23 1.21 1.16 0.98 0.95 1.04 1.10 1.09 1.20 1.15 0.90 0.81 0.97 1.13 1.17 1.08 0.88 0.73 0.57 0.50 0.47 0.40 0.35 0.37
0.50 0.52 0.41 0.43 0.52 0.67 0.76 0.89 1.32 1.45 1.23 1.00 0.89 0.77 0.70 0.79 1.04 1.25 1.34 1.40 1.25 1.20 1.15 1.07 0.93 1.00 0.94 1.12 1.44 1.56 1.38 1.33 1.11 1.02 0.98 0.98 0.80 0.63 0.58 0.60 0.62 0.61 0.61
0.57 0.59 0.50 0.63 1.00 1.09 1.13 0.97 0.78 0.65 0.60 0.50 0.44 0.38 0.34 0.48 0.90 0.92 1.07 1.10 1.32 1.26 1.20 1.26 1.28 1.38 1.35 1.26 1.24 1.30 1.49 1.22 1.07 1.08 1.04 0.97 0.87 0.80 0.77 0.75 0.77 0.71 0.66
0.45 0.41 0.57 0.72 0.64 0.70 0.64 0.49 0.33 0.32 0.40 0.44 0.32 0.29 0.31 0.31 0.76 0.95 1.08 1.06 1.22 1.49 1.35 1.10 1.11 1.42 1.32 1.61 1.55 1.54 1.42 1.36 1.21 1.10 1.07 1.01 0.96 0.93 0.93 0.94 0.87 0.81 0.71
0.34 0.34 0.37 0.37 0.36 0.31 0.23 0.25 0.30 0.31 0.27 0.30 0.43 0.34 0.26 0.43 0.89 0.76 1.09 0.87 0.98 1.37 1.53 1.57 1.59 1.74 1.77 1.47 1.71 1.59 1.50 1.41 1.23 1.09 1.06 0.85 0.82 0.73 0.75 0.82 0.69 0.63 0.51
0.36 0.26 0.18 0.14 0.14 0.17 0.27 0.34 0.35 0.33 0.25 0.24 0.32 0.62 0.95 0.93 0.97 0.84 0.89 0.79 0.85 1.12 1.33 1.41 1.54 1.73 1.68 1.55 1.70 1.86 1.56 1.18 0.99 0.82 0.77 0.65 0.52 0.54 0.67 0.71 0.77 0.82 0.66
0.46 0.34 0.19 0.14 0.16 0.26 0.40 0.47 0.39 0.34 0.41 0.35 0.34 0.39 0.51 0.86 1.13 0.67 0.50 0.34 0.51 0.64 0.73 0.99 1.28 1.45 1.98 1.64 1.59 1.80 1.49 1.18 1.04 0.93 0.83 0.82 0.80 0.80 0.76 1.02 1.09 1.10 0.88
0.54 0.41 0.39 0.29 0.28 0.36 0.35 0.28 0.28 0.38 0.39 0.52 0.60 0.43 0.55 0.34 0.75 0.64 0.42 0.24 0.47 0.50 0.58 0.86 1.23 1.13 1.36 1.30 1.37 1.36 1.41 1.17 0.78 0.79 0.82 0.76 0.67 0.70 0.70 0.87 0.94 1.11 0.88
0.70 0.62 0.48 0.37 0.37 0.31 0.27 0.27 0.33 0.37 0.45 0.43 0.42 0.51 0.50 0.40 0.50 0.60 0.59 0.31 0.42 0.51 0.46 0.46 0.57 0.82 0.86 0.91 1.00 1.19 1.28 1.04 0.97 0.94 0.93 0.80 0.71 0.65 0.66 0.75 0.81 1.03 0.96
1.27 0.84 0.78 0.64 0.39 0.30 0.26 0.25 0.31 0.40 0.45 0.44 0.39 0.36 0.42 0.62 0.77 0.66 0.60 0.57 0.61 0.78 0.77 0.74 0.80 0.66 0.60 0.64 0.77 0.98 1.02 0.96 1.10 1.24 1.22 1.07 0.95 0.82 0.69 0.60 0.54 0.52 0.50
1.83 1.81 1.35 0.88 0.75 0.69 0.66 0.59 0.51 0.47 0.45 0.48 0.50 0.51 0.54 0.55 0.81 0.94 0.81 0.74 0.67 0.71 0.81 0.80 0.68 0.57 0.52 0.58 0.58 0.64 0.73 0.98 1.07 1.10 1.05 0.84 0.68 0.56 0.48 0.50 0.49 0.52 0.50
0.91 1.49 1.86 1.87 1.12 0.98 1.13 1.12 1.25 1.20 0.95 0.93 1.01 1.04 0.98 0.87 0.78 0.77 0.79 0.79 0.84 0.81 0.77 0.67 0.66 0.64 0.60 0.66 0.67 0.62 0.72 0.78 0.72 0.74 0.62 0.51 0.46 0.46 0.47 0.45 0.49 0.51 0.83
0.56 0.97 1.27 1.94 1.91 1.09 0.98 1.19 1.14 1.41 1.49 1.20 1.08 1.16 1.24 1.30 1.31 1.37 1.22 1.07 0.97 0.88 0.86 0.92 0.80 0.62 0.52 0.43 0.38 0.31 0.32 0.36 0.44 0.42 0.40 0.34 0.37 0.32 0.33 0.38 0.40 0.34 0.56
0.49 0.89 1.18 1.44 2.02 2.02 1.43 1.64 1.98 2.11 2.05 2.14 2.18 1.93 2.01 1.96 1.83 1.48 1.33 1.27 1.08 0.84 0.75 0.60 0.49 0.43 0.41 0.37 0.42 0.43 0.31 0.33 0.29 0.28 0.36 0.32 0.36 0.43 0.35 0.31 0.38 0.46 0.39
0.43 0.55 0.90 1.31 1.70 1.89 2.01 1.78 1.85 2.04 1.98 1.94 1.93 1.76 1.62 1.81 1.74 1.55 1.29 1.11 0.93 0.73 0.80 0.66 0.61 0.58 0.54 0.47 0.43 0.41 0.45 0.46 0.38 0.40 0.43 0.42 0.34 0.33 0.42 0.33 0.34 0.47 0.44
0.85 1.11 1.15 1.32 1.70 2.02 2.16 2.09 1.97 1.75 1.61 1.85 1.90 1.88 1.90 1.77 1.76 1.64 1.41 1.11 0.98 0.79 0.77 0.75 0.71 0.62 0.56 0.48 0.43 0.43 0.40 0.39 0.37 0.33 0.42 0.37 0.35 0.33 0.35 0.33 0.32 0.36 0.38
1.40 1.40 1.47 1.62 1.59 1.67 1.80 1.82 1.72 1.68 1.65 1.70 1.64 1.45 1.43 1.40 1.26 1.17 1.14 1.19 1.06 0.89 0.76 0.77 0.78 0.70 0.57 0.50 0.49 0.45 0.45 0.44 0.39 0.37 0.36 0.33 0.30 0.31 0.28 0.25 0.25 0.24 0.25
1.19 1.05 0.90 0.91 1.11 1.26 1.26 1.31 1.42 1.48 1.51 1.51 1.49 1.54 1.26 0.99 1.09 1.17 1.22 1.26 1.35 1.36 1.22 1.01 0.84 0.78 0.72 0.60 0.51 0.46 0.38 0.33 0.30 0.28 0.30 0.31 0.31 0.32 0.30 0.29 0.27 0.27 0.24
0.67 0.68 0.63 0.61 0.63 0.70 0.86 0.97 1.05 1.09 1.15 1.14 1.23 1.28 1.31 1.36 1.40 1.32 1.33 1.31 1.21 1.11 1.05 0.94 0.77 0.61 0.52 0.47 0.42 0.36 0.29 0.27 0.27 0.27 0.26 0.27 0.31 0.32 0.30 0.31 0.30 0.27 0.26
0.38 0.41 0.46 0.53 0.54 0.56 0.61 0.64 0.63 0.67 0.75 0.79 0.87 0.88 0.84 0.93 1.00 1.04 1.08 1.04 0.94 0.82 0.72 0.65 0.56 0.50 0.47 0.41 0.37 0.34 0.29 0.25 0.24 0.24 0.22 0.22 0.24 0.26 0.30 0.31 0.28 0.27 0.27
0.31 0.35 0.36 0.38 0.43 0.46 0.46 0.54 0.58 0.56 0.56 0.61 0.62 0.64 0.67 0.75 0.76 0.72 0.70 0.67 0.60 0.56 0.50 0.46 0.42 0.33 0.26 0.27 0.30 0.35 0.37 0.31 0.31 0.30 0.28 0.22 0.20 0.19 0.23 0.28 0.27 0.26 0.24
0.19 0.25 0.25 0.31 0.40 0.43 0.50 0.51 0.45 0.42 0.45 0.49 0.50 0.54 0.58 0.60 0.62 0.59 0.55 0.49 0.42 0.35 0.28 0.28 0.27 0.24 0.22 0.21 0.22 0.22 0.26 0.28 0.31 0.29 0.29 0.26 0.22 0.21 0.27 0.28 0.26 0.29 0.31
0.24 0.28 0.33 0.37 0.35 0.36 0.35 0.33 0.35 0.34 0.37 0.38 0.40 0.41 0.41 0.40 0.40 0.38 0.35 0.31 0.27 0.22 0.19 0.17 0.18 0.17 0.15 0.15 0.16 0.12 0.15 0.19 0.23 0.21 0.22 0.20 0.16 0.16 0.20 0.23 0.23 0.26 0.28
0.25 0.27 0.24 0.21 0.23 0.24 0.26 0.27 0.27 0.27 0.28 0.27 0.27 0.28 0.28 0.28 0.28 0.24 0.21 0.18 0.17 0.16 0.14 0.14 0.12 0.10 0.10 0.11 0.12 0.11 0.12 0.15 0.18 0.19 0.23 0.18 0.15 0.13 0.15 0.16 0.16 0.19 0.18

GFSGL_prec_precacc_138.txt.gz
Total_Precipitation_Accumulation
0.07 0.07 0.12 0.33 0.31 0.33 0.35 0.40 0.43 0.62 0.83 1.09 1.45 1.95 2.48 2.19 1.79 1.59 1.58 1.49 1.31 1.24 1.37 1.37 1.26 1.25 1.40 1.08 0.96 1.01 0.97 0.96 1.04 0.59 0.46 0.44 0.43 0.34 0.30 0.37 0.50 0.65 0.78
0.19 0.17 0.25 0.44 0.43 0.46 0.61 0.62 0.74 0.91 0.99 1.24 1.54 1.91 2.22 2.54 2.38 2.05 1.75 1.59 1.55 1.32 1.23 1.48 1.39 1.39 1.64 1.50 1.29 1.04 0.97 0.95 1.26 1.02 0.80 0.82 0.86 0.64 0.44 0.34 0.33 0.41 0.55
0.43 0.49 0.35 0.48 0.45 0.74 0.81 1.09 1.26 1.32 1.44 1.48 1.53 1.63 1.79 1.87 2.18 1.96 1.55 1.25 1.24 1.18 1.01 0.99 1.07 1.13 1.10 1.21 1.19 1.00 0.92 1.18 1.43 1.29 1.14 0.98 0.89 0.74 0.59 0.49 0.40 0.35 0.37
0.50 0.52 0.41 0.43 0.52 0.67 0.76 0.89 1.32 1.45 1.23 1.00 0.89 0.78 0.71 0.80 1.09 1.31 1.38 1.42 1.26 1.21 1.17 1.11 0.96 1.01 0.95 1.13 1.46 1.59 1.44 1.52 1.36 1.11 1.06 1.08 0.96 0.83 0.75 0.67 0.64 0.62 0.61
0.57 0.59 0.50 0.63 1.00 1.09 1.13 0.97 0.78 0.65 0.60 0.50 0.44 0.38 0.34 0.49 0.93 0.97 1.11 1.13 1.33 1.26 1.20 1.27 1.29 1.39 1.37 1.27 1.24 1.31 1.54 1.32 1.15 1.20 1.18 1.10 1.04 0.93 0.90 0.84 0.81 0.74 0.69
0.45 0.41 0.57 0.72 0.64 0.70 0.64 0.49 0.33 0.32 0.40 0.44 0.32 0.29 0.31 0.32 0.79 0.98 1.14 1.13 1.27 1.50 1.35 1.11 1.11 1.42 1.32 1.62 1.55 1.55 1.47 1.40 1.24 1.16 1.15 1.10 1.06 1.01 1.03 1.06 1.00 0.90 0.79
0.34 0.34 0.37 0.37 0.36 0.31 0.23 0.25 0.30 0.31 0.27 0.30 0.43 0.34 0.26 0.43 0.91 0.78 1.16 0.96 1.06 1.42 1.53 1.57 1.59 1.74 1.78 1.47 1.72 1.60 1.57 1.47 1.25 1.10 1.09 0.90 0.91 0.82 0.86 0.98 0.82 0.72 0.59
0.36 0.26 0.18 0.14 0.14 0.17 0.27 0.34 0.35 0.33 0.25 0.24 0.32 0.62 0.95 0.93 0.99 0.87 1.09 0.96 0.95 1.19 1.35 1.41 1.54 1.73 1.69 1.56 1.70 1.86 1.57 1.22 1.03 0.87 0.81 0.72 0.62 0.67 0.86 0.94 1.01 1.08 0.92
0.46 0.34 0.19 0.14 0.16 0.26 0.40 0.47 0.39 0.34 0.41 0.35 0.34 0.39 0.51 0.87 1.16 0.69 0.61 0.66 0.76 0.79 0.93 1.06 1.29 1.46 2.00 1.65 1.60 1.81 1.51 1.23 1.13 1.04 0.95 0.99 1.05 1.08 1.11 1.42 1.48 1.40 1.15
0.54 0.41 0.39 0.29 0.28 0.36 0.35 0.28 0.28 0.38 0.39 0.52 0.60 0.43 0.55 0.34 0.76 0.67 0.46 0.32 0.64 0.66 0.67 0.91 1.25 1.14 1.38 1.30 1.37 1.37 1.43 1.20 0.82 0.85 0.94 0.97 0.92 1.00 1.07 1.23 1.23 1.35 1.09
0.70 0.62 0.48 0.37 0.37 0.31 0.27 0.27 0.33 0.37 0.45 0.43 0.42 0.51 0.50 0.40 0.50 0.62 0.64 0.40 0.51 0.60 0.49 0.47 0.57 0.83 0.86 0.92 1.01 1.19 1.29 1.06 1.04 1.02 1.03 0.98 0.94 0.92 0.92 1.07 1.20 1.36 1.19
1.27 0.84 0.78 0.64 0.39 0.30 0.26 0.25 0.31 0.40 0.45 0.44 0.39 0.36 0.42 0.62 0.77 0.68 0.64 0.68 0.71 0.82 0.85 0.76 0.81 0.67 0.60 0.65 0.78 0.99 1.03 0.97 1.10 1.25 1.29 1.21 1.12 1.02 0.94 0.85 0.82 0.80 0.82
1.83 1.81 1.36 0.88 0.75 0.69 0.66 0.59 0.51 0.47 0.45 0.48 0.50 0.51 0.54 0.55 0.82 0.95 0.87 0.88 0.81 0.80 0.88 0.86 0.70 0.58 0.53 0.59 0.59 0.64 0.73 0.98 1.09 1.13 1.13 0.99 0.90 0.84 0.78 0.79 0.78 0.79 0.73
0.91 1.49 1.86 1.88 1.13 0.98 1.13 1.12 1.25 1.21 0.95 0.93 1.01 1.04 0.98 0.87 0.78 0.77 0.84 0.90 0.96 0.93 0.88 0.74 0.68 0.66 0.61 0.66 0.68 0.62 0.73 0.79 0.74 0.79 0.73 0.69 0.66 0.69 0.73 0.69 0.70 0.74 1.03
0.56 0.97 1.27 1.94 1.91 1.09 0.98 1.19 1.14 1.42 1.50 1.21 1.08 1.17 1.24 1.30 1.32 1.39 1.23 1.12 1.09 0.99 0.94 0.97 0.82 0.63 0.52 0.43 0.38 0.31 0.32 0.37 0.45 0.45 0.47 0.46 0.51 0.48 0.50 0.54 0.54 0.48 0.67
0.49 0.89 1.18 1.45 2.02 2.02 1.44 1.65 1.98 2.11 2.06 2.15 2.18 1.93 2.02 1.96 1.83 1.49 1.34 1.32 1.19 0.99 0.86 0.67 0.54 0.45 0.42 0.38 0.43 0.43 0.32 0.34 0.29 0.29 0.38 0.35 0.41 0.49 0.41 0.36 0.43 0.50 0.42
0.43 0.56 0.90 1.31 1.70 1.89 2.01 1.79 1.86 2.05 1.98 1.95 1.93 1.77 1.64 1.82 1.76 1.56 1.31 1.16 1.06 0.85 0.88 0.74 0.67 0.61 0.56 0.48 0.43 0.42 0.45 0.47 0.39 0.40 0.44 0.43 0.36 0.36 0.44 0.34 0.35 0.47 0.44
0.85 1.11 1.16 1.32 1.71 2.03 2.17 2.11 1.98 1.76 1.61 1.85 1.91 1.90 1.93 1.80 1.81 1.70 1.46 1.15 1.04 0.90 0.88 0.86 0.80 0.66 0.58 0.49 0.44 0.44 0.41 0.39 0.37 0.34 0.44 0.39 0.36 0.34 0.36 0.33 0.33 0.37 0.39
1.40 1.41 1.47 1.62 1.62 1.71 1.82 1.84 1.73 1.69 1.66 1.70 1.64 1.45 1.44 1.41 1.28 1.20 1.17 1.24 1.12 0.99 0.90 0.93 0.93 0.81 0.68 0.57 0.53 0.48 0.47 0.45 0.41 0.39 0.38 0.35 0.31 0.32 0.29 0.26 0.26 0.24 0.25
1.19 1.06 0.91 0.93 1.13 1.29 1.29 1.34 1.45 1.50 1.53 1.52 1.49 1.55 1.28 1.01 1.11 1.22 1.28 1.35 1.46 1.50 1.40 1.23 1.07 1.01 0.94 0.82 0.74 0.65 0.54 0.46 0.39 0.35 0.36 0.34 0.34 0.34 0.31 0.30 0.28 0.28 0.25
0.68 0.68 0.63 0.63 0.66 0.75 0.91 1.02 1.08 1.11 1.17 1.16 1.25 1.32 1.34 1.39 1.44 1.38 1.41 1.44 1.36 1.29 1.25 1.17 1.04 0.91 0.81 0.75 0.67 0.59 0.49 0.44 0.40 0.37 0.33 0.32 0.34 0.34 0.31 0.32 0.31 0.27 0.27
0.38 0.41 0.47 0.54 0.56 0.60 0.66 0.70 0.67 0.70 0.78 0.82 0.92 0.93 0.89 0.98 1.06 1.10 1.17 1.17 1.11 1.02 0.93 0.86 0.80 0.75 0.71 0.64 0.57 0.51 0.42 0.36 0.32 0.30 0.27 0.25 0.27 0.28 0.31 0.32 0.29 0.28 0.27
0.31 0.35 0.36 0.38 0.44 0.47 0.48 0.58 0.61 0.59 0.59 0.64 0.67 0.70 0.73 0.82 0.84 0.82 0.80 0.80 0.77 0.77 0.74 0.69 0.62 0.54 0.44 0.41 0.41 0.43 0.44 0.37 0.37 0.35 0.32 0.27 0.24 0.22 0.25 0.29 0.27 0.26 0.24
0.20 0.25 0.25 0.32 0.41 0.44 0.52 0.54 0.48 0.45 0.48 0.53 0.55 0.60 0.64 0.68 0.71 0.68 0.65 0.61 0.54 0.50 0.44 0.43 0.40 0.36 0.33 0.33 0.32 0.31 0.34 0.35 0.36 0.33 0.32 0.28 0.23 0.22 0.27 0.28 0.26 0.29 0.31
0.24 0.28 0.34 0.38 0.36 0.37 0.36 0.35 0.38 0.38 0.40 0.42 0.45 0.46 0.47 0.47 0.47 0.46 0.45 0.42 0.38 0.33 0.31 0.29 0.29 0.27 0.24 0.24 0.24 0.19 0.20 0.22 0.25 0.23 0.24 0.21 0.17 0.16 0.20 0.23 0.23 0.26 0.28
0.26 0.28 0.25 0.22 0.24 0.25 0.27 0.28 0.29 0.30 0.31 0.31 0.32 0.33 0.34 0.34 0.34 0.31 0.28 0.25 0.24 0.23 0.21 0.20 0.17 0.15 0.14 0.15 0.15 0.14 0.14 0.17 0.19 0.20 0.24 0.18 0.15 0.13 0.15 0.16 0.16 0.19 0.18

GFSGL_prec_precacc_141.txt.gz
Total_Precipitation_Accumulation
0.08 0.07 0.12 0.33 0.31 0.33 0.35 0.40 0.43 0.62 0.83 1.09 1.45 1.95 2.49 2.20 1.80 1.61 1.59 1.51 1.32 1.26 1.39 1.39 1.29 1.31 1.42 1.12 1.00 1.02 0.98 0.97 1.05 0.59 0.47 0.49 0.52 0.45 0.39 0.42 0.51 0.66 0.78
0.19 0.17 0.25 0.44 0.43 0.46 0.61 0.62 0.74 0.91 0.99 1.24 1.54 1.91 2.22 2.55 2.40 2.08 1.79 1.61 1.56 1.32 1.23 1.49 1.40 1.43 1.69 1.53 1.31 1.06 0.98 0.95 1.28 1.11 0.87 0.91 1.00 0.80 0.60 0.44 0.37 0.41 0.55
0.43 0.49 0.35 0.48 0.45 0.74 0.81 1.09 1.26 1.32 1.44 1.48 1.53 1.63 1.79 1.87 2.19 1.99 1.59 1.29 1.26 1.19 1.01 1.00 1.09 1.18 1.16 1.25 1.21 1.01 0.93 1.18 1.47 1.37 1.18 1.03 0.98 0.88 0.78 0.71 0.52 0.38 0.38
0.50 0.52 0.41 0.43 0.52 0.67 0.76 0.89 1.32 1.45 1.23 1.00 0.89 0.78 0.71 0.80 1.09 1.33 1.42 1.48 1.29 1.23 1.20 1.13 1.01 1.08 1.01 1.17 1.50 1.61 1.46 1.54 1.40 1.14 1.09 1.11 1.01 0.93 0.93 0.88 0.84 0.75 0.63
0.57 0.59 0.50 0.63 1.00 1.09 1.13 0.97 0.78 0.65 0.60 0.50 0.44 0.38 0.34 0.49 0.93 0.98 1.12 1.18 1.43 1.39 1.26 1.29 1.31 1.42 1.43 1.30 1.26 1.32 1.56 1.34 1.20 1.23 1.20 1.13 1.09 1.00 1.00 1.02 1.01 0.88 0.79
0.45 0.41 0.57 0.72 0.64 0.70 0.64 0.49 0.33 0.32 0.40 0.44 0.32 0.29 0.31 0.32 0.79 1.00 1.16 1.14 1.31 1.59 1.44 1.14 1.12 1.44 1.33 1.62 1.56 1.56 1.48 1.41 1.25 1.17 1.16 1.11 1.08 1.05 1.13 1.23 1.19 1.11 1.01
0.34 0.34 0.37 0.37 0.36 0.31 0.23 0.25 0.30 0.31 0.27 0.30 0.43 0.34 0.26 0.43 0.91 0.78 1.18 0.98 1.08 1.49 1.65 1.63 1.60 1.75 1.78 1.47 1.72 1.61 1.58 1.50 1.25 1.11 1.09 0.90 0.93 0.87 0.97 1.21 1.04 0.89 0.73
0.36 0.26 0.18 0.14 0.14 0.17 0.27 0.34 0.35 0.33 0.25 0.24 0.32 0.62 0.95 0.93 0.99 0.87 1.09 0.96 0.98 1.23 1.44 1.64 1.84 1.94 1.72 1.56 1.71 1.87 1.58 1.23 1.05 0.88 0.81 0.72 0.62 0.74 1.02 1.14 1.29 1.42 1.22
0.46 0.34 0.19 0.14 0.16 0.26 0.40 0.47 0.39 0.34 0.41 0.35 0.34 0.39 0.51 0.87 1.16 0.69 0.61 0.67 0.78 0.81 0.97 1.20 1.46 1.75 2.19 1.67 1.61 1.82 1.52 1.24 1.18 1.08 0.97 1.00 1.06 1.11 1.24 1.68 1.80 1.74 1.47
0.54 0.41 0.39 0.29 0.28 0.36 0.35 0.28 0.28 0.38 0.39 0.52 0.60 0.43 0.55 0.34 0.76 0.67 0.46 0.32 0.64 0.67 0.68 0.95 1.34 1.20 1.47 1.34 1.37 1.37 1.44 1.21 0.82 0.86 0.96 1.01 0.94 1.05 1.18 1.34 1.46 1.65 1.38
0.70 0.62 0.48 0.37 0.37 0.31 0.27 0.27 0.33 0.37 0.45 0.43 0.42 0.51 0.50 0.40 0.50 0.62 0.64 0.40 0.51 0.61 0.51 0.48 0.60 0.88 0.90 0.94 1.02 1.20 1.30 1.07 1.06 1.04 1.07 1.04 1.01 0.96 0.99 1.21 1.38 1.63 1.42
1.27 0.84 0.78 0.64 0.39 0.30 0.26 0.25 0.31 0.40 0.45 0.44 0.39 0.36 0.42 0.62 0.77 0.68 0.64 0.68 0.72 0.84 0.90 0.88 0.91 0.74 0.64 0.68 0.80 1.02 1.04 0.98 1.11 1.25 1.29 1.23 1.16 1.06 0.97 0.93 0.95 1.00 1.00
1.83 1.81 1.36 0.88 0.75 0.69 0.66 0.59 0.51 0.47 0.46 0.49 0.50 0.51 0.54 0.55 0.82 0.95 0.87 0.88 0.81 0.81 0.90 0.97 0.95 0.85 0.72 0.70 0.64 0.66 0.74 0.99 1.09 1.13 1.13 0.99 0.91 0.88 0.84 0.92 0.96 0.95 0.91
0.91 1.49 1.86 1.88 1.13 0.98 1.13 1.12 1.26 1.21 0.96 0.94 1.01 1.04 0.98 0.87 0.78 0.77 0.84 0.90 0.96 0.95 0.91 0.79 0.77 0.74 0.77 0.87 0.77 0.62 0.73 0.79 0.75 0.79 0.73 0.70 0.68 0.72 0.80 0.81 0.86 0.91 1.23
0.56 0.97 1.27 1.94 1.91 1.09 0.98 1.19 1.14 1.42 1.51 1.23 1.09 1.18 1.25 1.30 1.32 1.39 1.24 1.12 1.09 1.01 0.98 1.01 0.90 0.72 0.60 0.48 0.40 0.31 0.32 0.37 0.45 0.45 0.48 0.47 0.53 0.51 0.57 0.65 0.65 0.60 0.83
0.49 0.89 1.18 1.45 2.02 2.02 1.44 1.65 1.98 2.11 2.06 2.15 2.18 1.94 2.03 1.97 1.84 1.49 1.35 1.32 1.20 1.01 0.88 0.69 0.59 0.55 0.52 0.46 0.47 0.44 0.32 0.34 0.29 0.29 0.38 0.35 0.43 0.51 0.47 0.49 0.60 0.67 0.61
0.44 0.56 0.90 1.32 1.70 1.89 2.01 1.79 1.86 2.05 1.98 1.95 1.93 1.77 1.64 1.83 1.77 1.58 1.33 1.18 1.07 0.86 0.89 0.76 0.70 0.67 0.65 0.57 0.49 0.44 0.46 0.47 0.39 0.40 0.45 0.44 0.37 0.40 0.50 0.41 0.44 0.56 0.53
0.85 1.11 1.16 1.33 1.72 2.03 2.17 2.11 1.98 1.76 1.61 1.85 1.91 1.90 1.93 1.81 1.83 1.71 1.48 1.17 1.05 0.92 0.90 0.87 0.84 0.75 0.68 0.60 0.52 0.47 0.42 0.40 0.38 0.35 0.45 0.42 0.40 0.39 0.41 0.39 0.38 0.40 0.41
1.40 1.41 1.47 1.62 1.62 1.71 1.82 1.84 1.73 1.69 1.66 1.70 1.64 1.45 1.44 1.41 1.28 1.20 1.17 1.25 1.14 1.02 0.94 0.98 1.01 0.93 0.82 0.71 0.64 0.54 0.49 0.48 0.42 0.40 0.41 0.38 0.34 0.35 0.32 0.29 0.27 0.25 0.25
1.19 1.06 0.91 0.93 1.13 1.29 1.29 1.34 1.45 1.51 1.53 1.52 1.50 1.56 1.28 1.01 1.11 1.23 1.30 1.37 1.48 1.54 1.45 1.33 1.21 1.20 1.15 1.03 0.94 0.81 0.66 0.56 0.46 0.40 0.41 0.38 0.36 0.36 0.33 0.32 0.30 0.29 0.26
0.68 0.68 0.63 0.63 0.66 0.75 0.91 1.02 1.09 1.12 1.17 1.17 1.26 1.34 1.36 1.40 1.46 1.41 1.45 1.48 1.40 1.34 1.32 1.26 1.17 1.08 1.03 0.98 0.91 0.83 0.72 0.65 0.55 0.48 0.42 0.39 0.39 0.39 0.35 0.34 0.32 0.28 0.28
0.38 0.41 0.47 0.54 0.56 0.60 0.66 0.71 0.68 0.71 0.79 0.84 0.94 0.95 0.91 1.02 1.10 1.16 1.22 1.23 1.18 1.09 1.01 0.95 0.91 0.90 0.90 0.86 0.78 0.69 0.59 0.53 0.50 0.44 0.37 0.33 0.33 0.32 0.35 0.35 0.31 0.31 0.29
0.31 0.35 0.36 0.38 0.44 0.47 0.49 0.58 0.62 0.60 0.61 0.67 0.70 0.73 0.77 0.88 0.90 0.89 0.87 0.88 0.84 0.85 0.83 0.79 0.74 0.68 0.59 0.58 0.58 0.58 0.57 0.49 0.47 0.43 0.40 0.33 0.30 0.28 0.30 0.32 0.30 0.28 0.25
0.20 0.25 0.26 0.32 0.41 0.45 0.52 0.54 0.49 0.47 0.50 0.56 0.59 0.64 0.70 0.75 0.79 0.77 0.75 0.71 0.64 0.60 0.55 0.54 0.51 0.47 0.44 0.42 0.41 0.40 0.42 0.43 0.44 0.41 0.39 0.34 0.29 0.27 0.31 0.30 0.28 0.30 0.32
0.25 0.29 0.34 0.39 0.36 0.38 0.37 0.35 0.39 0.40 0.43 0.45 0.49 0.51 0.53 0.54 0.54 0.54 0.53 0.51 0.48 0.42 0.41 0.40 0.41 0.39 0.36 0.36 0.35 0.30 0.29 0.31 0.32 0.29 0.29 0.25 0.21 0.19 0.22 0.25 0.24 0.27 0.29
0.26 0.28 0.26 0.23 0.25 0.26 0.27 0.29 0.30 0.31 0.34 0.34 0.35 0.37 0.39 0.40 0.40 0.37 0.35 0.32 0.31 0.31 0.29 0.29 0.27 0.25 0.24 0.25 0.24 0.22 0.21 0.23 0.24 0.24 0.26 0.20 0.16 0.15 0.16 0.17 0.16 0.19 0.19

GFSGL_prec_precacc_147.txt.gz
Total_Precipitation_Accumulation
0.26 0.24 0.27 0.46 0.42 0.40 0.41 0.45 0.45 0.64 0.85 1.10 1.46 1.95 2.49 2.21 1.85 1.69 1.69 1.60 1.46 1.38 1.56 1.52 1.37 1.37 1.48 1.19 1.08 1.15 1.06 1.05 1.14 0.72 0.53 0.51 0.54 0.47 0.40 0.45 0.54 0.68 0.79
0.73 0.54 0.49 0.63 0.55 0.54 0.64 0.64 0.75 0.92 1.00 1.24 1.54 1.91 2.22 2.55 2.40 2.11 1.86 1.68 1.62 1.40 1.33 1.65 1.51 1.55 1.79 1.63 1.40 1.14 1.04 1.01 1.36 1.17 0.95 0.95 1.10 0.92 0.67 0.49 0.41 0.45 0.58
0.57 0.94 0.82 0.92 0.67 0.79 0.82 1.09 1.26 1.32 1.44 1.48 1.53 1.63 1.79 1.87 2.19 1.99 1.60 1.32 1.32 1.27 1.09 1.09 1.14 1.31 1.30 1.36 1.31 1.10 1.04 1.27 1.56 1.44 1.27 1.08 1.02 0.95 0.87 0.80 0.65 0.49 0.45
0.61 0.62 0.56 0.67 0.88 0.93 0.82 0.90 1.32 1.45 1.23 1.00 0.89 0.78 0.71 0.80 1.09 1.33 1.43 1.50 1.32 1.30 1.27 1.21 1.09 1.20 1.10 1.24 1.56 1.67 1.56 1.66 1.52 1.25 1.18 1.15 1.05 0.96 0.95 0.91 0.92 0.89 0.80
0.65 0.64 0.52 0.65 1.04 1.15 1.27 1.05 0.81 0.66 0.60 0.50 0.44 0.38 0.34 0.49 0.93 0.98 1.13 1.19 1.45 1.45 1.34 1.37 1.40 1.59 1.58 1.46 1.37 1.41 1.65 1.44 1.29 1.34 1.29 1.18 1.12 1.05 1.03 1.04 1.06 1.01 0.98
0.47 0.41 0.57 0.72 0.64 0.70 0.64 0.49 0.34 0.33 0.40 0.44 0.32 0.29 0.31 0.32 0.79 1.00 1.17 1.14 1.32 1.60 1.48 1.25 1.24 1.59 1.46 1.80 1.76 1.75 1.62 1.52 1.38 1.26 1.21 1.14 1.11 1.09 1.16 1.26 1.25 1.23 1.21
0.34 0.34 0.37 0.37 0.36 0.31 0.23 0.25 0.30 0.31 0.27 0.30 0.43 0.34 0.26 0.43 0.91 0.79 1.18 0.98 1.08 1.49 1.65 1.67 1.79 2.00 1.96 1.57 1.87 1.89 1.99 1.83 1.37 1.16 1.12 0.96 0.99 0.91 0.98 1.22 1.08 0.98 0.86
0.37 0.26 0.18 0.14 0.14 0.17 0.27 0.34 0.35 0.33 0.25 0.24 0.32 0.62 0.95 0.93 0.99 0.87 1.09 0.96 0.98 1.23 1.44 1.66 1.89 2.09 1.98 1.72 1.81 1.99 1.71 1.41 1.22 0.97 0.85 0.74 0.63 0.75 1.02 1.14 1.32 1.53 1.39
0.46 0.34 0.20 0.14 0.16 0.26 0.40 0.47 0.39 0.34 0.41 0.35 0.34 0.39 0.51 0.87 1.16 0.69 0.61 0.67 0.78 0.81 0.97 1.21 1.49 1.82 2.48 2.08 1.91 2.08 1.82 1.51 1.46 1.42 1.16 1.05 1.07 1.12 1.24 1.68 1.81 1.76 1.54
0.54 0.41 0.39 0.29 0.28 0.36 0.35 0.28 0.28 0.38 0.39 0.52 0.60 0.43 0.55 0.34 0.76 0.67 0.46 0.32 0.64 0.67 0.68 0.96 1.37 1.24 1.56 1.49 1.51 1.47 1.56 1.39 1.15 1.17 1.19 1.20 0.99 1.07 1.20 1.34 1.46 1.66 1.42
0.70 0.62 0.48 0.37 0.37 0.31 0.27 0.27 0.33 0.37 0.45 0.43 0.42 0.51 0.50 0.40 0.50 0.62 0.64 0.40 0.51 0.61 0.51 0.48 0.61 0.92 0.95 1.06 1.18 1.27 1.35 1.11 1.11 1.16 1.24 1.10 1.04 1.00 1.00 1.22 1.38 1.64 1.44
1.27 0.84 0.78 0.64 0.39 0.30 0.26 0.25 0.31 0.40 0.45 0.44 0.39 0.36 0.42 0.62 0.77 0.68 0.64 0.68 0.72 0.84 0.90 0.88 0.91 0.78 0.67 0.75 0.91 1.16 1.18 1.06 1.13 1.29 1.36 1.29 1.23 1.13 1.00 0.96 0.98 1.05 1.05
1.83 1.81 1.36 0.88 0.75 0.69 0.66 0.60 0.51 0.47 0.46 0.49 0.51 0.52 0.54 0.56 0.82 0.95 0.87 0.88 0.81 0.81 0.90 0.97 0.96 0.87 0.74 0.72 0.73 0.81 0.94 1.14 1.22 1.25 1.19 1.05 0.99 0.96 0.89 0.96 1.00 1.00 0.97
0.92 1.50 1.87 1.88 1.13 0.98 1.13 1.13 1.26 1.22 0.97 0.94 1.02 1.05 0.99 0.88 0.79 0.78 0.84 0.91 0.97 0.95 0.92 0.79 0.77 0.76 0.79 0.92 0.94 0.83 0.88 0.94 0.99 1.09 1.00 0.91 0.82 0.85 0.88 0.85 0.90 0.97 1.34
0.56 0.98 1.28 1.95 1.92 1.09 0.99 1.20 1.15 1.43 1.53 1.25 1.11 1.20 1.28 1.34 1.34 1.39 1.24 1.13 1.10 1.02 0.98 1.02 0.91 0.72 0.62 0.56 0.52 0.43 0.44 0.50 0.58 0.58 0.67 0.73 0.84 0.80 0.78 0.77 0.73 0.66 0.93
0.50 0.90 1.19 1.45 2.03 2.03 1.44 1.65 1.99 2.11 2.06 2.15 2.19 1.96 2.04 1.99 1.85 1.50 1.35 1.33 1.20 1.01 0.89 0.70 0.60 0.56 0.55 0.50 0.56 0.60 0.46 0.45 0.36 0.38 0.49 0.46 0.56 0.68 0.66 0.67 0.75 0.79 0.71
0.44 0.56 0.91 1.32 1.71 1.90 2.02 1.80 1.87 2.05 1.98 1.95 1.93 1.77 1.65 1.84 1.78 1.59 1.33 1.19 1.08 0.87 0.90 0.77 0.71 0.68 0.67 0.62 0.57 0.55 0.57 0.62 0.56 0.56 0.57 0.56 0.48 0.50 0.63 0.53 0.58 0.68 0.64
0.86 1.12 1.17 1.34 1.73 2.05 2.19 2.13 2.00 1.77 1.62 1.86 1.91 1.90 1.93 1.81 1.83 1.72 1.49 1.17 1.06 0.93 0.91 0.89 0.85 0.76 0.70 0.65 0.59 0.58 0.57 0.54 0.50 0.48 0.63 0.62 0.58 0.54 0.53 0.49 0.46 0.48 0.47
1.41 1.41 1.48 1.63 1.63 1.72 1.83 1.85 1.74 1.70 1.67 1.71 1.64 1.46 1.44 1.41 1.28 1.21 1.18 1.26 1.16 1.03 0.95 1.01 1.04 0.95 0.85 0.75 0.72 0.67 0.65 0.64 0.59 0.56 0.56 0.52 0.49 0.52 0.48 0.41 0.38 0.35 0.31
1.21 1.07 0.92 0.94 1.14 1.30 1.30 1.35 1.46 1.52 1.54 1.53 1.51 1.57 1.29 1.02 1.12 1.24 1.31 1.39 1.51 1.57 1.49 1.37 1.25 1.24 1.19 1.11 1.04 0.95 0.85 0.79 0.71 0.64 0.63 0.59 0.58 0.54 0.49 0.47 0.42 0.41 0.34
0.69 0.69 0.64 0.64 0.67 0.76 0.92 1.04 1.10 1.13 1.18 1.18 1.28 1.35 1.37 1.42 1.48 1.43 1.47 1.51 1.44 1.39 1.38 1.33 1.23 1.14 1.09 1.07 1.03 0.99 0.94 0.93 0.85 0.79 0.74 0.70 0.68 0.65 0.57 0.51 0.46 0.37 0.32
0.40 0.42 0.48 0.55 0.57 0.61 0.67 0.72 0.69 0.72 0.80 0.85 0.94 0.95 0.92 1.03 1.12 1.18 1.25 1.27 1.23 1.15 1.09 1.04 1.00 1.00 1.01 0.96 0.90 0.86 0.80 0.77 0.78 0.76 0.69 0.64 0.62 0.58 0.58 0.54 0.47 0.43 0.38
0.32 0.37 0.38 0.39 0.45 0.49 0.50 0.59 0.63 0.61 0.62 0.68 0.72 0.75 0.78 0.90 0.93 0.93 0.93 0.95 0.92 0.94 0.93 0.91 0.86 0.80 0.72 0.73 0.76 0.78 0.78 0.75 0.75 0.71 0.70 0.64 0.59 0.55 0.54 0.54 0.48 0.44 0.37
0.22 0.27 0.27 0.33 0.42 0.46 0.54 0.57 0.51 0.48 0.51 0.58 0.61 0.66 0.72 0.78 0.82 0.83 0.82 0.81 0.75 0.73 0.69 0.69 0.68 0.65 0.61 0.60 0.60 0.61 0.64 0.67 0.68 0.65 0.62 0.57 0.54 0.51 0.53 0.49 0.44 0.44 0.44
0.26 0.31 0.36 0.41 0.39 0.40 0.39 0.38 0.41 0.41 0.45 0.47 0.50 0.53 0.56 0.57 0.58 0.59 0.61 0.61 0.59 0.55 0.55 0.56 0.60 0.60 0.56 0.55 0.54 0.49 0.50 0.51 0.53 0.50 0.49 0.46 0.42 0.40 0.42 0.42 0.38 0.38 0.38
0.28 0.30 0.28 0.25 0.28 0.29 0.30 0.32 0.33 0.34 0.36 0.36 0.38 0.40 0.42 0.43 0.45 0.43 0.43 0.41 0.41 0.42 0.40 0.42 0.42 0.39 0.37 0.39 0.41 0.37 0.36 0.38 0.41 0.39 0.41 0.34 0.31 0.31 0.31 0.31 0.28 0.28 0.25

GFSGL_prec_precacc_153.txt.gz
Total_Precipitation_Accumulation
0.28 0.27 0.29 0.49 0.49 0.53 0.55 0.58 0.60 0.78 1.02 1.26 1.59 2.07 2.62 2.36 2.02 1.84 1.84 1.78 1.64 1.50 1.63 1.63 1.49 1.56 1.66 1.37 1.25 1.27 1.18 1.23 1.23 0.84 0.80 0.86 0.81 0.60 0.45 0.48 0.56 0.68 0.79
0.74 0.61 0.57 0.71 0.69 0.70 0.86 0.88 0.96 1.12 1.20 1.43 1.72 2.08 2.44 2.76 2.60 2.29 1.97 1.79 1.74 1.50 1.42 1.74 1.61 1.72 1.97 1.82 1.69 1.39 1.26 1.18 1.50 1.23 1.17 1.29 1.52 1.38 0.96 0.65 0.47 0.47 0.60
0.58 0.98 0.92 1.02 0.82 1.09 1.17 1.40 1.60 1.61 1.68 1.74 1.78 1.85 1.98 2.07 2.29 2.13 1.72 1.37 1.36 1.31 1.15 1.17 1.22 1.43 1.44 1.53 1.54 1.29 1.24 1.44 1.74 1.58 1.40 1.24 1.18 1.20 1.11 1.03 0.81 0.53 0.47
0.64 0.67 0.63 0.76 1.02 1.24 1.24 1.29 1.63 1.76 1.56 1.27 1.20 1.11 0.93 0.94 1.16 1.38 1.50 1.53 1.33 1.30 1.29 1.24 1.12 1.26 1.19 1.37 1.74 1.88 1.77 1.95 1.87 1.56 1.45 1.38 1.17 1.05 1.07 1.16 1.25 1.12 0.91
0.68 0.69 0.59 0.72 1.11 1.30 1.58 1.56 1.26 0.95 0.81 0.74 0.66 0.59 0.53 0.66 1.00 1.01 1.14 1.20 1.45 1.45 1.34 1.37 1.40 1.60 1.64 1.55 1.49 1.52 1.78 1.65 1.76 2.12 2.18 1.81 1.56 1.44 1.32 1.22 1.18 1.18 1.21
0.50 0.46 0.60 0.75 0.67 0.73 0.68 0.59 0.61 0.73 0.74 0.59 0.42 0.38 0.38 0.39 0.83 1.02 1.17 1.15 1.32 1.60 1.48 1.25 1.24 1.59 1.46 1.82 1.82 1.86 1.77 1.69 1.55 1.46 1.43 1.39 1.35 1.29 1.43 1.63 1.55 1.39 1.33
0.35 0.35 0.38 0.39 0.38 0.33 0.26 0.27 0.31 0.33 0.37 0.48 0.59 0.43 0.28 0.45 0.93 0.79 1.19 0.98 1.08 1.49 1.65 1.67 1.79 2.00 1.96 1.57 1.90 1.93 2.07 2.02 1.59 1.36 1.34 1.08 1.05 0.99 1.13 1.42 1.27 1.17 1.06
0.37 0.26 0.18 0.15 0.14 0.17 0.27 0.34 0.35 0.33 0.25 0.24 0.34 0.69 1.01 0.96 1.00 0.87 1.09 0.96 0.98 1.23 1.44 1.66 1.89 2.09 1.99 1.72 1.81 1.99 1.72 1.44 1.30 1.10 1.05 0.95 0.78 0.85 1.20 1.38 1.51 1.72 1.53
0.46 0.34 0.20 0.14 0.16 0.26 0.40 0.47 0.39 0.34 0.41 0.35 0.34 0.39 0.52 0.89 1.18 0.70 0.61 0.67 0.78 0.81 0.97 1.21 1.49 1.82 2.49 2.09 1.91 2.09 1.83 1.51 1.48 1.52 1.37 1.25 1.34 1.45 1.45 1.78 1.96 1.94 1.68
0.54 0.41 0.39 0.29 0.28 0.36 0.35 0.28 0.28 0.38 0.39 0.52 0.60 0.43 0.55 0.34 0.77 0.68 0.46 0.32 0.64 0.67 0.68 0.96 1.38 1.25 1.56 1.49 1.51 1.47 1.56 1.39 1.15 1.19 1.25 1.51 1.58 1.61 1.58 1.59 1.66 1.78 1.56
0.70 0.62 0.48 0.38 0.37 0.31 0.27 0.27 0.33 0.37 0.45 0.43 0.42 0.51 0.50 0.40 0.51 0.62 0.64 0.40 0.51 0.61 0.51 0.48 0.61 0.93 0.95 1.06 1.18 1.27 1.35 1.11 1.12 1.17 1.25 1.15 1.12 1.26 1.34 1.44 1.56 1.83 1.60
1.27 0.84 0.78 0.64 0.39 0.31 0.26 0.25 0.31 0.40 0.45 0.44 0.39 0.36 0.42 0.62 0.78 0.68 0.64 0.68 0.72 0.84 0.90 0.88 0.91 0.78 0.67 0.76 0.92 1.17 1.18 1.07 1.13 1.29 1.37 1.31 1.27 1.20 1.13 1.06 1.09 1.19 1.16
1.83 1.81 1.36 0.89 0.75 0.69 0.66 0.60 0.52 0.47 0.46 0.49 0.51 0.52 0.54 0.56 0.82 0.95 0.87 0.88 0.82 0.81 0.90 0.97 0.96 0.87 0.74 0.73 0.73 0.82 0.94 1.14 1.22 1.25 1.20 1.06 1.00 1.00 1.03 1.19 1.30 1.32 1.32
0.92 1.50 1.87 1.89 1.13 0.98 1.14 1.13 1.27 1.24 0.98 0.95 1.03 1.06 0.99 0.88 0.79 0.78 0.85 0.91 0.97 0.95 0.92 0.79 0.77 0.76 0.79 0.92 0.94 0.84 0.88 0.94 0.99 1.09 1.02 0.93 0.86 0.93 1.05 1.08 1.17 1.23 1.64
0.57 0.98 1.28 1.96 1.92 1.10 0.99 1.21 1.16 1.45 1.54 1.27 1.14 1.22 1.29 1.35 1.34 1.40 1.25 1.14 1.10 1.02 0.98 1.02 0.91 0.72 0.62 0.56 0.52 0.43 0.44 0.50 0.59 0.58 0.67 0.75 0.88 0.87 0.87 0.92 1.00 1.01 1.25
0.50 0.91 1.21 1.47 2.04 2.03 1.45 1.66 1.99 2.12 2.06 2.16 2.20 1.97 2.05 2.00 1.85 1.51 1.36 1.33 1.20 1.01 0.89 0.70 0.60 0.57 0.55 0.50 0.56 0.60 0.46 0.45 0.36 0.38 0.49 0.47 0.59 0.73 0.75 0.83 0.92 0.98 0.93
0.45 0.59 0.93 1.33 1.72 1.93 2.03 1.81 1.88 2.06 1.99 1.95 1.94 1.77 1.65 1.85 1.78 1.59 1.34 1.19 1.08 0.87 0.91 0.78 0.72 0.69 0.68 0.63 0.58 0.55 0.58 0.62 0.56 0.56 0.58 0.56 0.49 0.52 0.72 0.61 0.70 0.86 0.89
0.87 1.15 1.19 1.35 1.75 2.07 2.20 2.14 2.01 1.79 1.64 1.87 1.92 1.90 1.93 1.82 1.83 1.72 1.49 1.17 1.06 0.93 0.92 0.90 0.87 0.77 0.71 0.66 0.60 0.59 0.57 0.54 0.50 0.48 0.63 0.64 0.62 0.59 0.60 0.55 0.54 0.60 0.65
1.42 1.44 1.50 1.64 1.66 1.74 1.85 1.86 1.75 1.71 1.68 1.72 1.65 1.46 1.44 1.42 1.28 1.21 1.18 1.27 1.16 1.05 0.96 1.02 1.06 0.97 0.86 0.76 0.73 0.68 0.65 0.65 0.60 0.57 0.57 0.54 0.53 0.58 0.59 0.57 0.57 0.59 0.55
1.22 1.08 0.92 0.94 1.16 1.31 1.31 1.36 1.48 1.52 1.55 1.54 1.52 1.58 1.30 1.02 1.13 1.24 1.32 1.39 1.52 1.58 1.50 1.38 1.26 1.25 1.21 1.12 1.05 0.96 0.87 0.80 0.72 0.65 0.65 0.62 0.63 0.62 0.58 0.59 0.62 0.70 0.70
0.71 0.71 0.65 0.65 0.68 0.77 0.93 1.05 1.12 1.14 1.19 1.20 1.29 1.36 1.37 1.43 1.49 1.44 1.48 1.52 1.46 1.41 1.40 1.35 1.25 1.16 1.11 1.09 1.05 1.02 0.95 0.94 0.88 0.81 0.77 0.74 0.72 0.73 0.68 0.65 0.61 0.54 0.50
0.42 0.43 0.49 0.57 0.59 0.62 0.69 0.74 0.72 0.73 0.81 0.86 0.95 0.96 0.92 1.04 1.13 1.19 1.26 1.28 1.25 1.17 1.11 1.06 1.02 1.02 1.05 1.00 0.95 0.90 0.83 0.80 0.82 0.80 0.74 0.69 0.68 0.65 0.66 0.65 0.62 0.62 0.60
0.34 0.38 0.39 0.40 0.47 0.50 0.52 0.62 0.66 0.63 0.63 0.69 0.72 0.76 0.79 0.91 0.94 0.94 0.94 0.96 0.94 0.95 0.94 0.92 0.88 0.82 0.74 0.76 0.80 0.84 0.84 0.82 0.83 0.78 0.77 0.72 0.67 0.64 0.64 0.67 0.64 0.62 0.56
0.23 0.28 0.28 0.35 0.44 0.47 0.56 0.59 0.54 0.50 0.53 0.59 0.62 0.67 0.73 0.79 0.84 0.84 0.83 0.82 0.76 0.74 0.70 0.71 0.71 0.69 0.66 0.65 0.67 0.68 0.73 0.76 0.77 0.75 0.71 0.67 0.65 0.63 0.65 0.63 0.61 0.61 0.61
0.28 0.32 0.37 0.43 0.41 0.42 0.41 0.40 0.44 0.43 0.47 0.48 0.52 0.54 0.57 0.58 0.58 0.60 0.62 0.62 0.60 0.56 0.57 0.58 0.64 0.64 0.63 0.63 0.64 0.61 0.62 0.63 0.65 0.61 0.60 0.55 0.52 0.51 0.54 0.56 0.56 0.57 0.57
0.29 0.31 0.29 0.27 0.30 0.31 0.33 0.35 0.36 0.36 0.40 0.39 0.39 0.42 0.44 0.45 0.46 0.44 0.44 0.42 0.42 0.44 0.42 0.44 0.46 0.44 0.42 0.47 0.51 0.48 0.48 0.51 0.54 0.54 0.54 0.47 0.43 0.44 0.43 0.43 0.40 0.43 0.41

GFSGL_prec_precacc_156.txt.gz
Total_Precipitation_Accumulation
0.28 0.27 0.29 0.49 0.49 0.53 0.55 0.59 0.60 0.80 1.04 1.29 1.64 2.11 2.65 2.39 2.05 1.87 1.88 1.82 1.66 1.52 1.66 1.64 1.51 1.58 1.68 1.37 1.25 1.29 1.20 1.25 1.24 0.84 0.80 0.87 0.82 0.61 0.47 0.53 0.62 0.73 0.81
0.74 0.61 0.57 0.71 0.70 0.70 0.87 0.89 0.98 1.16 1.26 1.50 1.82 2.20 2.51 2.81 2.67 2.36 2.03 1.82 1.76 1.52 1.45 1.77 1.62 1.73 1.97 1.83 1.69 1.40 1.28 1.21 1.54 1.23 1.17 1.31 1.57 1.42 0.99 0.69 0.52 0.50 0.62
0.58 0.98 0.92 1.02 0.82 1.09 1.18 1.42 1.66 1.72 1.79 1.82 1.85 1.94 2.10 2.23 2.48 2.22 1.78 1.42 1.39 1.31 1.16 1.18 1.24 1.46 1.47 1.56 1.59 1.37 1.32 1.55 1.88 1.70 1.45 1.29 1.25 1.28 1.18 1.06 0.84 0.57 0.49
0.64 0.67 0.63 0.76 1.03 1.24 1.25 1.33 1.70 1.85 1.65 1.36 1.29 1.25 1.01 1.04 1.39 1.54 1.66 1.63 1.39 1.34 1.30 1.24 1.14 1.27 1.21 1.38 1.75 1.90 1.80 1.98 1.94 1.67 1.60 1.51 1.23 1.11 1.14 1.21 1.28 1.13 0.95
0.68 0.69 0.59 0.72 1.12 1.31 1.61 1.60 1.34 1.06 0.94 0.85 0.75 0.72 0.70 0.86 1.27 1.37 1.42 1.45 1.66 1.54 1.37 1.38 1.41 1.63 1.67 1.56 1.49 1.52 1.79 1.67 1.78 2.16 2.21 1.86 1.66 1.59 1.42 1.27 1.22 1.20 1.23
0.50 0.46 0.60 0.75 0.67 0.74 0.71 0.63 0.67 0.82 0.86 0.72 0.51 0.46 0.45 0.54 1.08 1.30 1.54 1.42 1.55 1.89 1.65 1.30 1.25 1.59 1.47 1.83 1.83 1.86 1.78 1.69 1.56 1.48 1.47 1.41 1.36 1.31 1.51 1.80 1.85 1.57 1.39
0.35 0.35 0.38 0.39 0.38 0.33 0.26 0.28 0.33 0.38 0.44 0.58 0.68 0.52 0.34 0.52 1.02 0.91 1.35 1.19 1.22 1.54 1.73 1.70 1.79 2.01 1.96 1.57 1.90 1.93 2.08 2.03 1.59 1.36 1.35 1.09 1.08 1.04 1.17 1.48 1.33 1.27 1.19
0.37 0.26 0.18 0.15 0.14 0.17 0.27 0.34 0.35 0.33 0.26 0.25 0.36 0.75 1.09 1.01 1.03 0.89 1.11 1.00 1.05 1.28 1.46 1.66 1.89 2.09 1.99 1.72 1.81 1.99 1.72 1.44 1.30 1.11 1.06 0.95 0.79 0.89 1.24 1.46 1.71 2.00 1.79
0.46 0.34 0.20 0.15 0.16 0.26 0.40 0.47 0.39 0.34 0.41 0.35 0.34 0.39 0.52 0.90 1.22 0.71 0.61 0.67 0.79 0.82 0.98 1.22 1.49 1.82 2.49 2.09 1.91 2.09 1.83 1.51 1.49 1.52 1.37 1.25 1.35 1.48 1.49 1.82 2.03 2.00 1.73
0.54 0.41 0.39 0.30 0.28 0.36 0.35 0.28 0.28 0.38 0.39 0.52 0.60 0.43 0.55 0.34 0.77 0.69 0.47 0.33 0.65 0.67 0.69 0.96 1.38 1.25 1.56 1.49 1.51 1.47 1.56 1.39 1.15 1.19 1.25 1.51 1.58 1.61 1.61 1.62 1.68 1.80 1.58
0.70 0.62 0.48 0.38 0.38 0.32 0.27 0.27 0.33 0.38 0.45 0.43 0.42 0.51 0.50 0.40 0.51 0.62 0.65 0.41 0.53 0.61 0.51 0.48 0.61 0.93 0.95 1.06 1.19 1.27 1.35 1.11 1.12 1.17 1.25 1.15 1.12 1.26 1.34 1.44 1.56 1.83 1.61
1.27 0.84 0.78 0.64 0.39 0.31 0.26 0.25 0.31 0.40 0.45 0.44 0.40 0.36 0.42 0.62 0.78 0.68 0.65 0.69 0.73 0.85 0.90 0.89 0.91 0.78 0.67 0.76 0.92 1.17 1.19 1.07 1.13 1.29 1.37 1.31 1.27 1.20 1.13 1.06 1.09 1.19 1.18
1.83 1.81 1.36 0.89 0.75 0.69 0.66 0.60 0.52 0.48 0.46 0.49 0.51 0.52 0.54 0.56 0.82 0.96 0.87 0.88 0.82 0.81 0.90 0.97 0.96 0.87 0.74 0.73 0.73 0.82 0.94 1.14 1.22 1.25 1.20 1.06 1.00 1.00 1.03 1.19 1.30 1.33 1.35
0.92 1.50 1.87 1.89 1.13 0.98 1.14 1.13 1.27 1.24 0.98 0.95 1.04 1.06 0.99 0.88 0.80 0.78 0.85 0.91 0.97 0.95 0.92 0.79 0.77 0.76 0.79 0.92 0.94 0.84 0.88 0.94 0.99 1.09 1.02 0.93 0.86 0.93 1.05 1.08 1.17 1.23 1.66
0.57 0.98 1.28 1.96 1.92 1.10 1.00 1.21 1.16 1.45 1.55 1.29 1.16 1.22 1.30 1.36 1.35 1.40 1.25 1.14 1.10 1.02 0.98 1.02 0.91 0.72 0.62 0.56 0.52 0.43 0.44 0.50 0.59 0.58 0.67 0.75 0.88 0.87 0.87 0.92 1.01 1.02 1.26
0.50 0.91 1.21 1.47 2.04 2.04 1.45 1.66 1.99 2.12 2.07 2.16 2.21 1.97 2.05 2.00 1.86 1.51 1.36 1.33 1.20 1.01 0.89 0.70 0.60 0.57 0.56 0.51 0.56 0.60 0.46 0.45 0.36 0.39 0.49 0.48 0.59 0.74 0.75 0.83 0.93 0.99 0.94
0.45 0.59 0.94 1.33 1.73 1.93 2.03 1.81 1.88 2.06 1.99 1.95 1.94 1.77 1.65 1.85 1.79 1.60 1.34 1.19 1.08 0.87 0.91 0.78 0.73 0.69 0.68 0.63 0.58 0.55 0.58 0.62 0.56 0.56 0.58 0.56 0.49 0.52 0.72 0.61 0.70 0.88 0.90
0.87 1.15 1.20 1.35 1.76 2.08 2.20 2.14 2.01 1.79 1.64 1.87 1.92 1.90 1.93 1.82 1.83 1.72 1.49 1.17 1.06 0.93 0.92 0.91 0.87 0.77 0.72 0.66 0.60 0.59 0.57 0.54 0.50 0.48 0.63 0.64 0.62 0.60 0.60 0.55 0.54 0.60 0.66
1.42 1.45 1.50 1.64 1.67 1.74 1.85 1.86 1.76 1.71 1.68 1.72 1.65 1.46 1.44 1.42 1.28 1.21 1.18 1.27 1.17 1.05 0.96 1.02 1.06 0.97 0.87 0.77 0.73 0.68 0.66 0.65 0.60 0.57 0.57 0.54 0.53 0.58 0.59 0.57 0.58 0.60 0.57
1.22 1.08 0.92 0.94 1.17 1.31 1.31 1.36 1.49 1.53 1.55 1.54 1.53 1.59 1.30 1.02 1.13 1.25 1.32 1.40 1.52 1.58 1.50 1.39 1.27 1.26 1.22 1.13 1.06 0.97 0.87 0.80 0.73 0.66 0.65 0.62 0.63 0.62 0.58 0.60 0.63 0.71 0.71
0.71 0.71 0.65 0.65 0.69 0.77 0.94 1.07 1.14 1.15 1.20 1.20 1.30 1.36 1.37 1.43 1.49 1.44 1.49 1.52 1.46 1.41 1.40 1.35 1.26 1.16 1.12 1.09 1.05 1.02 0.96 0.94 0.88 0.81 0.77 0.74 0.73 0.73 0.69 0.66 0.62 0.55 0.51
0.42 0.43 0.49 0.57 0.59 0.63 0.70 0.75 0.74 0.74 0.82 0.87 0.96 0.96 0.92 1.04 1.13 1.19 1.26 1.28 1.25 1.17 1.12 1.07 1.02 1.03 1.05 1.01 0.97 0.91 0.83 0.81 0.82 0.80 0.75 0.69 0.68 0.66 0.67 0.67 0.64 0.65 0.62
0.34 0.38 0.39 0.40 0.47 0.50 0.52 0.62 0.67 0.64 0.64 0.70 0.73 0.76 0.79 0.91 0.94 0.94 0.94 0.97 0.94 0.95 0.94 0.93 0.88 0.82 0.75 0.77 0.81 0.85 0.85 0.84 0.85 0.80 0.78 0.73 0.69 0.65 0.66 0.70 0.67 0.66 0.61
0.23 0.28 0.29 0.35 0.44 0.47 0.56 0.60 0.55 0.51 0.54 0.60 0.63 0.68 0.74 0.79 0.84 0.84 0.84 0.82 0.77 0.74 0.70 0.71 0.71 0.70 0.66 0.66 0.67 0.69 0.74 0.77 0.78 0.76 0.72 0.68 0.66 0.65 0.68 0.67 0.65 0.65 0.66
0.28 0.32 0.37 0.43 0.41 0.42 0.41 0.40 0.44 0.44 0.48 0.49 0.53 0.55 0.57 0.58 0.59 0.61 0.62 0.62 0.60 0.56 0.57 0.58 0.64 0.65 0.63 0.63 0.65 0.62 0.63 0.63 0.66 0.62 0.61 0.57 0.54 0.54 0.58 0.61 0.61 0.62 0.62
0.30 0.31 0.29 0.27 0.30 0.31 0.33 0.35 0.36 0.37 0.41 0.40 0.40 0.43 0.44 0.45 0.46 0.45 0.44 0.42 0.42 0.44 0.42 0.44 0.46 0.44 0.43 0.47 0.52 0.49 0.49 0.51 0.55 0.55 0.56 0.49 0.46 0.47 0.47 0.48 0.45 0.47 0.45

GFSGL_prec_precacc_159.txt.gz
Total_Precipitation_Accumulation
0.28 0.27 0.29 0.49 0.49 0.53 0.55 0.59 0.60 0.80 1.04 1.30 1.65 2.15 2.69 2.40 2.06 1.88 1.88 1.83 1.69 1.55 1.73 1.73 1.59 1.63 1.72 1.40 1.28 1.31 1.22 1.25 1.24 0.84 0.80 0.87 0.83 0.62 0.48 0.55 0.65 0.78 0.85
0.74 0.61 0.57 0.71 0.70 0.70 0.87 0.89 0.99 1.17 1.27 1.54 1.86 2.27 2.59 2.86 2.70 2.38 2.03 1.84 1.80 1.56 1.50 1.81 1.67 1.79 2.01 1.84 1.70 1.41 1.29 1.22 1.55 1.24 1.17 1.31 1.57 1.42 1.00 0.70 0.53 0.52 0.64
0.58 0.98 0.92 1.02 0.82 1.09 1.18 1.43 1.66 1.73 1.82 1.88 1.92 2.04 2.19 2.28 2.56 2.32 1.84 1.49 1.49 1.39 1.23 1.24 1.26 1.47 1.48 1.57 1.61 1.39 1.34 1.56 1.90 1.71 1.45 1.29 1.25 1.28 1.19 1.07 0.84 0.58 0.49
0.64 0.67 0.63 0.76 1.03 1.24 1.25 1.33 1.71 1.87 1.69 1.42 1.38 1.36 1.10 1.10 1.49 1.75 1.84 1.82 1.63 1.50 1.39 1.31 1.17 1.30 1.23 1.40 1.77 1.92 1.81 2.00 1.97 1.70 1.62 1.53 1.25 1.12 1.16 1.24 1.31 1.15 0.96
0.68 0.69 0.59 0.72 1.12 1.31 1.61 1.60 1.34 1.07 0.96 0.93 0.84 0.79 0.78 0.93 1.34 1.47 1.60 1.64 1.84 1.80 1.56 1.49 1.48 1.70 1.73 1.62 1.53 1.53 1.80 1.67 1.79 2.18 2.23 1.87 1.68 1.62 1.48 1.33 1.28 1.25 1.29
0.50 0.46 0.60 0.75 0.67 0.74 0.71 0.63 0.67 0.82 0.87 0.76 0.58 0.54 0.53 0.64 1.19 1.42 1.68 1.69 1.79 2.05 1.79 1.42 1.35 1.66 1.51 1.87 1.87 1.90 1.79 1.69 1.56 1.48 1.48 1.43 1.38 1.33 1.54 1.87 1.92 1.62 1.43
0.35 0.35 0.38 0.39 0.38 0.33 0.26 0.28 0.33 0.38 0.44 0.58 0.70 0.55 0.37 0.59 1.12 0.98 1.42 1.40 1.60 1.93 1.96 1.90 1.91 2.05 2.00 1.58 1.91 1.94 2.08 2.03 1.60 1.37 1.35 1.09 1.08 1.05 1.19 1.51 1.36 1.28 1.20
0.37 0.26 0.18 0.15 0.14 0.17 0.27 0.34 0.35 0.33 0.26 0.25 0.36 0.75 1.09 1.02 1.07 0.91 1.13 1.02 1.15 1.59 1.82 1.87 2.03 2.16 2.01 1.74 1.82 1.99 1.72 1.44 1.30 1.11 1.06 0.95 0.79 0.89 1.24 1.47 1.72 2.01 1.83
0.46 0.34 0.20 0.15 0.16 0.26 0.40 0.47 0.39 0.35 0.41 0.35 0.34 0.39 0.52 0.90 1.22 0.72 0.62 0.69 0.81 0.86 1.10 1.39 1.59 1.87 2.51 2.10 1.91 2.09 1.83 1.51 1.49 1.52 1.37 1.25 1.35 1.48 1.50 1.84 2.04 2.01 1.74
0.54 0.41 0.39 0.30 0.28 0.36 0.35 0.28 0.28 0.38 0.39 0.52 0.60 0.43 0.55 0.34 0.77 0.70 0.47 0.33 0.65 0.69 0.70 1.00 1.44 1.30 1.61 1.51 1.52 1.47 1.56 1.39 1.15 1.19 1.25 1.51 1.58 1.61 1.61 1.62 1.68 1.81 1.59
0.70 0.62 0.48 0.38 0.38 0.32 0.27 0.27 0.33 0.38 0.45 0.43 0.43 0.51 0.50 0.40 0.51 0.63 0.65 0.42 0.53 0.62 0.52 0.48 0.62 0.95 0.97 1.07 1.19 1.28 1.35 1.11 1.12 1.17 1.25 1.15 1.12 1.26 1.34 1.44 1.56 1.84 1.62
1.27 0.84 0.78 0.64 0.39 0.31 0.26 0.25 0.31 0.40 0.45 0.44 0.40 0.36 0.42 0.62 0.78 0.69 0.65 0.69 0.73 0.86 0.91 0.89 0.92 0.78 0.67 0.76 0.92 1.17 1.19 1.07 1.13 1.29 1.37 1.31 1.27 1.20 1.13 1.06 1.09 1.20 1.20
1.83 1.81 1.36 0.89 0.75 0.69 0.66 0.60 0.52 0.48 0.46 0.50 0.52 0.52 0.54 0.56 0.83 0.96 0.87 0.89 0.82 0.81 0.91 0.97 0.97 0.87 0.74 0.73 0.73 0.82 0.94 1.14 1.22 1.25 1.20 1.06 1.00 1.00 1.03 1.19 1.30 1.33 1.36
0.92 1.50 1.87 1.89 1.13 0.98 1.14 1.13 1.28 1.25 0.99 0.96 1.04 1.06 0.99 0.88 0.80 0.79 0.85 0.91 0.97 0.95 0.92 0.79 0.77 0.76 0.79 0.92 0.94 0.84 0.88 0.94 1.00 1.09 1.02 0.93 0.86 0.93 1.05 1.08 1.17 1.23 1.66
0.57 0.98 1.28 1.96 1.92 1.10 1.00 1.21 1.16 1.45 1.56 1.31 1.17 1.22 1.31 1.37 1.36 1.40 1.25 1.14 1.10 1.02 0.98 1.02 0.91 0.72 0.62 0.56 0.52 0.43 0.44 0.50 0.59 0.59 0.67 0.75 0.88 0.87 0.87 0.92 1.01 1.02 1.26
0.50 0.91 1.21 1.47 2.04 2.04 1.45 1.66 1.99 2.12 2.07 2.17 2.21 1.97 2.05 2.01 1.86 1.51 1.36 1.33 1.20 1.01 0.89 0.70 0.60 0.58 0.56 0.51 0.57 0.61 0.47 0.45 0.37 0.39 0.49 0.48 0.59 0.74 0.75 0.83 0.93 0.99 0.94
0.45 0.59 0.94 1.33 1.73 1.93 2.03 1.82 1.89 2.06 1.99 1.95 1.94 1.77 1.65 1.85 1.79 1.60 1.34 1.19 1.08 0.87 0.91 0.78 0.73 0.69 0.69 0.63 0.58 0.55 0.58 0.62 0.56 0.56 0.58 0.57 0.49 0.53 0.72 0.61 0.70 0.88 0.90
0.87 1.15 1.20 1.35 1.77 2.08 2.20 2.14 2.02 1.79 1.64 1.87 1.92 1.90 1.93 1.82 1.84 1.72 1.49 1.17 1.06 0.93 0.92 0.91 0.88 0.78 0.72 0.67 0.61 0.60 0.57 0.54 0.50 0.49 0.64 0.64 0.62 0.60 0.60 0.56 0.55 0.61 0.66
1.42 1.45 1.50 1.64 1.67 1.75 1.85 1.87 1.77 1.71 1.68 1.72 1.65 1.46 1.44 1.42 1.28 1.21 1.18 1.27 1.17 1.05 0.97 1.02 1.06 0.98 0.87 0.77 0.73 0.68 0.66 0.65 0.60 0.57 0.57 0.55 0.53 0.59 0.60 0.57 0.58 0.60 0.58
1.22 1.08 0.92 0.94 1.17 1.31 1.31 1.37 1.50 1.53 1.55 1.54 1.53 1.59 1.30 1.02 1.13 1.25 1.32 1.40 1.53 1.58 1.51 1.39 1.27 1.26 1.22 1.13 1.06 0.97 0.88 0.81 0.73 0.66 0.65 0.62 0.64 0.63 0.59 0.60 0.63 0.71 0.72
0.71 0.71 0.65 0.65 0.69 0.77 0.94 1.08 1.15 1.16 1.20 1.20 1.30 1.36 1.37 1.43 1.49 1.44 1.49 1.53 1.47 1.42 1.41 1.35 1.26 1.17 1.12 1.09 1.06 1.02 0.96 0.95 0.89 0.82 0.77 0.74 0.73 0.74 0.69 0.67 0.63 0.56 0.52
0.42 0.43 0.49 0.57 0.59 0.63 0.70 0.76 0.74 0.75 0.83 0.87 0.96 0.96 0.92 1.04 1.13 1.19 1.27 1.29 1.25 1.18 1.12 1.07 1.03 1.03 1.06 1.02 0.98 0.92 0.84 0.81 0.82 0.81 0.75 0.70 0.69 0.66 0.68 0.67 0.65 0.66 0.64
0.34 0.38 0.39 0.40 0.47 0.50 0.52 0.62 0.68 0.65 0.65 0.71 0.73 0.76 0.79 0.91 0.94 0.94 0.94 0.97 0.94 0.95 0.95 0.93 0.89 0.82 0.75 0.77 0.82 0.86 0.87 0.85 0.86 0.82 0.79 0.73 0.69 0.66 0.67 0.71 0.69 0.68 0.63
0.23 0.28 0.29 0.35 0.44 0.47 0.56 0.60 0.55 0.51 0.55 0.60 0.63 0.68 0.74 0.80 0.85 0.84 0.84 0.82 0.77 0.74 0.70 0.71 0.72 0.70 0.66 0.66 0.68 0.69 0.75 0.79 0.79 0.77 0.74 0.69 0.67 0.66 0.69 0.68 0.67 0.68 0.69
0.28 0.32 0.37 0.43 0.41 0.42 0.41 0.40 0.44 0.44 0.49 0.49 0.53 0.55 0.57 0.59 0.59 0.61 0.62 0.62 0.60 0.56 0.57 0.58 0.64 0.65 0.63 0.64 0.65 0.63 0.63 0.64 0.66 0.63 0.62 0.58 0.55 0.55 0.59 0.63 0.63 0.65 0.66
0.30 0.31 0.29 0.27 0.30 0.31 0.33 0.35 0.36 0.37 0.41 0.40 0.41 0.43 0.45 0.46 0.47 0.45 0.44 0.42 0.43 0.44 0.42 0.44 0.46 0.44 0.43 0.47 0.52 0.49 0.49 0.52 0.55 0.55 0.56 0.49 0.47 0.48 0.49 0.50 0.48 0.51 0.50